Wetterdaten: Freitag, 17.03.2017
Datum Zeit Temp. A. Temp. A. max Feuchte A. Luftdruck Regen Wind Richtung Richtung Sonnenschein ET UV Solar Taupunkt Windchill Windböen
17.03.2017 00:00 2,3 °C 2,3 °C 86 % 1020,9 hPa 0,0 mm 0,0 km/h (0 Bft) W 269 ° 0 min 0,000 mm 0,0 UV-I 0 W/m² 0,2 °C 2,3 °C 0,0 km/h (0 Bft)
17.03.2017 00:01 2,3 °C 2,3 °C 86 % 1020,9 hPa 0,0 mm 0,0 km/h (0 Bft) W 269 ° 0 min 0,000 mm 0,0 UV-I 0 W/m² 0,2 °C 2,3 °C 0,0 km/h (0 Bft)
17.03.2017 00:02 2,3 °C 2,3 °C 86 % 1020,9 hPa 0,0 mm 0,1 km/h (0 Bft) W 269 ° 0 min 0,000 mm 0,0 UV-I 0 W/m² 0,2 °C 2,3 °C 1,6 km/h (1 Bft)
17.03.2017 00:03 2,3 °C 2,3 °C 86 % 1020,9 hPa 0,0 mm 0,1 km/h (0 Bft) W 269 ° 0 min 0,000 mm 0,0 UV-I 0 W/m² 0,2 °C 2,3 °C 1,6 km/h (1 Bft)
17.03.2017 00:04 2,3 °C 2,3 °C 86 % 1020,9 hPa 0,0 mm 0,1 km/h (0 Bft) W 269 ° 0 min 0,000 mm 0,0 UV-I 0 W/m² 0,2 °C 2,3 °C 1,6 km/h (1 Bft)
17.03.2017 00:05 2,3 °C 2,3 °C 86 % 1020,9 hPa 0,0 mm 0,0 km/h (0 Bft) W 269 ° 0 min 0,000 mm 0,0 UV-I 0 W/m² 0,2 °C 2,3 °C 0,0 km/h (0 Bft)
17.03.2017 00:06 2,4 °C 2,4 °C 86 % 1020,9 hPa 0,0 mm 0,1 km/h (0 Bft) W 269 ° 0 min 0,000 mm 0,0 UV-I 0 W/m² 0,3 °C 2,4 °C 1,6 km/h (1 Bft)
17.03.2017 00:07 2,4 °C 2,4 °C 86 % 1020,9 hPa 0,0 mm 0,0 km/h (0 Bft) W 269 ° 0 min 0,000 mm 0,0 UV-I 0 W/m² 0,3 °C 2,4 °C 0,0 km/h (0 Bft)
17.03.2017 00:08 2,4 °C 2,4 °C 85 % 1020,9 hPa 0,0 mm 0,0 km/h (0 Bft) W 269 ° 0 min 0,000 mm 0,0 UV-I 0 W/m² 0,1 °C 2,4 °C 0,0 km/h (0 Bft)
17.03.2017 00:09 2,3 °C 2,4 °C 85 % 1020,8 hPa 0,0 mm 0,0 km/h (0 Bft) W 269 ° 0 min 0,000 mm 0,0 UV-I 0 W/m² 0,0 °C 2,3 °C 0,0 km/h (0 Bft)
17.03.2017 00:10 2,3 °C 2,3 °C 85 % 1020,9 hPa 0,0 mm 0,0 km/h (0 Bft) W 269 ° 0 min 0,000 mm 0,0 UV-I 0 W/m² 0,0 °C 2,3 °C 0,0 km/h (0 Bft)
17.03.2017 00:11 2,3 °C 2,3 °C 86 % 1020,9 hPa 0,0 mm 0,0 km/h (0 Bft) W 269 ° 0 min 0,000 mm 0,0 UV-I 0 W/m² 0,2 °C 2,3 °C 0,0 km/h (0 Bft)
17.03.2017 00:12 2,3 °C 2,3 °C 85 % 1020,8 hPa 0,0 mm 0,0 km/h (0 Bft) W 269 ° 0 min 0,000 mm 0,0 UV-I 0 W/m² 0,0 °C 2,3 °C 0,0 km/h (0 Bft)
17.03.2017 00:13 2,2 °C 2,3 °C 85 % 1020,9 hPa 0,0 mm 0,0 km/h (0 Bft) W 269 ° 0 min 0,000 mm 0,0 UV-I 0 W/m² -0,1 °C 2,2 °C 0,0 km/h (0 Bft)
17.03.2017 00:14 2,2 °C 2,2 °C 85 % 1020,8 hPa 0,0 mm 0,1 km/h (0 Bft) W 269 ° 0 min 0,000 mm 0,0 UV-I 0 W/m² -0,1 °C 2,2 °C 1,6 km/h (1 Bft)
17.03.2017 00:15 2,1 °C 2,2 °C 85 % 1020,8 hPa 0,0 mm 0,3 km/h (0 Bft) W 269 ° 0 min 0,000 mm 0,0 UV-I 0 W/m² -0,2 °C 2,1 °C 1,6 km/h (1 Bft)
17.03.2017 00:16 2,2 °C 2,2 °C 86 % 1020,8 hPa 0,0 mm 0,3 km/h (0 Bft) W 269 ° 0 min 0,000 mm 0,0 UV-I 0 W/m² 0,1 °C 2,2 °C 1,6 km/h (1 Bft)
17.03.2017 00:17 2,1 °C 2,2 °C 86 % 1020,8 hPa 0,0 mm 0,1 km/h (0 Bft) W 269 ° 0 min 0,000 mm 0,0 UV-I 0 W/m² 0,0 °C 2,1 °C 1,6 km/h (1 Bft)
17.03.2017 00:18 2,0 °C 2,1 °C 86 % 1020,8 hPa 0,0 mm 0,4 km/h (0 Bft) W 269 ° 0 min 0,000 mm 0,0 UV-I 0 W/m² -0,1 °C 2,0 °C 1,6 km/h (1 Bft)
17.03.2017 00:19 2,0 °C 2,0 °C 86 % 1020,8 hPa 0,0 mm 0,0 km/h (0 Bft) W 269 ° 0 min 0,000 mm 0,0 UV-I 0 W/m² -0,1 °C 2,0 °C 0,0 km/h (0 Bft)
17.03.2017 00:20 1,9 °C 2,0 °C 86 % 1020,8 hPa 0,0 mm 0,0 km/h (0 Bft) W 269 ° 0 min 0,000 mm 0,0 UV-I 0 W/m² -0,2 °C 1,9 °C 0,0 km/h (0 Bft)
17.03.2017 00:21 1,9 °C 2,0 °C 87 % 1020,8 hPa 0,0 mm 0,0 km/h (0 Bft) W 269 ° 0 min 0,000 mm 0,0 UV-I 0 W/m² -0,0 °C 1,9 °C 0,0 km/h (0 Bft)
17.03.2017 00:22 1,9 °C 1,9 °C 87 % 1020,8 hPa 0,0 mm 0,0 km/h (0 Bft) W 269 ° 0 min 0,000 mm 0,0 UV-I 0 W/m² -0,0 °C 1,9 °C 0,0 km/h (0 Bft)
17.03.2017 00:23 2,0 °C 2,0 °C 87 % 1020,8 hPa 0,0 mm 0,3 km/h (0 Bft) W 269 ° 0 min 0,000 mm 0,0 UV-I 0 W/m² 0,1 °C 2,0 °C 1,6 km/h (1 Bft)
17.03.2017 00:24 2,1 °C 2,1 °C 87 % 1020,7 hPa 0,0 mm 2,1 km/h (1 Bft) W 269 ° 0 min 0,000 mm 0,0 UV-I 0 W/m² 0,2 °C 2,1 °C 3,2 km/h (1 Bft)
17.03.2017 00:25 2,1 °C 2,1 °C 87 % 1020,7 hPa 0,0 mm 2,0 km/h (1 Bft) W 269 ° 0 min 0,000 mm 0,0 UV-I 0 W/m² 0,2 °C 2,1 °C 3,2 km/h (1 Bft)
17.03.2017 00:26 2,2 °C 2,2 °C 86 % 1020,8 hPa 0,0 mm 1,2 km/h (1 Bft) W 269 ° 0 min 0,000 mm 0,0 UV-I 0 W/m² 0,1 °C 2,2 °C 1,6 km/h (1 Bft)
17.03.2017 00:27 2,2 °C 2,2 °C 86 % 1020,8 hPa 0,0 mm 0,2 km/h (0 Bft) W 269 ° 0 min 0,000 mm 0,0 UV-I 0 W/m² 0,1 °C 2,2 °C 1,6 km/h (1 Bft)
17.03.2017 00:28 2,3 °C 2,3 °C 86 % 1020,7 hPa 0,0 mm 0,0 km/h (0 Bft) W 269 ° 0 min 0,000 mm 0,0 UV-I 0 W/m² 0,2 °C 2,3 °C 0,0 km/h (0 Bft)
17.03.2017 00:29 2,2 °C 2,3 °C 85 % 1020,8 hPa 0,0 mm 0,0 km/h (0 Bft) W 269 ° 0 min 0,000 mm 0,0 UV-I 0 W/m² -0,1 °C 2,2 °C 0,0 km/h (0 Bft)
17.03.2017 00:30 2,2 °C 2,2 °C 86 % 1020,7 hPa 0,0 mm 0,0 km/h (0 Bft) W 269 ° 0 min 0,000 mm 0,0 UV-I 0 W/m² 0,1 °C 2,2 °C 0,0 km/h (0 Bft)
17.03.2017 00:31 2,2 °C 2,2 °C 86 % 1020,8 hPa 0,0 mm 0,0 km/h (0 Bft) W 269 ° 0 min 0,000 mm 0,0 UV-I 0 W/m² 0,1 °C 2,2 °C 0,0 km/h (0 Bft)
17.03.2017 00:32 2,2 °C 2,2 °C 86 % 1020,8 hPa 0,0 mm 0,6 km/h (0 Bft) W 269 ° 0 min 0,000 mm 0,0 UV-I 0 W/m² 0,1 °C 2,2 °C 1,6 km/h (1 Bft)
17.03.2017 00:33 2,2 °C 2,2 °C 86 % 1020,8 hPa 0,0 mm 0,0 km/h (0 Bft) W 269 ° 0 min 0,000 mm 0,0 UV-I 0 W/m² 0,1 °C 2,2 °C 0,0 km/h (0 Bft)
17.03.2017 00:34 2,2 °C 2,2 °C 86 % 1020,8 hPa 0,0 mm 0,0 km/h (0 Bft) W 269 ° 0 min 0,000 mm 0,0 UV-I 0 W/m² 0,1 °C 2,2 °C 0,0 km/h (0 Bft)
17.03.2017 00:35 2,1 °C 2,2 °C 86 % 1020,7 hPa 0,0 mm 0,0 km/h (0 Bft) W 269 ° 0 min 0,000 mm 0,0 UV-I 0 W/m² 0,0 °C 2,1 °C 0,0 km/h (0 Bft)
17.03.2017 00:36 2,1 °C 2,1 °C 86 % 1020,7 hPa 0,0 mm 1,3 km/h (1 Bft) W 269 ° 0 min 0,000 mm 0,0 UV-I 0 W/m² 0,0 °C 2,1 °C 3,2 km/h (1 Bft)
17.03.2017 00:37 2,1 °C 2,1 °C 87 % 1020,7 hPa 0,0 mm 0,8 km/h (0 Bft) W 269 ° 0 min 0,000 mm 0,0 UV-I 0 W/m² 0,2 °C 2,1 °C 1,6 km/h (1 Bft)
17.03.2017 00:38 2,0 °C 2,1 °C 87 % 1020,7 hPa 0,0 mm 0,0 km/h (0 Bft) W 269 ° 0 min 0,000 mm 0,0 UV-I 0 W/m² 0,1 °C 2,0 °C 0,0 km/h (0 Bft)
17.03.2017 00:39 2,0 °C 2,1 °C 87 % 1020,7 hPa 0,0 mm 0,1 km/h (0 Bft) W 269 ° 0 min 0,000 mm 0,0 UV-I 0 W/m² 0,1 °C 2,0 °C 1,6 km/h (1 Bft)
17.03.2017 00:40 2,0 °C 2,1 °C 87 % 1020,7 hPa 0,0 mm 0,0 km/h (0 Bft) W 269 ° 0 min 0,000 mm 0,0 UV-I 0 W/m² 0,1 °C 2,0 °C 0,0 km/h (0 Bft)
17.03.2017 00:41 2,0 °C 2,0 °C 87 % 1020,7 hPa 0,0 mm 0,0 km/h (0 Bft) W 269 ° 0 min 0,000 mm 0,0 UV-I 0 W/m² 0,1 °C 2,0 °C 0,0 km/h (0 Bft)
17.03.2017 00:42 1,9 °C 2,0 °C 87 % 1020,6 hPa 0,0 mm 0,1 km/h (0 Bft) W 269 ° 0 min 0,000 mm 0,0 UV-I 0 W/m² -0,0 °C 1,9 °C 1,6 km/h (1 Bft)
17.03.2017 00:43 1,9 °C 1,9 °C 87 % 1020,7 hPa 0,0 mm 0,7 km/h (0 Bft) W 269 ° 0 min 0,000 mm 0,0 UV-I 0 W/m² -0,0 °C 1,9 °C 1,6 km/h (1 Bft)
17.03.2017 00:44 1,9 °C 1,9 °C 87 % 1020,7 hPa 0,0 mm 0,4 km/h (0 Bft) W 269 ° 0 min 0,000 mm 0,0 UV-I 0 W/m² -0,0 °C 1,9 °C 1,6 km/h (1 Bft)
17.03.2017 00:45 2,1 °C 2,1 °C 88 % 1020,5 hPa 0,0 mm 0,0 km/h (0 Bft) W 269 ° 0 min 0,000 mm 0,0 UV-I 0 W/m² 0,3 °C 2,1 °C 0,0 km/h (0 Bft)
17.03.2017 00:46 2,1 °C 2,1 °C 88 % 1020,6 hPa 0,0 mm 0,0 km/h (0 Bft) W 269 ° 0 min 0,000 mm 0,0 UV-I 0 W/m² 0,3 °C 2,1 °C 0,0 km/h (0 Bft)
17.03.2017 00:47 2,2 °C 2,2 °C 87 % 1020,6 hPa 0,0 mm 0,0 km/h (0 Bft) W 269 ° 0 min 0,000 mm 0,0 UV-I 0 W/m² 0,3 °C 2,2 °C 0,0 km/h (0 Bft)
17.03.2017 00:48 2,2 °C 2,2 °C 86 % 1020,6 hPa 0,0 mm 0,6 km/h (0 Bft) W 269 ° 0 min 0,000 mm 0,0 UV-I 0 W/m² 0,1 °C 2,2 °C 1,6 km/h (1 Bft)
17.03.2017 00:49 2,2 °C 2,2 °C 86 % 1020,7 hPa 0,0 mm 0,8 km/h (0 Bft) W 269 ° 0 min 0,000 mm 0,0 UV-I 0 W/m² 0,1 °C 2,2 °C 1,6 km/h (1 Bft)
17.03.2017 00:50 2,1 °C 2,2 °C 86 % 1020,6 hPa 0,0 mm 0,5 km/h (0 Bft) W 269 ° 0 min 0,000 mm 0,0 UV-I 0 W/m² 0,0 °C 2,1 °C 1,6 km/h (1 Bft)
17.03.2017 00:51 2,0 °C 2,1 °C 86 % 1020,6 hPa 0,0 mm 0,4 km/h (0 Bft) W 269 ° 0 min 0,000 mm 0,0 UV-I 0 W/m² -0,1 °C 2,0 °C 1,6 km/h (1 Bft)
17.03.2017 00:52 2,0 °C 2,0 °C 86 % 1020,7 hPa 0,0 mm 0,2 km/h (0 Bft) W 269 ° 0 min 0,000 mm 0,0 UV-I 0 W/m² -0,1 °C 2,0 °C 1,6 km/h (1 Bft)
17.03.2017 00:53 1,9 °C 2,0 °C 87 % 1020,6 hPa 0,0 mm 0,1 km/h (0 Bft) W 269 ° 0 min 0,000 mm 0,0 UV-I 0 W/m² -0,0 °C 1,9 °C 1,6 km/h (1 Bft)
17.03.2017 00:54 1,9 °C 2,0 °C 86 % 1020,6 hPa 0,0 mm 0,3 km/h (0 Bft) W 269 ° 0 min 0,000 mm 0,0 UV-I 0 W/m² -0,2 °C 1,9 °C 1,6 km/h (1 Bft)
17.03.2017 00:55 2,0 °C 2,0 °C 87 % 1020,6 hPa 0,0 mm 2,1 km/h (1 Bft) W 268 ° 0 min 0,000 mm 0,0 UV-I 0 W/m² 0,1 °C 2,0 °C 3,2 km/h (1 Bft)
17.03.2017 00:56 2,1 °C 2,1 °C 88 % 1020,6 hPa 0,0 mm 1,0 km/h (0 Bft) W 268 ° 0 min 0,000 mm 0,0 UV-I 0 W/m² 0,3 °C 2,1 °C 1,6 km/h (1 Bft)
17.03.2017 00:57 2,2 °C 2,2 °C 87 % 1020,5 hPa 0,0 mm 0,6 km/h (0 Bft) W 268 ° 0 min 0,000 mm 0,0 UV-I 0 W/m² 0,3 °C 2,2 °C 1,6 km/h (1 Bft)
17.03.2017 00:58 2,2 °C 2,2 °C 87 % 1020,6 hPa 0,0 mm 1,5 km/h (1 Bft) W 268 ° 0 min 0,000 mm 0,0 UV-I 0 W/m² 0,3 °C 2,2 °C 3,2 km/h (1 Bft)
17.03.2017 00:59 2,2 °C 2,2 °C 87 % 1020,5 hPa 0,0 mm 0,5 km/h (0 Bft) W 268 ° 0 min 0,000 mm 0,0 UV-I 0 W/m² 0,3 °C 2,2 °C 1,6 km/h (1 Bft)
17.03.2017 01:00 2,2 °C 2,3 °C 86 % 1020,5 hPa 0,0 mm 0,0 km/h (0 Bft) W 269 ° 0 min 0,000 mm 0,0 UV-I 0 W/m² 0,1 °C 2,2 °C 0,0 km/h (0 Bft)
17.03.2017 01:01 2,2 °C 2,3 °C 86 % 1020,5 hPa 0,0 mm 0,1 km/h (0 Bft) W 269 ° 0 min 0,000 mm 0,0 UV-I 0 W/m² 0,1 °C 2,2 °C 1,6 km/h (1 Bft)
17.03.2017 01:02 2,2 °C 2,2 °C 86 % 1020,5 hPa 0,0 mm 0,8 km/h (0 Bft) W 269 ° 0 min 0,000 mm 0,0 UV-I 0 W/m² 0,1 °C 2,2 °C 1,6 km/h (1 Bft)
17.03.2017 01:03 2,1 °C 2,2 °C 86 % 1020,5 hPa 0,0 mm 0,3 km/h (0 Bft) W 268 ° 0 min 0,000 mm 0,0 UV-I 0 W/m² 0,0 °C 2,1 °C 1,6 km/h (1 Bft)
17.03.2017 01:04 2,0 °C 2,1 °C 86 % 1020,5 hPa 0,0 mm 0,2 km/h (0 Bft) W 268 ° 0 min 0,000 mm 0,0 UV-I 0 W/m² -0,1 °C 2,0 °C 1,6 km/h (1 Bft)
17.03.2017 01:05 2,0 °C 2,0 °C 86 % 1020,5 hPa 0,0 mm 0,5 km/h (0 Bft) W 269 ° 0 min 0,000 mm 0,0 UV-I 0 W/m² -0,1 °C 2,0 °C 1,6 km/h (1 Bft)
17.03.2017 01:06 2,0 °C 2,0 °C 87 % 1020,4 hPa 0,0 mm 0,1 km/h (0 Bft) W 269 ° 0 min 0,000 mm 0,0 UV-I 0 W/m² 0,1 °C 2,0 °C 1,6 km/h (1 Bft)
17.03.2017 01:07 2,0 °C 2,0 °C 87 % 1020,4 hPa 0,0 mm 1,1 km/h (1 Bft) W 268 ° 0 min 0,000 mm 0,0 UV-I 0 W/m² 0,1 °C 2,0 °C 1,6 km/h (1 Bft)
17.03.2017 01:08 2,1 °C 2,1 °C 87 % 1020,4 hPa 0,0 mm 0,0 km/h (0 Bft) W 269 ° 0 min 0,000 mm 0,0 UV-I 0 W/m² 0,2 °C 2,1 °C 0,0 km/h (0 Bft)
17.03.2017 01:09 2,1 °C 2,1 °C 86 % 1020,4 hPa 0,0 mm 0,3 km/h (0 Bft) W 269 ° 0 min 0,000 mm 0,0 UV-I 0 W/m² 0,0 °C 2,1 °C 1,6 km/h (1 Bft)
17.03.2017 01:10 2,1 °C 2,1 °C 86 % 1020,4 hPa 0,0 mm 0,5 km/h (0 Bft) W 269 ° 0 min 0,000 mm 0,0 UV-I 0 W/m² 0,0 °C 2,1 °C 1,6 km/h (1 Bft)
17.03.2017 01:11 2,0 °C 2,1 °C 86 % 1020,4 hPa 0,0 mm 0,1 km/h (0 Bft) W 269 ° 0 min 0,000 mm 0,0 UV-I 0 W/m² -0,1 °C 2,0 °C 1,6 km/h (1 Bft)
17.03.2017 01:12 1,9 °C 2,0 °C 86 % 1020,4 hPa 0,0 mm 0,9 km/h (0 Bft) W 269 ° 0 min 0,000 mm 0,0 UV-I 0 W/m² -0,2 °C 1,9 °C 1,6 km/h (1 Bft)
17.03.2017 01:13 1,9 °C 1,9 °C 86 % 1020,4 hPa 0,0 mm 0,3 km/h (0 Bft) W 268 ° 0 min 0,000 mm 0,0 UV-I 0 W/m² -0,2 °C 1,9 °C 1,6 km/h (1 Bft)
17.03.2017 01:14 1,9 °C 1,9 °C 86 % 1020,4 hPa 0,0 mm 0,0 km/h (0 Bft) W 268 ° 0 min 0,000 mm 0,0 UV-I 0 W/m² -0,2 °C 1,9 °C 0,0 km/h (0 Bft)
17.03.2017 01:15 1,8 °C 1,9 °C 85 % 1020,4 hPa 0,0 mm 0,7 km/h (0 Bft) W 268 ° 0 min 0,000 mm 0,0 UV-I 0 W/m² -0,4 °C 1,8 °C 3,2 km/h (1 Bft)
17.03.2017 01:16 1,8 °C 1,8 °C 86 % 1020,4 hPa 0,0 mm 0,8 km/h (0 Bft) W 268 ° 0 min 0,000 mm 0,0 UV-I 0 W/m² -0,3 °C 1,8 °C 1,6 km/h (1 Bft)
17.03.2017 01:17 1,9 °C 1,9 °C 86 % 1020,3 hPa 0,0 mm 0,2 km/h (0 Bft) W 268 ° 0 min 0,000 mm 0,0 UV-I 0 W/m² -0,2 °C 1,9 °C 1,6 km/h (1 Bft)
17.03.2017 01:18 2,0 °C 2,0 °C 86 % 1020,3 hPa 0,0 mm 0,6 km/h (0 Bft) W 269 ° 0 min 0,000 mm 0,0 UV-I 0 W/m² -0,1 °C 2,0 °C 1,6 km/h (1 Bft)
17.03.2017 01:19 1,9 °C 2,0 °C 86 % 1020,3 hPa 0,0 mm 0,1 km/h (0 Bft) W 268 ° 0 min 0,000 mm 0,0 UV-I 0 W/m² -0,2 °C 1,9 °C 1,6 km/h (1 Bft)
17.03.2017 01:20 1,9 °C 2,0 °C 86 % 1020,3 hPa 0,0 mm 0,0 km/h (0 Bft) W 268 ° 0 min 0,000 mm 0,0 UV-I 0 W/m² -0,2 °C 1,9 °C 0,0 km/h (0 Bft)
17.03.2017 01:21 1,9 °C 1,9 °C 86 % 1020,3 hPa 0,0 mm 1,3 km/h (1 Bft) W 268 ° 0 min 0,000 mm 0,0 UV-I 0 W/m² -0,2 °C 1,9 °C 3,2 km/h (1 Bft)
17.03.2017 01:22 2,0 °C 2,0 °C 86 % 1020,3 hPa 0,0 mm 0,4 km/h (0 Bft) W 268 ° 0 min 0,000 mm 0,0 UV-I 0 W/m² -0,1 °C 2,0 °C 1,6 km/h (1 Bft)
17.03.2017 01:23 2,1 °C 2,1 °C 86 % 1020,3 hPa 0,0 mm 0,0 km/h (0 Bft) W 269 ° 0 min 0,000 mm 0,0 UV-I 0 W/m² 0,0 °C 2,1 °C 0,0 km/h (0 Bft)
17.03.2017 01:24 2,1 °C 2,1 °C 86 % 1020,3 hPa 0,0 mm 0,3 km/h (0 Bft) W 269 ° 0 min 0,000 mm 0,0 UV-I 0 W/m² 0,0 °C 2,1 °C 1,6 km/h (1 Bft)
17.03.2017 01:25 2,1 °C 2,1 °C 85 % 1020,3 hPa 0,0 mm 0,8 km/h (0 Bft) W 268 ° 0 min 0,000 mm 0,0 UV-I 0 W/m² -0,2 °C 2,1 °C 1,6 km/h (1 Bft)
17.03.2017 01:26 2,1 °C 2,1 °C 85 % 1020,3 hPa 0,0 mm 0,1 km/h (0 Bft) W 269 ° 0 min 0,000 mm 0,0 UV-I 0 W/m² -0,2 °C 2,1 °C 1,6 km/h (1 Bft)
17.03.2017 01:27 2,0 °C 2,1 °C 85 % 1020,3 hPa 0,0 mm 0,0 km/h (0 Bft) W 268 ° 0 min 0,000 mm 0,0 UV-I 0 W/m² -0,3 °C 2,0 °C 0,0 km/h (0 Bft)
17.03.2017 01:28 2,0 °C 2,0 °C 85 % 1020,3 hPa 0,0 mm 1,6 km/h (1 Bft) W 269 ° 0 min 0,000 mm 0,0 UV-I 0 W/m² -0,3 °C 2,0 °C 3,2 km/h (1 Bft)
17.03.2017 01:29 1,9 °C 2,0 °C 85 % 1020,3 hPa 0,0 mm 0,5 km/h (0 Bft) W 268 ° 0 min 0,000 mm 0,0 UV-I 0 W/m² -0,3 °C 1,9 °C 1,6 km/h (1 Bft)
17.03.2017 01:30 2,0 °C 2,0 °C 86 % 1020,3 hPa 0,0 mm 0,1 km/h (0 Bft) W 268 ° 0 min 0,000 mm 0,0 UV-I 0 W/m² -0,1 °C 2,0 °C 1,6 km/h (1 Bft)
17.03.2017 01:31 2,1 °C 2,1 °C 86 % 1020,3 hPa 0,0 mm 0,0 km/h (0 Bft) W 268 ° 0 min 0,000 mm 0,0 UV-I 0 W/m² 0,0 °C 2,1 °C 0,0 km/h (0 Bft)
17.03.2017 01:32 2,2 °C 2,2 °C 85 % 1020,3 hPa 0,0 mm 0,0 km/h (0 Bft) W 269 ° 0 min 0,000 mm 0,0 UV-I 0 W/m² -0,1 °C 2,2 °C 0,0 km/h (0 Bft)
17.03.2017 01:33 2,2 °C 2,2 °C 85 % 1020,3 hPa 0,0 mm 0,2 km/h (0 Bft) W 268 ° 0 min 0,000 mm 0,0 UV-I 0 W/m² -0,1 °C 2,2 °C 1,6 km/h (1 Bft)
17.03.2017 01:34 2,2 °C 2,2 °C 85 % 1020,3 hPa 0,0 mm 0,9 km/h (0 Bft) W 268 ° 0 min 0,000 mm 0,0 UV-I 0 W/m² -0,1 °C 2,2 °C 1,6 km/h (1 Bft)
17.03.2017 01:35 2,2 °C 2,2 °C 85 % 1020,3 hPa 0,0 mm 0,5 km/h (0 Bft) W 268 ° 0 min 0,000 mm 0,0 UV-I 0 W/m² -0,1 °C 2,2 °C 1,6 km/h (1 Bft)
17.03.2017 01:36 2,3 °C 2,3 °C 85 % 1020,3 hPa 0,0 mm 0,5 km/h (0 Bft) W 268 ° 0 min 0,000 mm 0,0 UV-I 0 W/m² 0,0 °C 2,3 °C 1,6 km/h (1 Bft)
17.03.2017 01:37 2,3 °C 2,3 °C 85 % 1020,3 hPa 0,0 mm 0,3 km/h (0 Bft) W 269 ° 0 min 0,000 mm 0,0 UV-I 0 W/m² 0,0 °C 2,3 °C 1,6 km/h (1 Bft)
17.03.2017 01:38 2,2 °C 2,3 °C 84 % 1020,3 hPa 0,0 mm 0,1 km/h (0 Bft) W 268 ° 0 min 0,000 mm 0,0 UV-I 0 W/m² -0,2 °C 2,2 °C 1,6 km/h (1 Bft)
17.03.2017 01:39 2,2 °C 2,2 °C 85 % 1020,3 hPa 0,0 mm 0,1 km/h (0 Bft) W 268 ° 0 min 0,000 mm 0,0 UV-I 0 W/m² -0,1 °C 2,2 °C 1,6 km/h (1 Bft)
17.03.2017 01:40 2,2 °C 2,2 °C 85 % 1020,2 hPa 0,0 mm 0,2 km/h (0 Bft) W 268 ° 0 min 0,000 mm 0,0 UV-I 0 W/m² -0,1 °C 2,2 °C 1,6 km/h (1 Bft)
17.03.2017 01:41 2,1 °C 2,2 °C 84 % 1020,2 hPa 0,0 mm 0,8 km/h (0 Bft) W 268 ° 0 min 0,000 mm 0,0 UV-I 0 W/m² -0,3 °C 2,1 °C 1,6 km/h (1 Bft)
17.03.2017 01:42 2,2 °C 2,2 °C 85 % 1020,3 hPa 0,0 mm 0,6 km/h (0 Bft) W 268 ° 0 min 0,000 mm 0,0 UV-I 0 W/m² -0,1 °C 2,2 °C 3,2 km/h (1 Bft)
17.03.2017 01:43 2,1 °C 2,2 °C 84 % 1020,3 hPa 0,0 mm 2,1 km/h (1 Bft) W 268 ° 0 min 0,000 mm 0,0 UV-I 0 W/m² -0,3 °C 2,1 °C 4,8 km/h (1 Bft)
17.03.2017 01:44 2,2 °C 2,2 °C 85 % 1020,1 hPa 0,0 mm 0,6 km/h (0 Bft) W 268 ° 0 min 0,000 mm 0,0 UV-I 0 W/m² -0,1 °C 2,2 °C 1,6 km/h (1 Bft)
17.03.2017 01:45 2,3 °C 2,3 °C 85 % 1020,1 hPa 0,0 mm 0,7 km/h (0 Bft) W 269 ° 0 min 0,000 mm 0,0 UV-I 0 W/m² 0,0 °C 2,3 °C 1,6 km/h (1 Bft)
17.03.2017 01:46 2,3 °C 2,3 °C 84 % 1020,1 hPa 0,0 mm 0,0 km/h (0 Bft) W 268 ° 0 min 0,000 mm 0,0 UV-I 0 W/m² -0,1 °C 2,3 °C 0,0 km/h (0 Bft)
17.03.2017 01:47 2,3 °C 2,3 °C 85 % 1020,1 hPa 0,0 mm 0,5 km/h (0 Bft) W 268 ° 0 min 0,000 mm 0,0 UV-I 0 W/m² 0,0 °C 2,3 °C 1,6 km/h (1 Bft)
17.03.2017 01:48 2,4 °C 2,4 °C 85 % 1020,1 hPa 0,0 mm 0,1 km/h (0 Bft) W 268 ° 0 min 0,000 mm 0,0 UV-I 0 W/m² 0,1 °C 2,4 °C 1,6 km/h (1 Bft)
17.03.2017 01:49 2,6 °C 2,6 °C 84 % 1020,1 hPa 0,0 mm 0,0 km/h (0 Bft) W 268 ° 0 min 0,000 mm 0,0 UV-I 0 W/m² 0,2 °C 2,6 °C 0,0 km/h (0 Bft)
17.03.2017 01:50 2,6 °C 2,6 °C 83 % 1020,1 hPa 0,0 mm 1,0 km/h (0 Bft) W 269 ° 0 min 0,000 mm 0,0 UV-I 0 W/m² 0,0 °C 2,6 °C 3,2 km/h (1 Bft)
17.03.2017 01:51 2,6 °C 2,6 °C 83 % 1020,1 hPa 0,0 mm 1,6 km/h (1 Bft) W 269 ° 0 min 0,000 mm 0,0 UV-I 0 W/m² 0,0 °C 2,6 °C 1,6 km/h (1 Bft)
17.03.2017 01:52 2,6 °C 2,6 °C 83 % 1020,1 hPa 0,0 mm 0,3 km/h (0 Bft) W 268 ° 0 min 0,000 mm 0,0 UV-I 0 W/m² 0,0 °C 2,6 °C 1,6 km/h (1 Bft)
17.03.2017 01:53 2,6 °C 2,6 °C 83 % 1020,1 hPa 0,0 mm 0,7 km/h (0 Bft) W 268 ° 0 min 0,000 mm 0,0 UV-I 0 W/m² 0,0 °C 2,6 °C 1,6 km/h (1 Bft)
17.03.2017 01:54 2,7 °C 2,7 °C 83 % 1020,0 hPa 0,0 mm 0,4 km/h (0 Bft) W 269 ° 0 min 0,000 mm 0,0 UV-I 0 W/m² 0,1 °C 2,7 °C 1,6 km/h (1 Bft)
17.03.2017 01:55 2,6 °C 2,7 °C 82 % 1020,0 hPa 0,0 mm 0,0 km/h (0 Bft) W 269 ° 0 min 0,000 mm 0,0 UV-I 0 W/m² -0,2 °C 2,6 °C 0,0 km/h (0 Bft)
17.03.2017 01:56 2,6 °C 2,6 °C 83 % 1020,0 hPa 0,0 mm 0,0 km/h (0 Bft) W 269 ° 0 min 0,000 mm 0,0 UV-I 0 W/m² 0,0 °C 2,6 °C 0,0 km/h (0 Bft)
17.03.2017 01:57 2,7 °C 2,7 °C 83 % 1020,0 hPa 0,0 mm 0,1 km/h (0 Bft) W 268 ° 0 min 0,000 mm 0,0 UV-I 0 W/m² 0,1 °C 2,7 °C 1,6 km/h (1 Bft)
17.03.2017 01:58 2,6 °C 2,7 °C 83 % 1020,0 hPa 0,0 mm 0,3 km/h (0 Bft) W 268 ° 0 min 0,000 mm 0,0 UV-I 0 W/m² 0,0 °C 2,6 °C 1,6 km/h (1 Bft)
17.03.2017 01:59 2,6 °C 2,7 °C 83 % 1019,9 hPa 0,0 mm 0,1 km/h (0 Bft) W 269 ° 0 min 0,000 mm 0,0 UV-I 0 W/m² 0,0 °C 2,6 °C 1,6 km/h (1 Bft)
17.03.2017 02:00 2,6 °C 2,7 °C 82 % 1019,9 hPa 0,0 mm 0,1 km/h (0 Bft) W 269 ° 0 min 0,000 mm 0,0 UV-I 0 W/m² -0,2 °C 2,6 °C 1,6 km/h (1 Bft)
17.03.2017 02:01 2,6 °C 2,6 °C 83 % 1019,9 hPa 0,0 mm 0,0 km/h (0 Bft) W 268 ° 0 min 0,000 mm 0,0 UV-I 0 W/m² 0,0 °C 2,6 °C 0,0 km/h (0 Bft)
17.03.2017 02:02 2,5 °C 2,6 °C 84 % 1019,9 hPa 0,0 mm 0,0 km/h (0 Bft) W 268 ° 0 min 0,000 mm 0,0 UV-I 0 W/m² 0,1 °C 2,5 °C 0,0 km/h (0 Bft)
17.03.2017 02:03 2,4 °C 2,5 °C 83 % 1019,9 hPa 0,0 mm 0,2 km/h (0 Bft) W 268 ° 0 min 0,000 mm 0,0 UV-I 0 W/m² -0,2 °C 2,4 °C 1,6 km/h (1 Bft)
17.03.2017 02:04 2,3 °C 2,4 °C 84 % 1019,9 hPa 0,0 mm 1,0 km/h (0 Bft) W 269 ° 0 min 0,000 mm 0,0 UV-I 0 W/m² -0,1 °C 2,3 °C 1,6 km/h (1 Bft)
17.03.2017 02:05 2,3 °C 2,3 °C 84 % 1019,9 hPa 0,0 mm 0,0 km/h (0 Bft) W 268 ° 0 min 0,000 mm 0,0 UV-I 0 W/m² -0,1 °C 2,3 °C 0,0 km/h (0 Bft)
17.03.2017 02:06 2,2 °C 2,3 °C 84 % 1019,9 hPa 0,0 mm 0,0 km/h (0 Bft) W 268 ° 0 min 0,000 mm 0,0 UV-I 0 W/m² -0,2 °C 2,2 °C 0,0 km/h (0 Bft)
17.03.2017 02:07 2,2 °C 2,2 °C 85 % 1019,8 hPa 0,0 mm 0,0 km/h (0 Bft) W 268 ° 0 min 0,000 mm 0,0 UV-I 0 W/m² -0,1 °C 2,2 °C 0,0 km/h (0 Bft)
17.03.2017 02:08 2,2 °C 2,2 °C 85 % 1019,9 hPa 0,0 mm 0,1 km/h (0 Bft) W 268 ° 0 min 0,000 mm 0,0 UV-I 0 W/m² -0,1 °C 2,2 °C 1,6 km/h (1 Bft)
17.03.2017 02:09 2,1 °C 2,2 °C 85 % 1019,9 hPa 0,0 mm 0,1 km/h (0 Bft) W 268 ° 0 min 0,000 mm 0,0 UV-I 0 W/m² -0,2 °C 2,1 °C 1,6 km/h (1 Bft)
17.03.2017 02:10 2,2 °C 2,2 °C 85 % 1019,9 hPa 0,0 mm 0,0 km/h (0 Bft) W 268 ° 0 min 0,000 mm 0,0 UV-I 0 W/m² -0,1 °C 2,2 °C 0,0 km/h (0 Bft)
17.03.2017 02:11 2,2 °C 2,2 °C 85 % 1019,8 hPa 0,0 mm 0,0 km/h (0 Bft) W 268 ° 0 min 0,000 mm 0,0 UV-I 0 W/m² -0,1 °C 2,2 °C 0,0 km/h (0 Bft)
17.03.2017 02:12 2,3 °C 2,3 °C 85 % 1019,8 hPa 0,0 mm 0,0 km/h (0 Bft) W 268 ° 0 min 0,000 mm 0,0 UV-I 0 W/m² 0,0 °C 2,3 °C 0,0 km/h (0 Bft)
17.03.2017 02:13 2,3 °C 2,3 °C 84 % 1019,8 hPa 0,0 mm 0,0 km/h (0 Bft) W 268 ° 0 min 0,000 mm 0,0 UV-I 0 W/m² -0,1 °C 2,3 °C 0,0 km/h (0 Bft)
17.03.2017 02:14 2,3 °C 2,3 °C 84 % 1019,8 hPa 0,0 mm 0,0 km/h (0 Bft) W 268 ° 0 min 0,000 mm 0,0 UV-I 0 W/m² -0,1 °C 2,3 °C 0,0 km/h (0 Bft)
17.03.2017 02:15 2,2 °C 2,3 °C 84 % 1019,8 hPa 0,0 mm 0,0 km/h (0 Bft) W 268 ° 0 min 0,000 mm 0,0 UV-I 0 W/m² -0,2 °C 2,2 °C 0,0 km/h (0 Bft)
17.03.2017 02:16 2,1 °C 2,2 °C 84 % 1019,8 hPa 0,0 mm 0,0 km/h (0 Bft) W 268 ° 0 min 0,000 mm 0,0 UV-I 0 W/m² -0,3 °C 2,1 °C 0,0 km/h (0 Bft)
17.03.2017 02:17 1,9 °C 2,1 °C 85 % 1019,8 hPa 0,0 mm 0,0 km/h (0 Bft) W 268 ° 0 min 0,000 mm 0,0 UV-I 0 W/m² -0,3 °C 1,9 °C 0,0 km/h (0 Bft)
17.03.2017 02:18 1,9 °C 1,9 °C 85 % 1019,8 hPa 0,0 mm 0,0 km/h (0 Bft) W 268 ° 0 min 0,000 mm 0,0 UV-I 0 W/m² -0,3 °C 1,9 °C 0,0 km/h (0 Bft)
17.03.2017 02:19 1,9 °C 1,9 °C 85 % 1019,8 hPa 0,0 mm 0,0 km/h (0 Bft) W 268 ° 0 min 0,000 mm 0,0 UV-I 0 W/m² -0,3 °C 1,9 °C 0,0 km/h (0 Bft)
17.03.2017 02:20 1,8 °C 1,9 °C 85 % 1019,8 hPa 0,0 mm 0,0 km/h (0 Bft) W 268 ° 0 min 0,000 mm 0,0 UV-I 0 W/m² -0,4 °C 1,8 °C 0,0 km/h (0 Bft)
17.03.2017 02:21 1,8 °C 1,8 °C 85 % 1019,7 hPa 0,0 mm 0,0 km/h (0 Bft) W 268 ° 0 min 0,000 mm 0,0 UV-I 0 W/m² -0,4 °C 1,8 °C 0,0 km/h (0 Bft)
17.03.2017 02:22 1,8 °C 1,8 °C 85 % 1019,7 hPa 0,0 mm 0,0 km/h (0 Bft) W 268 ° 0 min 0,000 mm 0,0 UV-I 0 W/m² -0,4 °C 1,8 °C 0,0 km/h (0 Bft)
17.03.2017 02:23 1,8 °C 1,8 °C 86 % 1019,7 hPa 0,0 mm 0,0 km/h (0 Bft) W 268 ° 0 min 0,000 mm 0,0 UV-I 0 W/m² -0,3 °C 1,8 °C 0,0 km/h (0 Bft)
17.03.2017 02:24 1,9 °C 1,9 °C 86 % 1019,7 hPa 0,0 mm 0,0 km/h (0 Bft) W 268 ° 0 min 0,000 mm 0,0 UV-I 0 W/m² -0,2 °C 1,9 °C 0,0 km/h (0 Bft)
17.03.2017 02:25 1,9 °C 1,9 °C 84 % 1019,7 hPa 0,0 mm 0,0 km/h (0 Bft) W 268 ° 0 min 0,000 mm 0,0 UV-I 0 W/m² -0,5 °C 1,9 °C 0,0 km/h (0 Bft)
17.03.2017 02:26 1,9 °C 1,9 °C 85 % 1019,7 hPa 0,0 mm 0,0 km/h (0 Bft) W 268 ° 0 min 0,000 mm 0,0 UV-I 0 W/m² -0,3 °C 1,9 °C 0,0 km/h (0 Bft)
17.03.2017 02:27 1,9 °C 1,9 °C 85 % 1019,7 hPa 0,0 mm 0,0 km/h (0 Bft) W 268 ° 0 min 0,000 mm 0,0 UV-I 0 W/m² -0,3 °C 1,9 °C 0,0 km/h (0 Bft)
17.03.2017 02:28 1,9 °C 1,9 °C 85 % 1019,7 hPa 0,0 mm 1,3 km/h (1 Bft) W 268 ° 0 min 0,000 mm 0,0 UV-I 0 W/m² -0,3 °C 1,9 °C 3,2 km/h (1 Bft)
17.03.2017 02:29 1,9 °C 1,9 °C 85 % 1019,6 hPa 0,0 mm 0,4 km/h (0 Bft) W 268 ° 0 min 0,000 mm 0,0 UV-I 0 W/m² -0,3 °C 1,9 °C 1,6 km/h (1 Bft)
17.03.2017 02:30 1,9 °C 1,9 °C 85 % 1019,7 hPa 0,0 mm 0,0 km/h (0 Bft) W 268 ° 0 min 0,000 mm 0,0 UV-I 0 W/m² -0,3 °C 1,9 °C 0,0 km/h (0 Bft)
17.03.2017 02:31 1,9 °C 1,9 °C 85 % 1019,6 hPa 0,0 mm 1,3 km/h (1 Bft) W 268 ° 0 min 0,000 mm 0,0 UV-I 0 W/m² -0,3 °C 1,9 °C 3,2 km/h (1 Bft)
17.03.2017 02:32 1,9 °C 1,9 °C 85 % 1019,6 hPa 0,0 mm 0,8 km/h (0 Bft) W 268 ° 0 min 0,000 mm 0,0 UV-I 0 W/m² -0,3 °C 1,9 °C 1,6 km/h (1 Bft)
17.03.2017 02:33 1,8 °C 1,9 °C 85 % 1019,6 hPa 0,0 mm 0,1 km/h (0 Bft) W 268 ° 0 min 0,000 mm 0,0 UV-I 0 W/m² -0,4 °C 1,8 °C 1,6 km/h (1 Bft)
17.03.2017 02:34 1,8 °C 1,8 °C 85 % 1019,6 hPa 0,0 mm 0,3 km/h (0 Bft) W 268 ° 0 min 0,000 mm 0,0 UV-I 0 W/m² -0,4 °C 1,8 °C 1,6 km/h (1 Bft)
17.03.2017 02:35 1,8 °C 1,8 °C 85 % 1019,6 hPa 0,0 mm 0,3 km/h (0 Bft) W 268 ° 0 min 0,000 mm 0,0 UV-I 0 W/m² -0,4 °C 1,8 °C 1,6 km/h (1 Bft)
17.03.2017 02:36 1,8 °C 1,8 °C 85 % 1019,6 hPa 0,0 mm 0,1 km/h (0 Bft) W 268 ° 0 min 0,000 mm 0,0 UV-I 0 W/m² -0,4 °C 1,8 °C 1,6 km/h (1 Bft)
17.03.2017 02:37 1,8 °C 1,8 °C 85 % 1019,6 hPa 0,0 mm 0,0 km/h (0 Bft) W 268 ° 0 min 0,000 mm 0,0 UV-I 0 W/m² -0,4 °C 1,8 °C 0,0 km/h (0 Bft)
17.03.2017 02:38 1,8 °C 1,8 °C 85 % 1019,6 hPa 0,0 mm 1,6 km/h (1 Bft) W 268 ° 0 min 0,000 mm 0,0 UV-I 0 W/m² -0,4 °C 1,8 °C 3,2 km/h (1 Bft)
17.03.2017 02:39 1,9 °C 1,9 °C 85 % 1019,5 hPa 0,0 mm 1,0 km/h (0 Bft) W 268 ° 0 min 0,000 mm 0,0 UV-I 0 W/m² -0,3 °C 1,9 °C 3,2 km/h (1 Bft)
17.03.2017 02:40 1,9 °C 1,9 °C 84 % 1019,6 hPa 0,0 mm 0,1 km/h (0 Bft) W 268 ° 0 min 0,000 mm 0,0 UV-I 0 W/m² -0,5 °C 1,9 °C 1,6 km/h (1 Bft)
17.03.2017 02:41 1,8 °C 1,9 °C 84 % 1019,5 hPa 0,0 mm 0,2 km/h (0 Bft) W 268 ° 0 min 0,000 mm 0,0 UV-I 0 W/m² -0,6 °C 1,8 °C 1,6 km/h (1 Bft)
17.03.2017 02:42 1,7 °C 1,8 °C 84 % 1019,5 hPa 0,0 mm 0,0 km/h (0 Bft) W 268 ° 0 min 0,000 mm 0,0 UV-I 0 W/m² -0,7 °C 1,7 °C 0,0 km/h (0 Bft)
17.03.2017 02:43 1,7 °C 1,7 °C 85 % 1019,5 hPa 0,0 mm 0,0 km/h (0 Bft) W 268 ° 0 min 0,000 mm 0,0 UV-I 0 W/m² -0,5 °C 1,7 °C 0,0 km/h (0 Bft)
17.03.2017 02:44 1,7 °C 1,7 °C 85 % 1019,5 hPa 0,0 mm 0,0 km/h (0 Bft) W 268 ° 0 min 0,000 mm 0,0 UV-I 0 W/m² -0,5 °C 1,7 °C 0,0 km/h (0 Bft)
17.03.2017 02:45 1,8 °C 1,8 °C 85 % 1019,5 hPa 0,0 mm 0,0 km/h (0 Bft) W 268 ° 0 min 0,000 mm 0,0 UV-I 0 W/m² -0,4 °C 1,8 °C 0,0 km/h (0 Bft)
17.03.2017 02:46 1,8 °C 1,8 °C 85 % 1019,6 hPa 0,0 mm 0,0 km/h (0 Bft) W 268 ° 0 min 0,000 mm 0,0 UV-I 0 W/m² -0,4 °C 1,8 °C 0,0 km/h (0 Bft)
17.03.2017 02:47 1,8 °C 1,8 °C 85 % 1019,5 hPa 0,0 mm 0,0 km/h (0 Bft) W 268 ° 0 min 0,000 mm 0,0 UV-I 0 W/m² -0,4 °C 1,8 °C 0,0 km/h (0 Bft)
17.03.2017 02:48 1,8 °C 1,8 °C 85 % 1019,5 hPa 0,0 mm 0,0 km/h (0 Bft) W 268 ° 0 min 0,000 mm 0,0 UV-I 0 W/m² -0,4 °C 1,8 °C 0,0 km/h (0 Bft)
17.03.2017 02:49 1,7 °C 1,8 °C 85 % 1019,5 hPa 0,0 mm 0,0 km/h (0 Bft) W 268 ° 0 min 0,000 mm 0,0 UV-I 0 W/m² -0,5 °C 1,7 °C 0,0 km/h (0 Bft)
17.03.2017 02:50 1,7 °C 1,7 °C 85 % 1019,5 hPa 0,0 mm 0,1 km/h (0 Bft) W 268 ° 0 min 0,000 mm 0,0 UV-I 0 W/m² -0,5 °C 1,7 °C 1,6 km/h (1 Bft)
17.03.2017 02:51 1,8 °C 1,8 °C 85 % 1019,5 hPa 0,0 mm 0,0 km/h (0 Bft) W 268 ° 0 min 0,000 mm 0,0 UV-I 0 W/m² -0,4 °C 1,8 °C 0,0 km/h (0 Bft)
17.03.2017 02:52 1,8 °C 1,8 °C 84 % 1019,5 hPa 0,0 mm 0,0 km/h (0 Bft) W 268 ° 0 min 0,000 mm 0,0 UV-I 0 W/m² -0,6 °C 1,8 °C 0,0 km/h (0 Bft)
17.03.2017 02:53 1,8 °C 1,8 °C 85 % 1019,5 hPa 0,0 mm 0,0 km/h (0 Bft) W 268 ° 0 min 0,000 mm 0,0 UV-I 0 W/m² -0,4 °C 1,8 °C 0,0 km/h (0 Bft)
17.03.2017 02:54 1,7 °C 1,8 °C 85 % 1019,5 hPa 0,0 mm 0,0 km/h (0 Bft) W 268 ° 0 min 0,000 mm 0,0 UV-I 0 W/m² -0,5 °C 1,7 °C 0,0 km/h (0 Bft)
17.03.2017 02:55 1,7 °C 1,8 °C 85 % 1019,5 hPa 0,0 mm 0,0 km/h (0 Bft) W 268 ° 0 min 0,000 mm 0,0 UV-I 0 W/m² -0,5 °C 1,7 °C 0,0 km/h (0 Bft)
17.03.2017 02:56 1,7 °C 1,7 °C 85 % 1019,4 hPa 0,0 mm 0,0 km/h (0 Bft) W 268 ° 0 min 0,000 mm 0,0 UV-I 0 W/m² -0,5 °C 1,7 °C 0,0 km/h (0 Bft)
17.03.2017 02:57 1,6 °C 1,7 °C 84 % 1019,3 hPa 0,0 mm 0,0 km/h (0 Bft) W 268 ° 0 min 0,000 mm 0,0 UV-I 0 W/m² -0,8 °C 1,6 °C 0,0 km/h (0 Bft)
17.03.2017 02:58 1,4 °C 1,6 °C 85 % 1019,3 hPa 0,0 mm 0,4 km/h (0 Bft) W 268 ° 0 min 0,000 mm 0,0 UV-I 0 W/m² -0,8 °C 1,4 °C 1,6 km/h (1 Bft)
17.03.2017 02:59 1,4 °C 1,4 °C 85 % 1019,3 hPa 0,0 mm 0,2 km/h (0 Bft) W 268 ° 0 min 0,000 mm 0,0 UV-I 0 W/m² -0,8 °C 1,4 °C 1,6 km/h (1 Bft)
17.03.2017 03:00 1,4 °C 1,4 °C 86 % 1019,3 hPa 0,0 mm 0,2 km/h (0 Bft) W 268 ° 0 min 0,000 mm 0,0 UV-I 0 W/m² -0,7 °C 1,4 °C 1,6 km/h (1 Bft)
17.03.2017 03:01 1,4 °C 1,4 °C 86 % 1019,3 hPa 0,0 mm 0,0 km/h (0 Bft) W 268 ° 0 min 0,000 mm 0,0 UV-I 0 W/m² -0,7 °C 1,4 °C 0,0 km/h (0 Bft)
17.03.2017 03:02 1,4 °C 1,4 °C 86 % 1019,2 hPa 0,0 mm 0,1 km/h (0 Bft) W 268 ° 0 min 0,000 mm 0,0 UV-I 0 W/m² -0,7 °C 1,4 °C 1,6 km/h (1 Bft)
17.03.2017 03:03 1,4 °C 1,4 °C 86 % 1019,3 hPa 0,0 mm 0,0 km/h (0 Bft) W 268 ° 0 min 0,000 mm 0,0 UV-I 0 W/m² -0,7 °C 1,4 °C 0,0 km/h (0 Bft)
17.03.2017 03:04 1,5 °C 1,5 °C 86 % 1019,3 hPa 0,0 mm 0,5 km/h (0 Bft) W 268 ° 0 min 0,000 mm 0,0 UV-I 0 W/m² -0,6 °C 1,5 °C 1,6 km/h (1 Bft)
17.03.2017 03:05 1,6 °C 1,6 °C 86 % 1019,3 hPa 0,0 mm 0,7 km/h (0 Bft) W 268 ° 0 min 0,000 mm 0,0 UV-I 0 W/m² -0,5 °C 1,6 °C 1,6 km/h (1 Bft)
17.03.2017 03:06 1,6 °C 1,6 °C 85 % 1019,2 hPa 0,0 mm 0,1 km/h (0 Bft) W 268 ° 0 min 0,000 mm 0,0 UV-I 0 W/m² -0,6 °C 1,6 °C 1,6 km/h (1 Bft)
17.03.2017 03:07 1,5 °C 1,6 °C 85 % 1019,2 hPa 0,0 mm 0,2 km/h (0 Bft) W 268 ° 0 min 0,000 mm 0,0 UV-I 0 W/m² -0,7 °C 1,5 °C 1,6 km/h (1 Bft)
17.03.2017 03:08 1,4 °C 1,5 °C 85 % 1019,2 hPa 0,0 mm 1,0 km/h (0 Bft) W 268 ° 0 min 0,000 mm 0,0 UV-I 0 W/m² -0,8 °C 1,4 °C 3,2 km/h (1 Bft)
17.03.2017 03:09 1,3 °C 1,4 °C 85 % 1019,2 hPa 0,0 mm 0,9 km/h (0 Bft) W 268 ° 0 min 0,000 mm 0,0 UV-I 0 W/m² -0,9 °C 1,3 °C 1,6 km/h (1 Bft)
17.03.2017 03:10 1,3 °C 1,3 °C 85 % 1019,1 hPa 0,0 mm 0,3 km/h (0 Bft) W-SW 242 ° 0 min 0,000 mm 0,0 UV-I 0 W/m² -0,9 °C 1,3 °C 3,2 km/h (1 Bft)
17.03.2017 03:11 1,3 °C 1,3 °C 86 % 1019,1 hPa 0,0 mm 1,1 km/h (1 Bft) SW 218 ° 0 min 0,000 mm 0,0 UV-I 0 W/m² -0,8 °C 1,3 °C 3,2 km/h (1 Bft)
17.03.2017 03:12 1,3 °C 1,3 °C 85 % 1019,1 hPa 0,0 mm 0,5 km/h (0 Bft) SW 218 ° 0 min 0,000 mm 0,0 UV-I 0 W/m² -0,9 °C 1,3 °C 1,6 km/h (1 Bft)
17.03.2017 03:13 1,3 °C 1,3 °C 86 % 1019,1 hPa 0,0 mm 0,1 km/h (0 Bft) SW 218 ° 0 min 0,000 mm 0,0 UV-I 0 W/m² -0,8 °C 1,3 °C 1,6 km/h (1 Bft)
17.03.2017 03:14 1,3 °C 1,3 °C 86 % 1019,1 hPa 0,0 mm 0,7 km/h (0 Bft) SW 219 ° 0 min 0,000 mm 0,0 UV-I 0 W/m² -0,8 °C 1,3 °C 3,2 km/h (1 Bft)
17.03.2017 03:15 1,3 °C 1,3 °C 85 % 1019,1 hPa 0,0 mm 0,1 km/h (0 Bft) SW 219 ° 0 min 0,000 mm 0,0 UV-I 0 W/m² -0,9 °C 1,3 °C 1,6 km/h (1 Bft)
17.03.2017 03:16 1,3 °C 1,3 °C 86 % 1019,0 hPa 0,0 mm 0,2 km/h (0 Bft) SW 219 ° 0 min 0,000 mm 0,0 UV-I 0 W/m² -0,8 °C 1,3 °C 1,6 km/h (1 Bft)
17.03.2017 03:17 1,3 °C 1,3 °C 85 % 1019,0 hPa 0,0 mm 0,3 km/h (0 Bft) SW 219 ° 0 min 0,000 mm 0,0 UV-I 0 W/m² -0,9 °C 1,3 °C 1,6 km/h (1 Bft)
17.03.2017 03:18 1,3 °C 1,3 °C 86 % 1019,0 hPa 0,0 mm 0,0 km/h (0 Bft) SW 219 ° 0 min 0,000 mm 0,0 UV-I 0 W/m² -0,8 °C 1,3 °C 0,0 km/h (0 Bft)
17.03.2017 03:19 1,4 °C 1,4 °C 86 % 1019,0 hPa 0,0 mm 0,8 km/h (0 Bft) SW 219 ° 0 min 0,000 mm 0,0 UV-I 0 W/m² -0,7 °C 1,4 °C 3,2 km/h (1 Bft)
17.03.2017 03:20 1,3 °C 1,4 °C 85 % 1019,0 hPa 0,0 mm 0,9 km/h (0 Bft) SW 219 ° 0 min 0,000 mm 0,0 UV-I 0 W/m² -0,9 °C 1,3 °C 3,2 km/h (1 Bft)
17.03.2017 03:21 1,3 °C 1,3 °C 85 % 1019,0 hPa 0,0 mm 0,3 km/h (0 Bft) SW 219 ° 0 min 0,000 mm 0,0 UV-I 0 W/m² -0,9 °C 1,3 °C 1,6 km/h (1 Bft)
17.03.2017 03:22 1,3 °C 1,3 °C 85 % 1019,0 hPa 0,0 mm 0,1 km/h (0 Bft) SW 219 ° 0 min 0,000 mm 0,0 UV-I 0 W/m² -0,9 °C 1,3 °C 1,6 km/h (1 Bft)
17.03.2017 03:23 1,4 °C 1,4 °C 85 % 1019,1 hPa 0,0 mm 0,0 km/h (0 Bft) SW 219 ° 0 min 0,000 mm 0,0 UV-I 0 W/m² -0,8 °C 1,4 °C 0,0 km/h (0 Bft)
17.03.2017 03:24 1,4 °C 1,4 °C 85 % 1019,1 hPa 0,0 mm 0,1 km/h (0 Bft) SW 219 ° 0 min 0,000 mm 0,0 UV-I 0 W/m² -0,8 °C 1,4 °C 1,6 km/h (1 Bft)
17.03.2017 03:25 1,5 °C 1,5 °C 85 % 1019,0 hPa 0,0 mm 0,1 km/h (0 Bft) SW 219 ° 0 min 0,000 mm 0,0 UV-I 0 W/m² -0,7 °C 1,5 °C 1,6 km/h (1 Bft)
17.03.2017 03:26 1,6 °C 1,6 °C 85 % 1019,0 hPa 0,0 mm 1,2 km/h (1 Bft) SW 219 ° 0 min 0,000 mm 0,0 UV-I 0 W/m² -0,6 °C 1,6 °C 1,6 km/h (1 Bft)
17.03.2017 03:27 1,7 °C 1,7 °C 84 % 1019,0 hPa 0,0 mm 0,7 km/h (0 Bft) SW 219 ° 0 min 0,000 mm 0,0 UV-I 0 W/m² -0,7 °C 1,7 °C 1,6 km/h (1 Bft)
17.03.2017 03:28 1,7 °C 1,7 °C 84 % 1019,0 hPa 0,0 mm 0,1 km/h (0 Bft) SW 219 ° 0 min 0,000 mm 0,0 UV-I 0 W/m² -0,7 °C 1,7 °C 1,6 km/h (1 Bft)
17.03.2017 03:29 1,6 °C 1,7 °C 83 % 1019,0 hPa 0,0 mm 0,3 km/h (0 Bft) SW 219 ° 0 min 0,000 mm 0,0 UV-I 0 W/m² -1,0 °C 1,6 °C 1,6 km/h (1 Bft)
17.03.2017 03:30 1,6 °C 1,6 °C 84 % 1019,1 hPa 0,0 mm 0,0 km/h (0 Bft) SW 219 ° 0 min 0,000 mm 0,0 UV-I 0 W/m² -0,8 °C 1,6 °C 0,0 km/h (0 Bft)
17.03.2017 03:31 1,6 °C 1,6 °C 84 % 1019,0 hPa 0,0 mm 0,8 km/h (0 Bft) SW 219 ° 0 min 0,000 mm 0,0 UV-I 0 W/m² -0,8 °C 1,6 °C 1,6 km/h (1 Bft)
17.03.2017 03:32 1,8 °C 1,8 °C 85 % 1019,0 hPa 0,0 mm 3,2 km/h (1 Bft) S 180 ° 0 min 0,000 mm 0,0 UV-I 0 W/m² -0,4 °C 1,8 °C 4,8 km/h (1 Bft)
17.03.2017 03:33 1,8 °C 1,8 °C 83 % 1019,0 hPa 0,0 mm 0,9 km/h (0 Bft) S 180 ° 0 min 0,000 mm 0,0 UV-I 0 W/m² -0,8 °C 1,8 °C 1,6 km/h (1 Bft)
17.03.2017 03:34 1,7 °C 1,8 °C 83 % 1019,0 hPa 0,0 mm 1,1 km/h (1 Bft) S 180 ° 0 min 0,000 mm 0,0 UV-I 0 W/m² -0,9 °C 1,7 °C 3,2 km/h (1 Bft)
17.03.2017 03:35 1,6 °C 1,7 °C 84 % 1019,0 hPa 0,0 mm 0,1 km/h (0 Bft) S 180 ° 0 min 0,000 mm 0,0 UV-I 0 W/m² -0,8 °C 1,6 °C 1,6 km/h (1 Bft)
17.03.2017 03:36 1,6 °C 1,6 °C 84 % 1019,0 hPa 0,0 mm 1,3 km/h (1 Bft) S 180 ° 0 min 0,000 mm 0,0 UV-I 0 W/m² -0,8 °C 1,6 °C 3,2 km/h (1 Bft)
17.03.2017 03:37 1,4 °C 1,6 °C 83 % 1019,0 hPa 0,0 mm 2,1 km/h (1 Bft) S 180 ° 0 min 0,000 mm 0,0 UV-I 0 W/m² -1,2 °C 1,4 °C 4,8 km/h (1 Bft)
17.03.2017 03:38 1,5 °C 1,6 °C 84 % 1018,9 hPa 0,0 mm 3,1 km/h (1 Bft) S-SO 151 ° 0 min 0,000 mm 0,0 UV-I 0 W/m² -0,9 °C 1,5 °C 4,8 km/h (1 Bft)
17.03.2017 03:39 1,5 °C 1,6 °C 84 % 1019,0 hPa 0,0 mm 1,7 km/h (1 Bft) S-SO 151 ° 0 min 0,000 mm 0,0 UV-I 0 W/m² -0,9 °C 1,5 °C 3,2 km/h (1 Bft)
17.03.2017 03:40 1,4 °C 1,5 °C 84 % 1018,9 hPa 0,0 mm 0,3 km/h (0 Bft) S-SO 151 ° 0 min 0,000 mm 0,0 UV-I 0 W/m² -1,0 °C 1,4 °C 1,6 km/h (1 Bft)
17.03.2017 03:41 1,3 °C 1,4 °C 84 % 1018,9 hPa 0,0 mm 1,0 km/h (0 Bft) S-SO 151 ° 0 min 0,000 mm 0,0 UV-I 0 W/m² -1,1 °C 1,3 °C 3,2 km/h (1 Bft)
17.03.2017 03:42 1,3 °C 1,3 °C 85 % 1018,9 hPa 0,0 mm 0,3 km/h (0 Bft) S-SO 151 ° 0 min 0,000 mm 0,0 UV-I 0 W/m² -0,9 °C 1,3 °C 1,6 km/h (1 Bft)
17.03.2017 03:43 1,4 °C 1,4 °C 85 % 1018,9 hPa 0,0 mm 0,0 km/h (0 Bft) S-SO 151 ° 0 min 0,000 mm 0,0 UV-I 0 W/m² -0,8 °C 1,4 °C 0,0 km/h (0 Bft)
17.03.2017 03:44 1,4 °C 1,4 °C 85 % 1018,9 hPa 0,0 mm 0,0 km/h (0 Bft) S-SO 151 ° 0 min 0,000 mm 0,0 UV-I 0 W/m² -0,8 °C 1,4 °C 0,0 km/h (0 Bft)
17.03.2017 03:45 1,4 °C 1,4 °C 85 % 1018,8 hPa 0,0 mm 0,0 km/h (0 Bft) S-SO 151 ° 0 min 0,000 mm 0,0 UV-I 0 W/m² -0,8 °C 1,4 °C 0,0 km/h (0 Bft)
17.03.2017 03:46 1,4 °C 1,4 °C 85 % 1018,8 hPa 0,0 mm 0,0 km/h (0 Bft) S-SO 151 ° 0 min 0,000 mm 0,0 UV-I 0 W/m² -0,8 °C 1,4 °C 0,0 km/h (0 Bft)
17.03.2017 03:47 1,4 °C 1,4 °C 85 % 1018,9 hPa 0,0 mm 0,0 km/h (0 Bft) S-SO 151 ° 0 min 0,000 mm 0,0 UV-I 0 W/m² -0,8 °C 1,4 °C 0,0 km/h (0 Bft)
17.03.2017 03:48 1,4 °C 1,4 °C 85 % 1018,9 hPa 0,0 mm 0,0 km/h (0 Bft) S-SO 151 ° 0 min 0,000 mm 0,0 UV-I 0 W/m² -0,8 °C 1,4 °C 0,0 km/h (0 Bft)
17.03.2017 03:49 1,4 °C 1,4 °C 85 % 1018,9 hPa 0,0 mm 0,0 km/h (0 Bft) S-SO 151 ° 0 min 0,000 mm 0,0 UV-I 0 W/m² -0,8 °C 1,4 °C 0,0 km/h (0 Bft)
17.03.2017 03:50 1,4 °C 1,4 °C 85 % 1018,9 hPa 0,0 mm 0,0 km/h (0 Bft) S-SO 151 ° 0 min 0,000 mm 0,0 UV-I 0 W/m² -0,8 °C 1,4 °C 0,0 km/h (0 Bft)
17.03.2017 03:51 1,6 °C 1,6 °C 85 % 1018,8 hPa 0,0 mm 0,0 km/h (0 Bft) S-SO 151 ° 0 min 0,000 mm 0,0 UV-I 0 W/m² -0,6 °C 1,6 °C 0,0 km/h (0 Bft)
17.03.2017 03:52 1,8 °C 1,8 °C 84 % 1018,8 hPa 0,0 mm 0,0 km/h (0 Bft) S-SO 151 ° 0 min 0,000 mm 0,0 UV-I 0 W/m² -0,6 °C 1,8 °C 0,0 km/h (0 Bft)
17.03.2017 03:53 1,8 °C 1,8 °C 84 % 1018,8 hPa 0,0 mm 0,0 km/h (0 Bft) S-SO 151 ° 0 min 0,000 mm 0,0 UV-I 0 W/m² -0,6 °C 1,8 °C 0,0 km/h (0 Bft)
17.03.2017 03:54 1,7 °C 1,8 °C 83 % 1018,8 hPa 0,0 mm 0,0 km/h (0 Bft) S-SO 151 ° 0 min 0,000 mm 0,0 UV-I 0 W/m² -0,9 °C 1,7 °C 0,0 km/h (0 Bft)
17.03.2017 03:55 1,7 °C 1,8 °C 83 % 1018,8 hPa 0,0 mm 0,0 km/h (0 Bft) S-SO 151 ° 0 min 0,000 mm 0,0 UV-I 0 W/m² -0,9 °C 1,7 °C 0,0 km/h (0 Bft)
17.03.2017 03:56 1,7 °C 1,7 °C 83 % 1018,8 hPa 0,0 mm 0,0 km/h (0 Bft) S-SO 151 ° 0 min 0,000 mm 0,0 UV-I 0 W/m² -0,9 °C 1,7 °C 0,0 km/h (0 Bft)
17.03.2017 03:57 1,7 °C 1,7 °C 83 % 1018,8 hPa 0,0 mm 0,0 km/h (0 Bft) S-SO 151 ° 0 min 0,000 mm 0,0 UV-I 0 W/m² -0,9 °C 1,7 °C 0,0 km/h (0 Bft)
17.03.2017 03:58 1,8 °C 1,8 °C 83 % 1018,8 hPa 0,0 mm 0,0 km/h (0 Bft) S-SO 151 ° 0 min 0,000 mm 0,0 UV-I 0 W/m² -0,8 °C 1,8 °C 0,0 km/h (0 Bft)
17.03.2017 03:59 1,9 °C 1,9 °C 83 % 1018,8 hPa 0,0 mm 0,0 km/h (0 Bft) S-SO 151 ° 0 min 0,000 mm 0,0 UV-I 0 W/m² -0,7 °C 1,9 °C 0,0 km/h (0 Bft)
17.03.2017 04:00 2,0 °C 2,0 °C 83 % 1018,7 hPa 0,0 mm 0,0 km/h (0 Bft) S-SO 151 ° 0 min 0,000 mm 0,0 UV-I 0 W/m² -0,6 °C 2,0 °C 0,0 km/h (0 Bft)
17.03.2017 04:01 2,0 °C 2,0 °C 83 % 1018,7 hPa 0,0 mm 0,0 km/h (0 Bft) S-SO 151 ° 0 min 0,000 mm 0,0 UV-I 0 W/m² -0,6 °C 2,0 °C 0,0 km/h (0 Bft)
17.03.2017 04:02 2,0 °C 2,0 °C 82 % 1018,7 hPa 0,0 mm 0,0 km/h (0 Bft) S-SO 151 ° 0 min 0,000 mm 0,0 UV-I 0 W/m² -0,7 °C 2,0 °C 0,0 km/h (0 Bft)
17.03.2017 04:03 2,1 °C 2,1 °C 82 % 1018,7 hPa 0,0 mm 0,0 km/h (0 Bft) S-SO 151 ° 0 min 0,000 mm 0,0 UV-I 0 W/m² -0,6 °C 2,1 °C 0,0 km/h (0 Bft)
17.03.2017 04:04 2,1 °C 2,1 °C 82 % 1018,7 hPa 0,0 mm 0,0 km/h (0 Bft) S-SO 151 ° 0 min 0,000 mm 0,0 UV-I 0 W/m² -0,6 °C 2,1 °C 0,0 km/h (0 Bft)
17.03.2017 04:05 2,1 °C 2,1 °C 81 % 1018,6 hPa 0,0 mm 0,0 km/h (0 Bft) S-SO 151 ° 0 min 0,000 mm 0,0 UV-I 0 W/m² -0,8 °C 2,1 °C 0,0 km/h (0 Bft)
17.03.2017 04:06 1,9 °C 2,1 °C 81 % 1018,7 hPa 0,0 mm 0,0 km/h (0 Bft) S-SO 151 ° 0 min 0,000 mm 0,0 UV-I 0 W/m² -1,0 °C 1,9 °C 0,0 km/h (0 Bft)
17.03.2017 04:07 1,9 °C 1,9 °C 82 % 1018,7 hPa 0,0 mm 0,0 km/h (0 Bft) S-SO 151 ° 0 min 0,000 mm 0,0 UV-I 0 W/m² -0,8 °C 1,9 °C 0,0 km/h (0 Bft)
17.03.2017 04:08 1,9 °C 1,9 °C 83 % 1018,6 hPa 0,0 mm 0,0 km/h (0 Bft) S-SO 151 ° 0 min 0,000 mm 0,0 UV-I 0 W/m² -0,7 °C 1,9 °C 0,0 km/h (0 Bft)
17.03.2017 04:09 1,8 °C 1,9 °C 82 % 1018,6 hPa 0,0 mm 0,0 km/h (0 Bft) S-SO 151 ° 0 min 0,000 mm 0,0 UV-I 0 W/m² -0,9 °C 1,8 °C 0,0 km/h (0 Bft)
17.03.2017 04:10 1,8 °C 1,8 °C 82 % 1018,6 hPa 0,0 mm 0,0 km/h (0 Bft) S-SO 151 ° 0 min 0,000 mm 0,0 UV-I 0 W/m² -0,9 °C 1,8 °C 0,0 km/h (0 Bft)
17.03.2017 04:11 1,7 °C 1,8 °C 82 % 1018,6 hPa 0,0 mm 0,0 km/h (0 Bft) S-SO 151 ° 0 min 0,000 mm 0,0 UV-I 0 W/m² -1,0 °C 1,7 °C 0,0 km/h (0 Bft)
17.03.2017 04:12 1,6 °C 1,7 °C 83 % 1018,6 hPa 0,0 mm 0,0 km/h (0 Bft) S-SO 151 ° 0 min 0,000 mm 0,0 UV-I 0 W/m² -1,0 °C 1,6 °C 0,0 km/h (0 Bft)
17.03.2017 04:13 1,6 °C 1,6 °C 83 % 1018,6 hPa 0,0 mm 0,0 km/h (0 Bft) S-SO 151 ° 0 min 0,000 mm 0,0 UV-I 0 W/m² -1,0 °C 1,6 °C 0,0 km/h (0 Bft)
17.03.2017 04:14 1,5 °C 1,6 °C 83 % 1018,6 hPa 0,0 mm 0,0 km/h (0 Bft) S-SO 151 ° 0 min 0,000 mm 0,0 UV-I 0 W/m² -1,1 °C 1,5 °C 0,0 km/h (0 Bft)
17.03.2017 04:15 1,4 °C 1,5 °C 83 % 1018,6 hPa 0,0 mm 0,0 km/h (0 Bft) S-SO 151 ° 0 min 0,000 mm 0,0 UV-I 0 W/m² -1,2 °C 1,4 °C 0,0 km/h (0 Bft)
17.03.2017 04:16 1,4 °C 1,4 °C 83 % 1018,6 hPa 0,0 mm 0,0 km/h (0 Bft) S-SO 151 ° 0 min 0,000 mm 0,0 UV-I 0 W/m² -1,2 °C 1,4 °C 0,0 km/h (0 Bft)
17.03.2017 04:17 1,4 °C 1,4 °C 84 % 1018,6 hPa 0,0 mm 0,0 km/h (0 Bft) S-SO 151 ° 0 min 0,000 mm 0,0 UV-I 0 W/m² -1,0 °C 1,4 °C 0,0 km/h (0 Bft)
17.03.2017 04:18 1,4 °C 1,4 °C 84 % 1018,5 hPa 0,0 mm 0,0 km/h (0 Bft) S-SO 151 ° 0 min 0,000 mm 0,0 UV-I 0 W/m² -1,0 °C 1,4 °C 0,0 km/h (0 Bft)
17.03.2017 04:19 1,5 °C 1,5 °C 84 % 1018,5 hPa 0,0 mm 0,0 km/h (0 Bft) S-SO 151 ° 0 min 0,000 mm 0,0 UV-I 0 W/m² -0,9 °C 1,5 °C 0,0 km/h (0 Bft)
17.03.2017 04:20 1,5 °C 1,6 °C 84 % 1018,5 hPa 0,0 mm 0,0 km/h (0 Bft) S-SO 151 ° 0 min 0,000 mm 0,0 UV-I 0 W/m² -0,9 °C 1,5 °C 0,0 km/h (0 Bft)
17.03.2017 04:21 1,4 °C 1,5 °C 83 % 1018,5 hPa 0,0 mm 0,0 km/h (0 Bft) S-SO 151 ° 0 min 0,000 mm 0,0 UV-I 0 W/m² -1,2 °C 1,4 °C 0,0 km/h (0 Bft)
17.03.2017 04:22 1,4 °C 1,4 °C 84 % 1018,5 hPa 0,0 mm 0,0 km/h (0 Bft) S-SO 151 ° 0 min 0,000 mm 0,0 UV-I 0 W/m² -1,0 °C 1,4 °C 0,0 km/h (0 Bft)
17.03.2017 04:23 1,4 °C 1,4 °C 84 % 1018,5 hPa 0,0 mm 0,0 km/h (0 Bft) S-SO 151 ° 0 min 0,000 mm 0,0 UV-I 0 W/m² -1,0 °C 1,4 °C 0,0 km/h (0 Bft)
17.03.2017 04:24 1,4 °C 1,4 °C 84 % 1018,5 hPa 0,0 mm 0,0 km/h (0 Bft) S-SO 151 ° 0 min 0,000 mm 0,0 UV-I 0 W/m² -1,0 °C 1,4 °C 0,0 km/h (0 Bft)
17.03.2017 04:25 1,3 °C 1,4 °C 84 % 1018,5 hPa 0,0 mm 0,0 km/h (0 Bft) S-SO 151 ° 0 min 0,000 mm 0,0 UV-I 0 W/m² -1,1 °C 1,3 °C 0,0 km/h (0 Bft)
17.03.2017 04:26 1,3 °C 1,3 °C 85 % 1018,6 hPa 0,0 mm 0,0 km/h (0 Bft) S-SO 151 ° 0 min 0,000 mm 0,0 UV-I 0 W/m² -0,9 °C 1,3 °C 0,0 km/h (0 Bft)
17.03.2017 04:27 1,3 °C 1,3 °C 85 % 1018,5 hPa 0,0 mm 0,0 km/h (0 Bft) S-SO 151 ° 0 min 0,000 mm 0,0 UV-I 0 W/m² -0,9 °C 1,3 °C 0,0 km/h (0 Bft)
17.03.2017 04:28 1,4 °C 1,4 °C 85 % 1018,6 hPa 0,0 mm 0,0 km/h (0 Bft) S-SO 151 ° 0 min 0,000 mm 0,0 UV-I 0 W/m² -0,8 °C 1,4 °C 0,0 km/h (0 Bft)
17.03.2017 04:29 1,4 °C 1,5 °C 85 % 1018,6 hPa 0,0 mm 0,0 km/h (0 Bft) S-SO 151 ° 0 min 0,000 mm 0,0 UV-I 0 W/m² -0,8 °C 1,4 °C 0,0 km/h (0 Bft)
17.03.2017 04:30 1,4 °C 1,5 °C 84 % 1018,6 hPa 0,0 mm 0,0 km/h (0 Bft) S-SO 151 ° 0 min 0,000 mm 0,0 UV-I 0 W/m² -1,0 °C 1,4 °C 0,0 km/h (0 Bft)
17.03.2017 04:31 1,4 °C 1,5 °C 84 % 1018,5 hPa 0,0 mm 0,0 km/h (0 Bft) S-SO 151 ° 0 min 0,000 mm 0,0 UV-I 0 W/m² -1,0 °C 1,4 °C 0,0 km/h (0 Bft)
17.03.2017 04:32 1,6 °C 1,6 °C 85 % 1018,5 hPa 0,0 mm 0,0 km/h (0 Bft) S-SO 151 ° 0 min 0,000 mm 0,0 UV-I 0 W/m² -0,6 °C 1,6 °C 0,0 km/h (0 Bft)
17.03.2017 04:33 1,5 °C 1,6 °C 83 % 1018,6 hPa 0,0 mm 0,0 km/h (0 Bft) S-SO 151 ° 0 min 0,000 mm 0,0 UV-I 0 W/m² -1,1 °C 1,5 °C 0,0 km/h (0 Bft)
17.03.2017 04:34 1,4 °C 1,5 °C 83 % 1018,5 hPa 0,0 mm 0,0 km/h (0 Bft) S-SO 151 ° 0 min 0,000 mm 0,0 UV-I 0 W/m² -1,2 °C 1,4 °C 0,0 km/h (0 Bft)
17.03.2017 04:35 1,4 °C 1,4 °C 84 % 1018,5 hPa 0,0 mm 0,0 km/h (0 Bft) S-SO 151 ° 0 min 0,000 mm 0,0 UV-I 0 W/m² -1,0 °C 1,4 °C 0,0 km/h (0 Bft)
17.03.2017 04:36 1,3 °C 1,4 °C 84 % 1018,5 hPa 0,0 mm 0,0 km/h (0 Bft) S-SO 151 ° 0 min 0,000 mm 0,0 UV-I 0 W/m² -1,1 °C 1,3 °C 0,0 km/h (0 Bft)
17.03.2017 04:37 1,4 °C 1,4 °C 85 % 1018,5 hPa 0,0 mm 0,0 km/h (0 Bft) S-SO 151 ° 0 min 0,000 mm 0,0 UV-I 0 W/m² -0,8 °C 1,4 °C 0,0 km/h (0 Bft)
17.03.2017 04:38 1,4 °C 1,4 °C 84 % 1018,5 hPa 0,0 mm 0,0 km/h (0 Bft) S-SO 151 ° 0 min 0,000 mm 0,0 UV-I 0 W/m² -1,0 °C 1,4 °C 0,0 km/h (0 Bft)
17.03.2017 04:39 1,4 °C 1,4 °C 83 % 1018,4 hPa 0,0 mm 0,0 km/h (0 Bft) S-SO 151 ° 0 min 0,000 mm 0,0 UV-I 0 W/m² -1,2 °C 1,4 °C 0,0 km/h (0 Bft)
17.03.2017 04:40 1,3 °C 1,4 °C 83 % 1018,5 hPa 0,0 mm 0,0 km/h (0 Bft) S-SO 151 ° 0 min 0,000 mm 0,0 UV-I 0 W/m² -1,3 °C 1,3 °C 0,0 km/h (0 Bft)
17.03.2017 04:41 1,3 °C 1,3 °C 84 % 1018,5 hPa 0,0 mm 0,0 km/h (0 Bft) S-SO 151 ° 0 min 0,000 mm 0,0 UV-I 0 W/m² -1,1 °C 1,3 °C 0,0 km/h (0 Bft)
17.03.2017 04:42 1,3 °C 1,3 °C 84 % 1018,5 hPa 0,0 mm 0,0 km/h (0 Bft) S-SO 151 ° 0 min 0,000 mm 0,0 UV-I 0 W/m² -1,1 °C 1,3 °C 0,0 km/h (0 Bft)
17.03.2017 04:43 1,3 °C 1,3 °C 84 % 1018,4 hPa 0,0 mm 0,0 km/h (0 Bft) S-SO 151 ° 0 min 0,000 mm 0,0 UV-I 0 W/m² -1,1 °C 1,3 °C 0,0 km/h (0 Bft)
17.03.2017 04:44 1,2 °C 1,3 °C 84 % 1018,5 hPa 0,0 mm 0,0 km/h (0 Bft) S-SO 151 ° 0 min 0,000 mm 0,0 UV-I 0 W/m² -1,2 °C 1,2 °C 0,0 km/h (0 Bft)
17.03.2017 04:45 1,2 °C 1,2 °C 84 % 1018,4 hPa 0,0 mm 0,0 km/h (0 Bft) S-SO 151 ° 0 min 0,000 mm 0,0 UV-I 0 W/m² -1,2 °C 1,2 °C 0,0 km/h (0 Bft)
17.03.2017 04:46 1,2 °C 1,2 °C 84 % 1018,5 hPa 0,0 mm 0,0 km/h (0 Bft) S-SO 151 ° 0 min 0,000 mm 0,0 UV-I 0 W/m² -1,2 °C 1,2 °C 0,0 km/h (0 Bft)
17.03.2017 04:47 1,2 °C 1,2 °C 85 % 1018,5 hPa 0,0 mm 0,0 km/h (0 Bft) S-SO 151 ° 0 min 0,000 mm 0,0 UV-I 0 W/m² -1,0 °C 1,2 °C 0,0 km/h (0 Bft)
17.03.2017 04:48 1,2 °C 1,2 °C 85 % 1018,5 hPa 0,0 mm 0,0 km/h (0 Bft) S-SO 151 ° 0 min 0,000 mm 0,0 UV-I 0 W/m² -1,0 °C 1,2 °C 0,0 km/h (0 Bft)
17.03.2017 04:49 1,2 °C 1,2 °C 85 % 1018,4 hPa 0,0 mm 0,0 km/h (0 Bft) S-SO 151 ° 0 min 0,000 mm 0,0 UV-I 0 W/m² -1,0 °C 1,2 °C 0,0 km/h (0 Bft)
17.03.2017 04:50 1,2 °C 1,2 °C 85 % 1018,4 hPa 0,0 mm 0,0 km/h (0 Bft) S-SO 151 ° 0 min 0,000 mm 0,0 UV-I 0 W/m² -1,0 °C 1,2 °C 0,0 km/h (0 Bft)
17.03.2017 04:51 1,3 °C 1,3 °C 85 % 1018,4 hPa 0,0 mm 0,0 km/h (0 Bft) S-SO 151 ° 0 min 0,000 mm 0,0 UV-I 0 W/m² -0,9 °C 1,3 °C 0,0 km/h (0 Bft)
17.03.2017 04:52 1,2 °C 1,3 °C 84 % 1018,5 hPa 0,0 mm 0,0 km/h (0 Bft) S-SO 151 ° 0 min 0,000 mm 0,0 UV-I 0 W/m² -1,2 °C 1,2 °C 0,0 km/h (0 Bft)
17.03.2017 04:53 1,2 °C 1,2 °C 84 % 1018,5 hPa 0,0 mm 0,0 km/h (0 Bft) S-SO 151 ° 0 min 0,000 mm 0,0 UV-I 0 W/m² -1,2 °C 1,2 °C 0,0 km/h (0 Bft)
17.03.2017 04:54 1,1 °C 1,2 °C 84 % 1018,4 hPa 0,0 mm 0,0 km/h (0 Bft) S-SO 151 ° 0 min 0,000 mm 0,0 UV-I 0 W/m² -1,3 °C 1,1 °C 0,0 km/h (0 Bft)
17.03.2017 04:55 1,2 °C 1,2 °C 85 % 1018,5 hPa 0,0 mm 0,0 km/h (0 Bft) S-SO 151 ° 0 min 0,000 mm 0,0 UV-I 0 W/m² -1,0 °C 1,2 °C 0,0 km/h (0 Bft)
17.03.2017 04:56 1,2 °C 1,2 °C 85 % 1018,5 hPa 0,0 mm 0,0 km/h (0 Bft) S-SO 151 ° 0 min 0,000 mm 0,0 UV-I 0 W/m² -1,0 °C 1,2 °C 0,0 km/h (0 Bft)
17.03.2017 04:57 1,1 °C 1,2 °C 84 % 1018,4 hPa 0,0 mm 0,0 km/h (0 Bft) S-SO 151 ° 0 min 0,000 mm 0,0 UV-I 0 W/m² -1,3 °C 1,1 °C 0,0 km/h (0 Bft)
17.03.2017 04:58 1,1 °C 1,1 °C 84 % 1018,4 hPa 0,0 mm 0,0 km/h (0 Bft) S-SO 151 ° 0 min 0,000 mm 0,0 UV-I 0 W/m² -1,3 °C 1,1 °C 0,0 km/h (0 Bft)
17.03.2017 04:59 1,0 °C 1,1 °C 84 % 1018,4 hPa 0,0 mm 0,0 km/h (0 Bft) S-SO 151 ° 0 min 0,000 mm 0,0 UV-I 0 W/m² -1,4 °C 1,0 °C 0,0 km/h (0 Bft)
17.03.2017 05:00 0,9 °C 1,0 °C 84 % 1018,4 hPa 0,0 mm 0,0 km/h (0 Bft) S-SO 151 ° 0 min 0,000 mm 0,0 UV-I 0 W/m² -1,5 °C 0,9 °C 0,0 km/h (0 Bft)
17.03.2017 05:01 1,0 °C 1,0 °C 85 % 1018,4 hPa 0,0 mm 0,0 km/h (0 Bft) S-SO 151 ° 0 min 0,000 mm 0,0 UV-I 0 W/m² -1,2 °C 1,0 °C 0,0 km/h (0 Bft)
17.03.2017 05:02 1,1 °C 1,1 °C 85 % 1018,3 hPa 0,0 mm 0,0 km/h (0 Bft) S-SO 151 ° 0 min 0,000 mm 0,0 UV-I 0 W/m² -1,1 °C 1,1 °C 0,0 km/h (0 Bft)
17.03.2017 05:03 1,0 °C 1,1 °C 85 % 1018,4 hPa 0,0 mm 0,0 km/h (0 Bft) S-SO 151 ° 0 min 0,000 mm 0,0 UV-I 0 W/m² -1,2 °C 1,0 °C 0,0 km/h (0 Bft)
17.03.2017 05:04 1,1 °C 1,1 °C 84 % 1018,3 hPa 0,0 mm 0,0 km/h (0 Bft) S-SO 151 ° 0 min 0,000 mm 0,0 UV-I 0 W/m² -1,3 °C 1,1 °C 0,0 km/h (0 Bft)
17.03.2017 05:05 1,0 °C 1,1 °C 84 % 1018,3 hPa 0,0 mm 0,0 km/h (0 Bft) S-SO 151 ° 0 min 0,000 mm 0,0 UV-I 0 W/m² -1,4 °C 1,0 °C 0,0 km/h (0 Bft)
17.03.2017 05:06 1,0 °C 1,1 °C 84 % 1018,3 hPa 0,0 mm 0,0 km/h (0 Bft) S-SO 151 ° 0 min 0,000 mm 0,0 UV-I 0 W/m² -1,4 °C 1,0 °C 0,0 km/h (0 Bft)
17.03.2017 05:07 0,9 °C 1,0 °C 84 % 1018,3 hPa 0,0 mm 0,0 km/h (0 Bft) S-SO 151 ° 0 min 0,000 mm 0,0 UV-I 0 W/m² -1,5 °C 0,9 °C 0,0 km/h (0 Bft)
17.03.2017 05:08 0,7 °C 0,9 °C 84 % 1018,3 hPa 0,0 mm 0,0 km/h (0 Bft) S-SO 151 ° 0 min 0,000 mm 0,0 UV-I 0 W/m² -1,7 °C 0,7 °C 0,0 km/h (0 Bft)
17.03.2017 05:09 0,7 °C 0,8 °C 85 % 1018,3 hPa 0,0 mm 0,0 km/h (0 Bft) S-SO 151 ° 0 min 0,000 mm 0,0 UV-I 0 W/m² -1,5 °C 0,7 °C 0,0 km/h (0 Bft)
17.03.2017 05:10 0,7 °C 0,7 °C 85 % 1018,3 hPa 0,0 mm 0,0 km/h (0 Bft) S-SO 151 ° 0 min 0,000 mm 0,0 UV-I 0 W/m² -1,5 °C 0,7 °C 0,0 km/h (0 Bft)
17.03.2017 05:11 0,7 °C 0,7 °C 86 % 1018,3 hPa 0,0 mm 0,0 km/h (0 Bft) S-SO 151 ° 0 min 0,000 mm 0,0 UV-I 0 W/m² -1,4 °C 0,7 °C 0,0 km/h (0 Bft)
17.03.2017 05:12 0,6 °C 0,7 °C 86 % 1018,3 hPa 0,0 mm 0,0 km/h (0 Bft) S-SO 151 ° 0 min 0,000 mm 0,0 UV-I 0 W/m² -1,5 °C 0,6 °C 0,0 km/h (0 Bft)
17.03.2017 05:13 0,6 °C 0,6 °C 86 % 1018,3 hPa 0,0 mm 0,0 km/h (0 Bft) S-SO 151 ° 0 min 0,000 mm 0,0 UV-I 0 W/m² -1,5 °C 0,6 °C 0,0 km/h (0 Bft)
17.03.2017 05:14 0,7 °C 0,7 °C 87 % 1018,3 hPa 0,0 mm 0,0 km/h (0 Bft) S-SO 151 ° 0 min 0,000 mm 0,0 UV-I 0 W/m² -1,2 °C 0,7 °C 0,0 km/h (0 Bft)
17.03.2017 05:15 0,8 °C 0,8 °C 87 % 1018,3 hPa 0,0 mm 0,0 km/h (0 Bft) S-SO 151 ° 0 min 0,000 mm 0,0 UV-I 0 W/m² -1,1 °C 0,8 °C 0,0 km/h (0 Bft)
17.03.2017 05:16 0,8 °C 0,8 °C 86 % 1018,3 hPa 0,0 mm 0,0 km/h (0 Bft) S-SO 151 ° 0 min 0,000 mm 0,0 UV-I 0 W/m² -1,3 °C 0,8 °C 0,0 km/h (0 Bft)
17.03.2017 05:17 0,9 °C 0,9 °C 85 % 1018,3 hPa 0,0 mm 0,0 km/h (0 Bft) S-SO 151 ° 0 min 0,000 mm 0,0 UV-I 0 W/m² -1,3 °C 0,9 °C 0,0 km/h (0 Bft)
17.03.2017 05:18 0,9 °C 0,9 °C 86 % 1018,3 hPa 0,0 mm 0,2 km/h (0 Bft) S-SO 151 ° 0 min 0,000 mm 0,0 UV-I 0 W/m² -1,2 °C 0,9 °C 1,6 km/h (1 Bft)
17.03.2017 05:19 0,9 °C 0,9 °C 85 % 1018,4 hPa 0,0 mm 1,7 km/h (1 Bft) SW 231 ° 0 min 0,000 mm 0,0 UV-I 0 W/m² -1,3 °C 0,9 °C 3,2 km/h (1 Bft)
17.03.2017 05:20 0,8 °C 0,9 °C 85 % 1018,4 hPa 0,0 mm 2,8 km/h (1 Bft) SW 230 ° 0 min 0,000 mm 0,0 UV-I 0 W/m² -1,4 °C 0,8 °C 4,8 km/h (1 Bft)
17.03.2017 05:21 0,9 °C 0,9 °C 86 % 1018,4 hPa 0,0 mm 1,1 km/h (1 Bft) SW 230 ° 0 min 0,000 mm 0,0 UV-I 0 W/m² -1,2 °C 0,9 °C 4,8 km/h (1 Bft)
17.03.2017 05:22 0,9 °C 0,9 °C 86 % 1018,3 hPa 0,0 mm 0,1 km/h (0 Bft) SW 230 ° 0 min 0,000 mm 0,0 UV-I 0 W/m² -1,2 °C 0,9 °C 1,6 km/h (1 Bft)
17.03.2017 05:23 1,0 °C 1,0 °C 85 % 1018,3 hPa 0,0 mm 1,3 km/h (1 Bft) SW 230 ° 0 min 0,000 mm 0,0 UV-I 0 W/m² -1,2 °C 1,0 °C 1,6 km/h (1 Bft)
17.03.2017 05:24 0,9 °C 1,0 °C 85 % 1018,3 hPa 0,0 mm 0,1 km/h (0 Bft) SW 230 ° 0 min 0,000 mm 0,0 UV-I 0 W/m² -1,3 °C 0,9 °C 1,6 km/h (1 Bft)
17.03.2017 05:25 0,9 °C 0,9 °C 85 % 1018,3 hPa 0,0 mm 0,3 km/h (0 Bft) SW 230 ° 0 min 0,000 mm 0,0 UV-I 0 W/m² -1,3 °C 0,9 °C 1,6 km/h (1 Bft)
17.03.2017 05:26 0,8 °C 0,9 °C 85 % 1018,3 hPa 0,0 mm 1,3 km/h (1 Bft) SW 230 ° 0 min 0,000 mm 0,0 UV-I 0 W/m² -1,4 °C 0,8 °C 3,2 km/h (1 Bft)
17.03.2017 05:27 0,7 °C 0,8 °C 86 % 1018,3 hPa 0,0 mm 1,6 km/h (1 Bft) SW 230 ° 0 min 0,000 mm 0,0 UV-I 0 W/m² -1,4 °C 0,7 °C 3,2 km/h (1 Bft)
17.03.2017 05:28 0,8 °C 0,8 °C 86 % 1018,3 hPa 0,0 mm 0,8 km/h (0 Bft) SW 230 ° 0 min 0,000 mm 0,0 UV-I 0 W/m² -1,3 °C 0,8 °C 1,6 km/h (1 Bft)
17.03.2017 05:29 0,8 °C 0,8 °C 87 % 1018,3 hPa 0,0 mm 0,0 km/h (0 Bft) SW 230 ° 0 min 0,000 mm 0,0 UV-I 0 W/m² -1,1 °C 0,8 °C 0,0 km/h (0 Bft)
17.03.2017 05:30 0,8 °C 0,8 °C 86 % 1018,2 hPa 0,0 mm 0,1 km/h (0 Bft) SW 230 ° 0 min 0,000 mm 0,0 UV-I 0 W/m² -1,3 °C 0,8 °C 1,6 km/h (1 Bft)
17.03.2017 05:31 0,8 °C 0,8 °C 86 % 1018,2 hPa 0,0 mm 0,2 km/h (0 Bft) SW 230 ° 0 min 0,000 mm 0,0 UV-I 0 W/m² -1,3 °C 0,8 °C 1,6 km/h (1 Bft)
17.03.2017 05:32 0,9 °C 0,9 °C 86 % 1018,2 hPa 0,0 mm 0,1 km/h (0 Bft) SW 230 ° 0 min 0,000 mm 0,0 UV-I 0 W/m² -1,2 °C 0,9 °C 1,6 km/h (1 Bft)
17.03.2017 05:33 0,9 °C 0,9 °C 85 % 1018,2 hPa 0,0 mm 0,1 km/h (0 Bft) SW 230 ° 0 min 0,000 mm 0,0 UV-I 0 W/m² -1,3 °C 0,9 °C 1,6 km/h (1 Bft)
17.03.2017 05:34 0,9 °C 0,9 °C 85 % 1018,2 hPa 0,0 mm 1,9 km/h (1 Bft) SW 230 ° 0 min 0,000 mm 0,0 UV-I 0 W/m² -1,3 °C 0,9 °C 3,2 km/h (1 Bft)
17.03.2017 05:35 0,8 °C 0,9 °C 85 % 1018,2 hPa 0,0 mm 0,4 km/h (0 Bft) SW 230 ° 0 min 0,000 mm 0,0 UV-I 0 W/m² -1,4 °C 0,8 °C 1,6 km/h (1 Bft)
17.03.2017 05:36 0,8 °C 0,8 °C 86 % 1018,1 hPa 0,0 mm 0,4 km/h (0 Bft) SW 230 ° 0 min 0,000 mm 0,0 UV-I 0 W/m² -1,3 °C 0,8 °C 1,6 km/h (1 Bft)
17.03.2017 05:37 0,8 °C 0,8 °C 86 % 1018,1 hPa 0,0 mm 0,1 km/h (0 Bft) SW 230 ° 0 min 0,000 mm 0,0 UV-I 0 W/m² -1,3 °C 0,8 °C 1,6 km/h (1 Bft)
17.03.2017 05:38 0,8 °C 0,8 °C 85 % 1018,1 hPa 0,0 mm 0,9 km/h (0 Bft) SW 230 ° 0 min 0,000 mm 0,0 UV-I 0 W/m² -1,4 °C 0,8 °C 3,2 km/h (1 Bft)
17.03.2017 05:39 0,8 °C 0,8 °C 86 % 1018,1 hPa 0,0 mm 0,9 km/h (0 Bft) SW 230 ° 0 min 0,000 mm 0,0 UV-I 0 W/m² -1,3 °C 0,8 °C 3,2 km/h (1 Bft)
17.03.2017 05:40 0,8 °C 0,8 °C 86 % 1018,1 hPa 0,0 mm 1,2 km/h (1 Bft) SW 230 ° 0 min 0,000 mm 0,0 UV-I 0 W/m² -1,3 °C 0,8 °C 1,6 km/h (1 Bft)
17.03.2017 05:41 0,8 °C 0,8 °C 86 % 1018,2 hPa 0,0 mm 1,0 km/h (0 Bft) SW 230 ° 0 min 0,000 mm 0,0 UV-I 0 W/m² -1,3 °C 0,8 °C 1,6 km/h (1 Bft)
17.03.2017 05:42 0,8 °C 0,8 °C 86 % 1018,2 hPa 0,0 mm 0,2 km/h (0 Bft) SW 230 ° 0 min 0,000 mm 0,0 UV-I 0 W/m² -1,3 °C 0,8 °C 1,6 km/h (1 Bft)
17.03.2017 05:43 0,8 °C 0,8 °C 86 % 1018,2 hPa 0,0 mm 0,1 km/h (0 Bft) SW 230 ° 0 min 0,000 mm 0,0 UV-I 0 W/m² -1,3 °C 0,8 °C 1,6 km/h (1 Bft)
17.03.2017 05:44 0,8 °C 0,8 °C 86 % 1018,2 hPa 0,0 mm 0,6 km/h (0 Bft) SW 230 ° 0 min 0,000 mm 0,0 UV-I 0 W/m² -1,3 °C 0,8 °C 1,6 km/h (1 Bft)
17.03.2017 05:45 0,8 °C 0,8 °C 86 % 1018,2 hPa 0,0 mm 0,4 km/h (0 Bft) SW 230 ° 0 min 0,000 mm 0,0 UV-I 0 W/m² -1,3 °C 0,8 °C 1,6 km/h (1 Bft)
17.03.2017 05:46 0,8 °C 0,8 °C 86 % 1018,2 hPa 0,0 mm 0,1 km/h (0 Bft) SW 230 ° 0 min 0,000 mm 0,0 UV-I 0 W/m² -1,3 °C 0,8 °C 1,6 km/h (1 Bft)
17.03.2017 05:47 0,8 °C 0,8 °C 86 % 1018,2 hPa 0,0 mm 0,9 km/h (0 Bft) SW 230 ° 0 min 0,000 mm 0,0 UV-I 0 W/m² -1,3 °C 0,8 °C 1,6 km/h (1 Bft)
17.03.2017 05:48 0,8 °C 0,8 °C 86 % 1018,3 hPa 0,0 mm 0,6 km/h (0 Bft) SW 230 ° 0 min 0,000 mm 0,0 UV-I 0 W/m² -1,3 °C 0,8 °C 3,2 km/h (1 Bft)
17.03.2017 05:49 0,8 °C 0,8 °C 86 % 1018,3 hPa 0,0 mm 2,5 km/h (1 Bft) SW 230 ° 0 min 0,000 mm 0,0 UV-I 0 W/m² -1,3 °C 0,8 °C 3,2 km/h (1 Bft)
17.03.2017 05:50 0,8 °C 0,8 °C 86 % 1018,3 hPa 0,0 mm 0,8 km/h (0 Bft) SW 230 ° 0 min 0,000 mm 0,0 UV-I 0 W/m² -1,3 °C 0,8 °C 1,6 km/h (1 Bft)
17.03.2017 05:51 0,9 °C 0,9 °C 87 % 1018,3 hPa 0,0 mm 0,4 km/h (0 Bft) SW 230 ° 0 min 0,000 mm 0,0 UV-I 0 W/m² -1,0 °C 0,9 °C 3,2 km/h (1 Bft)
17.03.2017 05:52 1,0 °C 1,0 °C 86 % 1018,3 hPa 0,0 mm 1,4 km/h (1 Bft) SW 230 ° 0 min 0,000 mm 0,0 UV-I 0 W/m² -1,1 °C 1,0 °C 3,2 km/h (1 Bft)
17.03.2017 05:53 0,9 °C 1,0 °C 86 % 1018,3 hPa 0,0 mm 1,5 km/h (1 Bft) SW 230 ° 0 min 0,000 mm 0,0 UV-I 0 W/m² -1,2 °C 0,9 °C 3,2 km/h (1 Bft)
17.03.2017 05:54 0,9 °C 0,9 °C 86 % 1018,3 hPa 0,0 mm 0,6 km/h (0 Bft) SW 230 ° 0 min 0,000 mm 0,0 UV-I 0 W/m² -1,2 °C 0,9 °C 1,6 km/h (1 Bft)
17.03.2017 05:55 0,9 °C 0,9 °C 87 % 1018,3 hPa 0,0 mm 0,0 km/h (0 Bft) SW 230 ° 0 min 0,000 mm 0,0 UV-I 0 W/m² -1,0 °C 0,9 °C 0,0 km/h (0 Bft)
17.03.2017 05:56 0,9 °C 0,9 °C 86 % 1018,3 hPa 0,0 mm 0,3 km/h (0 Bft) SW 230 ° 0 min 0,000 mm 0,0 UV-I 0 W/m² -1,2 °C 0,9 °C 1,6 km/h (1 Bft)
17.03.2017 05:57 0,9 °C 0,9 °C 86 % 1018,2 hPa 0,0 mm 0,1 km/h (0 Bft) SW 230 ° 0 min 0,000 mm 0,0 UV-I 0 W/m² -1,2 °C 0,9 °C 1,6 km/h (1 Bft)
17.03.2017 05:58 0,9 °C 0,9 °C 86 % 1018,3 hPa 0,0 mm 0,0 km/h (0 Bft) SW 230 ° 0 min 0,000 mm 0,0 UV-I 0 W/m² -1,2 °C 0,9 °C 0,0 km/h (0 Bft)
17.03.2017 05:59 0,9 °C 0,9 °C 87 % 1018,2 hPa 0,0 mm 0,3 km/h (0 Bft) SW 230 ° 0 min 0,000 mm 0,0 UV-I 0 W/m² -1,0 °C 0,9 °C 1,6 km/h (1 Bft)
17.03.2017 06:00 1,1 °C 1,1 °C 86 % 1018,2 hPa 0,0 mm 0,5 km/h (0 Bft) SW 230 ° 0 min 0,000 mm 0,0 UV-I 0 W/m² -1,0 °C 1,1 °C 1,6 km/h (1 Bft)
17.03.2017 06:01 1,2 °C 1,2 °C 86 % 1018,3 hPa 0,0 mm 0,0 km/h (0 Bft) SW 230 ° 0 min 0,000 mm 0,0 UV-I 0 W/m² -0,9 °C 1,2 °C 0,0 km/h (0 Bft)
17.03.2017 06:02 1,2 °C 1,2 °C 85 % 1018,3 hPa 0,0 mm 0,0 km/h (0 Bft) SW 230 ° 0 min 0,000 mm 0,0 UV-I 0 W/m² -1,0 °C 1,2 °C 0,0 km/h (0 Bft)
17.03.2017 06:03 1,2 °C 1,2 °C 85 % 1018,3 hPa 0,0 mm 0,5 km/h (0 Bft) SW 230 ° 0 min 0,000 mm 0,0 UV-I 0 W/m² -1,0 °C 1,2 °C 1,6 km/h (1 Bft)
17.03.2017 06:04 1,2 °C 1,2 °C 85 % 1018,2 hPa 0,0 mm 0,2 km/h (0 Bft) SW 230 ° 0 min 0,000 mm 0,0 UV-I 0 W/m² -1,0 °C 1,2 °C 1,6 km/h (1 Bft)
17.03.2017 06:05 1,2 °C 1,2 °C 85 % 1018,2 hPa 0,0 mm 0,7 km/h (0 Bft) SW 230 ° 0 min 0,000 mm 0,0 UV-I 0 W/m² -1,0 °C 1,2 °C 1,6 km/h (1 Bft)
17.03.2017 06:06 1,1 °C 1,2 °C 85 % 1018,2 hPa 0,0 mm 0,8 km/h (0 Bft) SW 230 ° 0 min 0,000 mm 0,0 UV-I 0 W/m² -1,1 °C 1,1 °C 1,6 km/h (1 Bft)
17.03.2017 06:07 1,1 °C 1,1 °C 86 % 1018,3 hPa 0,0 mm 0,6 km/h (0 Bft) SW 230 ° 0 min 0,000 mm 0,0 UV-I 0 W/m² -1,0 °C 1,1 °C 3,2 km/h (1 Bft)
17.03.2017 06:08 1,0 °C 1,1 °C 86 % 1018,3 hPa 0,0 mm 1,3 km/h (1 Bft) SW 230 ° 0 min 0,000 mm 0,0 UV-I 0 W/m² -1,1 °C 1,0 °C 1,6 km/h (1 Bft)
17.03.2017 06:09 1,1 °C 1,1 °C 87 % 1018,3 hPa 0,0 mm 0,7 km/h (0 Bft) SW 230 ° 0 min 0,000 mm 0,0 UV-I 0 W/m² -0,8 °C 1,1 °C 1,6 km/h (1 Bft)
17.03.2017 06:10 1,1 °C 1,1 °C 86 % 1018,3 hPa 0,0 mm 0,2 km/h (0 Bft) SW 230 ° 0 min 0,000 mm 0,0 UV-I 0 W/m² -1,0 °C 1,1 °C 1,6 km/h (1 Bft)
17.03.2017 06:11 1,1 °C 1,1 °C 85 % 1018,3 hPa 0,0 mm 0,3 km/h (0 Bft) SW 230 ° 0 min 0,000 mm 0,0 UV-I 0 W/m² -1,1 °C 1,1 °C 1,6 km/h (1 Bft)
17.03.2017 06:12 1,1 °C 1,1 °C 86 % 1018,3 hPa 0,0 mm 3,2 km/h (1 Bft) SW 230 ° 0 min 0,000 mm 0,0 UV-I 0 W/m² -1,0 °C 1,1 °C 4,8 km/h (1 Bft)
17.03.2017 06:13 1,2 °C 1,2 °C 87 % 1018,3 hPa 0,0 mm 0,6 km/h (0 Bft) SW 230 ° 0 min 0,000 mm 0,0 UV-I 0 W/m² -0,7 °C 1,2 °C 1,6 km/h (1 Bft)
17.03.2017 06:14 1,2 °C 1,2 °C 85 % 1018,3 hPa 0,0 mm 1,9 km/h (1 Bft) SW 230 ° 0 min 0,000 mm 0,0 UV-I 0 W/m² -1,0 °C 1,2 °C 3,2 km/h (1 Bft)
17.03.2017 06:15 1,2 °C 1,2 °C 85 % 1018,3 hPa 0,0 mm 0,3 km/h (0 Bft) SW 230 ° 0 min 0,000 mm 0,0 UV-I 0 W/m² -1,0 °C 1,2 °C 1,6 km/h (1 Bft)
17.03.2017 06:16 1,2 °C 1,2 °C 84 % 1018,4 hPa 0,0 mm 1,2 km/h (1 Bft) SW 230 ° 0 min 0,000 mm 0,0 UV-I 0 W/m² -1,2 °C 1,2 °C 3,2 km/h (1 Bft)
17.03.2017 06:17 1,2 °C 1,2 °C 86 % 1018,3 hPa 0,0 mm 0,6 km/h (0 Bft) SW 230 ° 0 min 0,000 mm 0,0 UV-I 0 W/m² -0,9 °C 1,2 °C 1,6 km/h (1 Bft)
17.03.2017 06:18 1,3 °C 1,3 °C 86 % 1018,3 hPa 0,0 mm 0,3 km/h (0 Bft) SW 230 ° 0 min 0,000 mm 0,0 UV-I 0 W/m² -0,8 °C 1,3 °C 1,6 km/h (1 Bft)
17.03.2017 06:19 1,3 °C 1,3 °C 84 % 1018,3 hPa 0,0 mm 0,0 km/h (0 Bft) SW 230 ° 0 min 0,000 mm 0,0 UV-I 0 W/m² -1,1 °C 1,3 °C 0,0 km/h (0 Bft)
17.03.2017 06:20 1,2 °C 1,3 °C 84 % 1018,3 hPa 0,0 mm 0,0 km/h (0 Bft) SW 230 ° 0 min 0,000 mm 0,0 UV-I 0 W/m² -1,2 °C 1,2 °C 0,0 km/h (0 Bft)
17.03.2017 06:21 1,1 °C 1,2 °C 85 % 1018,3 hPa 0,0 mm 0,7 km/h (0 Bft) SW 230 ° 0 min 0,000 mm 0,0 UV-I 0 W/m² -1,1 °C 1,1 °C 3,2 km/h (1 Bft)
17.03.2017 06:22 1,1 °C 1,1 °C 85 % 1018,3 hPa 0,0 mm 2,1 km/h (1 Bft) SW 230 ° 0 min 0,000 mm 0,0 UV-I 0 W/m² -1,1 °C 1,1 °C 3,2 km/h (1 Bft)
17.03.2017 06:23 1,2 °C 1,2 °C 86 % 1018,3 hPa 0,0 mm 0,8 km/h (0 Bft) SW 230 ° 0 min 0,000 mm 0,0 UV-I 0 W/m² -0,9 °C 1,2 °C 1,6 km/h (1 Bft)
17.03.2017 06:24 1,3 °C 1,3 °C 85 % 1018,3 hPa 0,0 mm 0,2 km/h (0 Bft) SW 230 ° 0 min 0,000 mm 0,0 UV-I 0 W/m² -0,9 °C 1,3 °C 1,6 km/h (1 Bft)
17.03.2017 06:25 1,3 °C 1,3 °C 85 % 1018,3 hPa 0,0 mm 0,1 km/h (0 Bft) SW 230 ° 0 min 0,000 mm 0,0 UV-I 0 W/m² -0,9 °C 1,3 °C 1,6 km/h (1 Bft)
17.03.2017 06:26 1,3 °C 1,3 °C 85 % 1018,3 hPa 0,0 mm 0,0 km/h (0 Bft) SW 230 ° 0 min 0,000 mm 0,0 UV-I 0 W/m² -0,9 °C 1,3 °C 0,0 km/h (0 Bft)
17.03.2017 06:27 1,3 °C 1,3 °C 86 % 1018,3 hPa 0,0 mm 0,0 km/h (0 Bft) SW 230 ° 0 min 0,000 mm 0,0 UV-I 0 W/m² -0,8 °C 1,3 °C 0,0 km/h (0 Bft)
17.03.2017 06:28 1,2 °C 1,3 °C 85 % 1018,2 hPa 0,0 mm 0,0 km/h (0 Bft) SW 230 ° 0 min 0,000 mm 0,0 UV-I 0 W/m² -1,0 °C 1,2 °C 0,0 km/h (0 Bft)
17.03.2017 06:29 1,2 °C 1,3 °C 86 % 1018,2 hPa 0,0 mm 0,5 km/h (0 Bft) SW 230 ° 0 min 0,000 mm 0,0 UV-I 0 W/m² -0,9 °C 1,2 °C 1,6 km/h (1 Bft)
17.03.2017 06:30 1,3 °C 1,3 °C 86 % 1018,2 hPa 0,0 mm 0,3 km/h (0 Bft) SW 230 ° 0 min 0,000 mm 0,0 UV-I 5 W/m² -0,8 °C 1,3 °C 1,6 km/h (1 Bft)
17.03.2017 06:31 1,4 °C 1,4 °C 85 % 1018,2 hPa 0,0 mm 0,7 km/h (0 Bft) SW 230 ° 0 min 0,000 mm 0,0 UV-I 5 W/m² -0,8 °C 1,4 °C 3,2 km/h (1 Bft)
17.03.2017 06:32 1,3 °C 1,4 °C 85 % 1018,2 hPa 0,0 mm 0,0 km/h (0 Bft) SW 230 ° 0 min 0,000 mm 0,0 UV-I 5 W/m² -0,9 °C 1,3 °C 0,0 km/h (0 Bft)
17.03.2017 06:33 1,3 °C 1,3 °C 84 % 1018,1 hPa 0,0 mm 0,0 km/h (0 Bft) SW 230 ° 0 min 0,000 mm 0,0 UV-I 5 W/m² -1,1 °C 1,3 °C 0,0 km/h (0 Bft)
17.03.2017 06:34 1,2 °C 1,3 °C 85 % 1018,1 hPa 0,0 mm 0,0 km/h (0 Bft) SW 230 ° 0 min 0,000 mm 0,0 UV-I 7 W/m² -1,0 °C 1,2 °C 0,0 km/h (0 Bft)
17.03.2017 06:35 1,2 °C 1,2 °C 85 % 1018,0 hPa 0,0 mm 0,0 km/h (0 Bft) SW 230 ° 0 min 0,000 mm 0,0 UV-I 7 W/m² -1,0 °C 1,2 °C 0,0 km/h (0 Bft)
17.03.2017 06:36 1,2 °C 1,2 °C 85 % 1018,0 hPa 0,0 mm 0,0 km/h (0 Bft) SW 230 ° 0 min 0,000 mm 0,0 UV-I 7 W/m² -1,0 °C 1,2 °C 0,0 km/h (0 Bft)
17.03.2017 06:37 1,2 °C 1,2 °C 85 % 1018,0 hPa 0,0 mm 0,0 km/h (0 Bft) SW 230 ° 0 min 0,000 mm 0,0 UV-I 9 W/m² -1,0 °C 1,2 °C 0,0 km/h (0 Bft)
17.03.2017 06:38 1,2 °C 1,2 °C 85 % 1018,0 hPa 0,0 mm 0,0 km/h (0 Bft) SW 230 ° 0 min 0,000 mm 0,0 UV-I 9 W/m² -1,0 °C 1,2 °C 0,0 km/h (0 Bft)
17.03.2017 06:39 1,2 °C 1,2 °C 85 % 1018,0 hPa 0,0 mm 0,0 km/h (0 Bft) SW 230 ° 0 min 0,000 mm 0,0 UV-I 11 W/m² -1,0 °C 1,2 °C 0,0 km/h (0 Bft)
17.03.2017 06:40 1,2 °C 1,3 °C 85 % 1018,0 hPa 0,0 mm 0,0 km/h (0 Bft) SW 230 ° 0 min 0,000 mm 0,0 UV-I 11 W/m² -1,0 °C 1,2 °C 0,0 km/h (0 Bft)
17.03.2017 06:41 1,2 °C 1,2 °C 85 % 1018,0 hPa 0,0 mm 0,0 km/h (0 Bft) SW 230 ° 0 min 0,000 mm 0,0 UV-I 11 W/m² -1,0 °C 1,2 °C 0,0 km/h (0 Bft)
17.03.2017 06:42 1,2 °C 1,2 °C 85 % 1018,0 hPa 0,0 mm 0,6 km/h (0 Bft) SW 230 ° 0 min 0,000 mm 0,0 UV-I 12 W/m² -1,0 °C 1,2 °C 1,6 km/h (1 Bft)
17.03.2017 06:43 1,1 °C 1,2 °C 85 % 1018,0 hPa 0,0 mm 0,0 km/h (0 Bft) SW 230 ° 0 min 0,000 mm 0,0 UV-I 12 W/m² -1,1 °C 1,1 °C 0,0 km/h (0 Bft)
17.03.2017 06:44 1,1 °C 1,1 °C 86 % 1018,1 hPa 0,0 mm 0,0 km/h (0 Bft) SW 230 ° 0 min 0,000 mm 0,0 UV-I 12 W/m² -1,0 °C 1,1 °C 0,0 km/h (0 Bft)
17.03.2017 06:45 1,2 °C 1,2 °C 86 % 1018,0 hPa 0,0 mm 0,7 km/h (0 Bft) SW 230 ° 0 min 0,000 mm 0,0 UV-I 12 W/m² -0,9 °C 1,2 °C 1,6 km/h (1 Bft)
17.03.2017 06:46 1,2 °C 1,2 °C 86 % 1018,1 hPa 0,0 mm 1,4 km/h (1 Bft) SW 230 ° 0 min 0,000 mm 0,0 UV-I 14 W/m² -0,9 °C 1,2 °C 3,2 km/h (1 Bft)
17.03.2017 06:47 1,2 °C 1,2 °C 87 % 1018,1 hPa 0,0 mm 0,1 km/h (0 Bft) SW 230 ° 0 min 0,000 mm 0,0 UV-I 14 W/m² -0,7 °C 1,2 °C 1,6 km/h (1 Bft)
17.03.2017 06:48 1,2 °C 1,2 °C 86 % 1018,0 hPa 0,0 mm 0,1 km/h (0 Bft) SW 230 ° 0 min 0,000 mm 0,0 UV-I 14 W/m² -0,9 °C 1,2 °C 1,6 km/h (1 Bft)
17.03.2017 06:49 1,2 °C 1,2 °C 86 % 1018,1 hPa 0,0 mm 0,0 km/h (0 Bft) SW 230 ° 0 min 0,000 mm 0,0 UV-I 16 W/m² -0,9 °C 1,2 °C 0,0 km/h (0 Bft)
17.03.2017 06:50 1,2 °C 1,2 °C 86 % 1018,1 hPa 0,0 mm 0,2 km/h (0 Bft) SW 230 ° 0 min 0,000 mm 0,0 UV-I 16 W/m² -0,9 °C 1,2 °C 1,6 km/h (1 Bft)
17.03.2017 06:51 1,1 °C 1,2 °C 87 % 1018,1 hPa 0,0 mm 0,3 km/h (0 Bft) SW 230 ° 0 min 0,000 mm 0,0 UV-I 16 W/m² -0,8 °C 1,1 °C 1,6 km/h (1 Bft)
17.03.2017 06:52 1,1 °C 1,2 °C 87 % 1018,1 hPa 0,0 mm 0,0 km/h (0 Bft) SW 230 ° 0 min 0,000 mm 0,0 UV-I 16 W/m² -0,8 °C 1,1 °C 0,0 km/h (0 Bft)
17.03.2017 06:53 1,1 °C 1,1 °C 86 % 1018,1 hPa 0,0 mm 0,0 km/h (0 Bft) SW 230 ° 0 min 0,000 mm 0,0 UV-I 16 W/m² -1,0 °C 1,1 °C 0,0 km/h (0 Bft)
17.03.2017 06:54 1,1 °C 1,1 °C 87 % 1018,1 hPa 0,0 mm 0,0 km/h (0 Bft) SW 230 ° 0 min 0,000 mm 0,0 UV-I 18 W/m² -0,8 °C 1,1 °C 0,0 km/h (0 Bft)
17.03.2017 06:55 1,2 °C 1,2 °C 87 % 1018,0 hPa 0,0 mm 0,3 km/h (0 Bft) SW 230 ° 0 min 0,000 mm 0,0 UV-I 18 W/m² -0,7 °C 1,2 °C 1,6 km/h (1 Bft)
17.03.2017 06:56 1,3 °C 1,3 °C 86 % 1018,1 hPa 0,0 mm 0,7 km/h (0 Bft) SW 230 ° 0 min 0,000 mm 0,0 UV-I 18 W/m² -0,8 °C 1,3 °C 1,6 km/h (1 Bft)
17.03.2017 06:57 1,4 °C 1,4 °C 86 % 1018,1 hPa 0,0 mm 1,1 km/h (1 Bft) SW 230 ° 0 min 0,000 mm 0,0 UV-I 18 W/m² -0,7 °C 1,4 °C 1,6 km/h (1 Bft)
17.03.2017 06:58 1,6 °C 1,6 °C 85 % 1018,1 hPa 0,0 mm 0,9 km/h (0 Bft) SW 230 ° 0 min 0,000 mm 0,0 UV-I 19 W/m² -0,6 °C 1,6 °C 1,6 km/h (1 Bft)
17.03.2017 06:59 1,7 °C 1,7 °C 85 % 1018,0 hPa 0,0 mm 0,0 km/h (0 Bft) SW 230 ° 0 min 0,000 mm 0,0 UV-I 19 W/m² -0,5 °C 1,7 °C 0,0 km/h (0 Bft)
17.03.2017 07:00 1,8 °C 1,8 °C 84 % 1018,0 hPa 0,0 mm 0,3 km/h (0 Bft) SW 230 ° 0 min 0,000 mm 0,0 UV-I 19 W/m² -0,6 °C 1,8 °C 1,6 km/h (1 Bft)
17.03.2017 07:01 1,9 °C 1,9 °C 84 % 1018,1 hPa 0,0 mm 1,5 km/h (1 Bft) SW 230 ° 0 min 0,000 mm 0,0 UV-I 19 W/m² -0,5 °C 1,9 °C 3,2 km/h (1 Bft)
17.03.2017 07:02 2,2 °C 2,2 °C 83 % 1018,1 hPa 0,0 mm 0,6 km/h (0 Bft) SW 230 ° 0 min 0,000 mm 0,0 UV-I 21 W/m² -0,4 °C 2,2 °C 1,6 km/h (1 Bft)
17.03.2017 07:03 2,2 °C 2,2 °C 83 % 1018,1 hPa 0,0 mm 0,0 km/h (0 Bft) SW 230 ° 0 min 0,000 mm 0,0 UV-I 21 W/m² -0,4 °C 2,2 °C 0,0 km/h (0 Bft)
17.03.2017 07:04 2,2 °C 2,2 °C 82 % 1018,1 hPa 0,0 mm 0,1 km/h (0 Bft) SW 230 ° 0 min 0,000 mm 0,0 UV-I 21 W/m² -0,5 °C 2,2 °C 1,6 km/h (1 Bft)
17.03.2017 07:05 2,1 °C 2,2 °C 83 % 1018,1 hPa 0,0 mm 0,9 km/h (0 Bft) SW 230 ° 0 min 0,000 mm 0,0 UV-I 21 W/m² -0,5 °C 2,1 °C 1,6 km/h (1 Bft)
17.03.2017 07:06 2,0 °C 2,1 °C 83 % 1018,0 hPa 0,0 mm 0,3 km/h (0 Bft) SW 230 ° 0 min 0,000 mm 0,0 UV-I 23 W/m² -0,6 °C 2,0 °C 1,6 km/h (1 Bft)
17.03.2017 07:07 1,9 °C 2,0 °C 83 % 1018,1 hPa 0,0 mm 0,0 km/h (0 Bft) SW 230 ° 0 min 0,000 mm 0,0 UV-I 23 W/m² -0,7 °C 1,9 °C 0,0 km/h (0 Bft)
17.03.2017 07:08 1,8 °C 1,9 °C 83 % 1018,0 hPa 0,0 mm 0,0 km/h (0 Bft) SW 230 ° 0 min 0,000 mm 0,0 UV-I 23 W/m² -0,8 °C 1,8 °C 0,0 km/h (0 Bft)
17.03.2017 07:09 1,8 °C 1,8 °C 83 % 1018,1 hPa 0,0 mm 0,0 km/h (0 Bft) SW 230 ° 0 min 0,000 mm 0,0 UV-I 23 W/m² -0,8 °C 1,8 °C 0,0 km/h (0 Bft)
17.03.2017 07:10 1,8 °C 1,8 °C 84 % 1018,0 hPa 0,0 mm 0,0 km/h (0 Bft) SW 230 ° 0 min 0,000 mm 0,0 UV-I 23 W/m² -0,6 °C 1,8 °C 0,0 km/h (0 Bft)
17.03.2017 07:11 1,8 °C 1,8 °C 84 % 1018,1 hPa 0,0 mm 0,0 km/h (0 Bft) SW 230 ° 0 min 0,000 mm 0,0 UV-I 25 W/m² -0,6 °C 1,8 °C 0,0 km/h (0 Bft)
17.03.2017 07:12 1,8 °C 1,8 °C 84 % 1018,0 hPa 0,0 mm 0,0 km/h (0 Bft) SW 230 ° 0 min 0,000 mm 0,0 UV-I 25 W/m² -0,6 °C 1,8 °C 0,0 km/h (0 Bft)
17.03.2017 07:13 1,8 °C 1,9 °C 84 % 1018,0 hPa 0,0 mm 0,0 km/h (0 Bft) SW 230 ° 0 min 0,000 mm 0,0 UV-I 25 W/m² -0,6 °C 1,8 °C 0,0 km/h (0 Bft)
17.03.2017 07:14 1,8 °C 1,8 °C 84 % 1018,0 hPa 0,0 mm 0,0 km/h (0 Bft) SW 230 ° 0 min 0,000 mm 0,0 UV-I 26 W/m² -0,6 °C 1,8 °C 0,0 km/h (0 Bft)
17.03.2017 07:15 1,8 °C 1,8 °C 84 % 1018,1 hPa 0,0 mm 0,0 km/h (0 Bft) SW 230 ° 0 min 0,000 mm 0,0 UV-I 26 W/m² -0,6 °C 1,8 °C 0,0 km/h (0 Bft)
17.03.2017 07:16 1,8 °C 1,8 °C 84 % 1018,2 hPa 0,0 mm 0,0 km/h (0 Bft) SW 230 ° 0 min 0,000 mm 0,0 UV-I 26 W/m² -0,6 °C 1,8 °C 0,0 km/h (0 Bft)
17.03.2017 07:17 1,8 °C 1,8 °C 85 % 1018,2 hPa 0,0 mm 1,1 km/h (1 Bft) SW 230 ° 0 min 0,000 mm 0,0 UV-I 26 W/m² -0,4 °C 1,8 °C 3,2 km/h (1 Bft)
17.03.2017 07:18 1,9 °C 1,9 °C 84 % 1018,1 hPa 0,0 mm 1,9 km/h (1 Bft) SW 230 ° 0 min 0,000 mm 0,0 UV-I 28 W/m² -0,5 °C 1,9 °C 3,2 km/h (1 Bft)
17.03.2017 07:19 2,1 °C 2,1 °C 84 % 1018,1 hPa 0,0 mm 1,7 km/h (1 Bft) SW 230 ° 0 min 0,000 mm 0,0 UV-I 28 W/m² -0,3 °C 2,1 °C 3,2 km/h (1 Bft)
17.03.2017 07:20 2,2 °C 2,2 °C 84 % 1018,2 hPa 0,0 mm 1,2 km/h (1 Bft) SW 230 ° 0 min 0,000 mm 0,0 UV-I 28 W/m² -0,2 °C 2,2 °C 1,6 km/h (1 Bft)
17.03.2017 07:21 2,2 °C 2,2 °C 83 % 1018,1 hPa 0,0 mm 1,3 km/h (1 Bft) SW 230 ° 0 min 0,000 mm 0,0 UV-I 28 W/m² -0,4 °C 2,2 °C 1,6 km/h (1 Bft)
17.03.2017 07:22 2,1 °C 2,2 °C 84 % 1018,2 hPa 0,0 mm 0,3 km/h (0 Bft) SW 230 ° 0 min 0,000 mm 0,0 UV-I 28 W/m² -0,3 °C 2,1 °C 1,6 km/h (1 Bft)
17.03.2017 07:23 2,1 °C 2,1 °C 84 % 1018,1 hPa 0,0 mm 0,0 km/h (0 Bft) SW 230 ° 0 min 0,000 mm 0,0 UV-I 28 W/m² -0,3 °C 2,1 °C 0,0 km/h (0 Bft)
17.03.2017 07:24 2,2 °C 2,2 °C 84 % 1018,1 hPa 0,0 mm 0,9 km/h (0 Bft) SW 230 ° 0 min 0,000 mm 0,0 UV-I 30 W/m² -0,2 °C 2,2 °C 1,6 km/h (1 Bft)
17.03.2017 07:25 2,2 °C 2,3 °C 84 % 1018,1 hPa 0,0 mm 0,7 km/h (0 Bft) SW 230 ° 0 min 0,000 mm 0,0 UV-I 30 W/m² -0,2 °C 2,2 °C 1,6 km/h (1 Bft)
17.03.2017 07:26 2,3 °C 2,3 °C 83 % 1018,1 hPa 0,0 mm 0,1 km/h (0 Bft) SW 230 ° 0 min 0,000 mm 0,0 UV-I 30 W/m² -0,3 °C 2,3 °C 1,6 km/h (1 Bft)
17.03.2017 07:27 2,3 °C 2,3 °C 83 % 1018,1 hPa 0,0 mm 0,0 km/h (0 Bft) SW 230 ° 0 min 0,000 mm 0,0 UV-I 30 W/m² -0,3 °C 2,3 °C 0,0 km/h (0 Bft)
17.03.2017 07:28 2,3 °C 2,3 °C 84 % 1018,2 hPa 0,0 mm 0,0 km/h (0 Bft) SW 230 ° 0 min 0,000 mm 0,0 UV-I 30 W/m² -0,1 °C 2,3 °C 0,0 km/h (0 Bft)
17.03.2017 07:29 2,4 °C 2,4 °C 83 % 1018,2 hPa 0,0 mm 0,0 km/h (0 Bft) SW 230 ° 0 min 0,000 mm 0,0 UV-I 30 W/m² -0,2 °C 2,4 °C 0,0 km/h (0 Bft)
17.03.2017 07:30 2,5 °C 2,5 °C 83 % 1018,1 hPa 0,0 mm 0,0 km/h (0 Bft) SW 230 ° 0 min 0,000 mm 0,0 UV-I 32 W/m² -0,1 °C 2,5 °C 0,0 km/h (0 Bft)
17.03.2017 07:31 2,6 °C 2,6 °C 83 % 1018,2 hPa 0,0 mm 0,0 km/h (0 Bft) SW 230 ° 0 min 0,000 mm 0,0 UV-I 32 W/m² 0,0 °C 2,6 °C 0,0 km/h (0 Bft)
17.03.2017 07:32 2,6 °C 2,6 °C 83 % 1018,2 hPa 0,0 mm 0,0 km/h (0 Bft) SW 230 ° 0 min 0,000 mm 0,0 UV-I 32 W/m² 0,0 °C 2,6 °C 0,0 km/h (0 Bft)
17.03.2017 07:33 2,6 °C 2,6 °C 82 % 1018,1 hPa 0,0 mm 0,0 km/h (0 Bft) SW 230 ° 0 min 0,000 mm 0,0 UV-I 32 W/m² -0,2 °C 2,6 °C 0,0 km/h (0 Bft)
17.03.2017 07:34 2,6 °C 2,6 °C 83 % 1018,2 hPa 0,0 mm 0,0 km/h (0 Bft) SW 230 ° 0 min 0,000 mm 0,0 UV-I 33 W/m² 0,0 °C 2,6 °C 0,0 km/h (0 Bft)
17.03.2017 07:35 2,6 °C 2,6 °C 83 % 1018,2 hPa 0,0 mm 0,0 km/h (0 Bft) SW 230 ° 0 min 0,000 mm 0,0 UV-I 33 W/m² 0,0 °C 2,6 °C 0,0 km/h (0 Bft)
17.03.2017 07:36 2,7 °C 2,7 °C 83 % 1018,1 hPa 0,0 mm 1,3 km/h (1 Bft) SW 230 ° 0 min 0,000 mm 0,0 UV-I 33 W/m² 0,1 °C 2,7 °C 1,6 km/h (1 Bft)
17.03.2017 07:37 2,7 °C 2,7 °C 83 % 1018,1 hPa 0,0 mm 1,0 km/h (0 Bft) SW 230 ° 0 min 0,000 mm 0,0 UV-I 33 W/m² 0,1 °C 2,7 °C 1,6 km/h (1 Bft)
17.03.2017 07:38 2,8 °C 2,8 °C 83 % 1018,1 hPa 0,0 mm 0,5 km/h (0 Bft) SW 230 ° 0 min 0,000 mm 0,0 UV-I 33 W/m² 0,2 °C 2,8 °C 1,6 km/h (1 Bft)
17.03.2017 07:39 2,8 °C 2,8 °C 83 % 1018,1 hPa 0,0 mm 0,0 km/h (0 Bft) SW 230 ° 0 min 0,000 mm 0,0 UV-I 35 W/m² 0,2 °C 2,8 °C 0,0 km/h (0 Bft)
17.03.2017 07:40 2,8 °C 2,8 °C 83 % 1018,0 hPa 0,0 mm 0,0 km/h (0 Bft) SW 230 ° 0 min 0,000 mm 0,0 UV-I 35 W/m² 0,2 °C 2,8 °C 0,0 km/h (0 Bft)
17.03.2017 07:41 2,8 °C 2,9 °C 83 % 1018,1 hPa 0,0 mm 0,0 km/h (0 Bft) SW 230 ° 0 min 0,000 mm 0,0 UV-I 35 W/m² 0,2 °C 2,8 °C 0,0 km/h (0 Bft)
17.03.2017 07:42 2,8 °C 2,9 °C 83 % 1018,1 hPa 0,0 mm 0,0 km/h (0 Bft) SW 230 ° 0 min 0,000 mm 0,0 UV-I 37 W/m² 0,2 °C 2,8 °C 0,0 km/h (0 Bft)
17.03.2017 07:43 2,9 °C 2,9 °C 83 % 1018,1 hPa 0,0 mm 0,0 km/h (0 Bft) SW 230 ° 0 min 0,000 mm 0,0 UV-I 37 W/m² 0,3 °C 2,9 °C 0,0 km/h (0 Bft)
17.03.2017 07:44 3,1 °C 3,1 °C 83 % 1018,2 hPa 0,0 mm 0,0 km/h (0 Bft) SW 230 ° 0 min 0,000 mm 0,0 UV-I 37 W/m² 0,5 °C 3,1 °C 0,0 km/h (0 Bft)
17.03.2017 07:45 3,1 °C 3,1 °C 82 % 1018,2 hPa 0,0 mm 0,0 km/h (0 Bft) SW 230 ° 0 min 0,000 mm 0,0 UV-I 37 W/m² 0,3 °C 3,1 °C 0,0 km/h (0 Bft)
17.03.2017 07:46 3,2 °C 3,2 °C 82 % 1018,2 hPa 0,0 mm 0,0 km/h (0 Bft) SW 230 ° 0 min 0,000 mm 0,0 UV-I 39 W/m² 0,4 °C 3,2 °C 0,0 km/h (0 Bft)
17.03.2017 07:47 3,3 °C 3,3 °C 81 % 1018,2 hPa 0,0 mm 0,0 km/h (0 Bft) SW 230 ° 0 min 0,000 mm 0,0 UV-I 39 W/m² 0,4 °C 3,3 °C 0,0 km/h (0 Bft)
17.03.2017 07:48 3,3 °C 3,3 °C 81 % 1018,2 hPa 0,0 mm 0,0 km/h (0 Bft) SW 230 ° 0 min 0,000 mm 0,0 UV-I 39 W/m² 0,4 °C 3,3 °C 0,0 km/h (0 Bft)
17.03.2017 07:49 3,4 °C 3,4 °C 81 % 1018,2 hPa 0,0 mm 0,0 km/h (0 Bft) SW 230 ° 0 min 0,000 mm 0,0 UV-I 39 W/m² 0,5 °C 3,4 °C 0,0 km/h (0 Bft)
17.03.2017 07:50 3,5 °C 3,5 °C 81 % 1018,2 hPa 0,0 mm 0,0 km/h (0 Bft) SW 230 ° 0 min 0,000 mm 0,0 UV-I 40 W/m² 0,6 °C 3,5 °C 0,0 km/h (0 Bft)
17.03.2017 07:51 3,6 °C 3,6 °C 80 % 1018,2 hPa 0,0 mm 0,0 km/h (0 Bft) SW 230 ° 0 min 0,000 mm 0,0 UV-I 40 W/m² 0,5 °C 3,6 °C 0,0 km/h (0 Bft)
17.03.2017 07:52 3,6 °C 3,6 °C 80 % 1018,2 hPa 0,0 mm 0,0 km/h (0 Bft) SW 230 ° 0 min 0,000 mm 0,0 UV-I 42 W/m² 0,5 °C 3,6 °C 0,0 km/h (0 Bft)
17.03.2017 07:53 3,8 °C 3,8 °C 80 % 1018,2 hPa 0,0 mm 0,0 km/h (0 Bft) SW 230 ° 0 min 0,000 mm 0,0 UV-I 47 W/m² 0,7 °C 3,8 °C 0,0 km/h (0 Bft)
17.03.2017 07:54 3,9 °C 3,9 °C 80 % 1018,2 hPa 0,0 mm 0,0 km/h (0 Bft) SW 230 ° 0 min 0,000 mm 0,0 UV-I 46 W/m² 0,8 °C 3,9 °C 0,0 km/h (0 Bft)
17.03.2017 07:55 4,0 °C 4,0 °C 79 % 1018,2 hPa 0,0 mm 0,0 km/h (0 Bft) SW 230 ° 0 min 0,000 mm 0,0 UV-I 44 W/m² 0,7 °C 4,0 °C 0,0 km/h (0 Bft)
17.03.2017 07:56 4,1 °C 4,1 °C 79 % 1018,1 hPa 0,0 mm 0,0 km/h (0 Bft) SW 230 ° 0 min 0,000 mm 0,0 UV-I 44 W/m² 0,8 °C 4,1 °C 0,0 km/h (0 Bft)
17.03.2017 07:57 4,0 °C 4,1 °C 79 % 1018,2 hPa 0,0 mm 0,0 km/h (0 Bft) SW 230 ° 0 min 0,000 mm 0,0 UV-I 46 W/m² 0,7 °C 4,0 °C 0,0 km/h (0 Bft)
17.03.2017 07:58 4,1 °C 4,1 °C 79 % 1018,1 hPa 0,0 mm 0,0 km/h (0 Bft) SW 230 ° 0 min 0,000 mm 0,0 UV-I 44 W/m² 0,8 °C 4,1 °C 0,0 km/h (0 Bft)
17.03.2017 07:59 4,1 °C 4,1 °C 79 % 1018,1 hPa 0,0 mm 0,7 km/h (0 Bft) SW 230 ° 0 min 0,000 mm 0,0 UV-I 44 W/m² 0,8 °C 4,1 °C 1,6 km/h (1 Bft)
17.03.2017 08:00 4,2 °C 4,2 °C 79 % 1018,2 hPa 0,0 mm 1,7 km/h (1 Bft) SW 230 ° 0 min 0,000 mm 0,0 UV-I 46 W/m² 0,9 °C 4,2 °C 3,2 km/h (1 Bft)
17.03.2017 08:01 4,2 °C 4,2 °C 79 % 1018,2 hPa 0,0 mm 0,1 km/h (0 Bft) SW 230 ° 0 min 0,025 mm 0,0 UV-I 46 W/m² 0,9 °C 4,2 °C 1,6 km/h (1 Bft)
17.03.2017 08:02 4,2 °C 4,3 °C 79 % 1018,1 hPa 0,0 mm 0,1 km/h (0 Bft) SW 230 ° 0 min 0,000 mm 0,0 UV-I 46 W/m² 0,9 °C 4,2 °C 1,6 km/h (1 Bft)
17.03.2017 08:03 4,2 °C 4,2 °C 80 % 1018,2 hPa 0,0 mm 0,6 km/h (0 Bft) SW 230 ° 0 min 0,000 mm 0,0 UV-I 46 W/m² 1,1 °C 4,2 °C 1,6 km/h (1 Bft)
17.03.2017 08:04 4,3 °C 4,3 °C 80 % 1018,1 hPa 0,0 mm 0,1 km/h (0 Bft) SW 230 ° 0 min 0,000 mm 0,0 UV-I 46 W/m² 1,2 °C 4,3 °C 1,6 km/h (1 Bft)
17.03.2017 08:05 4,3 °C 4,3 °C 80 % 1018,2 hPa 0,0 mm 0,0 km/h (0 Bft) SW 230 ° 0 min 0,000 mm 0,0 UV-I 47 W/m² 1,2 °C 4,3 °C 0,0 km/h (0 Bft)
17.03.2017 08:06 4,4 °C 4,4 °C 79 % 1018,1 hPa 0,0 mm 0,0 km/h (0 Bft) SW 230 ° 0 min 0,000 mm 0,0 UV-I 49 W/m² 1,1 °C 4,4 °C 0,0 km/h (0 Bft)
17.03.2017 08:07 4,5 °C 4,5 °C 79 % 1018,1 hPa 0,0 mm 0,0 km/h (0 Bft) SW 230 ° 0 min 0,000 mm 0,0 UV-I 49 W/m² 1,2 °C 4,5 °C 0,0 km/h (0 Bft)
17.03.2017 08:08 4,6 °C 4,6 °C 79 % 1018,0 hPa 0,0 mm 1,8 km/h (1 Bft) SW 230 ° 0 min 0,000 mm 0,0 UV-I 49 W/m² 1,3 °C 4,6 °C 3,2 km/h (1 Bft)
17.03.2017 08:09 4,7 °C 4,7 °C 79 % 1018,0 hPa 0,0 mm 0,9 km/h (0 Bft) SW 230 ° 0 min 0,000 mm 0,0 UV-I 53 W/m² 1,4 °C 4,7 °C 3,2 km/h (1 Bft)
17.03.2017 08:10 4,7 °C 4,8 °C 79 % 1018,0 hPa 0,0 mm 0,2 km/h (0 Bft) SW 230 ° 0 min 0,000 mm 0,8 UV-I 84 W/m² 1,4 °C 4,7 °C 1,6 km/h (1 Bft)
17.03.2017 08:11 4,8 °C 4,8 °C 79 % 1018,1 hPa 0,0 mm 0,1 km/h (0 Bft) SW 230 ° 0 min 0,000 mm 0,8 UV-I 90 W/m² 1,5 °C 4,8 °C 1,6 km/h (1 Bft)
17.03.2017 08:12 4,8 °C 4,8 °C 79 % 1018,0 hPa 0,0 mm 0,1 km/h (0 Bft) SW 230 ° 0 min 0,000 mm 0,8 UV-I 93 W/m² 1,5 °C 4,8 °C 1,6 km/h (1 Bft)
17.03.2017 08:13 4,8 °C 4,8 °C 80 % 1018,0 hPa 0,0 mm 0,0 km/h (0 Bft) SW 230 ° 0 min 0,000 mm 0,8 UV-I 91 W/m² 1,6 °C 4,8 °C 0,0 km/h (0 Bft)
17.03.2017 08:14 4,9 °C 4,9 °C 80 % 1018,1 hPa 0,0 mm 0,0 km/h (0 Bft) SW 230 ° 0 min 0,000 mm 0,8 UV-I 86 W/m² 1,7 °C 4,9 °C 0,0 km/h (0 Bft)
17.03.2017 08:15 5,1 °C 5,1 °C 80 % 1018,1 hPa 0,0 mm 5,2 km/h (1 Bft) S-SW 192 ° 0 min 0,000 mm 0,8 UV-I 86 W/m² 1,9 °C 4,1 °C 9,7 km/h (2 Bft)
17.03.2017 08:16 5,9 °C 5,9 °C 80 % 1018,0 hPa 0,0 mm 3,7 km/h (1 Bft) W 269 ° 0 min 0,000 mm 0,8 UV-I 111 W/m² 2,7 °C 5,9 °C 8,0 km/h (2 Bft)
17.03.2017 08:17 6,8 °C 6,8 °C 78 % 1018,0 hPa 0,0 mm 7,5 km/h (2 Bft) SW 231 ° 0 min 0,000 mm 0,9 UV-I 107 W/m² 3,2 °C 5,4 °C 12,9 km/h (3 Bft)
17.03.2017 08:18 7,7 °C 7,7 °C 76 % 1018,0 hPa 0,0 mm 9,3 km/h (2 Bft) W-SW 248 ° 0 min 0,000 mm 0,9 UV-I 98 W/m² 3,7 °C 6,0 °C 12,9 km/h (3 Bft)
17.03.2017 08:19 8,4 °C 8,4 °C 73 % 1018,0 hPa 0,0 mm 8,2 km/h (2 Bft) S-SW 210 ° 0 min 0,000 mm 0,9 UV-I 127 W/m² 3,8 °C 7,1 °C 11,3 km/h (2 Bft)
17.03.2017 08:20 9,0 °C 9,0 °C 68 % 1018,0 hPa 0,0 mm 5,0 km/h (1 Bft) W-NW 284 ° 0 min 0,000 mm 0,9 UV-I 137 W/m² 3,4 °C 8,6 °C 9,7 km/h (2 Bft)
17.03.2017 08:21 9,4 °C 9,4 °C 68 % 1018,0 hPa 0,0 mm 10,1 km/h (2 Bft) W 261 ° 0 min 0,000 mm 0,9 UV-I 142 W/m² 3,8 °C 7,9 °C 12,9 km/h (3 Bft)
17.03.2017 08:22 9,7 °C 9,7 °C 67 % 1018,0 hPa 0,0 mm 9,1 km/h (2 Bft) S-SW 199 ° 0 min 0,000 mm 0,9 UV-I 91 W/m² 3,9 °C 8,4 °C 17,7 km/h (3 Bft)
17.03.2017 08:23 9,8 °C 9,8 °C 66 % 1018,0 hPa 0,0 mm 11,5 km/h (2 Bft) W 259 ° 0 min 0,000 mm 0,9 UV-I 98 W/m² 3,8 °C 8,1 °C 16,1 km/h (3 Bft)
17.03.2017 08:24 10,0 °C 10,0 °C 66 % 1018,0 hPa 0,0 mm 9,8 km/h (2 Bft) SW 214 ° 0 min 0,000 mm 0,9 UV-I 109 W/m² 3,9 °C 8,7 °C 16,1 km/h (3 Bft)
17.03.2017 08:25 10,1 °C 10,1 °C 64 % 1017,9 hPa 0,0 mm 10,7 km/h (2 Bft) W 259 ° 0 min 0,000 mm 0,9 UV-I 102 W/m² 3,6 °C 10,1 °C 19,3 km/h (3 Bft)
17.03.2017 08:26 10,2 °C 10,2 °C 64 % 1017,9 hPa 0,0 mm 10,1 km/h (2 Bft) W-SW 254 ° 0 min 0,000 mm 0,9 UV-I 86 W/m² 3,7 °C 10,2 °C 16,1 km/h (3 Bft)
17.03.2017 08:27 10,2 °C 10,3 °C 64 % 1018,0 hPa 0,0 mm 8,4 km/h (2 Bft) W-SW 256 ° 0 min 0,000 mm 0,9 UV-I 90 W/m² 3,7 °C 10,2 °C 11,3 km/h (2 Bft)
17.03.2017 08:28 10,3 °C 10,3 °C 64 % 1018,0 hPa 0,0 mm 10,5 km/h (2 Bft) W-SW 242 ° 0 min 0,000 mm 1,0 UV-I 176 W/m² 3,8 °C 10,3 °C 16,1 km/h (3 Bft)
17.03.2017 08:29 10,3 °C 10,3 °C 64 % 1018,1 hPa 0,0 mm 10,9 km/h (2 Bft) W-SW 240 ° 0 min 0,000 mm 1,1 UV-I 179 W/m² 3,8 °C 10,3 °C 16,1 km/h (3 Bft)
17.03.2017 08:30 10,4 °C 10,4 °C 64 % 1018,1 hPa 0,0 mm 9,9 km/h (2 Bft) SW 223 ° 1 min 0,000 mm 1,1 UV-I 220 W/m² 3,9 °C 10,4 °C 17,7 km/h (3 Bft)
17.03.2017 08:31 10,6 °C 10,6 °C 62 % 1018,0 hPa 0,0 mm 7,6 km/h (2 Bft) SW 227 ° 1 min 0,000 mm 1,2 UV-I 253 W/m² 3,6 °C 10,6 °C 11,3 km/h (2 Bft)
17.03.2017 08:32 10,7 °C 10,7 °C 62 % 1018,1 hPa 0,0 mm 9,7 km/h (2 Bft) W 268 ° 1 min 0,000 mm 1,2 UV-I 211 W/m² 3,7 °C 10,7 °C 14,5 km/h (3 Bft)
17.03.2017 08:33 10,7 °C 10,7 °C 64 % 1018,0 hPa 0,0 mm 13,7 km/h (3 Bft) W-SW 243 ° 0 min 0,000 mm 1,1 UV-I 193 W/m² 4,2 °C 10,7 °C 22,5 km/h (4 Bft)
17.03.2017 08:34 10,7 °C 10,7 °C 63 % 1018,0 hPa 0,0 mm 10,4 km/h (2 Bft) W-SW 256 ° 0 min 0,000 mm 1,1 UV-I 197 W/m² 3,9 °C 10,7 °C 17,7 km/h (3 Bft)
17.03.2017 08:35 10,7 °C 10,7 °C 64 % 1018,1 hPa 0,0 mm 13,7 km/h (3 Bft) W-SW 253 ° 0 min 0,000 mm 1,1 UV-I 197 W/m² 4,2 °C 10,7 °C 17,7 km/h (3 Bft)
17.03.2017 08:36 10,8 °C 10,8 °C 63 % 1018,0 hPa 0,0 mm 11,0 km/h (2 Bft) W-SW 257 ° 0 min 0,000 mm 1,1 UV-I 153 W/m² 4,0 °C 10,8 °C 16,1 km/h (3 Bft)
17.03.2017 08:37 10,8 °C 10,8 °C 63 % 1018,1 hPa 0,0 mm 16,2 km/h (3 Bft) W-SW 247 ° 0 min 0,000 mm 1,1 UV-I 125 W/m² 4,0 °C 10,8 °C 20,9 km/h (4 Bft)
17.03.2017 08:38 10,8 °C 10,8 °C 63 % 1018,1 hPa 0,0 mm 15,1 km/h (3 Bft) W 265 ° 0 min 0,000 mm 1,1 UV-I 130 W/m² 4,0 °C 10,8 °C 20,9 km/h (4 Bft)
17.03.2017 08:39 10,8 °C 10,8 °C 62 % 1018,1 hPa 0,0 mm 12,5 km/h (3 Bft) W-SW 253 ° 0 min 0,000 mm 1,1 UV-I 139 W/m² 3,8 °C 10,8 °C 20,9 km/h (4 Bft)
17.03.2017 08:40 10,9 °C 10,9 °C 62 % 1018,1 hPa 0,0 mm 10,2 km/h (2 Bft) SW 228 ° 1 min 0,000 mm 1,2 UV-I 200 W/m² 3,9 °C 10,9 °C 17,7 km/h (3 Bft)
17.03.2017 08:41 10,9 °C 10,9 °C 62 % 1018,2 hPa 0,0 mm 11,5 km/h (2 Bft) W 263 ° 1 min 0,000 mm 1,3 UV-I 244 W/m² 3,9 °C 10,9 °C 19,3 km/h (3 Bft)
17.03.2017 08:42 11,0 °C 11,0 °C 62 % 1018,2 hPa 0,0 mm 11,9 km/h (2 Bft) W 261 ° 1 min 0,000 mm 1,3 UV-I 265 W/m² 4,0 °C 11,0 °C 16,1 km/h (3 Bft)
17.03.2017 08:43 11,1 °C 11,1 °C 64 % 1018,1 hPa 0,0 mm 11,7 km/h (2 Bft) W-SW 248 ° 1 min 0,000 mm 1,4 UV-I 299 W/m² 4,6 °C 11,1 °C 17,7 km/h (3 Bft)
17.03.2017 08:44 11,1 °C 11,1 °C 63 % 1018,1 hPa 0,0 mm 15,2 km/h (3 Bft) W-SW 257 ° 1 min 0,000 mm 1,4 UV-I 302 W/m² 4,3 °C 11,1 °C 19,3 km/h (3 Bft)
17.03.2017 08:45 11,1 °C 11,1 °C 64 % 1018,1 hPa 0,0 mm 16,4 km/h (3 Bft) W 265 ° 1 min 0,000 mm 1,4 UV-I 283 W/m² 4,6 °C 11,1 °C 27,4 km/h (4 Bft)
17.03.2017 08:46 11,2 °C 11,2 °C 62 % 1018,1 hPa 0,0 mm 17,2 km/h (3 Bft) W-SW 250 ° 1 min 0,000 mm 1,3 UV-I 214 W/m² 4,2 °C 11,2 °C 27,4 km/h (4 Bft)
17.03.2017 08:47 11,2 °C 11,2 °C 62 % 1018,1 hPa 0,0 mm 13,7 km/h (3 Bft) W 275 ° 0 min 0,000 mm 1,3 UV-I 171 W/m² 4,2 °C 11,2 °C 17,7 km/h (3 Bft)
17.03.2017 08:48 11,3 °C 11,3 °C 62 % 1018,1 hPa 0,0 mm 17,9 km/h (3 Bft) W-SW 242 ° 1 min 0,000 mm 1,3 UV-I 207 W/m² 4,3 °C 11,3 °C 25,7 km/h (4 Bft)
17.03.2017 08:49 11,3 °C 11,3 °C 61 % 1018,2 hPa 0,0 mm 17,2 km/h (3 Bft) W-SW 252 ° 1 min 0,000 mm 1,3 UV-I 207 W/m² 4,1 °C 11,3 °C 22,5 km/h (4 Bft)
17.03.2017 08:50 11,3 °C 11,3 °C 62 % 1018,2 hPa 0,0 mm 13,5 km/h (3 Bft) W-SW 250 ° 1 min 0,000 mm 1,3 UV-I 216 W/m² 4,3 °C 11,3 °C 19,3 km/h (3 Bft)
17.03.2017 08:51 11,3 °C 11,3 °C 61 % 1018,2 hPa 0,0 mm 12,4 km/h (3 Bft) W-SW 250 ° 1 min 0,000 mm 1,4 UV-I 227 W/m² 4,1 °C 11,3 °C 17,7 km/h (3 Bft)
17.03.2017 08:52 11,4 °C 11,4 °C 62 % 1018,2 hPa 0,0 mm 16,6 km/h (3 Bft) W-SW 248 ° 1 min 0,000 mm 1,4 UV-I 251 W/m² 4,4 °C 11,4 °C 20,9 km/h (4 Bft)
17.03.2017 08:53 11,4 °C 11,4 °C 61 % 1018,2 hPa 0,0 mm 14,3 km/h (3 Bft) SW 236 ° 1 min 0,000 mm 1,5 UV-I 251 W/m² 4,2 °C 11,4 °C 20,9 km/h (4 Bft)
17.03.2017 08:54 11,4 °C 11,4 °C 61 % 1018,2 hPa 0,0 mm 17,6 km/h (3 Bft) W-NW 294 ° 1 min 0,000 mm 1,5 UV-I 332 W/m² 4,2 °C 11,4 °C 24,1 km/h (4 Bft)
17.03.2017 08:55 11,6 °C 11,6 °C 61 % 1018,1 hPa 0,0 mm 13,7 km/h (3 Bft) W-SW 244 ° 1 min 0,000 mm 1,6 UV-I 334 W/m² 4,3 °C 11,6 °C 17,7 km/h (3 Bft)
17.03.2017 08:56 11,6 °C 11,6 °C 62 % 1018,2 hPa 0,0 mm 13,9 km/h (3 Bft) W 270 ° 1 min 0,000 mm 1,6 UV-I 313 W/m² 4,6 °C 11,6 °C 22,5 km/h (4 Bft)
17.03.2017 08:57 11,6 °C 11,6 °C 62 % 1018,2 hPa 0,0 mm 10,6 km/h (2 Bft) W-SW 254 ° 1 min 0,000 mm 1,6 UV-I 218 W/m² 4,6 °C 11,6 °C 14,5 km/h (3 Bft)
17.03.2017 08:58 11,7 °C 11,7 °C 61 % 1018,2 hPa 0,0 mm 15,3 km/h (3 Bft) W 266 ° 1 min 0,000 mm 1,4 UV-I 246 W/m² 4,4 °C 11,7 °C 19,3 km/h (3 Bft)
17.03.2017 08:59 11,7 °C 11,7 °C 61 % 1018,0 hPa 0,0 mm 15,0 km/h (3 Bft) W-SW 257 ° 1 min 0,000 mm 1,5 UV-I 288 W/m² 4,4 °C 11,7 °C 22,5 km/h (4 Bft)
17.03.2017 09:00 11,7 °C 11,7 °C 62 % 1018,1 hPa 0,0 mm 15,1 km/h (3 Bft) W-SW 246 ° 1 min 0,000 mm 1,6 UV-I 325 W/m² 4,7 °C 11,7 °C 19,3 km/h (3 Bft)
17.03.2017 09:01 11,8 °C 11,8 °C 60 % 1018,1 hPa 0,0 mm 14,5 km/h (3 Bft) N-NW 330 ° 1 min 0,102 mm 1,7 UV-I 325 W/m² 4,3 °C 11,8 °C 19,3 km/h (3 Bft)
17.03.2017 09:02 11,8 °C 11,8 °C 60 % 1018,1 hPa 0,0 mm 12,1 km/h (2 Bft) W-NW 290 ° 1 min 0,000 mm 1,7 UV-I 374 W/m² 4,3 °C 11,8 °C 17,7 km/h (3 Bft)
17.03.2017 09:03 11,9 °C 11,9 °C 61 % 1018,1 hPa 0,0 mm 12,3 km/h (3 Bft) W 269 ° 1 min 0,000 mm 1,7 UV-I 367 W/m² 4,6 °C 11,9 °C 19,3 km/h (3 Bft)
17.03.2017 09:04 11,9 °C 11,9 °C 61 % 1018,2 hPa 0,0 mm 15,6 km/h (3 Bft) W-SW 258 ° 1 min 0,000 mm 1,7 UV-I 366 W/m² 4,6 °C 11,9 °C 20,9 km/h (4 Bft)
17.03.2017 09:05 12,0 °C 12,0 °C 60 % 1018,2 hPa 0,0 mm 9,8 km/h (2 Bft) W 261 ° 1 min 0,000 mm 1,8 UV-I 373 W/m² 4,5 °C 12,0 °C 17,7 km/h (3 Bft)
17.03.2017 09:06 12,1 °C 12,1 °C 60 % 1018,1 hPa 0,0 mm 14,0 km/h (3 Bft) W-NW 285 ° 1 min 0,000 mm 1,8 UV-I 362 W/m² 4,6 °C 12,1 °C 20,9 km/h (4 Bft)
17.03.2017 09:07 12,1 °C 12,1 °C 59 % 1018,1 hPa 0,0 mm 17,4 km/h (3 Bft) W 271 ° 1 min 0,000 mm 1,8 UV-I 376 W/m² 4,3 °C 12,1 °C 27,4 km/h (4 Bft)
17.03.2017 09:08 12,2 °C 12,2 °C 60 % 1018,1 hPa 0,0 mm 14,3 km/h (3 Bft) W-NW 290 ° 1 min 0,000 mm 1,8 UV-I 390 W/m² 4,7 °C 12,2 °C 19,3 km/h (3 Bft)
17.03.2017 09:09 12,3 °C 12,3 °C 61 % 1018,1 hPa 0,0 mm 13,5 km/h (3 Bft) W-SW 255 ° 1 min 0,000 mm 1,8 UV-I 387 W/m² 5,0 °C 12,3 °C 16,1 km/h (3 Bft)
17.03.2017 09:10 12,3 °C 12,3 °C 61 % 1018,1 hPa 0,0 mm 14,6 km/h (3 Bft) W-SW 252 ° 1 min 0,000 mm 1,9 UV-I 383 W/m² 5,0 °C 12,3 °C 19,3 km/h (3 Bft)
17.03.2017 09:11 12,3 °C 12,3 °C 59 % 1018,1 hPa 0,0 mm 15,1 km/h (3 Bft) W-NW 292 ° 1 min 0,000 mm 1,9 UV-I 383 W/m² 4,5 °C 12,3 °C 19,3 km/h (3 Bft)
17.03.2017 09:12 12,4 °C 12,4 °C 58 % 1018,1 hPa 0,0 mm 15,6 km/h (3 Bft) W-SW 257 ° 1 min 0,000 mm 1,9 UV-I 392 W/m² 4,4 °C 12,4 °C 22,5 km/h (4 Bft)
17.03.2017 09:13 12,5 °C 12,5 °C 60 % 1018,0 hPa 0,0 mm 8,5 km/h (2 Bft) W-SW 257 ° 1 min 0,000 mm 1,9 UV-I 374 W/m² 5,0 °C 12,5 °C 14,5 km/h (3 Bft)
17.03.2017 09:14 12,5 °C 12,6 °C 58 % 1018,0 hPa 0,0 mm 12,5 km/h (3 Bft) W 265 ° 1 min 0,000 mm 1,9 UV-I 364 W/m² 4,5 °C 12,5 °C 17,7 km/h (3 Bft)
17.03.2017 09:15 12,6 °C 12,6 °C 58 % 1018,0 hPa 0,0 mm 14,0 km/h (3 Bft) W 265 ° 1 min 0,000 mm 2,0 UV-I 397 W/m² 4,6 °C 12,6 °C 16,1 km/h (3 Bft)
17.03.2017 09:16 12,6 °C 12,6 °C 57 % 1018,0 hPa 0,0 mm 15,8 km/h (3 Bft) W-NW 286 ° 1 min 0,000 mm 2,0 UV-I 406 W/m² 4,3 °C 12,6 °C 20,9 km/h (4 Bft)
17.03.2017 09:17 12,7 °C 12,7 °C 59 % 1018,0 hPa 0,0 mm 16,2 km/h (3 Bft) W 272 ° 1 min 0,000 mm 1,8 UV-I 396 W/m² 4,9 °C 12,7 °C 20,9 km/h (4 Bft)
17.03.2017 09:18 12,7 °C 12,7 °C 58 % 1018,1 hPa 0,0 mm 16,2 km/h (3 Bft) W-SW 247 ° 1 min 0,000 mm 1,7 UV-I 396 W/m² 4,7 °C 12,7 °C 24,1 km/h (4 Bft)
17.03.2017 09:19 12,7 °C 12,8 °C 58 % 1018,0 hPa 0,0 mm 12,8 km/h (3 Bft) W-SW 252 ° 1 min 0,000 mm 1,9 UV-I 260 W/m² 4,7 °C 12,7 °C 16,1 km/h (3 Bft)
17.03.2017 09:20 12,8 °C 12,8 °C 59 % 1018,1 hPa 0,0 mm 11,4 km/h (2 Bft) W 263 ° 1 min 0,000 mm 1,7 UV-I 232 W/m² 5,0 °C 12,8 °C 19,3 km/h (3 Bft)
17.03.2017 09:21 12,8 °C 12,8 °C 58 % 1018,0 hPa 0,0 mm 14,1 km/h (3 Bft) W 273 ° 1 min 0,000 mm 1,6 UV-I 225 W/m² 4,7 °C 12,8 °C 20,9 km/h (4 Bft)
17.03.2017 09:22 12,9 °C 12,9 °C 57 % 1018,0 hPa 0,0 mm 16,2 km/h (3 Bft) W-SW 246 ° 1 min 0,000 mm 1,7 UV-I 239 W/m² 4,6 °C 12,9 °C 20,9 km/h (4 Bft)
17.03.2017 09:23 12,9 °C 12,9 °C 57 % 1017,9 hPa 0,0 mm 18,5 km/h (3 Bft) W 277 ° 1 min 0,000 mm 1,9 UV-I 239 W/m² 4,6 °C 12,9 °C 25,7 km/h (4 Bft)
17.03.2017 09:24 12,9 °C 12,9 °C 58 % 1017,9 hPa 0,0 mm 16,2 km/h (3 Bft) W 261 ° 1 min 0,000 mm 1,8 UV-I 302 W/m² 4,8 °C 12,9 °C 24,1 km/h (4 Bft)
17.03.2017 09:25 12,9 °C 12,9 °C 56 % 1017,9 hPa 0,0 mm 13,1 km/h (3 Bft) W-NW 290 ° 1 min 0,000 mm 2,0 UV-I 396 W/m² 4,3 °C 12,9 °C 20,9 km/h (4 Bft)
17.03.2017 09:26 12,9 °C 12,9 °C 57 % 1017,9 hPa 0,0 mm 17,2 km/h (3 Bft) W 263 ° 1 min 0,000 mm 2,0 UV-I 380 W/m² 4,6 °C 12,9 °C 25,7 km/h (4 Bft)
17.03.2017 09:27 12,9 °C 12,9 °C 58 % 1017,9 hPa 0,0 mm 16,2 km/h (3 Bft) W-SW 257 ° 1 min 0,000 mm 2,1 UV-I 390 W/m² 4,8 °C 12,9 °C 20,9 km/h (4 Bft)
17.03.2017 09:28 13,1 °C 13,1 °C 56 % 1017,8 hPa 0,0 mm 12,7 km/h (3 Bft) W 277 ° 1 min 0,000 mm 2,1 UV-I 385 W/m² 4,5 °C 13,1 °C 20,9 km/h (4 Bft)
17.03.2017 09:29 13,1 °C 13,1 °C 58 % 1017,8 hPa 0,0 mm 9,1 km/h (2 Bft) W 277 ° 1 min 0,000 mm 2,2 UV-I 415 W/m² 5,0 °C 13,1 °C 16,1 km/h (3 Bft)
17.03.2017 09:30 13,2 °C 13,2 °C 57 % 1017,8 hPa 0,0 mm 11,8 km/h (2 Bft) W 277 ° 1 min 0,000 mm 2,2 UV-I 425 W/m² 4,9 °C 13,2 °C 19,3 km/h (3 Bft)
17.03.2017 09:31 13,2 °C 13,2 °C 58 % 1017,8 hPa 0,0 mm 9,8 km/h (2 Bft) W 272 ° 1 min 0,000 mm 2,1 UV-I 415 W/m² 5,1 °C 13,2 °C 14,5 km/h (3 Bft)
17.03.2017 09:32 13,3 °C 13,3 °C 58 % 1017,8 hPa 0,0 mm 11,7 km/h (2 Bft) W 267 ° 1 min 0,000 mm 2,1 UV-I 385 W/m² 5,2 °C 13,3 °C 17,7 km/h (3 Bft)
17.03.2017 09:33 13,3 °C 13,3 °C 57 % 1017,8 hPa 0,0 mm 15,1 km/h (3 Bft) W-SW 244 ° 1 min 0,000 mm 2,1 UV-I 380 W/m² 5,0 °C 13,3 °C 19,3 km/h (3 Bft)
17.03.2017 09:34 13,3 °C 13,3 °C 57 % 1017,8 hPa 0,0 mm 16,7 km/h (3 Bft) W-NW 300 ° 1 min 0,000 mm 2,2 UV-I 381 W/m² 5,0 °C 13,3 °C 24,1 km/h (4 Bft)
17.03.2017 09:35 13,3 °C 13,4 °C 57 % 1017,8 hPa 0,0 mm 16,0 km/h (3 Bft) W-NW 294 ° 1 min 0,000 mm 2,2 UV-I 399 W/m² 5,0 °C 13,3 °C 22,5 km/h (4 Bft)
17.03.2017 09:36 13,3 °C 13,3 °C 57 % 1017,8 hPa 0,0 mm 8,7 km/h (2 Bft) W 266 ° 1 min 0,000 mm 2,3 UV-I 455 W/m² 5,0 °C 13,3 °C 11,3 km/h (2 Bft)
17.03.2017 09:37 13,4 °C 13,4 °C 58 % 1017,7 hPa 0,0 mm 10,1 km/h (2 Bft) W 263 ° 1 min 0,000 mm 2,3 UV-I 436 W/m² 5,3 °C 13,4 °C 14,5 km/h (3 Bft)
17.03.2017 09:38 13,5 °C 13,5 °C 56 % 1017,7 hPa 0,0 mm 14,3 km/h (3 Bft) N-NW 330 ° 1 min 0,000 mm 2,3 UV-I 415 W/m² 4,9 °C 13,5 °C 17,7 km/h (3 Bft)
17.03.2017 09:39 13,6 °C 13,6 °C 56 % 1017,7 hPa 0,0 mm 15,1 km/h (3 Bft) W-NW 284 ° 1 min 0,000 mm 2,2 UV-I 415 W/m² 5,0 °C 13,6 °C 22,5 km/h (4 Bft)
17.03.2017 09:40 13,6 °C 13,6 °C 56 % 1017,8 hPa 0,0 mm 14,8 km/h (3 Bft) W-SW 242 ° 1 min 0,000 mm 2,1 UV-I 290 W/m² 5,0 °C 13,6 °C 20,9 km/h (4 Bft)
17.03.2017 09:41 13,6 °C 13,6 °C 56 % 1017,7 hPa 0,0 mm 15,3 km/h (3 Bft) W-SW 254 ° 1 min 0,000 mm 2,0 UV-I 290 W/m² 5,0 °C 13,6 °C 19,3 km/h (3 Bft)
17.03.2017 09:42 13,7 °C 13,7 °C 57 % 1017,7 hPa 0,0 mm 11,3 km/h (2 Bft) S-SW 211 ° 1 min 0,000 mm 2,2 UV-I 381 W/m² 5,3 °C 13,7 °C 17,7 km/h (3 Bft)
17.03.2017 09:43 13,8 °C 13,8 °C 57 % 1017,7 hPa 0,0 mm 11,3 km/h (2 Bft) W 271 ° 1 min 0,000 mm 2,2 UV-I 401 W/m² 5,4 °C 13,8 °C 17,7 km/h (3 Bft)
17.03.2017 09:44 13,8 °C 13,8 °C 56 % 1017,7 hPa 0,0 mm 11,7 km/h (2 Bft) W 263 ° 1 min 0,000 mm 2,2 UV-I 369 W/m² 5,2 °C 13,8 °C 19,3 km/h (3 Bft)
17.03.2017 09:45 13,8 °C 13,8 °C 56 % 1017,6 hPa 0,0 mm 15,1 km/h (3 Bft) W 279 ° 1 min 0,000 mm 2,2 UV-I 345 W/m² 5,2 °C 13,8 °C 20,9 km/h (4 Bft)
17.03.2017 09:46 13,9 °C 13,9 °C 56 % 1017,7 hPa 0,0 mm 14,9 km/h (3 Bft) W 274 ° 1 min 0,000 mm 2,3 UV-I 341 W/m² 5,3 °C 13,9 °C 25,7 km/h (4 Bft)
17.03.2017 09:47 13,9 °C 13,9 °C 55 % 1017,6 hPa 0,0 mm 14,7 km/h (3 Bft) W 273 ° 1 min 0,000 mm 2,2 UV-I 392 W/m² 5,0 °C 13,9 °C 19,3 km/h (3 Bft)
17.03.2017 09:48 13,9 °C 13,9 °C 56 % 1017,6 hPa 0,0 mm 15,2 km/h (3 Bft) W 259 ° 1 min 0,000 mm 2,2 UV-I 424 W/m² 5,3 °C 13,9 °C 20,9 km/h (4 Bft)
17.03.2017 09:49 14,0 °C 14,0 °C 55 % 1017,7 hPa 0,0 mm 19,6 km/h (3 Bft) W-NW 291 ° 1 min 0,000 mm 2,5 UV-I 406 W/m² 5,1 °C 14,0 °C 29,0 km/h (5 Bft)
17.03.2017 09:50 14,1 °C 14,1 °C 56 % 1017,6 hPa 0,0 mm 12,9 km/h (3 Bft) W-SW 249 ° 1 min 0,000 mm 2,4 UV-I 355 W/m² 5,5 °C 14,1 °C 17,7 km/h (3 Bft)
17.03.2017 09:51 14,2 °C 14,2 °C 56 % 1017,6 hPa 0,0 mm 11,1 km/h (2 Bft) SW 221 ° 1 min 0,000 mm 2,4 UV-I 387 W/m² 5,6 °C 14,2 °C 17,7 km/h (3 Bft)
17.03.2017 09:52 14,3 °C 14,3 °C 54 % 1017,6 hPa 0,0 mm 15,8 km/h (3 Bft) W 270 ° 1 min 0,000 mm 2,4 UV-I 387 W/m² 5,1 °C 14,3 °C 22,5 km/h (4 Bft)
17.03.2017 09:53 14,3 °C 14,3 °C 55 % 1017,6 hPa 0,0 mm 17,4 km/h (3 Bft) W-SW 254 ° 1 min 0,000 mm 2,6 UV-I 497 W/m² 5,4 °C 14,3 °C 32,2 km/h (5 Bft)
17.03.2017 09:54 14,3 °C 14,3 °C 55 % 1017,6 hPa 0,0 mm 15,9 km/h (3 Bft) W-NW 298 ° 1 min 0,000 mm 2,7 UV-I 475 W/m² 5,4 °C 14,3 °C 32,2 km/h (5 Bft)
17.03.2017 09:55 14,3 °C 14,3 °C 55 % 1017,7 hPa 0,0 mm 11,4 km/h (2 Bft) NW 309 ° 1 min 0,000 mm 2,8 UV-I 538 W/m² 5,4 °C 14,3 °C 17,7 km/h (3 Bft)
17.03.2017 09:56 14,3 °C 14,3 °C 55 % 1017,6 hPa 0,0 mm 12,5 km/h (3 Bft) W 264 ° 1 min 0,000 mm 2,8 UV-I 559 W/m² 5,4 °C 14,3 °C 16,1 km/h (3 Bft)
17.03.2017 09:57 14,5 °C 14,5 °C 56 % 1017,6 hPa 0,0 mm 14,3 km/h (3 Bft) W 265 ° 1 min 0,000 mm 2,8 UV-I 557 W/m² 5,8 °C 14,5 °C 19,3 km/h (3 Bft)
17.03.2017 09:58 14,6 °C 14,6 °C 55 % 1017,6 hPa 0,0 mm 13,6 km/h (3 Bft) W 277 ° 1 min 0,000 mm 2,8 UV-I 554 W/m² 5,7 °C 14,6 °C 20,9 km/h (4 Bft)
17.03.2017 09:59 14,7 °C 14,7 °C 54 % 1017,6 hPa 0,0 mm 13,8 km/h (3 Bft) W-SW 244 ° 1 min 0,000 mm 2,8 UV-I 485 W/m² 5,5 °C 14,7 °C 20,9 km/h (4 Bft)
17.03.2017 10:00 14,8 °C 14,8 °C 55 % 1017,6 hPa 0,0 mm 11,9 km/h (2 Bft) W-SW 249 ° 1 min 0,000 mm 2,8 UV-I 541 W/m² 5,8 °C 14,8 °C 20,9 km/h (4 Bft)
17.03.2017 10:01 14,8 °C 14,8 °C 54 % 1017,6 hPa 0,0 mm 19,0 km/h (3 Bft) NW 311 ° 1 min 0,254 mm 2,6 UV-I 527 W/m² 5,6 °C 14,8 °C 25,7 km/h (4 Bft)
17.03.2017 10:02 14,7 °C 14,8 °C 54 % 1017,6 hPa 0,0 mm 16,0 km/h (3 Bft) W 268 ° 1 min 0,000 mm 2,8 UV-I 548 W/m² 5,5 °C 14,7 °C 20,9 km/h (4 Bft)
17.03.2017 10:03 14,7 °C 14,7 °C 54 % 1017,5 hPa 0,0 mm 12,1 km/h (2 Bft) W-SW 240 ° 1 min 0,000 mm 2,7 UV-I 563 W/m² 5,5 °C 14,7 °C 19,3 km/h (3 Bft)
17.03.2017 10:04 14,7 °C 14,7 °C 53 % 1017,5 hPa 0,0 mm 11,7 km/h (2 Bft) W-SW 242 ° 1 min 0,000 mm 2,8 UV-I 563 W/m² 5,2 °C 14,7 °C 22,5 km/h (4 Bft)
17.03.2017 10:05 14,6 °C 14,7 °C 54 % 1017,6 hPa 0,0 mm 14,6 km/h (3 Bft) W 265 ° 1 min 0,000 mm 2,9 UV-I 563 W/m² 5,4 °C 14,6 °C 20,9 km/h (4 Bft)
17.03.2017 10:06 14,6 °C 14,6 °C 54 % 1017,5 hPa 0,0 mm 13,6 km/h (3 Bft) W 279 ° 1 min 0,000 mm 2,8 UV-I 531 W/m² 5,4 °C 14,6 °C 17,7 km/h (3 Bft)
17.03.2017 10:07 14,7 °C 14,7 °C 55 % 1017,5 hPa 0,0 mm 12,2 km/h (2 Bft) W-NW 283 ° 1 min 0,000 mm 2,7 UV-I 524 W/m² 5,8 °C 14,7 °C 19,3 km/h (3 Bft)
17.03.2017 10:08 14,7 °C 14,7 °C 54 % 1017,4 hPa 0,0 mm 8,6 km/h (2 Bft) W-SW 246 ° 1 min 0,000 mm 2,8 UV-I 524 W/m² 5,5 °C 14,7 °C 12,9 km/h (3 Bft)
17.03.2017 10:09 14,8 °C 14,8 °C 55 % 1017,5 hPa 0,0 mm 12,9 km/h (3 Bft) W-NW 286 ° 1 min 0,000 mm 2,9 UV-I 522 W/m² 5,8 °C 14,8 °C 17,7 km/h (3 Bft)
17.03.2017 10:10 14,8 °C 14,8 °C 54 % 1017,5 hPa 0,0 mm 14,2 km/h (3 Bft) W 275 ° 1 min 0,000 mm 2,9 UV-I 526 W/m² 5,6 °C 14,8 °C 25,7 km/h (4 Bft)
17.03.2017 10:11 14,9 °C 14,9 °C 54 % 1017,4 hPa 0,0 mm 9,3 km/h (2 Bft) W 281 ° 1 min 0,000 mm 2,9 UV-I 527 W/m² 5,7 °C 14,9 °C 14,5 km/h (3 Bft)
17.03.2017 10:12 14,8 °C 14,9 °C 53 % 1017,4 hPa 0,0 mm 7,5 km/h (2 Bft) W 278 ° 1 min 0,000 mm 2,9 UV-I 527 W/m² 5,3 °C 14,8 °C 16,1 km/h (3 Bft)
17.03.2017 10:13 14,8 °C 14,8 °C 55 % 1017,4 hPa 0,0 mm 9,8 km/h (2 Bft) W 271 ° 1 min 0,000 mm 2,9 UV-I 536 W/m² 5,8 °C 14,8 °C 14,5 km/h (3 Bft)
17.03.2017 10:14 14,8 °C 14,8 °C 54 % 1017,4 hPa 0,0 mm 9,4 km/h (2 Bft) W 273 ° 1 min 0,000 mm 3,0 UV-I 536 W/m² 5,6 °C 14,8 °C 12,9 km/h (3 Bft)
17.03.2017 10:15 14,9 °C 14,9 °C 54 % 1017,4 hPa 0,0 mm 9,9 km/h (2 Bft) W-SW 237 ° 1 min 0,000 mm 3,0 UV-I 538 W/m² 5,7 °C 14,9 °C 19,3 km/h (3 Bft)
17.03.2017 10:16 14,9 °C 14,9 °C 54 % 1017,4 hPa 0,0 mm 9,3 km/h (2 Bft) W-SW 246 ° 1 min 0,000 mm 3,0 UV-I 545 W/m² 5,7 °C 14,9 °C 12,9 km/h (3 Bft)
17.03.2017 10:17 15,0 °C 15,1 °C 54 % 1017,3 hPa 0,0 mm 10,4 km/h (2 Bft) W-SW 242 ° 1 min 0,000 mm 3,0 UV-I 545 W/m² 5,8 °C 15,0 °C 14,5 km/h (3 Bft)
17.03.2017 10:18 15,1 °C 15,1 °C 53 % 1017,4 hPa 0,0 mm 9,0 km/h (2 Bft) SW 230 ° 1 min 0,000 mm 3,0 UV-I 543 W/m² 5,6 °C 15,1 °C 14,5 km/h (3 Bft)
17.03.2017 10:19 15,1 °C 15,1 °C 53 % 1017,3 hPa 0,0 mm 8,9 km/h (2 Bft) SW 229 ° 1 min 0,000 mm 3,1 UV-I 547 W/m² 5,6 °C 15,1 °C 14,5 km/h (3 Bft)
17.03.2017 10:20 15,1 °C 15,1 °C 54 % 1017,4 hPa 0,0 mm 6,8 km/h (2 Bft) W 281 ° 1 min 0,000 mm 3,1 UV-I 548 W/m² 5,9 °C 15,1 °C 11,3 km/h (2 Bft)
17.03.2017 10:21 15,1 °C 15,1 °C 53 % 1017,4 hPa 0,0 mm 5,5 km/h (1 Bft) W 267 ° 1 min 0,000 mm 3,1 UV-I 550 W/m² 5,6 °C 15,1 °C 9,7 km/h (2 Bft)
17.03.2017 10:22 15,1 °C 15,1 °C 54 % 1017,2 hPa 0,0 mm 7,0 km/h (2 Bft) W-SW 258 ° 1 min 0,000 mm 3,1 UV-I 543 W/m² 5,9 °C 15,1 °C 11,3 km/h (2 Bft)
17.03.2017 10:23 15,1 °C 15,1 °C 53 % 1017,3 hPa 0,0 mm 13,5 km/h (3 Bft) W 270 ° 1 min 0,000 mm 3,1 UV-I 543 W/m² 5,6 °C 15,1 °C 19,3 km/h (3 Bft)
17.03.2017 10:24 15,1 °C 15,1 °C 54 % 1017,2 hPa 0,0 mm 8,8 km/h (2 Bft) W 259 ° 1 min 0,000 mm 3,2 UV-I 557 W/m² 5,9 °C 15,1 °C 12,9 km/h (3 Bft)
17.03.2017 10:25 15,2 °C 15,2 °C 54 % 1017,2 hPa 0,0 mm 9,0 km/h (2 Bft) W-SW 248 ° 1 min 0,000 mm 3,2 UV-I 554 W/m² 6,0 °C 15,2 °C 14,5 km/h (3 Bft)
17.03.2017 10:26 15,3 °C 15,3 °C 56 % 1017,2 hPa 0,0 mm 10,1 km/h (2 Bft) W-SW 252 ° 1 min 0,000 mm 3,2 UV-I 554 W/m² 6,6 °C 15,3 °C 16,1 km/h (3 Bft)
17.03.2017 10:27 15,4 °C 15,4 °C 54 % 1017,2 hPa 0,0 mm 14,7 km/h (3 Bft) W-SW 254 ° 1 min 0,000 mm 3,3 UV-I 563 W/m² 6,1 °C 15,4 °C 17,7 km/h (3 Bft)
17.03.2017 10:28 15,4 °C 15,4 °C 52 % 1017,2 hPa 0,0 mm 13,9 km/h (3 Bft) W 261 ° 1 min 0,000 mm 3,3 UV-I 559 W/m² 5,6 °C 15,4 °C 25,7 km/h (4 Bft)
17.03.2017 10:29 15,4 °C 15,4 °C 53 % 1017,1 hPa 0,0 mm 18,8 km/h (3 Bft) W-SW 242 ° 1 min 0,000 mm 3,3 UV-I 564 W/m² 5,9 °C 15,4 °C 24,1 km/h (4 Bft)
17.03.2017 10:30 15,4 °C 15,4 °C 52 % 1017,2 hPa 0,0 mm 13,2 km/h (3 Bft) SW 234 ° 1 min 0,000 mm 3,3 UV-I 568 W/m² 5,6 °C 15,4 °C 17,7 km/h (3 Bft)
17.03.2017 10:31 15,4 °C 15,4 °C 54 % 1017,1 hPa 0,0 mm 10,4 km/h (2 Bft) SW 232 ° 1 min 0,000 mm 3,3 UV-I 571 W/m² 6,1 °C 15,4 °C 14,5 km/h (3 Bft)
17.03.2017 10:32 15,6 °C 15,6 °C 54 % 1017,1 hPa 0,0 mm 10,3 km/h (2 Bft) SW 222 ° 1 min 0,000 mm 3,3 UV-I 573 W/m² 6,3 °C 15,6 °C 16,1 km/h (3 Bft)
17.03.2017 10:33 15,6 °C 15,6 °C 51 % 1017,1 hPa 0,0 mm 7,0 km/h (2 Bft) SW 225 ° 1 min 0,000 mm 3,3 UV-I 566 W/m² 5,5 °C 15,6 °C 9,7 km/h (2 Bft)
17.03.2017 10:34 15,6 °C 15,6 °C 53 % 1017,1 hPa 0,0 mm 14,4 km/h (3 Bft) SW 227 ° 1 min 0,000 mm 3,4 UV-I 575 W/m² 6,1 °C 15,6 °C 20,9 km/h (4 Bft)
17.03.2017 10:35 15,5 °C 15,6 °C 52 % 1017,1 hPa 0,0 mm 8,4 km/h (2 Bft) S-SW 207 ° 1 min 0,000 mm 3,4 UV-I 580 W/m² 5,7 °C 15,5 °C 14,5 km/h (3 Bft)
17.03.2017 10:36 15,4 °C 15,5 °C 51 % 1017,1 hPa 0,0 mm 8,8 km/h (2 Bft) W 261 ° 1 min 0,000 mm 3,4 UV-I 575 W/m² 5,3 °C 15,4 °C 17,7 km/h (3 Bft)
17.03.2017 10:37 15,4 °C 15,4 °C 52 % 1017,0 hPa 0,0 mm 13,7 km/h (3 Bft) W 262 ° 1 min 0,000 mm 3,4 UV-I 577 W/m² 5,6 °C 15,4 °C 24,1 km/h (4 Bft)
17.03.2017 10:38 15,3 °C 15,4 °C 52 % 1017,0 hPa 0,0 mm 11,5 km/h (2 Bft) W-SW 257 ° 1 min 0,000 mm 3,4 UV-I 577 W/m² 5,5 °C 15,3 °C 16,1 km/h (3 Bft)
17.03.2017 10:39 15,3 °C 15,3 °C 52 % 1017,1 hPa 0,0 mm 14,1 km/h (3 Bft) S-SW 211 ° 1 min 0,000 mm 3,4 UV-I 573 W/m² 5,5 °C 15,3 °C 22,5 km/h (4 Bft)
17.03.2017 10:40 15,4 °C 15,4 °C 53 % 1017,1 hPa 0,0 mm 11,7 km/h (2 Bft) W 263 ° 1 min 0,000 mm 3,4 UV-I 570 W/m² 5,9 °C 15,4 °C 14,5 km/h (3 Bft)
17.03.2017 10:41 15,5 °C 15,5 °C 52 % 1017,0 hPa 0,0 mm 17,6 km/h (3 Bft) W-SW 250 ° 1 min 0,000 mm 3,4 UV-I 587 W/m² 5,7 °C 15,5 °C 24,1 km/h (4 Bft)
17.03.2017 10:42 15,6 °C 15,6 °C 52 % 1017,1 hPa 0,0 mm 16,3 km/h (3 Bft) W 261 ° 1 min 0,000 mm 3,5 UV-I 587 W/m² 5,8 °C 15,6 °C 24,1 km/h (4 Bft)
17.03.2017 10:43 15,6 °C 15,6 °C 51 % 1017,0 hPa 0,0 mm 11,4 km/h (2 Bft) SW 223 ° 1 min 0,000 mm 3,4 UV-I 573 W/m² 5,5 °C 15,6 °C 16,1 km/h (3 Bft)
17.03.2017 10:44 15,4 °C 15,6 °C 51 % 1017,0 hPa 0,0 mm 17,6 km/h (3 Bft) W-SW 249 ° 1 min 0,000 mm 3,4 UV-I 568 W/m² 5,3 °C 15,4 °C 24,1 km/h (4 Bft)
17.03.2017 10:45 15,4 °C 15,4 °C 52 % 1017,1 hPa 0,0 mm 8,6 km/h (2 Bft) W-SW 248 ° 1 min 0,000 mm 3,4 UV-I 577 W/m² 5,6 °C 15,4 °C 14,5 km/h (3 Bft)
17.03.2017 10:46 15,5 °C 15,5 °C 52 % 1017,1 hPa 0,0 mm 8,3 km/h (2 Bft) W-SW 254 ° 1 min 0,000 mm 3,4 UV-I 577 W/m² 5,7 °C 15,5 °C 11,3 km/h (2 Bft)
17.03.2017 10:47 15,6 °C 15,6 °C 53 % 1017,0 hPa 0,0 mm 8,5 km/h (2 Bft) W 274 ° 1 min 0,000 mm 3,4 UV-I 570 W/m² 6,1 °C 15,6 °C 14,5 km/h (3 Bft)
17.03.2017 10:48 15,8 °C 15,8 °C 52 % 1016,9 hPa 0,0 mm 8,2 km/h (2 Bft) W-SW 247 ° 1 min 0,000 mm 3,5 UV-I 582 W/m² 6,0 °C 15,8 °C 14,5 km/h (3 Bft)
17.03.2017 10:49 15,8 °C 15,8 °C 51 % 1016,9 hPa 0,0 mm 11,6 km/h (2 Bft) W 278 ° 1 min 0,000 mm 3,5 UV-I 578 W/m² 5,7 °C 15,8 °C 19,3 km/h (3 Bft)
17.03.2017 10:50 15,9 °C 15,9 °C 52 % 1017,0 hPa 0,0 mm 8,3 km/h (2 Bft) W 263 ° 1 min 0,000 mm 3,4 UV-I 578 W/m² 6,1 °C 15,9 °C 19,3 km/h (3 Bft)
17.03.2017 10:51 15,9 °C 15,9 °C 49 % 1016,9 hPa 0,0 mm 10,3 km/h (2 Bft) SW 227 ° 1 min 0,000 mm 3,5 UV-I 580 W/m² 5,2 °C 15,9 °C 14,5 km/h (3 Bft)
17.03.2017 10:52 15,9 °C 15,9 °C 49 % 1016,9 hPa 0,0 mm 7,3 km/h (2 Bft) W-NW 300 ° 1 min 0,000 mm 3,5 UV-I 577 W/m² 5,2 °C 15,9 °C 11,3 km/h (2 Bft)
17.03.2017 10:53 15,8 °C 15,9 °C 50 % 1016,9 hPa 0,0 mm 11,8 km/h (2 Bft) W 273 ° 1 min 0,000 mm 3,5 UV-I 585 W/m² 5,4 °C 15,8 °C 24,1 km/h (4 Bft)
17.03.2017 10:54 15,8 °C 15,8 °C 50 % 1016,9 hPa 0,0 mm 17,5 km/h (3 Bft) W-SW 240 ° 1 min 0,000 mm 3,5 UV-I 582 W/m² 5,4 °C 15,8 °C 25,7 km/h (4 Bft)
17.03.2017 10:55 15,8 °C 15,8 °C 50 % 1016,9 hPa 0,0 mm 14,1 km/h (3 Bft) W-SW 242 ° 1 min 0,000 mm 3,5 UV-I 592 W/m² 5,4 °C 15,8 °C 20,9 km/h (4 Bft)
17.03.2017 10:56 15,8 °C 15,9 °C 50 % 1017,0 hPa 0,0 mm 17,6 km/h (3 Bft) SW 231 ° 1 min 0,000 mm 3,5 UV-I 587 W/m² 5,4 °C 15,8 °C 25,7 km/h (4 Bft)
17.03.2017 10:57 15,8 °C 15,9 °C 49 % 1016,9 hPa 0,0 mm 16,5 km/h (3 Bft) SW 223 ° 1 min 0,000 mm 3,6 UV-I 594 W/m² 5,1 °C 15,8 °C 27,4 km/h (4 Bft)
17.03.2017 10:58 15,8 °C 15,9 °C 50 % 1016,8 hPa 0,0 mm 13,5 km/h (3 Bft) W-NW 292 ° 1 min 0,000 mm 3,6 UV-I 599 W/m² 5,4 °C 15,8 °C 20,9 km/h (4 Bft)
17.03.2017 10:59 15,8 °C 15,8 °C 50 % 1016,8 hPa 0,0 mm 19,2 km/h (3 Bft) W-NW 286 ° 1 min 0,000 mm 3,5 UV-I 591 W/m² 5,4 °C 15,8 °C 24,1 km/h (4 Bft)
17.03.2017 11:00 15,8 °C 15,8 °C 49 % 1016,9 hPa 0,0 mm 19,0 km/h (3 Bft) W 281 ° 1 min 0,356 mm 3,5 UV-I 598 W/m² 5,1 °C 15,8 °C 29,0 km/h (5 Bft)
17.03.2017 11:01 15,7 °C 15,8 °C 48 % 1016,8 hPa 0,0 mm 18,4 km/h (3 Bft) W-NW 289 ° 1 min 0,000 mm 3,6 UV-I 608 W/m² 4,7 °C 15,7 °C 22,5 km/h (4 Bft)
17.03.2017 11:02 15,7 °C 15,7 °C 48 % 1016,9 hPa 0,0 mm 22,7 km/h (4 Bft) W-SW 257 ° 1 min 0,000 mm 3,6 UV-I 603 W/m² 4,7 °C 15,7 °C 30,6 km/h (5 Bft)
17.03.2017 11:03 15,7 °C 15,7 °C 49 % 1016,8 hPa 0,0 mm 18,8 km/h (3 Bft) W 276 ° 1 min 0,000 mm 3,6 UV-I 598 W/m² 5,0 °C 15,7 °C 29,0 km/h (5 Bft)
17.03.2017 11:04 15,6 °C 15,7 °C 49 % 1016,8 hPa 0,0 mm 15,3 km/h (3 Bft) W 280 ° 1 min 0,000 mm 3,6 UV-I 605 W/m² 4,9 °C 15,6 °C 22,5 km/h (4 Bft)
17.03.2017 11:05 15,7 °C 15,7 °C 49 % 1016,8 hPa 0,0 mm 14,6 km/h (3 Bft) W-NW 284 ° 1 min 0,000 mm 3,6 UV-I 596 W/m² 5,0 °C 15,7 °C 25,7 km/h (4 Bft)
17.03.2017 11:06 15,7 °C 15,7 °C 49 % 1016,8 hPa 0,0 mm 14,9 km/h (3 Bft) W-NW 284 ° 1 min 0,000 mm 3,6 UV-I 606 W/m² 5,0 °C 15,7 °C 19,3 km/h (3 Bft)
17.03.2017 11:07 15,8 °C 15,8 °C 50 % 1016,8 hPa 0,0 mm 18,8 km/h (3 Bft) W-NW 290 ° 1 min 0,000 mm 3,7 UV-I 615 W/m² 5,4 °C 15,8 °C 24,1 km/h (4 Bft)
17.03.2017 11:08 15,8 °C 15,8 °C 50 % 1016,8 hPa 0,0 mm 11,1 km/h (2 Bft) W 261 ° 1 min 0,000 mm 3,7 UV-I 615 W/m² 5,4 °C 15,8 °C 16,1 km/h (3 Bft)
17.03.2017 11:09 15,8 °C 15,8 °C 49 % 1016,7 hPa 0,0 mm 11,4 km/h (2 Bft) NW 312 ° 1 min 0,000 mm 3,8 UV-I 621 W/m² 5,1 °C 15,8 °C 17,7 km/h (3 Bft)
17.03.2017 11:10 15,8 °C 15,9 °C 48 % 1016,7 hPa 0,0 mm 15,7 km/h (3 Bft) W 275 ° 1 min 0,000 mm 3,7 UV-I 613 W/m² 4,8 °C 15,8 °C 22,5 km/h (4 Bft)
17.03.2017 11:11 15,9 °C 15,9 °C 48 % 1016,8 hPa 0,0 mm 20,2 km/h (4 Bft) W 274 ° 1 min 0,000 mm 3,7 UV-I 619 W/m² 4,9 °C 15,9 °C 29,0 km/h (5 Bft)
17.03.2017 11:12 15,9 °C 15,9 °C 48 % 1016,7 hPa 0,0 mm 19,0 km/h (3 Bft) W-SW 250 ° 1 min 0,000 mm 3,7 UV-I 622 W/m² 4,9 °C 15,9 °C 30,6 km/h (5 Bft)
17.03.2017 11:13 15,9 °C 15,9 °C 48 % 1016,8 hPa 0,0 mm 17,9 km/h (3 Bft) W-SW 251 ° 1 min 0,000 mm 3,7 UV-I 626 W/m² 4,9 °C 15,9 °C 22,5 km/h (4 Bft)
17.03.2017 11:14 15,9 °C 16,0 °C 48 % 1016,7 hPa 0,0 mm 11,3 km/h (2 Bft) W-SW 254 ° 1 min 0,000 mm 3,9 UV-I 626 W/m² 4,9 °C 15,9 °C 19,3 km/h (3 Bft)
17.03.2017 11:15 16,1 °C 16,1 °C 47 % 1016,7 hPa 0,0 mm 11,9 km/h (2 Bft) W 267 ° 1 min 0,000 mm 3,8 UV-I 635 W/m² 4,8 °C 16,1 °C 19,3 km/h (3 Bft)
17.03.2017 11:16 16,1 °C 16,1 °C 47 % 1016,7 hPa 0,0 mm 12,4 km/h (3 Bft) NW 317 ° 1 min 0,000 mm 3,7 UV-I 613 W/m² 4,8 °C 16,1 °C 17,7 km/h (3 Bft)
17.03.2017 11:17 16,1 °C 16,1 °C 48 % 1016,6 hPa 0,0 mm 9,9 km/h (2 Bft) W 273 ° 1 min 0,000 mm 3,7 UV-I 613 W/m² 5,1 °C 16,1 °C 16,1 km/h (3 Bft)
17.03.2017 11:18 16,1 °C 16,1 °C 48 % 1016,7 hPa 0,0 mm 11,9 km/h (2 Bft) W-NW 295 ° 1 min 0,000 mm 3,3 UV-I 613 W/m² 5,1 °C 16,1 °C 17,7 km/h (3 Bft)
17.03.2017 11:19 16,2 °C 16,2 °C 47 % 1016,7 hPa 0,0 mm 16,1 km/h (3 Bft) W-NW 284 ° 1 min 0,000 mm 3,8 UV-I 656 W/m² 4,9 °C 16,2 °C 25,7 km/h (4 Bft)
17.03.2017 11:20 16,1 °C 16,2 °C 48 % 1016,7 hPa 0,0 mm 14,5 km/h (3 Bft) W 273 ° 1 min 0,000 mm 3,8 UV-I 664 W/m² 5,1 °C 16,1 °C 19,3 km/h (3 Bft)
17.03.2017 11:21 16,2 °C 16,2 °C 48 % 1016,7 hPa 0,0 mm 15,2 km/h (3 Bft) W-NW 293 ° 1 min 0,000 mm 3,9 UV-I 680 W/m² 5,2 °C 16,2 °C 19,3 km/h (3 Bft)
17.03.2017 11:22 16,3 °C 16,3 °C 46 % 1016,7 hPa 0,0 mm 12,1 km/h (2 Bft) W-SW 247 ° 1 min 0,000 mm 3,5 UV-I 661 W/m² 4,7 °C 16,3 °C 16,1 km/h (3 Bft)
17.03.2017 11:23 16,2 °C 16,3 °C 47 % 1016,6 hPa 0,0 mm 13,5 km/h (3 Bft) SW 230 ° 1 min 0,000 mm 2,7 UV-I 661 W/m² 4,9 °C 16,2 °C 19,3 km/h (3 Bft)
17.03.2017 11:24 16,1 °C 16,2 °C 47 % 1016,6 hPa 0,0 mm 12,1 km/h (2 Bft) W-SW 254 ° 1 min 0,000 mm 3,2 UV-I 661 W/m² 4,8 °C 16,1 °C 25,7 km/h (4 Bft)
17.03.2017 11:25 16,1 °C 16,1 °C 47 % 1016,6 hPa 0,0 mm 23,1 km/h (4 Bft) W 265 ° 1 min 0,000 mm 3,8 UV-I 633 W/m² 4,8 °C 16,1 °C 27,4 km/h (4 Bft)
17.03.2017 11:26 16,1 °C 16,1 °C 47 % 1016,6 hPa 0,0 mm 15,6 km/h (3 Bft) W-SW 251 ° 1 min 0,000 mm 3,9 UV-I 635 W/m² 4,8 °C 16,1 °C 27,4 km/h (4 Bft)
17.03.2017 11:27 16,0 °C 16,1 °C 47 % 1016,6 hPa 0,0 mm 16,7 km/h (3 Bft) W-SW 240 ° 1 min 0,000 mm 3,7 UV-I 603 W/m² 4,7 °C 16,0 °C 22,5 km/h (4 Bft)
17.03.2017 11:28 16,0 °C 16,0 °C 47 % 1016,6 hPa 0,0 mm 11,5 km/h (2 Bft) W 279 ° 1 min 0,000 mm 3,8 UV-I 617 W/m² 4,7 °C 16,0 °C 17,7 km/h (3 Bft)
17.03.2017 11:29 16,0 °C 16,1 °C 47 % 1016,5 hPa 0,0 mm 5,8 km/h (2 Bft) W-NW 286 ° 1 min 0,000 mm 3,9 UV-I 631 W/m² 4,7 °C 16,0 °C 11,3 km/h (2 Bft)
17.03.2017 11:30 16,1 °C 16,1 °C 48 % 1016,5 hPa 0,0 mm 8,7 km/h (2 Bft) W-NW 291 ° 1 min 0,000 mm 3,9 UV-I 622 W/m² 5,1 °C 16,1 °C 16,1 km/h (3 Bft)
17.03.2017 11:31 16,2 °C 16,2 °C 49 % 1016,5 hPa 0,0 mm 11,7 km/h (2 Bft) W-NW 292 ° 1 min 0,000 mm 3,9 UV-I 649 W/m² 5,5 °C 16,2 °C 17,7 km/h (3 Bft)
17.03.2017 11:32 16,2 °C 16,2 °C 47 % 1016,5 hPa 0,0 mm 20,5 km/h (4 Bft) W 274 ° 1 min 0,000 mm 3,8 UV-I 626 W/m² 4,9 °C 16,2 °C 33,8 km/h (5 Bft)
17.03.2017 11:33 16,2 °C 16,2 °C 48 % 1016,5 hPa 0,0 mm 12,5 km/h (3 Bft) W 270 ° 1 min 0,000 mm 3,7 UV-I 578 W/m² 5,2 °C 16,2 °C 19,3 km/h (3 Bft)
17.03.2017 11:34 16,2 °C 16,2 °C 47 % 1016,6 hPa 0,0 mm 10,1 km/h (2 Bft) W-NW 292 ° 1 min 0,000 mm 3,8 UV-I 605 W/m² 4,9 °C 16,2 °C 17,7 km/h (3 Bft)
17.03.2017 11:35 16,3 °C 16,3 °C 49 % 1016,5 hPa 0,0 mm 15,2 km/h (3 Bft) SW 229 ° 1 min 0,000 mm 4,0 UV-I 633 W/m² 5,6 °C 16,3 °C 22,5 km/h (4 Bft)
17.03.2017 11:36 16,3 °C 16,3 °C 47 % 1016,5 hPa 0,0 mm 20,3 km/h (4 Bft) W 263 ° 1 min 0,000 mm 4,0 UV-I 635 W/m² 5,0 °C 16,3 °C 25,7 km/h (4 Bft)
17.03.2017 11:37 16,3 °C 16,4 °C 46 % 1016,5 hPa 0,0 mm 16,0 km/h (3 Bft) W 259 ° 1 min 0,000 mm 4,0 UV-I 642 W/m² 4,7 °C 16,3 °C 22,5 km/h (4 Bft)
17.03.2017 11:38 16,4 °C 16,4 °C 48 % 1016,6 hPa 0,0 mm 15,0 km/h (3 Bft) W-NW 295 ° 1 min 0,000 mm 4,0 UV-I 633 W/m² 5,4 °C 16,4 °C 20,9 km/h (4 Bft)
17.03.2017 11:39 16,4 °C 16,4 °C 47 % 1016,5 hPa 0,0 mm 10,9 km/h (2 Bft) W 281 ° 1 min 0,000 mm 3,9 UV-I 626 W/m² 5,1 °C 16,4 °C 22,5 km/h (4 Bft)
17.03.2017 11:40 16,5 °C 16,5 °C 46 % 1016,5 hPa 0,0 mm 12,5 km/h (3 Bft) W 266 ° 1 min 0,000 mm 4,0 UV-I 635 W/m² 4,8 °C 16,5 °C 20,9 km/h (4 Bft)
17.03.2017 11:41 16,6 °C 16,6 °C 48 % 1016,5 hPa 0,0 mm 10,5 km/h (2 Bft) W-SW 251 ° 1 min 0,000 mm 4,0 UV-I 636 W/m² 5,5 °C 16,6 °C 20,9 km/h (4 Bft)
17.03.2017 11:42 16,8 °C 16,8 °C 47 % 1016,5 hPa 0,0 mm 23,1 km/h (4 Bft) W 259 ° 1 min 0,000 mm 4,0 UV-I 645 W/m² 5,4 °C 16,8 °C 33,8 km/h (5 Bft)
17.03.2017 11:43 16,8 °C 16,8 °C 45 % 1016,5 hPa 0,0 mm 12,5 km/h (3 Bft) W 261 ° 1 min 0,000 mm 4,0 UV-I 647 W/m² 4,8 °C 16,8 °C 17,7 km/h (3 Bft)
17.03.2017 11:44 16,7 °C 16,8 °C 45 % 1016,4 hPa 0,0 mm 15,6 km/h (3 Bft) W 265 ° 1 min 0,000 mm 4,0 UV-I 643 W/m² 4,7 °C 16,7 °C 22,5 km/h (4 Bft)
17.03.2017 11:45 16,7 °C 16,7 °C 46 % 1016,4 hPa 0,0 mm 15,4 km/h (3 Bft) W 262 ° 1 min 0,000 mm 4,1 UV-I 633 W/m² 5,0 °C 16,7 °C 25,7 km/h (4 Bft)
17.03.2017 11:46 16,7 °C 16,7 °C 44 % 1016,3 hPa 0,0 mm 21,1 km/h (4 Bft) W-SW 258 ° 1 min 0,000 mm 4,1 UV-I 650 W/m² 4,4 °C 16,7 °C 30,6 km/h (5 Bft)
17.03.2017 11:47 16,7 °C 16,7 °C 45 % 1016,3 hPa 0,0 mm 15,0 km/h (3 Bft) W-SW 250 ° 1 min 0,000 mm 4,1 UV-I 659 W/m² 4,7 °C 16,7 °C 20,9 km/h (4 Bft)
17.03.2017 11:48 16,7 °C 16,7 °C 46 % 1016,3 hPa 0,0 mm 14,2 km/h (3 Bft) W 279 ° 1 min 0,000 mm 4,1 UV-I 652 W/m² 5,0 °C 16,7 °C 20,9 km/h (4 Bft)
17.03.2017 11:49 16,7 °C 16,7 °C 45 % 1016,3 hPa 0,0 mm 18,6 km/h (3 Bft) W-SW 257 ° 1 min 0,000 mm 4,2 UV-I 654 W/m² 4,7 °C 16,7 °C 29,0 km/h (5 Bft)
17.03.2017 11:50 16,7 °C 16,7 °C 45 % 1016,3 hPa 0,0 mm 16,7 km/h (3 Bft) W-SW 244 ° 1 min 0,000 mm 4,2 UV-I 659 W/m² 4,7 °C 16,7 °C 25,7 km/h (4 Bft)
17.03.2017 11:51 16,7 °C 16,7 °C 46 % 1016,2 hPa 0,0 mm 12,3 km/h (3 Bft) SW 235 ° 1 min 0,000 mm 4,1 UV-I 654 W/m² 5,0 °C 16,7 °C 17,7 km/h (3 Bft)
17.03.2017 11:52 16,7 °C 16,7 °C 44 % 1016,3 hPa 0,0 mm 22,6 km/h (4 Bft) W 271 ° 1 min 0,000 mm 4,1 UV-I 654 W/m² 4,4 °C 16,7 °C 33,8 km/h (5 Bft)
17.03.2017 11:53 16,7 °C 16,7 °C 45 % 1016,1 hPa 0,0 mm 12,3 km/h (3 Bft) W-SW 237 ° 1 min 0,000 mm 4,0 UV-I 664 W/m² 4,7 °C 16,7 °C 17,7 km/h (3 Bft)
17.03.2017 11:54 16,7 °C 16,7 °C 45 % 1016,1 hPa 0,0 mm 17,4 km/h (3 Bft) W-NW 301 ° 1 min 0,000 mm 4,1 UV-I 664 W/m² 4,7 °C 16,7 °C 29,0 km/h (5 Bft)
17.03.2017 11:55 16,7 °C 16,7 °C 45 % 1016,1 hPa 0,0 mm 24,7 km/h (4 Bft) W 268 ° 1 min 0,000 mm 4,2 UV-I 659 W/m² 4,7 °C 16,7 °C 40,2 km/h (6 Bft)
17.03.2017 11:56 16,7 °C 16,7 °C 44 % 1016,1 hPa 0,0 mm 24,7 km/h (4 Bft) W-SW 248 ° 1 min 0,000 mm 4,2 UV-I 666 W/m² 4,4 °C 16,7 °C 37,0 km/h (5 Bft)
17.03.2017 11:57 16,7 °C 16,7 °C 44 % 1016,1 hPa 0,0 mm 19,1 km/h (3 Bft) W 278 ° 1 min 0,000 mm 4,1 UV-I 659 W/m² 4,4 °C 16,7 °C 35,4 km/h (5 Bft)
17.03.2017 11:58 16,7 °C 16,7 °C 45 % 1016,1 hPa 0,0 mm 16,9 km/h (3 Bft) W-NW 300 ° 1 min 0,000 mm 4,1 UV-I 612 W/m² 4,7 °C 16,7 °C 25,7 km/h (4 Bft)
17.03.2017 11:59 16,6 °C 16,7 °C 45 % 1016,0 hPa 0,0 mm 16,8 km/h (3 Bft) W 259 ° 1 min 0,000 mm 4,2 UV-I 659 W/m² 4,6 °C 16,6 °C 22,5 km/h (4 Bft)
17.03.2017 12:00 16,7 °C 16,7 °C 46 % 1016,0 hPa 0,0 mm 16,4 km/h (3 Bft) W-SW 251 ° 1 min 0,431 mm 4,1 UV-I 647 W/m² 5,0 °C 16,7 °C 22,5 km/h (4 Bft)
17.03.2017 12:01 16,8 °C 16,8 °C 46 % 1016,0 hPa 0,0 mm 17,6 km/h (3 Bft) W-SW 242 ° 1 min 0,000 mm 4,1 UV-I 645 W/m² 5,1 °C 16,8 °C 24,1 km/h (4 Bft)
17.03.2017 12:02 16,8 °C 16,8 °C 46 % 1015,9 hPa 0,0 mm 12,9 km/h (3 Bft) SW 229 ° 1 min 0,000 mm 4,1 UV-I 643 W/m² 5,1 °C 16,8 °C 22,5 km/h (4 Bft)
17.03.2017 12:03 16,7 °C 16,8 °C 46 % 1015,9 hPa 0,0 mm 9,8 km/h (2 Bft) W-SW 257 ° 1 min 0,000 mm 4,1 UV-I 647 W/m² 5,0 °C 16,7 °C 14,5 km/h (3 Bft)
17.03.2017 12:04 16,8 °C 16,8 °C 46 % 1015,9 hPa 0,0 mm 9,5 km/h (2 Bft) W-SW 252 ° 1 min 0,000 mm 4,2 UV-I 657 W/m² 5,1 °C 16,8 °C 16,1 km/h (3 Bft)
17.03.2017 12:05 16,8 °C 16,9 °C 46 % 1015,8 hPa 0,0 mm 14,1 km/h (3 Bft) NW 305 ° 1 min 0,000 mm 4,2 UV-I 659 W/m² 5,1 °C 16,8 °C 20,9 km/h (4 Bft)
17.03.2017 12:06 16,8 °C 16,9 °C 45 % 1015,8 hPa 0,0 mm 15,4 km/h (3 Bft) W 259 ° 1 min 0,000 mm 4,2 UV-I 657 W/m² 4,8 °C 16,8 °C 25,7 km/h (4 Bft)
17.03.2017 12:07 16,8 °C 16,8 °C 46 % 1015,8 hPa 0,0 mm 13,1 km/h (3 Bft) SW 225 ° 1 min 0,000 mm 4,2 UV-I 656 W/m² 5,1 °C 16,8 °C 25,7 km/h (4 Bft)
17.03.2017 12:08 16,7 °C 16,8 °C 45 % 1015,8 hPa 0,0 mm 9,1 km/h (2 Bft) W 260 ° 1 min 0,000 mm 4,1 UV-I 649 W/m² 4,7 °C 16,7 °C 16,1 km/h (3 Bft)
17.03.2017 12:09 16,8 °C 16,8 °C 46 % 1015,8 hPa 0,0 mm 12,7 km/h (3 Bft) W 265 ° 1 min 0,000 mm 4,1 UV-I 643 W/m² 5,1 °C 16,8 °C 17,7 km/h (3 Bft)
17.03.2017 12:10 16,9 °C 16,9 °C 46 % 1015,9 hPa 0,0 mm 10,6 km/h (2 Bft) W 279 ° 1 min 0,000 mm 4,1 UV-I 628 W/m² 5,2 °C 16,9 °C 14,5 km/h (3 Bft)
17.03.2017 12:11 16,9 °C 16,9 °C 46 % 1015,9 hPa 0,0 mm 12,6 km/h (3 Bft) W-SW 240 ° 1 min 0,000 mm 4,0 UV-I 615 W/m² 5,2 °C 16,9 °C 24,1 km/h (4 Bft)
17.03.2017 12:12 16,9 °C 16,9 °C 45 % 1015,8 hPa 0,0 mm 9,8 km/h (2 Bft) W 268 ° 1 min 0,000 mm 4,2 UV-I 643 W/m² 4,9 °C 16,9 °C 14,5 km/h (3 Bft)
17.03.2017 12:13 17,0 °C 17,0 °C 44 % 1015,8 hPa 0,0 mm 17,4 km/h (3 Bft) W 259 ° 1 min 0,000 mm 4,1 UV-I 647 W/m² 4,7 °C 17,0 °C 27,4 km/h (4 Bft)
17.03.2017 12:14 17,0 °C 17,1 °C 43 % 1015,8 hPa 0,0 mm 21,0 km/h (4 Bft) W-SW 248 ° 1 min 0,000 mm 4,2 UV-I 656 W/m² 4,3 °C 17,0 °C 25,7 km/h (4 Bft)
17.03.2017 12:15 16,9 °C 17,0 °C 44 % 1015,8 hPa 0,0 mm 16,4 km/h (3 Bft) W 259 ° 1 min 0,000 mm 4,2 UV-I 661 W/m² 4,6 °C 16,9 °C 24,1 km/h (4 Bft)
17.03.2017 12:16 16,9 °C 16,9 °C 45 % 1015,8 hPa 0,0 mm 14,7 km/h (3 Bft) W 265 ° 1 min 0,000 mm 4,1 UV-I 657 W/m² 4,9 °C 16,9 °C 22,5 km/h (4 Bft)
17.03.2017 12:17 16,9 °C 16,9 °C 44 % 1015,8 hPa 0,0 mm 16,0 km/h (3 Bft) W 279 ° 1 min 0,000 mm 4,2 UV-I 657 W/m² 4,6 °C 16,9 °C 24,1 km/h (4 Bft)
17.03.2017 12:18 16,9 °C 16,9 °C 45 % 1015,7 hPa 0,0 mm 13,2 km/h (3 Bft) W-SW 255 ° 1 min 0,000 mm 4,2 UV-I 663 W/m² 4,9 °C 16,9 °C 19,3 km/h (3 Bft)
17.03.2017 12:19 16,9 °C 16,9 °C 45 % 1015,8 hPa 0,0 mm 9,6 km/h (2 Bft) W 279 ° 1 min 0,000 mm 4,2 UV-I 661 W/m² 4,9 °C 16,9 °C 17,7 km/h (3 Bft)
17.03.2017 12:20 17,0 °C 17,0 °C 44 % 1015,8 hPa 0,0 mm 14,1 km/h (3 Bft) W-NW 286 ° 1 min 0,000 mm 4,2 UV-I 670 W/m² 4,7 °C 17,0 °C 17,7 km/h (3 Bft)
17.03.2017 12:21 17,0 °C 17,0 °C 45 % 1015,7 hPa 0,0 mm 15,2 km/h (3 Bft) W 273 ° 1 min 0,000 mm 4,1 UV-I 657 W/m² 5,0 °C 17,0 °C 24,1 km/h (4 Bft)
17.03.2017 12:22 17,1 °C 17,1 °C 45 % 1015,7 hPa 0,0 mm 11,8 km/h (2 Bft) W 280 ° 1 min 0,000 mm 4,2 UV-I 656 W/m² 5,1 °C 17,1 °C 14,5 km/h (3 Bft)
17.03.2017 12:23 17,1 °C 17,1 °C 46 % 1015,7 hPa 0,0 mm 11,3 km/h (2 Bft) SW 227 ° 1 min 0,000 mm 4,2 UV-I 659 W/m² 5,4 °C 17,1 °C 16,1 km/h (3 Bft)
17.03.2017 12:24 17,1 °C 17,1 °C 42 % 1015,7 hPa 0,0 mm 17,8 km/h (3 Bft) SW 221 ° 1 min 0,000 mm 4,0 UV-I 603 W/m² 4,1 °C 17,1 °C 24,1 km/h (4 Bft)
17.03.2017 12:25 17,0 °C 17,1 °C 43 % 1015,8 hPa 0,0 mm 16,5 km/h (3 Bft) W 279 ° 1 min 0,000 mm 4,1 UV-I 661 W/m² 4,3 °C 17,0 °C 22,5 km/h (4 Bft)
17.03.2017 12:26 16,9 °C 17,0 °C 43 % 1015,8 hPa 0,0 mm 20,5 km/h (4 Bft) W 264 ° 1 min 0,000 mm 4,2 UV-I 654 W/m² 4,2 °C 16,9 °C 27,4 km/h (4 Bft)
17.03.2017 12:27 16,9 °C 16,9 °C 43 % 1015,7 hPa 0,0 mm 20,9 km/h (4 Bft) W-NW 289 ° 1 min 0,000 mm 4,1 UV-I 654 W/m² 4,2 °C 16,9 °C 29,0 km/h (5 Bft)
17.03.2017 12:28 16,9 °C 16,9 °C 44 % 1015,7 hPa 0,0 mm 19,4 km/h (3 Bft) W-SW 243 ° 1 min 0,000 mm 4,1 UV-I 652 W/m² 4,6 °C 16,9 °C 32,2 km/h (5 Bft)
17.03.2017 12:29 16,9 °C 16,9 °C 44 % 1015,7 hPa 0,0 mm 21,8 km/h (4 Bft) W 269 ° 1 min 0,000 mm 4,1 UV-I 647 W/m² 4,6 °C 16,9 °C 29,0 km/h (5 Bft)
17.03.2017 12:30 16,9 °C 16,9 °C 43 % 1015,7 hPa 0,0 mm 19,9 km/h (4 Bft) NW 312 ° 1 min 0,000 mm 4,1 UV-I 640 W/m² 4,2 °C 16,9 °C 32,2 km/h (5 Bft)
17.03.2017 12:31 16,8 °C 16,9 °C 44 % 1015,7 hPa 0,0 mm 17,2 km/h (3 Bft) W-NW 286 ° 1 min 0,000 mm 4,2 UV-I 657 W/m² 4,5 °C 16,8 °C 22,5 km/h (4 Bft)
17.03.2017 12:32 16,8 °C 16,8 °C 43 % 1015,7 hPa 0,0 mm 15,4 km/h (3 Bft) W-SW 258 ° 1 min 0,000 mm 4,1 UV-I 654 W/m² 4,2 °C 16,8 °C 22,5 km/h (4 Bft)
17.03.2017 12:33 16,9 °C 16,9 °C 45 % 1015,6 hPa 0,0 mm 15,4 km/h (3 Bft) NW 305 ° 1 min 0,000 mm 4,1 UV-I 649 W/m² 4,9 °C 16,9 °C 24,1 km/h (4 Bft)
17.03.2017 12:34 16,9 °C 16,9 °C 43 % 1015,7 hPa 0,0 mm 20,0 km/h (4 Bft) W-NW 290 ° 1 min 0,000 mm 4,1 UV-I 652 W/m² 4,2 °C 16,9 °C 25,7 km/h (4 Bft)
17.03.2017 12:35 16,9 °C 16,9 °C 43 % 1015,5 hPa 0,0 mm 13,3 km/h (3 Bft) W 275 ° 1 min 0,000 mm 4,1 UV-I 654 W/m² 4,2 °C 16,9 °C 16,1 km/h (3 Bft)
17.03.2017 12:36 17,0 °C 17,0 °C 44 % 1015,6 hPa 0,0 mm 11,5 km/h (2 Bft) W-NW 298 ° 1 min 0,000 mm 4,1 UV-I 649 W/m² 4,7 °C 17,0 °C 16,1 km/h (3 Bft)
17.03.2017 12:37 17,1 °C 17,1 °C 43 % 1015,5 hPa 0,0 mm 17,5 km/h (3 Bft) W 271 ° 1 min 0,000 mm 4,1 UV-I 650 W/m² 4,4 °C 17,1 °C 22,5 km/h (4 Bft)
17.03.2017 12:38 17,2 °C 17,2 °C 43 % 1015,5 hPa 0,0 mm 13,1 km/h (3 Bft) SW 222 ° 1 min 0,000 mm 4,0 UV-I 631 W/m² 4,5 °C 17,2 °C 16,1 km/h (3 Bft)
17.03.2017 12:39 17,2 °C 17,3 °C 42 % 1015,5 hPa 0,0 mm 11,6 km/h (2 Bft) SW 224 ° 1 min 0,000 mm 4,0 UV-I 666 W/m² 4,2 °C 17,2 °C 19,3 km/h (3 Bft)
17.03.2017 12:40 17,3 °C 17,3 °C 43 % 1015,5 hPa 0,0 mm 24,7 km/h (4 Bft) W 263 ° 1 min 0,000 mm 4,2 UV-I 657 W/m² 4,6 °C 17,3 °C 38,6 km/h (5 Bft)
17.03.2017 12:41 17,3 °C 17,3 °C 41 % 1015,5 hPa 0,0 mm 17,0 km/h (3 Bft) W 267 ° 1 min 0,000 mm 4,1 UV-I 657 W/m² 3,9 °C 17,3 °C 25,7 km/h (4 Bft)
17.03.2017 12:42 17,3 °C 17,3 °C 40 % 1015,5 hPa 0,0 mm 18,2 km/h (3 Bft) W-SW 244 ° 1 min 0,000 mm 4,1 UV-I 656 W/m² 3,6 °C 17,3 °C 25,7 km/h (4 Bft)
17.03.2017 12:43 17,2 °C 17,3 °C 39 % 1015,4 hPa 0,0 mm 19,6 km/h (3 Bft) SW 223 ° 1 min 0,000 mm 4,1 UV-I 650 W/m² 3,1 °C 17,2 °C 27,4 km/h (4 Bft)
17.03.2017 12:44 17,1 °C 17,2 °C 42 % 1015,4 hPa 0,0 mm 20,5 km/h (4 Bft) W-SW 238 ° 1 min 0,000 mm 4,2 UV-I 666 W/m² 4,1 °C 17,1 °C 30,6 km/h (5 Bft)
17.03.2017 12:45 17,1 °C 17,1 °C 41 % 1015,4 hPa 0,0 mm 17,4 km/h (3 Bft) W-SW 248 ° 1 min 0,000 mm 4,1 UV-I 661 W/m² 3,7 °C 17,1 °C 24,1 km/h (4 Bft)
17.03.2017 12:46 17,2 °C 17,2 °C 42 % 1015,4 hPa 0,0 mm 20,9 km/h (4 Bft) W 277 ° 1 min 0,000 mm 4,2 UV-I 661 W/m² 4,2 °C 17,2 °C 29,0 km/h (5 Bft)
17.03.2017 12:47 17,3 °C 17,3 °C 41 % 1015,4 hPa 0,0 mm 20,6 km/h (4 Bft) S-SW 201 ° 1 min 0,000 mm 4,1 UV-I 656 W/m² 3,9 °C 17,3 °C 27,4 km/h (4 Bft)
17.03.2017 12:48 17,3 °C 17,3 °C 41 % 1015,4 hPa 0,0 mm 19,0 km/h (3 Bft) W 280 ° 1 min 0,000 mm 4,1 UV-I 654 W/m² 3,9 °C 17,3 °C 25,7 km/h (4 Bft)
17.03.2017 12:49 17,3 °C 17,3 °C 39 % 1015,5 hPa 0,0 mm 20,7 km/h (4 Bft) NW 313 ° 1 min 0,000 mm 4,0 UV-I 652 W/m² 3,2 °C 17,3 °C 35,4 km/h (5 Bft)
17.03.2017 12:50 17,3 °C 17,3 °C 40 % 1015,4 hPa 0,0 mm 23,0 km/h (4 Bft) W 281 ° 1 min 0,000 mm 4,0 UV-I 645 W/m² 3,6 °C 17,3 °C 38,6 km/h (5 Bft)
17.03.2017 12:51 17,2 °C 17,3 °C 39 % 1015,4 hPa 0,0 mm 21,0 km/h (4 Bft) SW 236 ° 1 min 0,000 mm 4,2 UV-I 659 W/m² 3,1 °C 17,2 °C 33,8 km/h (5 Bft)
17.03.2017 12:52 17,1 °C 17,2 °C 41 % 1015,4 hPa 0,0 mm 15,0 km/h (3 Bft) W 280 ° 1 min 0,000 mm 4,1 UV-I 652 W/m² 3,7 °C 17,1 °C 20,9 km/h (4 Bft)
17.03.2017 12:53 17,1 °C 17,1 °C 40 % 1015,3 hPa 0,0 mm 19,0 km/h (3 Bft) W-SW 242 ° 1 min 0,000 mm 4,1 UV-I 661 W/m² 3,4 °C 17,1 °C 29,0 km/h (5 Bft)
17.03.2017 12:54 17,1 °C 17,2 °C 41 % 1015,4 hPa 0,0 mm 25,0 km/h (4 Bft) W 266 ° 1 min 0,000 mm 4,1 UV-I 663 W/m² 3,7 °C 17,1 °C 35,4 km/h (5 Bft)
17.03.2017 12:55 17,1 °C 17,2 °C 40 % 1015,2 hPa 0,0 mm 24,4 km/h (4 Bft) W-NW 284 ° 1 min 0,000 mm 4,1 UV-I 654 W/m² 3,4 °C 17,1 °C 35,4 km/h (5 Bft)
17.03.2017 12:56 17,1 °C 17,1 °C 41 % 1015,3 hPa 0,0 mm 24,8 km/h (4 Bft) W-SW 238 ° 1 min 0,000 mm 4,1 UV-I 650 W/m² 3,7 °C 17,1 °C 32,2 km/h (5 Bft)
17.03.2017 12:57 17,1 °C 17,1 °C 41 % 1015,2 hPa 0,0 mm 17,0 km/h (3 Bft) W-SW 244 ° 1 min 0,000 mm 4,0 UV-I 643 W/m² 3,7 °C 17,1 °C 22,5 km/h (4 Bft)
17.03.2017 12:58 17,1 °C 17,1 °C 41 % 1015,2 hPa 0,0 mm 15,8 km/h (3 Bft) W-SW 257 ° 1 min 0,000 mm 4,0 UV-I 645 W/m² 3,7 °C 17,1 °C 20,9 km/h (4 Bft)
17.03.2017 12:59 17,2 °C 17,2 °C 42 % 1015,1 hPa 0,0 mm 15,3 km/h (3 Bft) W 276 ° 1 min 0,000 mm 4,1 UV-I 649 W/m² 4,2 °C 17,2 °C 22,5 km/h (4 Bft)
17.03.2017 13:00 17,3 °C 17,3 °C 42 % 1015,2 hPa 0,0 mm 10,3 km/h (2 Bft) W-NW 290 ° 1 min 0,483 mm 4,0 UV-I 649 W/m² 4,3 °C 17,3 °C 20,9 km/h (4 Bft)
17.03.2017 13:01 17,4 °C 17,4 °C 41 % 1015,1 hPa 0,0 mm 12,8 km/h (3 Bft) W-SW 251 ° 1 min 0,000 mm 4,1 UV-I 652 W/m² 4,0 °C 17,4 °C 14,5 km/h (3 Bft)
17.03.2017 13:02 17,5 °C 17,5 °C 40 % 1015,1 hPa 0,0 mm 14,8 km/h (3 Bft) W-SW 239 ° 1 min 0,000 mm 4,0 UV-I 649 W/m² 3,8 °C 17,5 °C 25,7 km/h (4 Bft)
17.03.2017 13:03 17,6 °C 17,6 °C 43 % 1015,2 hPa 0,0 mm 14,1 km/h (3 Bft) W-NW 283 ° 1 min 0,000 mm 4,0 UV-I 650 W/m² 4,9 °C 17,6 °C 17,7 km/h (3 Bft)
17.03.2017 13:04 17,7 °C 17,7 °C 39 % 1015,1 hPa 0,0 mm 21,9 km/h (4 Bft) SW 236 ° 1 min 0,000 mm 4,1 UV-I 652 W/m² 3,6 °C 17,7 °C 30,6 km/h (5 Bft)
17.03.2017 13:05 17,6 °C 17,7 °C 38 % 1015,1 hPa 0,0 mm 23,4 km/h (4 Bft) NW 309 ° 1 min 0,000 mm 4,1 UV-I 654 W/m² 3,1 °C 17,6 °C 35,4 km/h (5 Bft)
17.03.2017 13:06 17,6 °C 17,6 °C 38 % 1015,0 hPa 0,0 mm 17,3 km/h (3 Bft) W-SW 252 ° 1 min 0,000 mm 4,1 UV-I 649 W/m² 3,1 °C 17,6 °C 24,1 km/h (4 Bft)
17.03.2017 13:07 17,5 °C 17,6 °C 39 % 1015,0 hPa 0,0 mm 23,6 km/h (4 Bft) W 262 ° 1 min 0,000 mm 4,0 UV-I 650 W/m² 3,4 °C 17,5 °C 33,8 km/h (5 Bft)
17.03.2017 13:08 17,4 °C 17,5 °C 39 % 1014,9 hPa 0,0 mm 21,6 km/h (4 Bft) W-SW 248 ° 1 min 0,000 mm 4,1 UV-I 647 W/m² 3,3 °C 17,4 °C 32,2 km/h (5 Bft)
17.03.2017 13:09 17,4 °C 17,4 °C 39 % 1014,9 hPa 0,0 mm 19,7 km/h (3 Bft) W 268 ° 1 min 0,000 mm 4,0 UV-I 645 W/m² 3,3 °C 17,4 °C 24,1 km/h (4 Bft)
17.03.2017 13:10 17,4 °C 17,4 °C 40 % 1014,9 hPa 0,0 mm 19,1 km/h (3 Bft) W-NW 290 ° 1 min 0,000 mm 4,0 UV-I 643 W/m² 3,7 °C 17,4 °C 27,4 km/h (4 Bft)
17.03.2017 13:11 17,4 °C 17,4 °C 40 % 1015,0 hPa 0,0 mm 16,6 km/h (3 Bft) W-NW 300 ° 1 min 0,000 mm 4,0 UV-I 645 W/m² 3,7 °C 17,4 °C 27,4 km/h (4 Bft)
17.03.2017 13:12 17,4 °C 17,4 °C 39 % 1014,9 hPa 0,0 mm 24,1 km/h (4 Bft) W-SW 245 ° 1 min 0,000 mm 4,0 UV-I 638 W/m² 3,3 °C 17,4 °C 40,2 km/h (6 Bft)
17.03.2017 13:13 17,4 °C 17,4 °C 39 % 1014,9 hPa 0,0 mm 14,4 km/h (3 Bft) W 261 ° 1 min 0,000 mm 4,0 UV-I 629 W/m² 3,3 °C 17,4 °C 20,9 km/h (4 Bft)
17.03.2017 13:14 17,3 °C 17,4 °C 38 % 1014,9 hPa 0,0 mm 21,6 km/h (4 Bft) W-NW 284 ° 1 min 0,000 mm 4,0 UV-I 643 W/m² 2,9 °C 17,3 °C 32,2 km/h (5 Bft)
17.03.2017 13:15 17,3 °C 17,4 °C 39 % 1014,8 hPa 0,0 mm 20,3 km/h (4 Bft) NW 308 ° 1 min 0,000 mm 4,0 UV-I 640 W/m² 3,2 °C 17,3 °C 33,8 km/h (5 Bft)
17.03.2017 13:16 17,3 °C 17,3 °C 39 % 1014,8 hPa 0,0 mm 28,2 km/h (4 Bft) W 271 ° 1 min 0,000 mm 4,0 UV-I 635 W/m² 3,2 °C 17,3 °C 38,6 km/h (5 Bft)
17.03.2017 13:17 17,2 °C 17,3 °C 38 % 1014,9 hPa 0,0 mm 20,5 km/h (4 Bft) W-NW 292 ° 1 min 0,000 mm 4,0 UV-I 642 W/m² 2,8 °C 17,2 °C 32,2 km/h (5 Bft)
17.03.2017 13:18 17,2 °C 17,3 °C 38 % 1014,9 hPa 0,0 mm 25,3 km/h (4 Bft) W-NW 300 ° 1 min 0,000 mm 4,0 UV-I 640 W/m² 2,8 °C 17,2 °C 40,2 km/h (6 Bft)
17.03.2017 13:19 17,2 °C 17,2 °C 38 % 1014,9 hPa 0,0 mm 14,3 km/h (3 Bft) W 271 ° 1 min 0,000 mm 4,0 UV-I 640 W/m² 2,8 °C 17,2 °C 19,3 km/h (3 Bft)
17.03.2017 13:20 17,2 °C 17,2 °C 39 % 1015,0 hPa 0,0 mm 22,7 km/h (4 Bft) W-NW 292 ° 1 min 0,000 mm 4,0 UV-I 643 W/m² 3,1 °C 17,2 °C 35,4 km/h (5 Bft)
17.03.2017 13:21 17,3 °C 17,3 °C 39 % 1014,9 hPa 0,0 mm 22,6 km/h (4 Bft) W 277 ° 1 min 0,000 mm 4,0 UV-I 642 W/m² 3,2 °C 17,3 °C 30,6 km/h (5 Bft)
17.03.2017 13:22 17,3 °C 17,3 °C 39 % 1014,8 hPa 0,0 mm 23,2 km/h (4 Bft) W-SW 248 ° 1 min 0,000 mm 3,9 UV-I 633 W/m² 3,2 °C 17,3 °C 32,2 km/h (5 Bft)
17.03.2017 13:23 17,3 °C 17,3 °C 38 % 1014,8 hPa 0,0 mm 17,2 km/h (3 Bft) W-NW 296 ° 1 min 0,000 mm 3,9 UV-I 635 W/m² 2,9 °C 17,3 °C 24,1 km/h (4 Bft)
17.03.2017 13:24 17,4 °C 17,4 °C 39 % 1014,9 hPa 0,0 mm 20,2 km/h (4 Bft) NW 312 ° 1 min 0,000 mm 3,9 UV-I 631 W/m² 3,3 °C 17,4 °C 32,2 km/h (5 Bft)
17.03.2017 13:25 17,4 °C 17,4 °C 37 % 1014,9 hPa 0,0 mm 22,6 km/h (4 Bft) W-NW 296 ° 1 min 0,000 mm 3,9 UV-I 633 W/m² 2,6 °C 17,4 °C 32,2 km/h (5 Bft)
17.03.2017 13:26 17,3 °C 17,4 °C 38 % 1014,9 hPa 0,0 mm 24,7 km/h (4 Bft) W 264 ° 1 min 0,000 mm 3,9 UV-I 635 W/m² 2,9 °C 17,3 °C 37,0 km/h (5 Bft)
17.03.2017 13:27 17,3 °C 17,4 °C 37 % 1014,8 hPa 0,0 mm 23,4 km/h (4 Bft) W-SW 240 ° 1 min 0,000 mm 3,9 UV-I 635 W/m² 2,5 °C 17,3 °C 35,4 km/h (5 Bft)
17.03.2017 13:28 17,3 °C 17,3 °C 38 % 1014,9 hPa 0,0 mm 22,5 km/h (4 Bft) W 268 ° 1 min 0,000 mm 3,9 UV-I 635 W/m² 2,9 °C 17,3 °C 32,2 km/h (5 Bft)
17.03.2017 13:29 17,3 °C 17,3 °C 38 % 1014,8 hPa 0,0 mm 16,2 km/h (3 Bft) W-NW 290 ° 1 min 0,000 mm 3,9 UV-I 633 W/m² 2,9 °C 17,3 °C 24,1 km/h (4 Bft)
17.03.2017 13:30 17,3 °C 17,3 °C 37 % 1014,8 hPa 0,0 mm 15,8 km/h (3 Bft) NW 324 ° 1 min 0,000 mm 3,9 UV-I 636 W/m² 2,5 °C 17,3 °C 24,1 km/h (4 Bft)
17.03.2017 13:31 17,3 °C 17,3 °C 39 % 1014,8 hPa 0,0 mm 24,6 km/h (4 Bft) W 281 ° 1 min 0,000 mm 3,9 UV-I 635 W/m² 3,2 °C 17,3 °C 37,0 km/h (5 Bft)
17.03.2017 13:32 17,3 °C 17,3 °C 38 % 1014,7 hPa 0,0 mm 19,3 km/h (3 Bft) W-NW 296 ° 1 min 0,000 mm 3,9 UV-I 635 W/m² 2,9 °C 17,3 °C 27,4 km/h (4 Bft)
17.03.2017 13:33 17,2 °C 17,3 °C 37 % 1014,7 hPa 0,0 mm 14,8 km/h (3 Bft) W 281 ° 1 min 0,000 mm 3,9 UV-I 626 W/m² 2,4 °C 17,2 °C 19,3 km/h (3 Bft)
17.03.2017 13:34 17,3 °C 17,3 °C 39 % 1014,7 hPa 0,0 mm 24,0 km/h (4 Bft) W-NW 294 ° 1 min 0,000 mm 3,8 UV-I 626 W/m² 3,2 °C 17,3 °C 32,2 km/h (5 Bft)
17.03.2017 13:35 17,3 °C 17,3 °C 38 % 1014,6 hPa 0,0 mm 20,6 km/h (4 Bft) W 259 ° 1 min 0,000 mm 3,9 UV-I 633 W/m² 2,9 °C 17,3 °C 35,4 km/h (5 Bft)
17.03.2017 13:36 17,3 °C 17,3 °C 38 % 1014,6 hPa 0,0 mm 17,4 km/h (3 Bft) W-NW 286 ° 1 min 0,000 mm 3,9 UV-I 633 W/m² 2,9 °C 17,3 °C 25,7 km/h (4 Bft)
17.03.2017 13:37 17,2 °C 17,3 °C 38 % 1014,7 hPa 0,0 mm 31,4 km/h (5 Bft) W 273 ° 1 min 0,000 mm 3,8 UV-I 628 W/m² 2,8 °C 17,2 °C 41,8 km/h (6 Bft)
17.03.2017 13:38 17,2 °C 17,2 °C 38 % 1014,7 hPa 0,0 mm 25,7 km/h (4 Bft) W-NW 300 ° 1 min 0,000 mm 3,8 UV-I 624 W/m² 2,8 °C 17,2 °C 40,2 km/h (6 Bft)
17.03.2017 13:39 17,1 °C 17,2 °C 39 % 1014,6 hPa 0,0 mm 24,6 km/h (4 Bft) W 268 ° 1 min 0,000 mm 3,8 UV-I 622 W/m² 3,0 °C 17,1 °C 37,0 km/h (5 Bft)
17.03.2017 13:40 17,1 °C 17,1 °C 38 % 1014,6 hPa 0,0 mm 27,7 km/h (4 Bft) W-SW 250 ° 1 min 0,000 mm 3,8 UV-I 628 W/m² 2,7 °C 17,1 °C 51,5 km/h (7 Bft)
17.03.2017 13:41 17,1 °C 17,1 °C 39 % 1014,5 hPa 0,0 mm 22,9 km/h (4 Bft) W-SW 246 ° 1 min 0,000 mm 3,8 UV-I 624 W/m² 3,0 °C 17,1 °C 32,2 km/h (5 Bft)
17.03.2017 13:42 17,1 °C 17,1 °C 39 % 1014,5 hPa 0,0 mm 19,3 km/h (3 Bft) W-SW 254 ° 1 min 0,000 mm 3,8 UV-I 628 W/m² 3,0 °C 17,1 °C 25,7 km/h (4 Bft)
17.03.2017 13:43 17,1 °C 17,2 °C 39 % 1014,3 hPa 0,0 mm 17,4 km/h (3 Bft) W-NW 287 ° 1 min 0,000 mm 3,8 UV-I 622 W/m² 3,0 °C 17,1 °C 25,7 km/h (4 Bft)
17.03.2017 13:44 17,1 °C 17,1 °C 39 % 1014,2 hPa 0,0 mm 26,3 km/h (4 Bft) NW 317 ° 1 min 0,000 mm 3,8 UV-I 617 W/m² 3,0 °C 17,1 °C 43,5 km/h (6 Bft)
17.03.2017 13:45 17,2 °C 17,2 °C 40 % 1014,2 hPa 0,0 mm 26,0 km/h (4 Bft) W-SW 237 ° 1 min 0,000 mm 3,7 UV-I 617 W/m² 3,5 °C 17,2 °C 32,2 km/h (5 Bft)
17.03.2017 13:46 17,2 °C 17,2 °C 39 % 1014,2 hPa 0,0 mm 21,8 km/h (4 Bft) W-NW 282 ° 1 min 0,000 mm 3,7 UV-I 617 W/m² 3,1 °C 17,2 °C 27,4 km/h (4 Bft)
17.03.2017 13:47 17,2 °C 17,2 °C 39 % 1014,3 hPa 0,0 mm 20,4 km/h (4 Bft) W-NW 285 ° 1 min 0,000 mm 3,7 UV-I 617 W/m² 3,1 °C 17,2 °C 32,2 km/h (5 Bft)
17.03.2017 13:48 17,2 °C 17,2 °C 40 % 1014,3 hPa 0,0 mm 18,8 km/h (3 Bft) W-SW 258 ° 1 min 0,000 mm 3,7 UV-I 619 W/m² 3,5 °C 17,2 °C 25,7 km/h (4 Bft)
17.03.2017 13:49 17,3 °C 17,3 °C 40 % 1014,3 hPa 0,0 mm 16,6 km/h (3 Bft) W-SW 242 ° 1 min 0,000 mm 3,7 UV-I 621 W/m² 3,6 °C 17,3 °C 25,7 km/h (4 Bft)
17.03.2017 13:50 17,3 °C 17,3 °C 38 % 1014,4 hPa 0,0 mm 30,0 km/h (5 Bft) W-SW 257 ° 1 min 0,000 mm 3,7 UV-I 605 W/m² 2,9 °C 17,3 °C 48,3 km/h (6 Bft)
17.03.2017 13:51 17,3 °C 17,3 °C 39 % 1014,2 hPa 0,0 mm 22,0 km/h (4 Bft) W-NW 288 ° 1 min 0,000 mm 3,6 UV-I 610 W/m² 3,2 °C 17,3 °C 41,8 km/h (6 Bft)
17.03.2017 13:52 17,3 °C 17,3 °C 39 % 1014,3 hPa 0,0 mm 27,6 km/h (4 Bft) W 265 ° 1 min 0,000 mm 3,7 UV-I 615 W/m² 3,2 °C 17,3 °C 38,6 km/h (5 Bft)
17.03.2017 13:53 17,3 °C 17,3 °C 39 % 1014,2 hPa 0,0 mm 21,3 km/h (4 Bft) W 276 ° 1 min 0,000 mm 3,6 UV-I 610 W/m² 3,2 °C 17,3 °C 35,4 km/h (5 Bft)
17.03.2017 13:54 17,3 °C 17,3 °C 39 % 1014,2 hPa 0,0 mm 25,6 km/h (4 Bft) W-SW 254 ° 1 min 0,000 mm 3,6 UV-I 612 W/m² 3,2 °C 17,3 °C 37,0 km/h (5 Bft)
17.03.2017 13:55 17,3 °C 17,3 °C 39 % 1014,3 hPa 0,0 mm 23,6 km/h (4 Bft) W 263 ° 1 min 0,000 mm 3,6 UV-I 606 W/m² 3,2 °C 17,3 °C 38,6 km/h (5 Bft)
17.03.2017 13:56 17,3 °C 17,3 °C 39 % 1014,3 hPa 0,0 mm 16,4 km/h (3 Bft) NW 311 ° 1 min 0,000 mm 3,6 UV-I 606 W/m² 3,2 °C 17,3 °C 22,5 km/h (4 Bft)
17.03.2017 13:57 17,3 °C 17,3 °C 38 % 1014,2 hPa 0,0 mm 16,8 km/h (3 Bft) W-NW 296 ° 1 min 0,000 mm 3,6 UV-I 612 W/m² 2,9 °C 17,3 °C 24,1 km/h (4 Bft)
17.03.2017 13:58 17,3 °C 17,3 °C 39 % 1014,2 hPa 0,0 mm 16,1 km/h (3 Bft) W-NW 288 ° 1 min 0,000 mm 3,6 UV-I 608 W/m² 3,2 °C 17,3 °C 22,5 km/h (4 Bft)
17.03.2017 13:59 17,4 °C 17,4 °C 39 % 1014,2 hPa 0,0 mm 11,6 km/h (2 Bft) W-NW 294 ° 1 min 0,000 mm 3,6 UV-I 613 W/m² 3,3 °C 17,4 °C 17,7 km/h (3 Bft)
17.03.2017 14:00 17,4 °C 17,4 °C 39 % 1014,1 hPa 0,0 mm 17,1 km/h (3 Bft) W-SW 241 ° 1 min 0,000 mm 3,6 UV-I 610 W/m² 3,3 °C 17,4 °C 25,7 km/h (4 Bft)
17.03.2017 14:01 17,4 °C 17,4 °C 40 % 1014,0 hPa 0,0 mm 14,5 km/h (3 Bft) W-NW 285 ° 1 min 0,508 mm 3,5 UV-I 605 W/m² 3,7 °C 17,4 °C 25,7 km/h (4 Bft)
17.03.2017 14:02 17,4 °C 17,4 °C 39 % 1014,2 hPa 0,0 mm 28,6 km/h (4 Bft) W-SW 253 ° 1 min 0,000 mm 3,6 UV-I 598 W/m² 3,3 °C 17,4 °C 40,2 km/h (6 Bft)
17.03.2017 14:03 17,4 °C 17,4 °C 39 % 1014,1 hPa 0,0 mm 19,3 km/h (3 Bft) W 273 ° 1 min 0,000 mm 3,4 UV-I 591 W/m² 3,3 °C 17,4 °C 25,7 km/h (4 Bft)
17.03.2017 14:04 17,3 °C 17,4 °C 39 % 1014,0 hPa 0,0 mm 32,3 km/h (5 Bft) W 275 ° 1 min 0,000 mm 3,4 UV-I 591 W/m² 3,2 °C 17,3 °C 49,9 km/h (6 Bft)
17.03.2017 14:05 17,2 °C 17,3 °C 39 % 1014,0 hPa 0,0 mm 30,6 km/h (5 Bft) W 277 ° 1 min 0,000 mm 3,4 UV-I 587 W/m² 3,1 °C 17,2 °C 45,1 km/h (6 Bft)
17.03.2017 14:06 17,2 °C 17,2 °C 39 % 1014,1 hPa 0,0 mm 26,4 km/h (4 Bft) W 269 ° 1 min 0,000 mm 3,5 UV-I 592 W/m² 3,1 °C 17,2 °C 33,8 km/h (5 Bft)
17.03.2017 14:07 17,1 °C 17,2 °C 38 % 1014,0 hPa 0,0 mm 31,0 km/h (5 Bft) W 263 ° 1 min 0,000 mm 3,5 UV-I 596 W/m² 2,7 °C 17,1 °C 43,5 km/h (6 Bft)
17.03.2017 14:08 17,0 °C 17,1 °C 39 % 1014,0 hPa 0,0 mm 29,8 km/h (5 Bft) W 261 ° 1 min 0,000 mm 3,5 UV-I 592 W/m² 2,9 °C 17,0 °C 46,7 km/h (6 Bft)
17.03.2017 14:09 17,0 °C 17,0 °C 39 % 1013,8 hPa 0,0 mm 31,9 km/h (5 Bft) W 269 ° 1 min 0,000 mm 3,4 UV-I 591 W/m² 2,9 °C 17,0 °C 40,2 km/h (6 Bft)
17.03.2017 14:10 16,9 °C 17,0 °C 39 % 1013,9 hPa 0,0 mm 22,5 km/h (4 Bft) W-SW 247 ° 1 min 0,000 mm 3,4 UV-I 591 W/m² 2,9 °C 16,9 °C 33,8 km/h (5 Bft)
17.03.2017 14:11 16,9 °C 16,9 °C 40 % 1013,9 hPa 0,0 mm 23,2 km/h (4 Bft) W 266 ° 1 min 0,000 mm 3,4 UV-I 584 W/m² 3,2 °C 16,9 °C 30,6 km/h (5 Bft)
17.03.2017 14:12 16,9 °C 17,0 °C 39 % 1013,8 hPa 0,0 mm 24,3 km/h (4 Bft) NW 304 ° 1 min 0,000 mm 3,4 UV-I 587 W/m² 2,9 °C 16,9 °C 38,6 km/h (5 Bft)
17.03.2017 14:13 17,0 °C 17,0 °C 39 % 1014,0 hPa 0,0 mm 22,7 km/h (4 Bft) W-SW 251 ° 1 min 0,000 mm 3,4 UV-I 575 W/m² 2,9 °C 17,0 °C 32,2 km/h (5 Bft)
17.03.2017 14:14 17,0 °C 17,0 °C 39 % 1014,0 hPa 0,0 mm 20,4 km/h (4 Bft) SW 220 ° 1 min 0,000 mm 3,3 UV-I 571 W/m² 2,9 °C 17,0 °C 33,8 km/h (5 Bft)
17.03.2017 14:15 17,1 °C 17,1 °C 41 % 1013,9 hPa 0,0 mm 23,9 km/h (4 Bft) W-SW 238 ° 1 min 0,000 mm 3,3 UV-I 577 W/m² 3,7 °C 17,1 °C 37,0 km/h (5 Bft)
17.03.2017 14:16 17,1 °C 17,1 °C 40 % 1013,9 hPa 0,0 mm 12,3 km/h (3 Bft) W-SW 254 ° 1 min 0,000 mm 3,3 UV-I 589 W/m² 3,4 °C 17,1 °C 22,5 km/h (4 Bft)
17.03.2017 14:17 17,2 °C 17,2 °C 41 % 1013,8 hPa 0,0 mm 19,0 km/h (3 Bft) W 260 ° 1 min 0,000 mm 3,2 UV-I 580 W/m² 3,8 °C 17,2 °C 29,0 km/h (5 Bft)
17.03.2017 14:18 17,2 °C 17,2 °C 41 % 1013,8 hPa 0,0 mm 21,7 km/h (4 Bft) W-SW 248 ° 1 min 0,000 mm 3,2 UV-I 577 W/m² 3,8 °C 17,2 °C 38,6 km/h (5 Bft)
17.03.2017 14:19 17,2 °C 17,2 °C 40 % 1013,8 hPa 0,0 mm 27,7 km/h (4 Bft) W 266 ° 1 min 0,000 mm 3,2 UV-I 584 W/m² 3,5 °C 17,2 °C 41,8 km/h (6 Bft)
17.03.2017 14:20 17,2 °C 17,2 °C 40 % 1013,9 hPa 0,0 mm 24,8 km/h (4 Bft) W-SW 254 ° 1 min 0,000 mm 3,2 UV-I 575 W/m² 3,5 °C 17,2 °C 33,8 km/h (5 Bft)
17.03.2017 14:21 17,2 °C 17,2 °C 40 % 1013,8 hPa 0,0 mm 22,5 km/h (4 Bft) W-SW 254 ° 1 min 0,000 mm 3,1 UV-I 568 W/m² 3,5 °C 17,2 °C 30,6 km/h (5 Bft)
17.03.2017 14:22 17,3 °C 17,3 °C 41 % 1013,8 hPa 0,0 mm 14,7 km/h (3 Bft) W-SW 257 ° 1 min 0,000 mm 3,0 UV-I 559 W/m² 3,9 °C 17,3 °C 22,5 km/h (4 Bft)
17.03.2017 14:23 17,3 °C 17,3 °C 41 % 1013,8 hPa 0,0 mm 22,9 km/h (4 Bft) W 269 ° 1 min 0,000 mm 3,0 UV-I 570 W/m² 3,9 °C 17,3 °C 27,4 km/h (4 Bft)
17.03.2017 14:24 17,4 °C 17,4 °C 40 % 1013,9 hPa 0,0 mm 17,2 km/h (3 Bft) W-SW 252 ° 1 min 0,000 mm 3,0 UV-I 578 W/m² 3,7 °C 17,4 °C 33,8 km/h (5 Bft)
17.03.2017 14:25 17,4 °C 17,4 °C 41 % 1013,8 hPa 0,0 mm 21,9 km/h (4 Bft) W-NW 288 ° 1 min 0,000 mm 2,9 UV-I 584 W/m² 4,0 °C 17,4 °C 32,2 km/h (5 Bft)
17.03.2017 14:26 17,3 °C 17,4 °C 40 % 1013,8 hPa 0,0 mm 17,8 km/h (3 Bft) W-SW 250 ° 1 min 0,000 mm 2,9 UV-I 591 W/m² 3,6 °C 17,3 °C 25,7 km/h (4 Bft)
17.03.2017 14:27 17,3 °C 17,3 °C 41 % 1013,7 hPa 0,0 mm 24,1 km/h (4 Bft) W-NW 293 ° 1 min 0,000 mm 2,8 UV-I 598 W/m² 3,9 °C 17,3 °C 32,2 km/h (5 Bft)
17.03.2017 14:28 17,3 °C 17,3 °C 41 % 1013,7 hPa 0,0 mm 20,9 km/h (4 Bft) W-SW 248 ° 1 min 0,000 mm 2,9 UV-I 585 W/m² 3,9 °C 17,3 °C 29,0 km/h (5 Bft)
17.03.2017 14:29 17,3 °C 17,3 °C 40 % 1013,7 hPa 0,0 mm 16,9 km/h (3 Bft) W 269 ° 1 min 0,000 mm 2,9 UV-I 599 W/m² 3,6 °C 17,3 °C 25,7 km/h (4 Bft)
17.03.2017 14:30 17,3 °C 17,3 °C 40 % 1013,7 hPa 0,0 mm 25,9 km/h (4 Bft) W 264 ° 1 min 0,000 mm 2,4 UV-I 599 W/m² 3,6 °C 17,3 °C 41,8 km/h (6 Bft)
17.03.2017 14:31 17,2 °C 17,3 °C 40 % 1013,7 hPa 0,0 mm 21,1 km/h (4 Bft) W-NW 284 ° 1 min 0,000 mm 2,5 UV-I 599 W/m² 3,5 °C 17,2 °C 27,4 km/h (4 Bft)
17.03.2017 14:32 17,1 °C 17,2 °C 41 % 1013,6 hPa 0,0 mm 17,3 km/h (3 Bft) W-SW 246 ° 1 min 0,000 mm 2,8 UV-I 599 W/m² 3,7 °C 17,1 °C 32,2 km/h (5 Bft)
17.03.2017 14:33 16,9 °C 17,1 °C 42 % 1013,7 hPa 0,0 mm 17,4 km/h (3 Bft) W-NW 290 ° 1 min 0,000 mm 1,9 UV-I 599 W/m² 3,9 °C 16,9 °C 25,7 km/h (4 Bft)
17.03.2017 14:34 16,8 °C 16,9 °C 42 % 1013,6 hPa 0,0 mm 20,4 km/h (4 Bft) W-NW 289 ° 0 min 0,000 mm 1,7 UV-I 178 W/m² 3,8 °C 16,8 °C 25,7 km/h (4 Bft)
17.03.2017 14:35 16,7 °C 16,8 °C 42 % 1013,6 hPa 0,0 mm 21,4 km/h (4 Bft) W 275 ° 0 min 0,000 mm 1,8 UV-I 178 W/m² 3,7 °C 16,7 °C 29,0 km/h (5 Bft)
17.03.2017 14:36 16,6 °C 16,7 °C 42 % 1013,5 hPa 0,0 mm 20,1 km/h (4 Bft) W-SW 250 ° 0 min 0,000 mm 1,8 UV-I 186 W/m² 3,6 °C 16,6 °C 25,7 km/h (4 Bft)
17.03.2017 14:37 16,4 °C 16,6 °C 43 % 1013,5 hPa 0,0 mm 13,9 km/h (3 Bft) W 271 ° 0 min 0,000 mm 1,8 UV-I 186 W/m² 3,8 °C 16,4 °C 22,5 km/h (4 Bft)
17.03.2017 14:38 16,4 °C 16,4 °C 43 % 1013,6 hPa 0,0 mm 14,3 km/h (3 Bft) W-SW 250 ° 0 min 0,000 mm 2,2 UV-I 186 W/m² 3,8 °C 16,4 °C 20,9 km/h (4 Bft)
17.03.2017 14:39 16,4 °C 16,4 °C 43 % 1013,6 hPa 0,0 mm 24,3 km/h (4 Bft) W-NW 287 ° 1 min 0,000 mm 2,2 UV-I 339 W/m² 3,8 °C 16,4 °C 35,4 km/h (5 Bft)
17.03.2017 14:40 16,4 °C 16,4 °C 43 % 1013,5 hPa 0,0 mm 18,6 km/h (3 Bft) W-SW 257 ° 1 min 0,000 mm 2,5 UV-I 339 W/m² 3,8 °C 16,4 °C 25,7 km/h (4 Bft)
17.03.2017 14:41 16,5 °C 16,5 °C 43 % 1013,6 hPa 0,0 mm 21,8 km/h (4 Bft) SW 234 ° 1 min 0,000 mm 2,5 UV-I 570 W/m² 3,9 °C 16,5 °C 29,0 km/h (5 Bft)
17.03.2017 14:42 16,6 °C 16,6 °C 42 % 1013,6 hPa 0,0 mm 21,5 km/h (4 Bft) W-NW 296 ° 1 min 0,000 mm 1,7 UV-I 570 W/m² 3,6 °C 16,6 °C 27,4 km/h (4 Bft)
17.03.2017 14:43 16,6 °C 16,6 °C 43 % 1013,7 hPa 0,0 mm 26,0 km/h (4 Bft) W 276 ° 1 min 0,000 mm 1,9 UV-I 570 W/m² 4,0 °C 16,6 °C 48,3 km/h (6 Bft)
17.03.2017 14:44 16,6 °C 16,6 °C 43 % 1013,7 hPa 0,0 mm 16,8 km/h (3 Bft) W 277 ° 0 min 0,000 mm 1,7 UV-I 86 W/m² 4,0 °C 16,6 °C 27,4 km/h (4 Bft)
17.03.2017 14:45 16,6 °C 16,6 °C 43 % 1013,6 hPa 0,0 mm 23,3 km/h (4 Bft) W 278 ° 0 min 0,000 mm 2,3 UV-I 86 W/m² 4,0 °C 16,6 °C 33,8 km/h (5 Bft)
17.03.2017 14:46 16,4 °C 16,6 °C 43 % 1013,7 hPa 0,0 mm 22,0 km/h (4 Bft) W 273 ° 1 min 0,000 mm 2,4 UV-I 454 W/m² 3,8 °C 16,4 °C 37,0 km/h (5 Bft)
17.03.2017 14:47 16,4 °C 16,4 °C 43 % 1013,7 hPa 0,0 mm 20,2 km/h (4 Bft) NW 307 ° 1 min 0,000 mm 2,5 UV-I 466 W/m² 3,8 °C 16,4 °C 29,0 km/h (5 Bft)
17.03.2017 14:48 16,4 °C 16,4 °C 42 % 1013,7 hPa 0,0 mm 20,5 km/h (4 Bft) W-NW 301 ° 1 min 0,000 mm 2,5 UV-I 517 W/m² 3,5 °C 16,4 °C 27,4 km/h (4 Bft)
17.03.2017 14:49 16,4 °C 16,4 °C 43 % 1013,6 hPa 0,0 mm 15,6 km/h (3 Bft) W-SW 253 ° 0 min 0,000 mm 1,6 UV-I 90 W/m² 3,8 °C 16,4 °C 24,1 km/h (4 Bft)
17.03.2017 14:50 16,4 °C 16,4 °C 43 % 1013,7 hPa 0,0 mm 12,7 km/h (3 Bft) W-SW 257 ° 0 min 0,000 mm 1,7 UV-I 90 W/m² 3,8 °C 16,4 °C 20,9 km/h (4 Bft)
17.03.2017 14:51 16,3 °C 16,4 °C 44 % 1013,7 hPa 0,0 mm 16,9 km/h (3 Bft) W 267 ° 0 min 0,000 mm 1,5 UV-I 90 W/m² 4,0 °C 16,3 °C 25,7 km/h (4 Bft)
17.03.2017 14:52 16,3 °C 16,3 °C 43 % 1013,6 hPa 0,0 mm 21,3 km/h (4 Bft) W-NW 283 ° 0 min 0,000 mm 1,7 UV-I 123 W/m² 3,7 °C 16,3 °C 27,4 km/h (4 Bft)
17.03.2017 14:53 16,3 °C 16,3 °C 43 % 1013,6 hPa 0,0 mm 17,3 km/h (3 Bft) W-SW 253 ° 0 min 0,000 mm 1,6 UV-I 74 W/m² 3,7 °C 16,3 °C 29,0 km/h (5 Bft)
17.03.2017 14:54 16,2 °C 16,3 °C 43 % 1013,6 hPa 0,0 mm 12,1 km/h (2 Bft) W-SW 248 ° 1 min 0,000 mm 2,4 UV-I 504 W/m² 3,6 °C 16,2 °C 17,7 km/h (3 Bft)
17.03.2017 14:55 16,2 °C 16,2 °C 43 % 1013,4 hPa 0,0 mm 18,6 km/h (3 Bft) W-NW 296 ° 1 min 0,000 mm 2,5 UV-I 504 W/m² 3,6 °C 16,2 °C 25,7 km/h (4 Bft)
17.03.2017 14:56 16,2 °C 16,2 °C 43 % 1013,4 hPa 0,0 mm 15,2 km/h (3 Bft) W-SW 254 ° 1 min 0,000 mm 1,5 UV-I 504 W/m² 3,6 °C 16,2 °C 22,5 km/h (4 Bft)
17.03.2017 14:57 16,1 °C 16,2 °C 44 % 1013,4 hPa 0,0 mm 16,2 km/h (3 Bft) W-SW 245 ° 1 min 0,000 mm 1,5 UV-I 504 W/m² 3,8 °C 16,1 °C 22,5 km/h (4 Bft)
17.03.2017 14:58 16,1 °C 16,1 °C 44 % 1013,4 hPa 0,0 mm 18,7 km/h (3 Bft) W-SW 252 ° 1 min 0,000 mm 2,4 UV-I 504 W/m² 3,8 °C 16,1 °C 30,6 km/h (5 Bft)
17.03.2017 14:59 16,1 °C 16,1 °C 44 % 1013,4 hPa 0,0 mm 11,4 km/h (2 Bft) W-SW 240 ° 1 min 0,000 mm 2,4 UV-I 504 W/m² 3,8 °C 16,1 °C 17,7 km/h (3 Bft)
17.03.2017 15:00 16,1 °C 16,1 °C 45 % 1013,4 hPa 0,0 mm 17,0 km/h (3 Bft) SW 227 ° 1 min 0,406 mm 2,4 UV-I 392 W/m² 4,2 °C 16,1 °C 25,7 km/h (4 Bft)
17.03.2017 15:01 16,2 °C 16,2 °C 44 % 1013,4 hPa 0,0 mm 16,3 km/h (3 Bft) W 268 ° 1 min 0,000 mm 1,6 UV-I 392 W/m² 3,9 °C 16,2 °C 27,4 km/h (4 Bft)
17.03.2017 15:02 16,2 °C 16,2 °C 45 % 1013,4 hPa 0,0 mm 13,2 km/h (3 Bft) W 265 ° 1 min 0,000 mm 2,5 UV-I 392 W/m² 4,3 °C 16,2 °C 22,5 km/h (4 Bft)
17.03.2017 15:03 16,3 °C 16,3 °C 45 % 1013,4 hPa 0,0 mm 13,5 km/h (3 Bft) W-NW 300 ° 1 min 0,000 mm 2,4 UV-I 492 W/m² 4,3 °C 16,3 °C 19,3 km/h (3 Bft)
17.03.2017 15:04 16,3 °C 16,3 °C 44 % 1013,3 hPa 0,0 mm 16,1 km/h (3 Bft) W-NW 292 ° 1 min 0,000 mm 2,4 UV-I 476 W/m² 4,0 °C 16,3 °C 25,7 km/h (4 Bft)
17.03.2017 15:05 16,4 °C 16,4 °C 45 % 1013,3 hPa 0,0 mm 14,1 km/h (3 Bft) W 280 ° 1 min 0,000 mm 2,3 UV-I 471 W/m² 4,4 °C 16,4 °C 24,1 km/h (4 Bft)
17.03.2017 15:06 16,5 °C 16,5 °C 44 % 1013,3 hPa 0,0 mm 14,0 km/h (3 Bft) W-SW 256 ° 1 min 0,000 mm 1,9 UV-I 471 W/m² 4,2 °C 16,5 °C 19,3 km/h (3 Bft)
17.03.2017 15:07 16,5 °C 16,5 °C 44 % 1013,2 hPa 0,0 mm 21,0 km/h (4 Bft) W-SW 248 ° 1 min 0,000 mm 1,5 UV-I 471 W/m² 4,2 °C 16,5 °C 30,6 km/h (5 Bft)
17.03.2017 15:08 16,4 °C 16,5 °C 44 % 1013,3 hPa 0,0 mm 15,2 km/h (3 Bft) W 277 ° 1 min 0,000 mm 2,2 UV-I 471 W/m² 4,1 °C 16,4 °C 27,4 km/h (4 Bft)
17.03.2017 15:09 16,4 °C 16,4 °C 45 % 1013,2 hPa 0,0 mm 16,4 km/h (3 Bft) W-SW 257 ° 1 min 0,000 mm 2,3 UV-I 476 W/m² 4,4 °C 16,4 °C 27,4 km/h (4 Bft)
17.03.2017 15:10 16,4 °C 16,4 °C 44 % 1013,1 hPa 0,0 mm 16,4 km/h (3 Bft) W 260 ° 1 min 0,000 mm 2,1 UV-I 473 W/m² 4,1 °C 16,4 °C 24,1 km/h (4 Bft)
17.03.2017 15:11 16,4 °C 16,4 °C 44 % 1013,2 hPa 0,0 mm 13,0 km/h (3 Bft) W 263 ° 1 min 0,000 mm 1,4 UV-I 473 W/m² 4,1 °C 16,4 °C 19,3 km/h (3 Bft)
17.03.2017 15:12 16,3 °C 16,4 °C 44 % 1013,2 hPa 0,0 mm 10,8 km/h (2 Bft) W 267 ° 1 min 0,000 mm 2,2 UV-I 478 W/m² 4,0 °C 16,3 °C 16,1 km/h (3 Bft)
17.03.2017 15:13 16,4 °C 16,4 °C 44 % 1013,3 hPa 0,0 mm 18,7 km/h (3 Bft) W-NW 298 ° 1 min 0,000 mm 1,6 UV-I 478 W/m² 4,1 °C 16,4 °C 29,0 km/h (5 Bft)
17.03.2017 15:14 16,4 °C 16,4 °C 44 % 1013,2 hPa 0,0 mm 20,5 km/h (4 Bft) W 275 ° 1 min 0,000 mm 2,2 UV-I 459 W/m² 4,1 °C 16,4 °C 30,6 km/h (5 Bft)
17.03.2017 15:15 16,4 °C 16,4 °C 44 % 1013,2 hPa 0,0 mm 16,8 km/h (3 Bft) SW 215 ° 1 min 0,000 mm 2,2 UV-I 459 W/m² 4,1 °C 16,4 °C 25,7 km/h (4 Bft)
17.03.2017 15:16 16,4 °C 16,4 °C 44 % 1013,1 hPa 0,0 mm 15,0 km/h (3 Bft) W 279 ° 1 min 0,000 mm 2,0 UV-I 250 W/m² 4,1 °C 16,4 °C 24,1 km/h (4 Bft)
17.03.2017 15:17 16,6 °C 16,6 °C 43 % 1013,2 hPa 0,0 mm 21,3 km/h (4 Bft) W 279 ° 1 min 0,000 mm 2,0 UV-I 250 W/m² 4,0 °C 16,6 °C 30,6 km/h (5 Bft)
17.03.2017 15:18 16,6 °C 16,6 °C 44 % 1013,1 hPa 0,0 mm 19,6 km/h (3 Bft) W-SW 253 ° 1 min 0,000 mm 2,2 UV-I 454 W/m² 4,3 °C 16,6 °C 38,6 km/h (5 Bft)
17.03.2017 15:19 16,6 °C 16,6 °C 43 % 1013,1 hPa 0,0 mm 27,1 km/h (4 Bft) NW 308 ° 1 min 0,000 mm 2,1 UV-I 425 W/m² 4,0 °C 16,6 °C 38,6 km/h (5 Bft)
17.03.2017 15:20 16,6 °C 16,6 °C 43 % 1013,1 hPa 0,0 mm 20,2 km/h (4 Bft) NW 305 ° 1 min 0,000 mm 2,0 UV-I 425 W/m² 4,0 °C 16,6 °C 32,2 km/h (5 Bft)
17.03.2017 15:21 16,6 °C 16,6 °C 44 % 1013,1 hPa 0,0 mm 11,6 km/h (2 Bft) W-NW 290 ° 0 min 0,000 mm 1,4 UV-I 127 W/m² 4,3 °C 16,6 °C 22,5 km/h (4 Bft)
17.03.2017 15:22 16,6 °C 16,6 °C 44 % 1013,1 hPa 0,0 mm 14,3 km/h (3 Bft) W 266 ° 0 min 0,000 mm 1,5 UV-I 113 W/m² 4,3 °C 16,6 °C 20,9 km/h (4 Bft)
17.03.2017 15:23 16,5 °C 16,6 °C 44 % 1013,1 hPa 0,0 mm 14,3 km/h (3 Bft) W-SW 255 ° 0 min 0,000 mm 2,0 UV-I 113 W/m² 4,2 °C 16,5 °C 20,9 km/h (4 Bft)
17.03.2017 15:24 16,5 °C 16,5 °C 44 % 1013,1 hPa 0,0 mm 14,5 km/h (3 Bft) W 271 ° 0 min 0,000 mm 2,0 UV-I 113 W/m² 4,2 °C 16,5 °C 22,5 km/h (4 Bft)
17.03.2017 15:25 16,5 °C 16,5 °C 44 % 1013,0 hPa 0,0 mm 19,4 km/h (3 Bft) W-NW 287 ° 0 min 0,000 mm 2,0 UV-I 113 W/m² 4,2 °C 16,5 °C 30,6 km/h (5 Bft)
17.03.2017 15:26 16,5 °C 16,5 °C 43 % 1013,0 hPa 0,0 mm 19,6 km/h (3 Bft) SW 233 ° 1 min 0,000 mm 2,0 UV-I 410 W/m² 3,9 °C 16,5 °C 27,4 km/h (4 Bft)
17.03.2017 15:27 16,5 °C 16,5 °C 44 % 1012,9 hPa 0,0 mm 12,2 km/h (2 Bft) W-SW 257 ° 1 min 0,000 mm 2,0 UV-I 410 W/m² 4,2 °C 16,5 °C 20,9 km/h (4 Bft)
17.03.2017 15:28 16,4 °C 16,5 °C 44 % 1012,9 hPa 0,0 mm 22,1 km/h (4 Bft) W 277 ° 1 min 0,000 mm 1,5 UV-I 410 W/m² 4,1 °C 16,4 °C 29,0 km/h (5 Bft)
17.03.2017 15:29 16,4 °C 16,4 °C 44 % 1013,0 hPa 0,0 mm 22,4 km/h (4 Bft) NW 304 ° 1 min 0,000 mm 1,9 UV-I 410 W/m² 4,1 °C 16,4 °C 35,4 km/h (5 Bft)
17.03.2017 15:30 16,4 °C 16,4 °C 44 % 1013,0 hPa 0,0 mm 17,9 km/h (3 Bft) W 261 ° 1 min 0,000 mm 1,9 UV-I 410 W/m² 4,1 °C 16,4 °C 24,1 km/h (4 Bft)
17.03.2017 15:31 16,4 °C 16,4 °C 44 % 1013,0 hPa 0,0 mm 18,6 km/h (3 Bft) W 266 ° 1 min 0,000 mm 1,3 UV-I 411 W/m² 4,1 °C 16,4 °C 32,2 km/h (5 Bft)
17.03.2017 15:32 16,4 °C 16,4 °C 44 % 1012,9 hPa 0,0 mm 28,2 km/h (4 Bft) W-SW 258 ° 1 min 0,000 mm 1,3 UV-I 411 W/m² 4,1 °C 16,4 °C 41,8 km/h (6 Bft)
17.03.2017 15:33 16,3 °C 16,4 °C 43 % 1012,8 hPa 0,0 mm 27,9 km/h (4 Bft) NW 323 ° 1 min 0,000 mm 1,7 UV-I 411 W/m² 3,7 °C 16,3 °C 45,1 km/h (6 Bft)
17.03.2017 15:34 16,3 °C 16,3 °C 43 % 1012,9 hPa 0,0 mm 27,8 km/h (4 Bft) W-SW 253 ° 1 min 0,000 mm 1,9 UV-I 411 W/m² 3,7 °C 16,3 °C 38,6 km/h (5 Bft)
17.03.2017 15:35 16,3 °C 16,3 °C 44 % 1012,9 hPa 0,0 mm 26,8 km/h (4 Bft) W 260 ° 1 min 0,000 mm 1,9 UV-I 397 W/m² 4,0 °C 16,3 °C 37,0 km/h (5 Bft)
17.03.2017 15:36 16,3 °C 16,3 °C 44 % 1012,8 hPa 0,0 mm 20,7 km/h (4 Bft) W 259 ° 1 min 0,000 mm 1,9 UV-I 390 W/m² 4,0 °C 16,3 °C 30,6 km/h (5 Bft)
17.03.2017 15:37 16,3 °C 16,3 °C 44 % 1012,9 hPa 0,0 mm 23,4 km/h (4 Bft) W-NW 301 ° 1 min 0,000 mm 1,8 UV-I 387 W/m² 4,0 °C 16,3 °C 33,8 km/h (5 Bft)
17.03.2017 15:38 16,3 °C 16,3 °C 44 % 1012,8 hPa 0,0 mm 20,5 km/h (4 Bft) W-SW 250 ° 1 min 0,000 mm 1,7 UV-I 387 W/m² 4,0 °C 16,3 °C 27,4 km/h (4 Bft)
17.03.2017 15:39 16,3 °C 16,4 °C 44 % 1012,8 hPa 0,0 mm 17,8 km/h (3 Bft) W-SW 248 ° 1 min 0,000 mm 1,8 UV-I 387 W/m² 4,0 °C 16,3 °C 25,7 km/h (4 Bft)
17.03.2017 15:40 16,4 °C 16,4 °C 44 % 1012,8 hPa 0,0 mm 15,4 km/h (3 Bft) W-NW 286 ° 1 min 0,000 mm 1,8 UV-I 381 W/m² 4,1 °C 16,4 °C 22,5 km/h (4 Bft)
17.03.2017 15:41 16,4 °C 16,4 °C 44 % 1012,8 hPa 0,0 mm 18,7 km/h (3 Bft) W-SW 254 ° 1 min 0,000 mm 1,8 UV-I 380 W/m² 4,1 °C 16,4 °C 25,7 km/h (4 Bft)
17.03.2017 15:42 16,4 °C 16,4 °C 44 % 1012,7 hPa 0,0 mm 15,6 km/h (3 Bft) W 272 ° 1 min 0,000 mm 1,7 UV-I 364 W/m² 4,1 °C 16,4 °C 22,5 km/h (4 Bft)
17.03.2017 15:43 16,4 °C 16,4 °C 44 % 1012,7 hPa 0,0 mm 17,8 km/h (3 Bft) W-SW 242 ° 1 min 0,000 mm 1,2 UV-I 364 W/m² 4,1 °C 16,4 °C 33,8 km/h (5 Bft)
17.03.2017 15:44 16,4 °C 16,4 °C 44 % 1012,8 hPa 0,0 mm 28,8 km/h (4 Bft) W 263 ° 1 min 0,000 mm 1,5 UV-I 364 W/m² 4,1 °C 16,4 °C 38,6 km/h (5 Bft)
17.03.2017 15:45 16,4 °C 16,4 °C 43 % 1012,8 hPa 0,0 mm 24,0 km/h (4 Bft) W-SW 239 ° 1 min 0,000 mm 1,6 UV-I 294 W/m² 3,8 °C 16,4 °C 30,6 km/h (5 Bft)
17.03.2017 15:46 16,4 °C 16,4 °C 44 % 1012,8 hPa 0,0 mm 25,0 km/h (4 Bft) W-SW 255 ° 1 min 0,000 mm 1,6 UV-I 241 W/m² 4,1 °C 16,4 °C 37,0 km/h (5 Bft)
17.03.2017 15:47 16,3 °C 16,4 °C 44 % 1012,7 hPa 0,0 mm 26,2 km/h (4 Bft) W 268 ° 1 min 0,000 mm 1,5 UV-I 345 W/m² 4,0 °C 16,3 °C 35,4 km/h (5 Bft)
17.03.2017 15:48 16,3 °C 16,3 °C 44 % 1012,7 hPa 0,0 mm 23,2 km/h (4 Bft) W-SW 247 ° 1 min 0,000 mm 1,5 UV-I 318 W/m² 4,0 °C 16,3 °C 32,2 km/h (5 Bft)
17.03.2017 15:49 16,3 °C 16,3 °C 44 % 1012,7 hPa 0,0 mm 24,3 km/h (4 Bft) W 273 ° 1 min 0,000 mm 1,5 UV-I 227 W/m² 4,0 °C 16,3 °C 33,8 km/h (5 Bft)
17.03.2017 15:50 16,3 °C 16,3 °C 44 % 1012,7 hPa 0,0 mm 15,9 km/h (3 Bft) W-NW 290 ° 1 min 0,000 mm 1,5 UV-I 287 W/m² 4,0 °C 16,3 °C 25,7 km/h (4 Bft)
17.03.2017 15:51 16,3 °C 16,3 °C 45 % 1012,7 hPa 0,0 mm 21,3 km/h (4 Bft) W-SW 240 ° 1 min 0,000 mm 1,5 UV-I 315 W/m² 4,3 °C 16,3 °C 32,2 km/h (5 Bft)
17.03.2017 15:52 16,3 °C 16,3 °C 44 % 1012,8 hPa 0,0 mm 21,7 km/h (4 Bft) W-SW 242 ° 1 min 0,000 mm 1,4 UV-I 309 W/m² 4,0 °C 16,3 °C 32,2 km/h (5 Bft)
17.03.2017 15:53 16,3 °C 16,3 °C 44 % 1012,7 hPa 0,0 mm 16,6 km/h (3 Bft) W-NW 288 ° 0 min 0,000 mm 1,1 UV-I 60 W/m² 4,0 °C 16,3 °C 24,1 km/h (4 Bft)
17.03.2017 15:54 16,3 °C 16,3 °C 44 % 1012,9 hPa 0,0 mm 18,0 km/h (3 Bft) W-SW 255 ° 0 min 0,000 mm 1,3 UV-I 114 W/m² 4,0 °C 16,3 °C 24,1 km/h (4 Bft)
17.03.2017 15:55 16,2 °C 16,3 °C 44 % 1012,8 hPa 0,0 mm 23,5 km/h (4 Bft) NW 309 ° 0 min 0,000 mm 1,4 UV-I 114 W/m² 3,9 °C 16,2 °C 35,4 km/h (5 Bft)
17.03.2017 15:56 16,2 °C 16,2 °C 46 % 1012,7 hPa 0,0 mm 23,3 km/h (4 Bft) NW 306 ° 1 min 0,000 mm 1,4 UV-I 302 W/m² 4,6 °C 16,2 °C 33,8 km/h (5 Bft)
17.03.2017 15:57 16,2 °C 16,2 °C 45 % 1012,7 hPa 0,0 mm 17,4 km/h (3 Bft) W-NW 286 ° 1 min 0,000 mm 1,4 UV-I 294 W/m² 4,3 °C 16,2 °C 32,2 km/h (5 Bft)
17.03.2017 15:58 16,2 °C 16,2 °C 46 % 1012,8 hPa 0,0 mm 16,6 km/h (3 Bft) W-NW 282 ° 1 min 0,000 mm 1,3 UV-I 288 W/m² 4,6 °C 16,2 °C 22,5 km/h (4 Bft)
17.03.2017 15:59 16,2 °C 16,2 °C 46 % 1012,7 hPa 0,0 mm 15,7 km/h (3 Bft) W-SW 248 ° 1 min 0,000 mm 1,3 UV-I 246 W/m² 4,6 °C 16,2 °C 20,9 km/h (4 Bft)
17.03.2017 16:00 16,2 °C 16,2 °C 46 % 1012,7 hPa 0,0 mm 21,3 km/h (4 Bft) W-NW 291 ° 1 min 0,000 mm 1,4 UV-I 278 W/m² 4,6 °C 16,2 °C 30,6 km/h (5 Bft)
17.03.2017 16:01 16,2 °C 16,2 °C 46 % 1012,8 hPa 0,0 mm 21,2 km/h (4 Bft) W-NW 285 ° 1 min 0,305 mm 1,3 UV-I 264 W/m² 4,6 °C 16,2 °C 29,0 km/h (5 Bft)
17.03.2017 16:02 16,2 °C 16,2 °C 46 % 1012,8 hPa 0,0 mm 19,0 km/h (3 Bft) W 262 ° 1 min 0,000 mm 1,3 UV-I 267 W/m² 4,6 °C 16,2 °C 25,7 km/h (4 Bft)
17.03.2017 16:03 16,2 °C 16,2 °C 46 % 1012,8 hPa 0,0 mm 20,3 km/h (4 Bft) W-SW 256 ° 1 min 0,000 mm 1,3 UV-I 250 W/m² 4,6 °C 16,2 °C 27,4 km/h (4 Bft)
17.03.2017 16:04 16,2 °C 16,2 °C 46 % 1012,8 hPa 0,0 mm 14,4 km/h (3 Bft) W 275 ° 1 min 0,000 mm 1,3 UV-I 202 W/m² 4,6 °C 16,2 °C 19,3 km/h (3 Bft)
17.03.2017 16:05 16,2 °C 16,2 °C 46 % 1012,8 hPa 0,0 mm 18,3 km/h (3 Bft) W-SW 248 ° 1 min 0,000 mm 1,3 UV-I 257 W/m² 4,6 °C 16,2 °C 29,0 km/h (5 Bft)
17.03.2017 16:06 16,1 °C 16,2 °C 46 % 1012,8 hPa 0,0 mm 18,7 km/h (3 Bft) W-SW 252 ° 1 min 0,000 mm 1,3 UV-I 269 W/m² 4,5 °C 16,1 °C 27,4 km/h (4 Bft)
17.03.2017 16:07 16,1 °C 16,1 °C 47 % 1012,8 hPa 0,0 mm 15,6 km/h (3 Bft) W 259 ° 1 min 0,000 mm 1,2 UV-I 251 W/m² 4,8 °C 16,1 °C 19,3 km/h (3 Bft)
17.03.2017 16:08 16,1 °C 16,1 °C 47 % 1012,8 hPa 0,0 mm 17,0 km/h (3 Bft) W 280 ° 1 min 0,000 mm 1,2 UV-I 232 W/m² 4,8 °C 16,1 °C 32,2 km/h (5 Bft)
17.03.2017 16:09 16,1 °C 16,2 °C 47 % 1012,8 hPa 0,0 mm 13,8 km/h (3 Bft) W 271 ° 1 min 0,000 mm 1,2 UV-I 211 W/m² 4,8 °C 16,1 °C 25,7 km/h (4 Bft)
17.03.2017 16:10 16,1 °C 16,1 °C 47 % 1012,8 hPa 0,0 mm 19,6 km/h (3 Bft) W 279 ° 1 min 0,000 mm 1,2 UV-I 213 W/m² 4,8 °C 16,1 °C 32,2 km/h (5 Bft)
17.03.2017 16:11 16,1 °C 16,2 °C 47 % 1012,9 hPa 0,0 mm 16,7 km/h (3 Bft) W 281 ° 1 min 0,000 mm 1,2 UV-I 236 W/m² 4,8 °C 16,1 °C 32,2 km/h (5 Bft)
17.03.2017 16:12 16,1 °C 16,1 °C 47 % 1012,8 hPa 0,0 mm 16,7 km/h (3 Bft) NW 317 ° 1 min 0,000 mm 1,1 UV-I 236 W/m² 4,8 °C 16,1 °C 27,4 km/h (4 Bft)
17.03.2017 16:13 16,1 °C 16,1 °C 47 % 1013,0 hPa 0,0 mm 19,8 km/h (3 Bft) W 260 ° 0 min 0,000 mm 1,1 UV-I 199 W/m² 4,8 °C 16,1 °C 30,6 km/h (5 Bft)
17.03.2017 16:14 16,0 °C 16,1 °C 47 % 1013,0 hPa 0,0 mm 21,6 km/h (4 Bft) NW 314 ° 1 min 0,000 mm 1,1 UV-I 204 W/m² 4,7 °C 16,0 °C 35,4 km/h (5 Bft)
17.03.2017 16:15 16,0 °C 16,1 °C 47 % 1012,9 hPa 0,0 mm 15,4 km/h (3 Bft) W-NW 299 ° 0 min 0,000 mm 1,0 UV-I 190 W/m² 4,7 °C 16,0 °C 24,1 km/h (4 Bft)
17.03.2017 16:16 15,9 °C 16,0 °C 48 % 1012,9 hPa 0,0 mm 15,9 km/h (3 Bft) W-NW 294 ° 0 min 0,000 mm 1,1 UV-I 190 W/m² 4,9 °C 15,9 °C 19,3 km/h (3 Bft)
17.03.2017 16:17 15,9 °C 15,9 °C 48 % 1012,9 hPa 0,0 mm 15,8 km/h (3 Bft) W-NW 290 ° 0 min 0,000 mm 1,1 UV-I 176 W/m² 4,9 °C 15,9 °C 24,1 km/h (4 Bft)
17.03.2017 16:18 15,8 °C 15,9 °C 48 % 1012,9 hPa 0,0 mm 20,8 km/h (4 Bft) W-SW 248 ° 0 min 0,000 mm 1,0 UV-I 158 W/m² 4,8 °C 15,8 °C 30,6 km/h (5 Bft)
17.03.2017 16:19 15,8 °C 15,8 °C 47 % 1012,7 hPa 0,0 mm 18,7 km/h (3 Bft) NW 313 ° 0 min 0,000 mm 1,0 UV-I 153 W/m² 4,5 °C 15,8 °C 24,1 km/h (4 Bft)
17.03.2017 16:20 15,8 °C 15,8 °C 48 % 1012,8 hPa 0,0 mm 20,4 km/h (4 Bft) W-NW 295 ° 0 min 0,000 mm 1,0 UV-I 163 W/m² 4,8 °C 15,8 °C 27,4 km/h (4 Bft)
17.03.2017 16:21 15,8 °C 15,8 °C 48 % 1012,8 hPa 0,0 mm 20,3 km/h (4 Bft) W 269 ° 0 min 0,000 mm 1,0 UV-I 183 W/m² 4,8 °C 15,8 °C 32,2 km/h (5 Bft)
17.03.2017 16:22 15,8 °C 15,8 °C 48 % 1012,8 hPa 0,0 mm 19,8 km/h (3 Bft) NW 304 ° 1 min 0,000 mm 1,0 UV-I 216 W/m² 4,8 °C 15,8 °C 30,6 km/h (5 Bft)
17.03.2017 16:23 15,8 °C 15,8 °C 48 % 1012,9 hPa 0,0 mm 17,8 km/h (3 Bft) W 279 ° 1 min 0,000 mm 1,0 UV-I 214 W/m² 4,8 °C 15,8 °C 24,1 km/h (4 Bft)
17.03.2017 16:24 15,8 °C 15,8 °C 49 % 1012,9 hPa 0,0 mm 20,9 km/h (4 Bft) W-NW 288 ° 1 min 0,000 mm 1,0 UV-I 200 W/m² 5,1 °C 15,8 °C 30,6 km/h (5 Bft)
17.03.2017 16:25 15,7 °C 15,8 °C 49 % 1012,9 hPa 0,0 mm 14,4 km/h (3 Bft) W-NW 296 ° 1 min 0,000 mm 0,9 UV-I 202 W/m² 5,0 °C 15,7 °C 19,3 km/h (3 Bft)
17.03.2017 16:26 15,8 °C 15,8 °C 49 % 1013,0 hPa 0,0 mm 20,7 km/h (4 Bft) W 281 ° 0 min 0,000 mm 0,9 UV-I 155 W/m² 5,1 °C 15,8 °C 30,6 km/h (5 Bft)
17.03.2017 16:27 15,7 °C 15,8 °C 49 % 1012,9 hPa 0,0 mm 19,8 km/h (3 Bft) W 270 ° 0 min 0,000 mm 0,9 UV-I 69 W/m² 5,0 °C 15,7 °C 25,7 km/h (4 Bft)
17.03.2017 16:28 15,7 °C 15,7 °C 49 % 1012,9 hPa 0,0 mm 17,1 km/h (3 Bft) W-NW 290 ° 0 min 0,000 mm 0,9 UV-I 121 W/m² 5,0 °C 15,7 °C 22,5 km/h (4 Bft)
17.03.2017 16:29 15,7 °C 15,7 °C 49 % 1012,9 hPa 0,0 mm 13,0 km/h (3 Bft) W 267 ° 0 min 0,000 mm 0,9 UV-I 135 W/m² 5,0 °C 15,7 °C 20,9 km/h (4 Bft)
17.03.2017 16:30 15,7 °C 15,7 °C 49 % 1012,9 hPa 0,0 mm 13,9 km/h (3 Bft) W 279 ° 0 min 0,000 mm 0,9 UV-I 146 W/m² 5,0 °C 15,7 °C 24,1 km/h (4 Bft)
17.03.2017 16:31 15,7 °C 15,7 °C 50 % 1012,9 hPa 0,0 mm 14,0 km/h (3 Bft) W-NW 302 ° 0 min 0,000 mm 0,9 UV-I 181 W/m² 5,3 °C 15,7 °C 20,9 km/h (4 Bft)
17.03.2017 16:32 15,7 °C 15,7 °C 49 % 1012,8 hPa 0,0 mm 18,5 km/h (3 Bft) W 264 ° 0 min 0,000 mm 0,9 UV-I 186 W/m² 5,0 °C 15,7 °C 24,1 km/h (4 Bft)
17.03.2017 16:33 15,6 °C 15,7 °C 50 % 1012,9 hPa 0,0 mm 19,8 km/h (3 Bft) W-NW 287 ° 0 min 0,000 mm 0,8 UV-I 186 W/m² 5,2 °C 15,6 °C 32,2 km/h (5 Bft)
17.03.2017 16:34 15,6 °C 15,6 °C 49 % 1012,8 hPa 0,0 mm 17,2 km/h (3 Bft) W-SW 249 ° 0 min 0,000 mm 0,8 UV-I 88 W/m² 4,9 °C 15,6 °C 22,5 km/h (4 Bft)
17.03.2017 16:35 15,6 °C 15,6 °C 49 % 1012,8 hPa 0,0 mm 18,8 km/h (3 Bft) W 272 ° 0 min 0,000 mm 0,8 UV-I 81 W/m² 4,9 °C 15,6 °C 29,0 km/h (5 Bft)
17.03.2017 16:36 15,5 °C 15,6 °C 50 % 1012,7 hPa 0,0 mm 18,5 km/h (3 Bft) W-SW 248 ° 0 min 0,000 mm 0,8 UV-I 90 W/m² 5,1 °C 15,5 °C 27,4 km/h (4 Bft)
17.03.2017 16:37 15,5 °C 15,5 °C 50 % 1012,7 hPa 0,0 mm 21,1 km/h (4 Bft) NW 308 ° 0 min 0,000 mm 0,8 UV-I 132 W/m² 5,1 °C 15,5 °C 27,4 km/h (4 Bft)
17.03.2017 16:38 15,4 °C 15,5 °C 50 % 1012,8 hPa 0,0 mm 20,9 km/h (4 Bft) W 276 ° 0 min 0,000 mm 0,8 UV-I 141 W/m² 5,0 °C 15,4 °C 27,4 km/h (4 Bft)
17.03.2017 16:39 15,4 °C 15,4 °C 50 % 1012,6 hPa 0,0 mm 22,0 km/h (4 Bft) W-NW 302 ° 0 min 0,000 mm 0,8 UV-I 130 W/m² 5,0 °C 15,4 °C 32,2 km/h (5 Bft)
17.03.2017 16:40 15,4 °C 15,4 °C 50 % 1012,7 hPa 0,0 mm 15,6 km/h (3 Bft) W-SW 250 ° 0 min 0,000 mm 0,8 UV-I 111 W/m² 5,0 °C 15,4 °C 25,7 km/h (4 Bft)
17.03.2017 16:41 15,4 °C 15,4 °C 49 % 1012,8 hPa 0,0 mm 20,9 km/h (4 Bft) W-NW 300 ° 0 min 0,000 mm 0,8 UV-I 86 W/m² 4,7 °C 15,4 °C 27,4 km/h (4 Bft)
17.03.2017 16:42 15,4 °C 15,4 °C 50 % 1012,8 hPa 0,0 mm 16,4 km/h (3 Bft) W 275 ° 0 min 0,000 mm 0,7 UV-I 88 W/m² 5,0 °C 15,4 °C 24,1 km/h (4 Bft)
17.03.2017 16:43 15,4 °C 15,4 °C 51 % 1012,7 hPa 0,0 mm 19,6 km/h (3 Bft) W 262 ° 0 min 0,000 mm 0,7 UV-I 88 W/m² 5,3 °C 15,4 °C 24,1 km/h (4 Bft)
17.03.2017 16:44 15,4 °C 15,4 °C 50 % 1012,7 hPa 0,0 mm 19,4 km/h (3 Bft) W-SW 240 ° 0 min 0,000 mm 0,7 UV-I 79 W/m² 5,0 °C 15,4 °C 29,0 km/h (5 Bft)
17.03.2017 16:45 15,4 °C 15,4 °C 51 % 1012,8 hPa 0,0 mm 18,7 km/h (3 Bft) W-SW 255 ° 0 min 0,000 mm 0,7 UV-I 90 W/m² 5,3 °C 15,4 °C 27,4 km/h (4 Bft)
17.03.2017 16:46 15,4 °C 15,4 °C 50 % 1012,8 hPa 0,0 mm 26,7 km/h (4 Bft) W-SW 243 ° 0 min 0,000 mm 0,7 UV-I 93 W/m² 5,0 °C 15,4 °C 37,0 km/h (5 Bft)
17.03.2017 16:47 15,3 °C 15,4 °C 50 % 1012,7 hPa 0,0 mm 21,3 km/h (4 Bft) W-SW 256 ° 0 min 0,000 mm 0,7 UV-I 107 W/m² 4,9 °C 15,3 °C 27,4 km/h (4 Bft)
17.03.2017 16:48 15,3 °C 15,4 °C 50 % 1012,7 hPa 0,0 mm 23,7 km/h (4 Bft) W-SW 240 ° 0 min 0,000 mm 0,7 UV-I 128 W/m² 4,9 °C 15,3 °C 30,6 km/h (5 Bft)
17.03.2017 16:49 15,3 °C 15,3 °C 50 % 1012,7 hPa 0,0 mm 22,6 km/h (4 Bft) W 263 ° 0 min 0,000 mm 0,7 UV-I 123 W/m² 4,9 °C 15,3 °C 38,6 km/h (5 Bft)
17.03.2017 16:50 15,3 °C 15,3 °C 50 % 1012,7 hPa 0,0 mm 19,5 km/h (3 Bft) N-NW 335 ° 0 min 0,000 mm 0,7 UV-I 105 W/m² 4,9 °C 15,3 °C 25,7 km/h (4 Bft)
17.03.2017 16:51 15,3 °C 15,3 °C 50 % 1012,6 hPa 0,0 mm 16,5 km/h (3 Bft) W-NW 284 ° 0 min 0,000 mm 0,7 UV-I 100 W/m² 4,9 °C 15,3 °C 25,7 km/h (4 Bft)
17.03.2017 16:52 15,2 °C 15,3 °C 51 % 1012,7 hPa 0,0 mm 16,0 km/h (3 Bft) W 274 ° 0 min 0,000 mm 0,7 UV-I 97 W/m² 5,1 °C 15,2 °C 22,5 km/h (4 Bft)
17.03.2017 16:53 15,2 °C 15,3 °C 51 % 1012,6 hPa 0,0 mm 16,0 km/h (3 Bft) SW 221 ° 0 min 0,000 mm 0,6 UV-I 60 W/m² 5,1 °C 15,2 °C 22,5 km/h (4 Bft)
17.03.2017 16:54 15,2 °C 15,2 °C 51 % 1012,6 hPa 0,0 mm 20,5 km/h (4 Bft) W-NW 284 ° 0 min 0,000 mm 0,6 UV-I 95 W/m² 5,1 °C 15,2 °C 30,6 km/h (5 Bft)
17.03.2017 16:55 15,2 °C 15,2 °C 52 % 1012,5 hPa 0,0 mm 14,4 km/h (3 Bft) W-SW 254 ° 0 min 0,000 mm 0,6 UV-I 118 W/m² 5,4 °C 15,2 °C 22,5 km/h (4 Bft)
17.03.2017 16:56 15,1 °C 15,2 °C 52 % 1012,6 hPa 0,0 mm 12,7 km/h (3 Bft) W-NW 292 ° 0 min 0,000 mm 0,6 UV-I 111 W/m² 5,3 °C 15,1 °C 16,1 km/h (3 Bft)
17.03.2017 16:57 15,1 °C 15,1 °C 52 % 1012,6 hPa 0,0 mm 10,1 km/h (2 Bft) W-SW 253 ° 0 min 0,000 mm 0,6 UV-I 98 W/m² 5,3 °C 15,1 °C 19,3 km/h (3 Bft)
17.03.2017 16:58 15,1 °C 15,1 °C 52 % 1012,6 hPa 0,0 mm 15,3 km/h (3 Bft) W 267 ° 0 min 0,000 mm 0,6 UV-I 91 W/m² 5,3 °C 15,1 °C 19,3 km/h (3 Bft)
17.03.2017 16:59 15,1 °C 15,1 °C 52 % 1012,6 hPa 0,0 mm 10,3 km/h (2 Bft) W 275 ° 0 min 0,000 mm 0,6 UV-I 93 W/m² 5,3 °C 15,1 °C 17,7 km/h (3 Bft)
17.03.2017 17:00 15,1 °C 15,1 °C 53 % 1012,6 hPa 0,0 mm 9,6 km/h (2 Bft) W 279 ° 0 min 0,000 mm 0,6 UV-I 97 W/m² 5,6 °C 15,1 °C 14,5 km/h (3 Bft)
17.03.2017 17:01 15,1 °C 15,1 °C 53 % 1012,6 hPa 0,0 mm 9,4 km/h (2 Bft) W 274 ° 0 min 0,203 mm 0,6 UV-I 105 W/m² 5,6 °C 15,1 °C 14,5 km/h (3 Bft)
17.03.2017 17:02 15,1 °C 15,1 °C 53 % 1012,5 hPa 0,0 mm 15,8 km/h (3 Bft) W-NW 296 ° 0 min 0,000 mm 0,6 UV-I 105 W/m² 5,6 °C 15,1 °C 20,9 km/h (4 Bft)
17.03.2017 17:03 15,1 °C 15,1 °C 52 % 1012,5 hPa 0,0 mm 21,0 km/h (4 Bft) W 266 ° 0 min 0,000 mm 0,6 UV-I 111 W/m² 5,3 °C 15,1 °C 29,0 km/h (5 Bft)
17.03.2017 17:04 15,1 °C 15,1 °C 52 % 1012,5 hPa 0,0 mm 15,1 km/h (3 Bft) W 267 ° 0 min 0,000 mm 0,6 UV-I 105 W/m² 5,3 °C 15,1 °C 20,9 km/h (4 Bft)
17.03.2017 17:05 15,1 °C 15,1 °C 52 % 1012,5 hPa 0,0 mm 15,9 km/h (3 Bft) W 263 ° 0 min 0,000 mm 0,5 UV-I 98 W/m² 5,3 °C 15,1 °C 22,5 km/h (4 Bft)
17.03.2017 17:06 15,1 °C 15,1 °C 52 % 1012,6 hPa 0,0 mm 11,5 km/h (2 Bft) W 260 ° 0 min 0,000 mm 0,5 UV-I 104 W/m² 5,3 °C 15,1 °C 22,5 km/h (4 Bft)
17.03.2017 17:07 15,1 °C 15,1 °C 53 % 1012,6 hPa 0,0 mm 17,5 km/h (3 Bft) W 275 ° 0 min 0,000 mm 0,5 UV-I 109 W/m² 5,6 °C 15,1 °C 25,7 km/h (4 Bft)
17.03.2017 17:08 15,1 °C 15,1 °C 53 % 1012,6 hPa 0,0 mm 11,7 km/h (2 Bft) W 281 ° 0 min 0,000 mm 0,5 UV-I 102 W/m² 5,6 °C 15,1 °C 19,3 km/h (3 Bft)
17.03.2017 17:09 15,1 °C 15,1 °C 53 % 1012,7 hPa 0,0 mm 19,9 km/h (4 Bft) W-NW 288 ° 0 min 0,000 mm 0,5 UV-I 109 W/m² 5,6 °C 15,1 °C 24,1 km/h (4 Bft)
17.03.2017 17:10 15,1 °C 15,1 °C 53 % 1012,6 hPa 0,0 mm 17,5 km/h (3 Bft) W 261 ° 0 min 0,000 mm 0,5 UV-I 107 W/m² 5,6 °C 15,1 °C 25,7 km/h (4 Bft)
17.03.2017 17:11 15,1 °C 15,1 °C 53 % 1012,6 hPa 0,0 mm 14,2 km/h (3 Bft) W-SW 240 ° 0 min 0,000 mm 0,5 UV-I 105 W/m² 5,6 °C 15,1 °C 22,5 km/h (4 Bft)
17.03.2017 17:12 15,1 °C 15,1 °C 53 % 1012,6 hPa 0,0 mm 10,7 km/h (2 Bft) W 259 ° 0 min 0,000 mm 0,5 UV-I 102 W/m² 5,6 °C 15,1 °C 14,5 km/h (3 Bft)
17.03.2017 17:13 15,1 °C 15,1 °C 53 % 1012,6 hPa 0,0 mm 10,8 km/h (2 Bft) W 273 ° 0 min 0,000 mm 0,5 UV-I 102 W/m² 5,6 °C 15,1 °C 17,7 km/h (3 Bft)
17.03.2017 17:14 15,1 °C 15,1 °C 53 % 1012,6 hPa 0,0 mm 13,4 km/h (3 Bft) W 275 ° 0 min 0,000 mm 0,5 UV-I 100 W/m² 5,6 °C 15,1 °C 17,7 km/h (3 Bft)
17.03.2017 17:15 15,1 °C 15,1 °C 53 % 1012,6 hPa 0,0 mm 13,4 km/h (3 Bft) W 272 ° 0 min 0,000 mm 0,5 UV-I 91 W/m² 5,6 °C 15,1 °C 19,3 km/h (3 Bft)
17.03.2017 17:16 15,1 °C 15,1 °C 53 % 1012,6 hPa 0,0 mm 8,7 km/h (2 Bft) SW 226 ° 0 min 0,000 mm 0,5 UV-I 88 W/m² 5,6 °C 15,1 °C 16,1 km/h (3 Bft)
17.03.2017 17:17 15,1 °C 15,1 °C 52 % 1012,6 hPa 0,0 mm 13,0 km/h (3 Bft) W 267 ° 0 min 0,000 mm 0,5 UV-I 84 W/m² 5,3 °C 15,1 °C 20,9 km/h (4 Bft)
17.03.2017 17:18 15,1 °C 15,1 °C 53 % 1012,6 hPa 0,0 mm 17,2 km/h (3 Bft) W 261 ° 0 min 0,000 mm 0,0 UV-I 81 W/m² 5,6 °C 15,1 °C 24,1 km/h (4 Bft)
17.03.2017 17:19 15,1 °C 15,1 °C 53 % 1012,6 hPa 0,0 mm 17,9 km/h (3 Bft) W-SW 257 ° 0 min 0,000 mm 0,0 UV-I 79 W/m² 5,6 °C 15,1 °C 27,4 km/h (4 Bft)
17.03.2017 17:20 15,0 °C 15,1 °C 53 % 1012,6 hPa 0,0 mm 18,2 km/h (3 Bft) W 260 ° 0 min 0,000 mm 0,0 UV-I 77 W/m² 5,5 °C 15,0 °C 25,7 km/h (4 Bft)
17.03.2017 17:21 14,9 °C 15,0 °C 53 % 1012,6 hPa 0,0 mm 15,4 km/h (3 Bft) W 261 ° 0 min 0,000 mm 0,0 UV-I 74 W/m² 5,4 °C 14,9 °C 20,9 km/h (4 Bft)
17.03.2017 17:22 14,9 °C 14,9 °C 53 % 1012,6 hPa 0,0 mm 10,2 km/h (2 Bft) W-SW 250 ° 0 min 0,000 mm 0,0 UV-I 72 W/m² 5,4 °C 14,9 °C 16,1 km/h (3 Bft)
17.03.2017 17:23 14,9 °C 14,9 °C 53 % 1012,7 hPa 0,0 mm 20,7 km/h (4 Bft) W-NW 303 ° 0 min 0,000 mm 0,0 UV-I 70 W/m² 5,4 °C 14,9 °C 29,0 km/h (5 Bft)
17.03.2017 17:24 14,9 °C 14,9 °C 53 % 1012,6 hPa 0,0 mm 20,6 km/h (4 Bft) NW 306 ° 0 min 0,000 mm 0,0 UV-I 69 W/m² 5,4 °C 14,9 °C 29,0 km/h (5 Bft)
17.03.2017 17:25 14,9 °C 14,9 °C 53 % 1012,7 hPa 0,0 mm 14,3 km/h (3 Bft) W-NW 282 ° 0 min 0,000 mm 0,0 UV-I 69 W/m² 5,4 °C 14,9 °C 19,3 km/h (3 Bft)
17.03.2017 17:26 14,9 °C 14,9 °C 53 % 1012,7 hPa 0,0 mm 12,7 km/h (3 Bft) W-SW 254 ° 0 min 0,000 mm 0,0 UV-I 67 W/m² 5,4 °C 14,9 °C 19,3 km/h (3 Bft)
17.03.2017 17:27 14,9 °C 14,9 °C 53 % 1012,7 hPa 0,0 mm 14,6 km/h (3 Bft) W 265 ° 0 min 0,000 mm 0,0 UV-I 65 W/m² 5,4 °C 14,9 °C 19,3 km/h (3 Bft)
17.03.2017 17:28 14,8 °C 14,9 °C 53 % 1012,7 hPa 0,0 mm 11,0 km/h (2 Bft) W-SW 248 ° 0 min 0,000 mm 0,0 UV-I 62 W/m² 5,3 °C 14,8 °C 16,1 km/h (3 Bft)
17.03.2017 17:29 14,8 °C 14,8 °C 53 % 1012,7 hPa 0,0 mm 9,7 km/h (2 Bft) W 275 ° 0 min 0,000 mm 0,0 UV-I 60 W/m² 5,3 °C 14,8 °C 14,5 km/h (3 Bft)
17.03.2017 17:30 14,8 °C 14,8 °C 54 % 1012,7 hPa 0,0 mm 9,3 km/h (2 Bft) W 260 ° 0 min 0,000 mm 0,0 UV-I 58 W/m² 5,6 °C 14,8 °C 19,3 km/h (3 Bft)
17.03.2017 17:31 14,8 °C 14,8 °C 54 % 1012,6 hPa 0,0 mm 12,2 km/h (2 Bft) W 263 ° 0 min 0,000 mm 0,0 UV-I 56 W/m² 5,6 °C 14,8 °C 20,9 km/h (4 Bft)
17.03.2017 17:32 14,7 °C 14,8 °C 54 % 1012,7 hPa 0,0 mm 15,0 km/h (3 Bft) W-SW 252 ° 0 min 0,000 mm 0,0 UV-I 54 W/m² 5,5 °C 14,7 °C 20,9 km/h (4 Bft)
17.03.2017 17:33 14,7 °C 14,7 °C 54 % 1012,7 hPa 0,0 mm 17,0 km/h (3 Bft) W-SW 250 ° 0 min 0,000 mm 0,0 UV-I 53 W/m² 5,5 °C 14,7 °C 22,5 km/h (4 Bft)
17.03.2017 17:34 14,6 °C 14,7 °C 54 % 1012,7 hPa 0,0 mm 21,6 km/h (4 Bft) W-SW 258 ° 0 min 0,000 mm 0,0 UV-I 53 W/m² 5,4 °C 14,6 °C 27,4 km/h (4 Bft)
17.03.2017 17:35 14,6 °C 14,6 °C 54 % 1012,7 hPa 0,0 mm 12,8 km/h (3 Bft) W 275 ° 0 min 0,000 mm 0,0 UV-I 49 W/m² 5,4 °C 14,6 °C 17,7 km/h (3 Bft)
17.03.2017 17:36 14,6 °C 14,6 °C 54 % 1012,7 hPa 0,0 mm 18,4 km/h (3 Bft) W-SW 252 ° 0 min 0,000 mm 0,0 UV-I 47 W/m² 5,4 °C 14,6 °C 27,4 km/h (4 Bft)
17.03.2017 17:37 14,6 °C 14,6 °C 54 % 1012,7 hPa 0,0 mm 18,4 km/h (3 Bft) W-SW 257 ° 0 min 0,000 mm 0,0 UV-I 46 W/m² 5,4 °C 14,6 °C 22,5 km/h (4 Bft)
17.03.2017 17:38 14,6 °C 14,6 °C 55 % 1012,6 hPa 0,0 mm 15,0 km/h (3 Bft) W-SW 258 ° 0 min 0,000 mm 0,0 UV-I 44 W/m² 5,7 °C 14,6 °C 19,3 km/h (3 Bft)
17.03.2017 17:39 14,4 °C 14,6 °C 55 % 1012,6 hPa 0,0 mm 16,1 km/h (3 Bft) W-SW 250 ° 0 min 0,000 mm 0,0 UV-I 42 W/m² 5,5 °C 14,4 °C 20,9 km/h (4 Bft)
17.03.2017 17:40 14,4 °C 14,4 °C 55 % 1012,6 hPa 0,0 mm 14,8 km/h (3 Bft) W-SW 258 ° 0 min 0,000 mm 0,0 UV-I 42 W/m² 5,5 °C 14,4 °C 20,9 km/h (4 Bft)
17.03.2017 17:41 14,4 °C 14,4 °C 54 % 1012,7 hPa 0,0 mm 14,2 km/h (3 Bft) W 281 ° 0 min 0,000 mm 0,0 UV-I 39 W/m² 5,2 °C 14,4 °C 19,3 km/h (3 Bft)
17.03.2017 17:42 14,4 °C 14,4 °C 54 % 1012,6 hPa 0,0 mm 17,2 km/h (3 Bft) W-SW 255 ° 0 min 0,000 mm 0,0 UV-I 37 W/m² 5,2 °C 14,4 °C 27,4 km/h (4 Bft)
17.03.2017 17:43 14,4 °C 14,4 °C 55 % 1012,7 hPa 0,0 mm 15,2 km/h (3 Bft) W 271 ° 0 min 0,000 mm 0,0 UV-I 35 W/m² 5,5 °C 14,4 °C 22,5 km/h (4 Bft)
17.03.2017 17:44 14,3 °C 14,4 °C 55 % 1012,7 hPa 0,0 mm 14,6 km/h (3 Bft) W-SW 254 ° 0 min 0,000 mm 0,0 UV-I 32 W/m² 5,4 °C 14,3 °C 20,9 km/h (4 Bft)
17.03.2017 17:45 14,3 °C 14,3 °C 55 % 1012,7 hPa 0,0 mm 21,0 km/h (4 Bft) W 269 ° 0 min 0,000 mm 0,0 UV-I 26 W/m² 5,4 °C 14,3 °C 27,4 km/h (4 Bft)
17.03.2017 17:46 14,2 °C 14,3 °C 55 % 1012,7 hPa 0,0 mm 13,7 km/h (3 Bft) W 260 ° 0 min 0,000 mm 0,0 UV-I 25 W/m² 5,3 °C 14,2 °C 24,1 km/h (4 Bft)
17.03.2017 17:47 14,1 °C 14,2 °C 56 % 1012,7 hPa 0,0 mm 13,7 km/h (3 Bft) W-SW 254 ° 0 min 0,000 mm 0,0 UV-I 23 W/m² 5,5 °C 14,1 °C 19,3 km/h (3 Bft)
17.03.2017 17:48 14,1 °C 14,1 °C 56 % 1012,8 hPa 0,0 mm 13,9 km/h (3 Bft) W 261 ° 0 min 0,000 mm 0,0 UV-I 21 W/m² 5,5 °C 14,1 °C 19,3 km/h (3 Bft)
17.03.2017 17:49 14,0 °C 14,1 °C 56 % 1012,7 hPa 0,0 mm 15,3 km/h (3 Bft) W-NW 288 ° 0 min 0,000 mm 0,0 UV-I 19 W/m² 5,4 °C 14,0 °C 19,3 km/h (3 Bft)
17.03.2017 17:50 14,0 °C 14,0 °C 56 % 1012,8 hPa 0,0 mm 13,5 km/h (3 Bft) SW 232 ° 0 min 0,000 mm 0,0 UV-I 19 W/m² 5,4 °C 14,0 °C 19,3 km/h (3 Bft)
17.03.2017 17:51 13,9 °C 14,0 °C 56 % 1012,8 hPa 0,0 mm 15,5 km/h (3 Bft) W 259 ° 0 min 0,000 mm 0,0 UV-I 18 W/m² 5,3 °C 13,9 °C 25,7 km/h (4 Bft)
17.03.2017 17:52 13,9 °C 13,9 °C 56 % 1012,8 hPa 0,0 mm 10,3 km/h (2 Bft) W-NW 284 ° 0 min 0,000 mm 0,0 UV-I 18 W/m² 5,3 °C 13,9 °C 20,9 km/h (4 Bft)
17.03.2017 17:53 13,9 °C 13,9 °C 56 % 1012,8 hPa 0,0 mm 14,7 km/h (3 Bft) W-NW 303 ° 0 min 0,000 mm 0,0 UV-I 18 W/m² 5,3 °C 13,9 °C 17,7 km/h (3 Bft)
17.03.2017 17:54 13,9 °C 13,9 °C 56 % 1012,8 hPa 0,0 mm 17,9 km/h (3 Bft) W-NW 288 ° 0 min 0,000 mm 0,0 UV-I 18 W/m² 5,3 °C 13,9 °C 24,1 km/h (4 Bft)
17.03.2017 17:55 13,9 °C 13,9 °C 56 % 1012,8 hPa 0,0 mm 11,7 km/h (2 Bft) W-NW 288 ° 0 min 0,000 mm 0,0 UV-I 16 W/m² 5,3 °C 13,9 °C 19,3 km/h (3 Bft)
17.03.2017 17:56 13,8 °C 13,9 °C 56 % 1012,8 hPa 0,0 mm 9,5 km/h (2 Bft) W-NW 290 ° 0 min 0,000 mm 0,0 UV-I 14 W/m² 5,2 °C 13,8 °C 16,1 km/h (3 Bft)
17.03.2017 17:57 13,8 °C 13,8 °C 56 % 1012,8 hPa 0,0 mm 10,9 km/h (2 Bft) W-NW 286 ° 0 min 0,000 mm 0,0 UV-I 14 W/m² 5,2 °C 13,8 °C 16,1 km/h (3 Bft)
17.03.2017 17:58 13,8 °C 13,8 °C 56 % 1012,8 hPa 0,0 mm 12,8 km/h (3 Bft) W-NW 302 ° 0 min 0,000 mm 0,0 UV-I 14 W/m² 5,2 °C 13,8 °C 17,7 km/h (3 Bft)
17.03.2017 17:59 13,7 °C 13,8 °C 56 % 1012,9 hPa 0,0 mm 10,6 km/h (2 Bft) W-NW 285 ° 0 min 0,000 mm 0,0 UV-I 14 W/m² 5,1 °C 13,7 °C 16,1 km/h (3 Bft)
17.03.2017 18:00 13,7 °C 13,7 °C 57 % 1012,9 hPa 0,0 mm 8,8 km/h (2 Bft) SW 229 ° 0 min 0,000 mm 0,0 UV-I 14 W/m² 5,3 °C 13,7 °C 14,5 km/h (3 Bft)
17.03.2017 18:01 13,7 °C 13,7 °C 57 % 1012,9 hPa 0,0 mm 11,2 km/h (2 Bft) W 259 ° 0 min 0,127 mm 0,0 UV-I 12 W/m² 5,3 °C 13,7 °C 19,3 km/h (3 Bft)
17.03.2017 18:02 13,7 °C 13,7 °C 57 % 1012,9 hPa 0,0 mm 9,3 km/h (2 Bft) W 273 ° 0 min 0,000 mm 0,0 UV-I 11 W/m² 5,3 °C 13,7 °C 14,5 km/h (3 Bft)
17.03.2017 18:03 13,6 °C 13,7 °C 57 % 1012,9 hPa 0,0 mm 13,0 km/h (3 Bft) W-SW 242 ° 0 min 0,000 mm 0,0 UV-I 11 W/m² 5,2 °C 13,6 °C 19,3 km/h (3 Bft)
17.03.2017 18:04 13,6 °C 13,7 °C 57 % 1012,9 hPa 0,0 mm 15,9 km/h (3 Bft) W 276 ° 0 min 0,000 mm 0,0 UV-I 11 W/m² 5,2 °C 13,6 °C 25,7 km/h (4 Bft)
17.03.2017 18:05 13,6 °C 13,7 °C 57 % 1012,9 hPa 0,0 mm 10,8 km/h (2 Bft) W-NW 298 ° 0 min 0,000 mm 0,0 UV-I 9 W/m² 5,2 °C 13,6 °C 16,1 km/h (3 Bft)
17.03.2017 18:06 13,6 °C 13,6 °C 57 % 1012,9 hPa 0,0 mm 8,7 km/h (2 Bft) W-SW 248 ° 0 min 0,000 mm 0,0 UV-I 9 W/m² 5,2 °C 13,6 °C 14,5 km/h (3 Bft)
17.03.2017 18:07 13,6 °C 13,6 °C 57 % 1012,9 hPa 0,0 mm 12,9 km/h (3 Bft) W-NW 284 ° 0 min 0,000 mm 0,0 UV-I 9 W/m² 5,2 °C 13,6 °C 19,3 km/h (3 Bft)
17.03.2017 18:08 13,6 °C 13,6 °C 57 % 1012,9 hPa 0,0 mm 12,3 km/h (3 Bft) W 269 ° 0 min 0,000 mm 0,0 UV-I 7 W/m² 5,2 °C 13,6 °C 19,3 km/h (3 Bft)
17.03.2017 18:09 13,6 °C 13,6 °C 58 % 1012,9 hPa 0,0 mm 6,6 km/h (2 Bft) W-SW 246 ° 0 min 0,000 mm 0,0 UV-I 7 W/m² 5,5 °C 13,6 °C 11,3 km/h (2 Bft)
17.03.2017 18:10 13,5 °C 13,6 °C 58 % 1012,9 hPa 0,0 mm 10,6 km/h (2 Bft) W-SW 244 ° 0 min 0,000 mm 0,0 UV-I 7 W/m² 5,4 °C 13,5 °C 20,9 km/h (4 Bft)
17.03.2017 18:11 13,5 °C 13,6 °C 58 % 1012,9 hPa 0,0 mm 11,3 km/h (2 Bft) W 277 ° 0 min 0,000 mm 0,0 UV-I 5 W/m² 5,4 °C 13,5 °C 16,1 km/h (3 Bft)
17.03.2017 18:12 13,6 °C 13,6 °C 58 % 1012,9 hPa 0,0 mm 14,8 km/h (3 Bft) W 263 ° 0 min 0,000 mm 0,0 UV-I 5 W/m² 5,5 °C 13,6 °C 27,4 km/h (4 Bft)
17.03.2017 18:13 13,6 °C 13,6 °C 58 % 1012,9 hPa 0,0 mm 17,6 km/h (3 Bft) W 259 ° 0 min 0,000 mm 0,0 UV-I 5 W/m² 5,5 °C 13,6 °C 27,4 km/h (4 Bft)
17.03.2017 18:14 13,6 °C 13,6 °C 57 % 1012,9 hPa 0,0 mm 16,2 km/h (3 Bft) W 274 ° 0 min 0,000 mm 0,0 UV-I 5 W/m² 5,2 °C 13,6 °C 20,9 km/h (4 Bft)
17.03.2017 18:15 13,6 °C 13,6 °C 58 % 1012,9 hPa 0,0 mm 12,8 km/h (3 Bft) W 261 ° 0 min 0,000 mm 0,0 UV-I 5 W/m² 5,5 °C 13,6 °C 17,7 km/h (3 Bft)
17.03.2017 18:16 13,6 °C 13,6 °C 57 % 1012,9 hPa 0,0 mm 11,3 km/h (2 Bft) W-SW 248 ° 0 min 0,000 mm 0,0 UV-I 5 W/m² 5,2 °C 13,6 °C 19,3 km/h (3 Bft)
17.03.2017 18:17 13,6 °C 13,6 °C 58 % 1013,0 hPa 0,0 mm 15,4 km/h (3 Bft) SW 236 ° 0 min 0,000 mm 0,0 UV-I 0 W/m² 5,5 °C 13,6 °C 20,9 km/h (4 Bft)
17.03.2017 18:18 13,6 °C 13,6 °C 57 % 1012,9 hPa 0,0 mm 13,0 km/h (3 Bft) W-NW 286 ° 0 min 0,000 mm 0,0 UV-I 0 W/m² 5,2 °C 13,6 °C 22,5 km/h (4 Bft)
17.03.2017 18:19 13,6 °C 13,6 °C 58 % 1012,9 hPa 0,0 mm 9,2 km/h (2 Bft) W 263 ° 0 min 0,000 mm 0,0 UV-I 0 W/m² 5,5 °C 13,6 °C 11,3 km/h (2 Bft)
17.03.2017 18:20 13,6 °C 13,6 °C 57 % 1012,9 hPa 0,0 mm 9,4 km/h (2 Bft) W-SW 252 ° 0 min 0,000 mm 0,0 UV-I 0 W/m² 5,2 °C 13,6 °C 19,3 km/h (3 Bft)
17.03.2017 18:21 13,6 °C 13,6 °C 57 % 1012,9 hPa 0,0 mm 16,8 km/h (3 Bft) W-NW 300 ° 0 min 0,000 mm 0,0 UV-I 0 W/m² 5,2 °C 13,6 °C 22,5 km/h (4 Bft)
17.03.2017 18:22 13,6 °C 13,6 °C 58 % 1012,9 hPa 0,0 mm 10,6 km/h (2 Bft) W 276 ° 0 min 0,000 mm 0,0 UV-I 0 W/m² 5,5 °C 13,6 °C 16,1 km/h (3 Bft)
17.03.2017 18:23 13,5 °C 13,6 °C 58 % 1012,9 hPa 0,0 mm 12,7 km/h (3 Bft) W 261 ° 0 min 0,000 mm 0,0 UV-I 0 W/m² 5,4 °C 13,5 °C 17,7 km/h (3 Bft)
17.03.2017 18:24 13,5 °C 13,5 °C 58 % 1012,9 hPa 0,0 mm 9,9 km/h (2 Bft) W 275 ° 0 min 0,000 mm 0,0 UV-I 0 W/m² 5,4 °C 13,5 °C 14,5 km/h (3 Bft)
17.03.2017 18:25 13,4 °C 13,5 °C 58 % 1012,9 hPa 0,0 mm 8,7 km/h (2 Bft) W-NW 293 ° 0 min 0,000 mm 0,0 UV-I 0 W/m² 5,3 °C 13,4 °C 16,1 km/h (3 Bft)
17.03.2017 18:26 13,4 °C 13,4 °C 59 % 1013,0 hPa 0,0 mm 13,5 km/h (3 Bft) W 273 ° 0 min 0,000 mm 0,0 UV-I 0 W/m² 5,6 °C 13,4 °C 19,3 km/h (3 Bft)
17.03.2017 18:27 13,4 °C 13,4 °C 58 % 1013,0 hPa 0,0 mm 13,3 km/h (3 Bft) W 275 ° 0 min 0,000 mm 0,0 UV-I 0 W/m² 5,3 °C 13,4 °C 19,3 km/h (3 Bft)
17.03.2017 18:28 13,4 °C 13,4 °C 59 % 1013,0 hPa 0,0 mm 15,0 km/h (3 Bft) W-NW 286 ° 0 min 0,000 mm 0,0 UV-I 0 W/m² 5,6 °C 13,4 °C 22,5 km/h (4 Bft)
17.03.2017 18:29 13,4 °C 13,4 °C 58 % 1012,9 hPa 0,0 mm 9,9 km/h (2 Bft) W 269 ° 0 min 0,000 mm 0,0 UV-I 0 W/m² 5,3 °C 13,4 °C 19,3 km/h (3 Bft)
17.03.2017 18:30 13,4 °C 13,4 °C 59 % 1013,0 hPa 0,0 mm 13,2 km/h (3 Bft) W 263 ° 0 min 0,000 mm 0,0 UV-I 0 W/m² 5,6 °C 13,4 °C 17,7 km/h (3 Bft)
17.03.2017 18:31 13,4 °C 13,4 °C 59 % 1013,0 hPa 0,0 mm 14,3 km/h (3 Bft) W-SW 255 ° 0 min 0,000 mm 0,0 UV-I 0 W/m² 5,6 °C 13,4 °C 19,3 km/h (3 Bft)
17.03.2017 18:32 13,4 °C 13,4 °C 58 % 1013,0 hPa 0,0 mm 10,2 km/h (2 Bft) W 277 ° 0 min 0,000 mm 0,0 UV-I 0 W/m² 5,3 °C 13,4 °C 14,5 km/h (3 Bft)
17.03.2017 18:33 13,4 °C 13,4 °C 59 % 1012,9 hPa 0,0 mm 9,5 km/h (2 Bft) W 266 ° 0 min 0,000 mm 0,0 UV-I 0 W/m² 5,6 °C 13,4 °C 14,5 km/h (3 Bft)
17.03.2017 18:34 13,4 °C 13,5 °C 59 % 1013,0 hPa 0,0 mm 9,5 km/h (2 Bft) W-SW 248 ° 0 min 0,000 mm 0,0 UV-I 0 W/m² 5,6 °C 13,4 °C 14,5 km/h (3 Bft)
17.03.2017 18:35 13,4 °C 13,4 °C 59 % 1012,9 hPa 0,0 mm 16,4 km/h (3 Bft) W 270 ° 0 min 0,000 mm 0,0 UV-I 0 W/m² 5,6 °C 13,4 °C 25,7 km/h (4 Bft)
17.03.2017 18:36 13,4 °C 13,4 °C 59 % 1012,9 hPa 0,0 mm 12,3 km/h (3 Bft) W-SW 252 ° 0 min 0,000 mm 0,0 UV-I 0 W/m² 5,6 °C 13,4 °C 16,1 km/h (3 Bft)
17.03.2017 18:37 13,4 °C 13,4 °C 59 % 1012,9 hPa 0,0 mm 12,2 km/h (2 Bft) W 259 ° 0 min 0,000 mm 0,0 UV-I 0 W/m² 5,6 °C 13,4 °C 17,7 km/h (3 Bft)
17.03.2017 18:38 13,4 °C 13,4 °C 59 % 1012,9 hPa 0,0 mm 9,3 km/h (2 Bft) W 271 ° 0 min 0,000 mm 0,0 UV-I 0 W/m² 5,6 °C 13,4 °C 16,1 km/h (3 Bft)
17.03.2017 18:39 13,3 °C 13,4 °C 59 % 1012,9 hPa 0,0 mm 7,1 km/h (2 Bft) W-SW 254 ° 0 min 0,000 mm 0,0 UV-I 0 W/m² 5,5 °C 13,3 °C 12,9 km/h (3 Bft)
17.03.2017 18:40 13,4 °C 13,4 °C 59 % 1012,9 hPa 0,0 mm 8,9 km/h (2 Bft) W 263 ° 0 min 0,000 mm 0,0 UV-I 0 W/m² 5,6 °C 13,4 °C 12,9 km/h (3 Bft)
17.03.2017 18:41 13,3 °C 13,4 °C 59 % 1012,9 hPa 0,0 mm 13,7 km/h (3 Bft) W 261 ° 0 min 0,000 mm 0,0 UV-I 0 W/m² 5,5 °C 13,3 °C 20,9 km/h (4 Bft)
17.03.2017 18:42 13,3 °C 13,4 °C 59 % 1012,9 hPa 0,0 mm 6,6 km/h (2 Bft) SW 227 ° 0 min 0,000 mm 0,0 UV-I 0 W/m² 5,5 °C 13,3 °C 14,5 km/h (3 Bft)
17.03.2017 18:43 13,3 °C 13,3 °C 59 % 1013,0 hPa 0,0 mm 11,9 km/h (2 Bft) W 277 ° 0 min 0,000 mm 0,0 UV-I 0 W/m² 5,5 °C 13,3 °C 14,5 km/h (3 Bft)
17.03.2017 18:44 13,3 °C 13,3 °C 60 % 1013,0 hPa 0,0 mm 10,1 km/h (2 Bft) W 271 ° 0 min 0,000 mm 0,0 UV-I 0 W/m² 5,7 °C 13,3 °C 19,3 km/h (3 Bft)
17.03.2017 18:45 13,3 °C 13,3 °C 59 % 1012,9 hPa 0,0 mm 11,0 km/h (2 Bft) W-NW 283 ° 0 min 0,000 mm 0,0 UV-I 0 W/m² 5,5 °C 13,3 °C 19,3 km/h (3 Bft)
17.03.2017 18:46 13,3 °C 13,3 °C 60 % 1012,9 hPa 0,0 mm 10,3 km/h (2 Bft) SW 236 ° 0 min 0,000 mm 0,0 UV-I 0 W/m² 5,7 °C 13,3 °C 19,3 km/h (3 Bft)
17.03.2017 18:47 13,2 °C 13,3 °C 60 % 1013,0 hPa 0,0 mm 9,7 km/h (2 Bft) W-SW 254 ° 0 min 0,000 mm 0,0 UV-I 0 W/m² 5,6 °C 13,2 °C 16,1 km/h (3 Bft)
17.03.2017 18:48 13,2 °C 13,3 °C 60 % 1012,9 hPa 0,0 mm 9,0 km/h (2 Bft) W 278 ° 0 min 0,000 mm 0,0 UV-I 0 W/m² 5,6 °C 13,2 °C 14,5 km/h (3 Bft)
17.03.2017 18:49 13,2 °C 13,3 °C 60 % 1013,0 hPa 0,0 mm 11,5 km/h (2 Bft) W-SW 245 ° 0 min 0,000 mm 0,0 UV-I 0 W/m² 5,6 °C 13,2 °C 16,1 km/h (3 Bft)
17.03.2017 18:50 13,2 °C 13,2 °C 60 % 1013,0 hPa 0,0 mm 8,9 km/h (2 Bft) SW 229 ° 0 min 0,000 mm 0,0 UV-I 0 W/m² 5,6 °C 13,2 °C 14,5 km/h (3 Bft)
17.03.2017 18:51 13,2 °C 13,2 °C 60 % 1012,9 hPa 0,0 mm 6,2 km/h (2 Bft) SW 236 ° 0 min 0,000 mm 0,0 UV-I 0 W/m² 5,6 °C 13,2 °C 11,3 km/h (2 Bft)
17.03.2017 18:52 13,2 °C 13,2 °C 60 % 1013,0 hPa 0,0 mm 8,6 km/h (2 Bft) SW 216 ° 0 min 0,000 mm 0,0 UV-I 0 W/m² 5,6 °C 13,2 °C 16,1 km/h (3 Bft)
17.03.2017 18:53 13,2 °C 13,2 °C 60 % 1013,0 hPa 0,0 mm 4,2 km/h (1 Bft) W-SW 248 ° 0 min 0,000 mm 0,0 UV-I 0 W/m² 5,6 °C 13,2 °C 9,7 km/h (2 Bft)
17.03.2017 18:54 13,2 °C 13,2 °C 60 % 1013,0 hPa 0,0 mm 9,9 km/h (2 Bft) SW 233 ° 0 min 0,000 mm 0,0 UV-I 0 W/m² 5,6 °C 13,2 °C 16,1 km/h (3 Bft)
17.03.2017 18:55 13,2 °C 13,2 °C 60 % 1012,9 hPa 0,0 mm 7,2 km/h (2 Bft) W-SW 243 ° 0 min 0,000 mm 0,0 UV-I 0 W/m² 5,6 °C 13,2 °C 12,9 km/h (3 Bft)
17.03.2017 18:56 13,2 °C 13,2 °C 60 % 1012,9 hPa 0,0 mm 9,4 km/h (2 Bft) S-SW 202 ° 0 min 0,000 mm 0,0 UV-I 0 W/m² 5,6 °C 13,2 °C 14,5 km/h (3 Bft)
17.03.2017 18:57 13,2 °C 13,2 °C 60 % 1012,9 hPa 0,0 mm 8,2 km/h (2 Bft) W-SW 249 ° 0 min 0,000 mm 0,0 UV-I 0 W/m² 5,6 °C 13,2 °C 14,5 km/h (3 Bft)
17.03.2017 18:58 13,2 °C 13,2 °C 61 % 1012,9 hPa 0,0 mm 8,0 km/h (2 Bft) SW 227 ° 0 min 0,000 mm 0,0 UV-I 0 W/m² 5,8 °C 13,2 °C 14,5 km/h (3 Bft)
17.03.2017 18:59 13,2 °C 13,2 °C 61 % 1012,9 hPa 0,0 mm 11,8 km/h (2 Bft) W-SW 255 ° 0 min 0,000 mm 0,0 UV-I 0 W/m² 5,8 °C 13,2 °C 19,3 km/h (3 Bft)
17.03.2017 19:00 13,2 °C 13,2 °C 61 % 1012,9 hPa 0,0 mm 15,2 km/h (3 Bft) SW 224 ° 0 min 0,000 mm 0,0 UV-I 0 W/m² 5,8 °C 13,2 °C 22,5 km/h (4 Bft)
17.03.2017 19:01 13,2 °C 13,2 °C 61 % 1013,0 hPa 0,0 mm 7,9 km/h (2 Bft) SW 233 ° 0 min 0,051 mm 0,0 UV-I 0 W/m² 5,8 °C 13,2 °C 11,3 km/h (2 Bft)
17.03.2017 19:02 13,2 °C 13,2 °C 61 % 1013,0 hPa 0,0 mm 6,7 km/h (2 Bft) W-SW 239 ° 0 min 0,000 mm 0,0 UV-I 0 W/m² 5,8 °C 13,2 °C 9,7 km/h (2 Bft)
17.03.2017 19:03 13,2 °C 13,2 °C 61 % 1012,9 hPa 0,0 mm 10,5 km/h (2 Bft) S-SW 210 ° 0 min 0,000 mm 0,0 UV-I 0 W/m² 5,8 °C 13,2 °C 17,7 km/h (3 Bft)
17.03.2017 19:04 13,2 °C 13,2 °C 61 % 1013,0 hPa 0,0 mm 10,9 km/h (2 Bft) W 273 ° 0 min 0,000 mm 0,0 UV-I 0 W/m² 5,8 °C 13,2 °C 17,7 km/h (3 Bft)
17.03.2017 19:05 13,2 °C 13,2 °C 61 % 1013,0 hPa 0,0 mm 12,1 km/h (2 Bft) W 261 ° 0 min 0,000 mm 0,0 UV-I 0 W/m² 5,8 °C 13,2 °C 17,7 km/h (3 Bft)
17.03.2017 19:06 13,1 °C 13,2 °C 61 % 1013,0 hPa 0,0 mm 10,2 km/h (2 Bft) W 270 ° 0 min 0,000 mm 0,0 UV-I 0 W/m² 5,8 °C 13,1 °C 20,9 km/h (4 Bft)
17.03.2017 19:07 13,1 °C 13,1 °C 61 % 1013,0 hPa 0,0 mm 10,7 km/h (2 Bft) W-SW 252 ° 0 min 0,000 mm 0,0 UV-I 0 W/m² 5,8 °C 13,1 °C 19,3 km/h (3 Bft)
17.03.2017 19:08 13,1 °C 13,1 °C 61 % 1013,0 hPa 0,0 mm 17,3 km/h (3 Bft) W 261 ° 0 min 0,000 mm 0,0 UV-I 0 W/m² 5,8 °C 13,1 °C 25,7 km/h (4 Bft)
17.03.2017 19:09 13,2 °C 13,2 °C 61 % 1013,0 hPa 0,0 mm 18,3 km/h (3 Bft) W-SW 249 ° 0 min 0,000 mm 0,0 UV-I 0 W/m² 5,8 °C 13,2 °C 24,1 km/h (4 Bft)
17.03.2017 19:10 13,1 °C 13,2 °C 61 % 1012,9 hPa 0,0 mm 17,6 km/h (3 Bft) W-SW 255 ° 0 min 0,000 mm 0,0 UV-I 0 W/m² 5,8 °C 13,1 °C 25,7 km/h (4 Bft)
17.03.2017 19:11 13,1 °C 13,1 °C 62 % 1013,0 hPa 0,0 mm 14,6 km/h (3 Bft) W-SW 256 ° 0 min 0,000 mm 0,0 UV-I 0 W/m² 6,0 °C 13,1 °C 20,9 km/h (4 Bft)
17.03.2017 19:12 13,1 °C 13,1 °C 62 % 1013,2 hPa 0,0 mm 14,3 km/h (3 Bft) W 276 ° 0 min 0,000 mm 0,0 UV-I 0 W/m² 6,0 °C 13,1 °C 22,5 km/h (4 Bft)
17.03.2017 19:13 13,1 °C 13,1 °C 62 % 1013,2 hPa 0,0 mm 17,0 km/h (3 Bft) W 269 ° 0 min 0,000 mm 0,0 UV-I 0 W/m² 6,0 °C 13,1 °C 22,5 km/h (4 Bft)
17.03.2017 19:14 13,1 °C 13,1 °C 62 % 1013,2 hPa 0,0 mm 14,0 km/h (3 Bft) W-SW 240 ° 0 min 0,000 mm 0,0 UV-I 0 W/m² 6,0 °C 13,1 °C 22,5 km/h (4 Bft)
17.03.2017 19:15 13,1 °C 13,1 °C 63 % 1013,2 hPa 0,0 mm 7,9 km/h (2 Bft) W-SW 241 ° 0 min 0,000 mm 0,0 UV-I 0 W/m² 6,2 °C 13,1 °C 16,1 km/h (3 Bft)
17.03.2017 19:16 13,1 °C 13,1 °C 64 % 1013,2 hPa 0,0 mm 23,1 km/h (4 Bft) W-SW 237 ° 0 min 0,000 mm 0,0 UV-I 0 W/m² 6,4 °C 13,1 °C 32,2 km/h (5 Bft)
17.03.2017 19:17 12,9 °C 13,1 °C 64 % 1013,1 hPa 0,0 mm 15,5 km/h (3 Bft) W-SW 252 ° 0 min 0,000 mm 0,0 UV-I 0 W/m² 6,3 °C 12,9 °C 24,1 km/h (4 Bft)
17.03.2017 19:18 12,9 °C 12,9 °C 65 % 1013,1 hPa 0,0 mm 8,5 km/h (2 Bft) W-SW 245 ° 0 min 0,000 mm 0,0 UV-I 0 W/m² 6,5 °C 12,9 °C 12,9 km/h (3 Bft)
17.03.2017 19:19 12,8 °C 12,9 °C 65 % 1013,1 hPa 0,0 mm 10,5 km/h (2 Bft) W-SW 251 ° 0 min 0,000 mm 0,0 UV-I 0 W/m² 6,4 °C 12,8 °C 14,5 km/h (3 Bft)
17.03.2017 19:20 12,8 °C 12,8 °C 65 % 1013,2 hPa 0,0 mm 11,3 km/h (2 Bft) SW 223 ° 0 min 0,000 mm 0,0 UV-I 0 W/m² 6,4 °C 12,8 °C 16,1 km/h (3 Bft)
17.03.2017 19:21 12,7 °C 12,8 °C 65 % 1013,1 hPa 0,0 mm 11,7 km/h (2 Bft) W-SW 254 ° 0 min 0,000 mm 0,0 UV-I 0 W/m² 6,3 °C 12,7 °C 22,5 km/h (4 Bft)
17.03.2017 19:22 12,7 °C 12,7 °C 65 % 1013,1 hPa 0,0 mm 18,4 km/h (3 Bft) W-SW 250 ° 0 min 0,000 mm 0,0 UV-I 0 W/m² 6,3 °C 12,7 °C 22,5 km/h (4 Bft)
17.03.2017 19:23 12,7 °C 12,7 °C 65 % 1013,1 hPa 0,0 mm 18,0 km/h (3 Bft) W-SW 254 ° 0 min 0,000 mm 0,0 UV-I 0 W/m² 6,3 °C 12,7 °C 24,1 km/h (4 Bft)
17.03.2017 19:24 12,7 °C 12,7 °C 65 % 1013,2 hPa 0,0 mm 17,3 km/h (3 Bft) W-SW 249 ° 0 min 0,000 mm 0,0 UV-I 0 W/m² 6,3 °C 12,7 °C 22,5 km/h (4 Bft)
17.03.2017 19:25 12,6 °C 12,7 °C 65 % 1013,2 hPa 0,0 mm 15,1 km/h (3 Bft) SW 227 ° 0 min 0,000 mm 0,0 UV-I 0 W/m² 6,2 °C 12,6 °C 24,1 km/h (4 Bft)
17.03.2017 19:26 12,7 °C 12,7 °C 64 % 1013,2 hPa 0,0 mm 17,5 km/h (3 Bft) W 263 ° 0 min 0,000 mm 0,0 UV-I 0 W/m² 6,1 °C 12,7 °C 22,5 km/h (4 Bft)
17.03.2017 19:27 12,7 °C 12,7 °C 64 % 1013,0 hPa 0,0 mm 15,7 km/h (3 Bft) W 270 ° 0 min 0,000 mm 0,0 UV-I 0 W/m² 6,1 °C 12,7 °C 20,9 km/h (4 Bft)
17.03.2017 19:28 12,7 °C 12,7 °C 65 % 1013,0 hPa 0,0 mm 14,3 km/h (3 Bft) SW 229 ° 0 min 0,000 mm 0,0 UV-I 0 W/m² 6,3 °C 12,7 °C 19,3 km/h (3 Bft)
17.03.2017 19:29 12,7 °C 12,7 °C 64 % 1013,0 hPa 0,0 mm 13,5 km/h (3 Bft) W 275 ° 0 min 0,000 mm 0,0 UV-I 0 W/m² 6,1 °C 12,7 °C 17,7 km/h (3 Bft)
17.03.2017 19:30 12,7 °C 12,7 °C 64 % 1013,0 hPa 0,0 mm 14,1 km/h (3 Bft) W-SW 241 ° 0 min 0,000 mm 0,0 UV-I 0 W/m² 6,1 °C 12,7 °C 20,9 km/h (4 Bft)
17.03.2017 19:31 12,7 °C 12,7 °C 64 % 1013,1 hPa 0,0 mm 12,9 km/h (3 Bft) W-SW 238 ° 0 min 0,000 mm 0,0 UV-I 0 W/m² 6,1 °C 12,7 °C 22,5 km/h (4 Bft)
17.03.2017 19:32 12,7 °C 12,7 °C 64 % 1013,0 hPa 0,0 mm 15,5 km/h (3 Bft) W 279 ° 0 min 0,000 mm 0,0 UV-I 0 W/m² 6,1 °C 12,7 °C 25,7 km/h (4 Bft)
17.03.2017 19:33 12,7 °C 12,7 °C 64 % 1013,0 hPa 0,0 mm 17,8 km/h (3 Bft) W-SW 248 ° 0 min 0,000 mm 0,0 UV-I 0 W/m² 6,1 °C 12,7 °C 24,1 km/h (4 Bft)
17.03.2017 19:34 12,7 °C 12,7 °C 65 % 1013,0 hPa 0,0 mm 13,9 km/h (3 Bft) SW 234 ° 0 min 0,000 mm 0,0 UV-I 0 W/m² 6,3 °C 12,7 °C 20,9 km/h (4 Bft)
17.03.2017 19:35 12,6 °C 12,7 °C 64 % 1013,1 hPa 0,0 mm 13,3 km/h (3 Bft) W-SW 247 ° 0 min 0,000 mm 0,0 UV-I 0 W/m² 6,0 °C 12,6 °C 20,9 km/h (4 Bft)
17.03.2017 19:36 12,7 °C 12,7 °C 64 % 1013,0 hPa 0,0 mm 17,4 km/h (3 Bft) W-SW 256 ° 0 min 0,000 mm 0,0 UV-I 0 W/m² 6,1 °C 12,7 °C 24,1 km/h (4 Bft)
17.03.2017 19:37 12,6 °C 12,7 °C 64 % 1013,1 hPa 0,0 mm 10,3 km/h (2 Bft) W-SW 248 ° 0 min 0,000 mm 0,0 UV-I 0 W/m² 6,0 °C 12,6 °C 17,7 km/h (3 Bft)
17.03.2017 19:38 12,7 °C 12,7 °C 65 % 1013,1 hPa 0,0 mm 10,9 km/h (2 Bft) W-SW 247 ° 0 min 0,000 mm 0,0 UV-I 0 W/m² 6,3 °C 12,7 °C 19,3 km/h (3 Bft)
17.03.2017 19:39 12,6 °C 12,7 °C 64 % 1013,1 hPa 0,0 mm 6,8 km/h (2 Bft) W-SW 246 ° 0 min 0,000 mm 0,0 UV-I 0 W/m² 6,0 °C 12,6 °C 12,9 km/h (3 Bft)
17.03.2017 19:40 12,6 °C 12,7 °C 64 % 1013,0 hPa 0,0 mm 11,4 km/h (2 Bft) W-SW 248 ° 0 min 0,000 mm 0,0 UV-I 0 W/m² 6,0 °C 12,6 °C 16,1 km/h (3 Bft)
17.03.2017 19:41 12,6 °C 12,7 °C 65 % 1013,0 hPa 0,0 mm 9,0 km/h (2 Bft) SW 221 ° 0 min 0,000 mm 0,0 UV-I 0 W/m² 6,2 °C 12,6 °C 14,5 km/h (3 Bft)
17.03.2017 19:42 12,7 °C 12,7 °C 64 % 1013,1 hPa 0,0 mm 12,9 km/h (3 Bft) W 259 ° 0 min 0,000 mm 0,0 UV-I 0 W/m² 6,1 °C 12,7 °C 20,9 km/h (4 Bft)
17.03.2017 19:43 12,6 °C 12,7 °C 65 % 1013,0 hPa 0,0 mm 14,4 km/h (3 Bft) W-SW 252 ° 0 min 0,000 mm 0,0 UV-I 0 W/m² 6,2 °C 12,6 °C 19,3 km/h (3 Bft)
17.03.2017 19:44 12,6 °C 12,6 °C 65 % 1013,0 hPa 0,0 mm 12,3 km/h (3 Bft) W-SW 254 ° 0 min 0,000 mm 0,0 UV-I 0 W/m² 6,2 °C 12,6 °C 20,9 km/h (4 Bft)
17.03.2017 19:45 12,6 °C 12,6 °C 65 % 1013,1 hPa 0,0 mm 8,4 km/h (2 Bft) W 259 ° 0 min 0,000 mm 0,0 UV-I 0 W/m² 6,2 °C 12,6 °C 12,9 km/h (3 Bft)
17.03.2017 19:46 12,6 °C 12,6 °C 64 % 1013,1 hPa 0,0 mm 10,5 km/h (2 Bft) W 273 ° 0 min 0,000 mm 0,0 UV-I 0 W/m² 6,0 °C 12,6 °C 16,1 km/h (3 Bft)
17.03.2017 19:47 12,6 °C 12,6 °C 64 % 1013,1 hPa 0,0 mm 17,4 km/h (3 Bft) SW 229 ° 0 min 0,000 mm 0,0 UV-I 0 W/m² 6,0 °C 12,6 °C 25,7 km/h (4 Bft)
17.03.2017 19:48 12,5 °C 12,6 °C 65 % 1013,0 hPa 0,0 mm 11,8 km/h (2 Bft) W-NW 292 ° 0 min 0,000 mm 0,0 UV-I 0 W/m² 6,1 °C 12,5 °C 22,5 km/h (4 Bft)
17.03.2017 19:49 12,5 °C 12,5 °C 64 % 1013,0 hPa 0,0 mm 12,2 km/h (2 Bft) W 265 ° 0 min 0,000 mm 0,0 UV-I 0 W/m² 5,9 °C 12,5 °C 19,3 km/h (3 Bft)
17.03.2017 19:50 12,5 °C 12,5 °C 64 % 1013,0 hPa 0,0 mm 12,9 km/h (3 Bft) W-SW 254 ° 0 min 0,000 mm 0,0 UV-I 0 W/m² 5,9 °C 12,5 °C 19,3 km/h (3 Bft)
17.03.2017 19:51 12,5 °C 12,5 °C 64 % 1013,1 hPa 0,0 mm 16,4 km/h (3 Bft) SW 223 ° 0 min 0,000 mm 0,0 UV-I 0 W/m² 5,9 °C 12,5 °C 24,1 km/h (4 Bft)
17.03.2017 19:52 12,4 °C 12,5 °C 64 % 1013,1 hPa 0,0 mm 11,5 km/h (2 Bft) W 261 ° 0 min 0,000 mm 0,0 UV-I 0 W/m² 5,8 °C 12,4 °C 17,7 km/h (3 Bft)
17.03.2017 19:53 12,4 °C 12,5 °C 64 % 1013,0 hPa 0,0 mm 13,5 km/h (3 Bft) SW 234 ° 0 min 0,000 mm 0,0 UV-I 0 W/m² 5,8 °C 12,4 °C 19,3 km/h (3 Bft)
17.03.2017 19:54 12,4 °C 12,4 °C 64 % 1013,0 hPa 0,0 mm 14,6 km/h (3 Bft) W-SW 252 ° 0 min 0,000 mm 0,0 UV-I 0 W/m² 5,8 °C 12,4 °C 25,7 km/h (4 Bft)
17.03.2017 19:55 12,5 °C 12,5 °C 63 % 1013,1 hPa 0,0 mm 15,8 km/h (3 Bft) W-SW 257 ° 0 min 0,000 mm 0,0 UV-I 0 W/m² 5,7 °C 12,5 °C 20,9 km/h (4 Bft)
17.03.2017 19:56 12,5 °C 12,5 °C 63 % 1013,0 hPa 0,0 mm 18,7 km/h (3 Bft) W-SW 248 ° 0 min 0,000 mm 0,0 UV-I 0 W/m² 5,7 °C 12,5 °C 27,4 km/h (4 Bft)
17.03.2017 19:57 12,5 °C 12,5 °C 62 % 1013,1 hPa 0,0 mm 15,9 km/h (3 Bft) SW 235 ° 0 min 0,000 mm 0,0 UV-I 0 W/m² 5,4 °C 12,5 °C 24,1 km/h (4 Bft)
17.03.2017 19:58 12,6 °C 12,6 °C 62 % 1013,0 hPa 0,0 mm 10,8 km/h (2 Bft) W-SW 244 ° 0 min 0,000 mm 0,0 UV-I 0 W/m² 5,5 °C 12,6 °C 16,1 km/h (3 Bft)
17.03.2017 19:59 12,6 °C 12,6 °C 63 % 1013,0 hPa 0,0 mm 15,1 km/h (3 Bft) SW 227 ° 0 min 0,000 mm 0,0 UV-I 0 W/m² 5,7 °C 12,6 °C 20,9 km/h (4 Bft)
17.03.2017 20:00 12,6 °C 12,6 °C 62 % 1013,1 hPa 0,0 mm 10,5 km/h (2 Bft) W 281 ° 0 min 0,000 mm 0,0 UV-I 0 W/m² 5,5 °C 12,6 °C 16,1 km/h (3 Bft)
17.03.2017 20:01 12,6 °C 12,6 °C 63 % 1013,0 hPa 0,0 mm 12,2 km/h (2 Bft) W-SW 249 ° 0 min 0,076 mm 0,0 UV-I 0 W/m² 5,7 °C 12,6 °C 20,9 km/h (4 Bft)
17.03.2017 20:02 12,5 °C 12,6 °C 63 % 1013,1 hPa 0,0 mm 14,1 km/h (3 Bft) W 259 ° 0 min 0,000 mm 0,0 UV-I 0 W/m² 5,7 °C 12,5 °C 19,3 km/h (3 Bft)
17.03.2017 20:03 12,5 °C 12,5 °C 63 % 1013,1 hPa 0,0 mm 8,1 km/h (2 Bft) W-SW 253 ° 0 min 0,000 mm 0,0 UV-I 0 W/m² 5,7 °C 12,5 °C 14,5 km/h (3 Bft)
17.03.2017 20:04 12,4 °C 12,5 °C 62 % 1013,1 hPa 0,0 mm 9,5 km/h (2 Bft) W-SW 248 ° 0 min 0,000 mm 0,0 UV-I 0 W/m² 5,3 °C 12,4 °C 14,5 km/h (3 Bft)
17.03.2017 20:05 12,4 °C 12,4 °C 62 % 1013,1 hPa 0,0 mm 12,9 km/h (3 Bft) W-SW 240 ° 0 min 0,000 mm 0,0 UV-I 0 W/m² 5,3 °C 12,4 °C 17,7 km/h (3 Bft)
17.03.2017 20:06 12,4 °C 12,4 °C 63 % 1013,1 hPa 0,0 mm 12,0 km/h (2 Bft) W-SW 257 ° 0 min 0,000 mm 0,0 UV-I 0 W/m² 5,6 °C 12,4 °C 16,1 km/h (3 Bft)
17.03.2017 20:07 12,4 °C 12,4 °C 62 % 1013,2 hPa 0,0 mm 16,5 km/h (3 Bft) W-SW 255 ° 0 min 0,000 mm 0,0 UV-I 0 W/m² 5,3 °C 12,4 °C 22,5 km/h (4 Bft)
17.03.2017 20:08 12,4 °C 12,4 °C 62 % 1013,1 hPa 0,0 mm 14,9 km/h (3 Bft) W-SW 248 ° 0 min 0,000 mm 0,0 UV-I 0 W/m² 5,3 °C 12,4 °C 17,7 km/h (3 Bft)
17.03.2017 20:09 12,4 °C 12,4 °C 62 % 1013,2 hPa 0,0 mm 10,9 km/h (2 Bft) W 269 ° 0 min 0,000 mm 0,0 UV-I 0 W/m² 5,3 °C 12,4 °C 17,7 km/h (3 Bft)
17.03.2017 20:10 12,4 °C 12,4 °C 62 % 1013,1 hPa 0,0 mm 11,5 km/h (2 Bft) W 269 ° 0 min 0,000 mm 0,0 UV-I 0 W/m² 5,3 °C 12,4 °C 16,1 km/h (3 Bft)
17.03.2017 20:11 12,4 °C 12,4 °C 62 % 1013,0 hPa 0,0 mm 9,7 km/h (2 Bft) W 271 ° 0 min 0,000 mm 0,0 UV-I 0 W/m² 5,3 °C 12,4 °C 17,7 km/h (3 Bft)
17.03.2017 20:12 12,4 °C 12,4 °C 62 % 1013,0 hPa 0,0 mm 15,5 km/h (3 Bft) W-NW 292 ° 0 min 0,000 mm 0,0 UV-I 0 W/m² 5,3 °C 12,4 °C 25,7 km/h (4 Bft)
17.03.2017 20:13 12,4 °C 12,4 °C 62 % 1013,1 hPa 0,0 mm 17,4 km/h (3 Bft) W-SW 240 ° 0 min 0,000 mm 0,0 UV-I 0 W/m² 5,3 °C 12,4 °C 25,7 km/h (4 Bft)
17.03.2017 20:14 12,4 °C 12,4 °C 61 % 1013,1 hPa 0,0 mm 10,8 km/h (2 Bft) S-SW 198 ° 0 min 0,000 mm 0,0 UV-I 0 W/m² 5,1 °C 12,4 °C 20,9 km/h (4 Bft)
17.03.2017 20:15 12,4 °C 12,4 °C 61 % 1013,0 hPa 0,0 mm 13,6 km/h (3 Bft) W-SW 245 ° 0 min 0,000 mm 0,0 UV-I 0 W/m² 5,1 °C 12,4 °C 24,1 km/h (4 Bft)
17.03.2017 20:16 12,4 °C 12,4 °C 61 % 1013,0 hPa 0,0 mm 18,7 km/h (3 Bft) W-NW 298 ° 0 min 0,000 mm 0,0 UV-I 0 W/m² 5,1 °C 12,4 °C 25,7 km/h (4 Bft)
17.03.2017 20:17 12,4 °C 12,4 °C 60 % 1013,1 hPa 0,0 mm 13,7 km/h (3 Bft) W-SW 252 ° 0 min 0,000 mm 0,0 UV-I 0 W/m² 4,9 °C 12,4 °C 22,5 km/h (4 Bft)
17.03.2017 20:18 12,4 °C 12,4 °C 60 % 1013,0 hPa 0,0 mm 17,0 km/h (3 Bft) W 271 ° 0 min 0,000 mm 0,0 UV-I 0 W/m² 4,9 °C 12,4 °C 22,5 km/h (4 Bft)
17.03.2017 20:19 12,4 °C 12,5 °C 60 % 1013,0 hPa 0,0 mm 13,5 km/h (3 Bft) SW 217 ° 0 min 0,000 mm 0,0 UV-I 0 W/m² 4,9 °C 12,4 °C 24,1 km/h (4 Bft)
17.03.2017 20:20 12,5 °C 12,5 °C 60 % 1013,0 hPa 0,0 mm 11,4 km/h (2 Bft) W-SW 252 ° 0 min 0,000 mm 0,0 UV-I 0 W/m² 5,0 °C 12,5 °C 19,3 km/h (3 Bft)
17.03.2017 20:21 12,5 °C 12,5 °C 60 % 1012,9 hPa 0,0 mm 8,8 km/h (2 Bft) W 269 ° 0 min 0,000 mm 0,0 UV-I 0 W/m² 5,0 °C 12,5 °C 16,1 km/h (3 Bft)
17.03.2017 20:22 12,5 °C 12,6 °C 60 % 1012,9 hPa 0,0 mm 15,6 km/h (3 Bft) W 259 ° 0 min 0,000 mm 0,0 UV-I 0 W/m² 5,0 °C 12,5 °C 24,1 km/h (4 Bft)
17.03.2017 20:23 12,5 °C 12,6 °C 60 % 1012,9 hPa 0,0 mm 15,5 km/h (3 Bft) W-SW 251 ° 0 min 0,000 mm 0,0 UV-I 0 W/m² 5,0 °C 12,5 °C 35,4 km/h (5 Bft)
17.03.2017 20:24 12,5 °C 12,6 °C 60 % 1012,9 hPa 0,0 mm 16,2 km/h (3 Bft) W 271 ° 0 min 0,000 mm 0,0 UV-I 0 W/m² 5,0 °C 12,5 °C 20,9 km/h (4 Bft)
17.03.2017 20:25 12,5 °C 12,5 °C 59 % 1012,9 hPa 0,0 mm 15,4 km/h (3 Bft) S-SW 209 ° 0 min 0,000 mm 0,0 UV-I 0 W/m² 4,7 °C 12,5 °C 22,5 km/h (4 Bft)
17.03.2017 20:26 12,4 °C 12,5 °C 60 % 1012,9 hPa 0,0 mm 12,1 km/h (2 Bft) W 267 ° 0 min 0,000 mm 0,0 UV-I 0 W/m² 4,9 °C 12,4 °C 17,7 km/h (3 Bft)
17.03.2017 20:27 12,4 °C 12,4 °C 59 % 1013,0 hPa 0,0 mm 11,1 km/h (2 Bft) W-SW 243 ° 0 min 0,000 mm 0,0 UV-I 0 W/m² 4,6 °C 12,4 °C 14,5 km/h (3 Bft)
17.03.2017 20:28 12,4 °C 12,4 °C 59 % 1013,0 hPa 0,0 mm 12,6 km/h (3 Bft) W-SW 243 ° 0 min 0,000 mm 0,0 UV-I 0 W/m² 4,6 °C 12,4 °C 17,7 km/h (3 Bft)
17.03.2017 20:29 12,4 °C 12,4 °C 59 % 1013,0 hPa 0,0 mm 14,8 km/h (3 Bft) W-SW 254 ° 0 min 0,000 mm 0,0 UV-I 0 W/m² 4,6 °C 12,4 °C 20,9 km/h (4 Bft)
17.03.2017 20:30 12,3 °C 12,4 °C 59 % 1013,1 hPa 0,0 mm 16,4 km/h (3 Bft) SW 218 ° 0 min 0,000 mm 0,0 UV-I 0 W/m² 4,5 °C 12,3 °C 24,1 km/h (4 Bft)
17.03.2017 20:31 12,3 °C 12,4 °C 59 % 1013,0 hPa 0,0 mm 17,2 km/h (3 Bft) W 269 ° 0 min 0,000 mm 0,0 UV-I 0 W/m² 4,5 °C 12,3 °C 29,0 km/h (5 Bft)
17.03.2017 20:32 12,3 °C 12,3 °C 59 % 1013,0 hPa 0,0 mm 12,6 km/h (3 Bft) W-SW 245 ° 0 min 0,000 mm 0,0 UV-I 0 W/m² 4,5 °C 12,3 °C 20,9 km/h (4 Bft)
17.03.2017 20:33 12,4 °C 12,4 °C 58 % 1013,0 hPa 0,0 mm 12,1 km/h (2 Bft) W 269 ° 0 min 0,000 mm 0,0 UV-I 0 W/m² 4,4 °C 12,4 °C 19,3 km/h (3 Bft)
17.03.2017 20:34 12,4 °C 12,4 °C 57 % 1013,1 hPa 0,0 mm 14,3 km/h (3 Bft) W-SW 254 ° 0 min 0,000 mm 0,0 UV-I 0 W/m² 4,1 °C 12,4 °C 24,1 km/h (4 Bft)
17.03.2017 20:35 12,4 °C 12,4 °C 58 % 1013,0 hPa 0,0 mm 14,4 km/h (3 Bft) W-SW 238 ° 0 min 0,000 mm 0,0 UV-I 0 W/m² 4,4 °C 12,4 °C 20,9 km/h (4 Bft)
17.03.2017 20:36 12,4 °C 12,4 °C 58 % 1013,0 hPa 0,0 mm 16,5 km/h (3 Bft) W 269 ° 0 min 0,000 mm 0,0 UV-I 0 W/m² 4,4 °C 12,4 °C 20,9 km/h (4 Bft)
17.03.2017 20:37 12,4 °C 12,4 °C 58 % 1013,0 hPa 0,0 mm 15,0 km/h (3 Bft) W-SW 252 ° 0 min 0,000 mm 0,0 UV-I 0 W/m² 4,4 °C 12,4 °C 20,9 km/h (4 Bft)
17.03.2017 20:38 12,3 °C 12,4 °C 58 % 1013,0 hPa 0,0 mm 16,8 km/h (3 Bft) W 271 ° 0 min 0,000 mm 0,0 UV-I 0 W/m² 4,3 °C 12,3 °C 22,5 km/h (4 Bft)
17.03.2017 20:39 12,4 °C 12,4 °C 57 % 1013,0 hPa 0,0 mm 13,9 km/h (3 Bft) W-NW 294 ° 0 min 0,000 mm 0,0 UV-I 0 W/m² 4,1 °C 12,4 °C 24,1 km/h (4 Bft)
17.03.2017 20:40 12,4 °C 12,4 °C 57 % 1013,0 hPa 0,0 mm 18,6 km/h (3 Bft) W-SW 257 ° 0 min 0,000 mm 0,0 UV-I 0 W/m² 4,1 °C 12,4 °C 30,6 km/h (5 Bft)
17.03.2017 20:41 12,4 °C 12,4 °C 57 % 1013,0 hPa 0,0 mm 19,5 km/h (3 Bft) W-SW 247 ° 0 min 0,000 mm 0,0 UV-I 0 W/m² 4,1 °C 12,4 °C 29,0 km/h (5 Bft)
17.03.2017 20:42 12,4 °C 12,4 °C 57 % 1013,0 hPa 0,0 mm 15,0 km/h (3 Bft) W 281 ° 0 min 0,000 mm 0,0 UV-I 0 W/m² 4,1 °C 12,4 °C 24,1 km/h (4 Bft)
17.03.2017 20:43 12,5 °C 12,5 °C 57 % 1012,9 hPa 0,0 mm 15,1 km/h (3 Bft) NW 325 ° 0 min 0,000 mm 0,0 UV-I 0 W/m² 4,2 °C 12,5 °C 25,7 km/h (4 Bft)
17.03.2017 20:44 12,5 °C 12,5 °C 57 % 1012,9 hPa 0,0 mm 15,8 km/h (3 Bft) W-SW 258 ° 0 min 0,000 mm 0,0 UV-I 0 W/m² 4,2 °C 12,5 °C 22,5 km/h (4 Bft)
17.03.2017 20:45 12,6 °C 12,6 °C 57 % 1012,8 hPa 0,0 mm 13,2 km/h (3 Bft) W-SW 248 ° 0 min 0,000 mm 0,0 UV-I 0 W/m² 4,3 °C 12,6 °C 19,3 km/h (3 Bft)
17.03.2017 20:46 12,6 °C 12,6 °C 57 % 1012,8 hPa 0,0 mm 18,6 km/h (3 Bft) W-SW 244 ° 0 min 0,000 mm 0,0 UV-I 0 W/m² 4,3 °C 12,6 °C 29,0 km/h (5 Bft)
17.03.2017 20:47 12,6 °C 12,6 °C 57 % 1012,9 hPa 0,0 mm 14,9 km/h (3 Bft) W 281 ° 0 min 0,000 mm 0,0 UV-I 0 W/m² 4,3 °C 12,6 °C 20,9 km/h (4 Bft)
17.03.2017 20:48 12,6 °C 12,6 °C 57 % 1012,9 hPa 0,0 mm 11,7 km/h (2 Bft) W-SW 243 ° 0 min 0,000 mm 0,0 UV-I 0 W/m² 4,3 °C 12,6 °C 19,3 km/h (3 Bft)
17.03.2017 20:49 12,6 °C 12,6 °C 57 % 1013,0 hPa 0,0 mm 17,6 km/h (3 Bft) W-SW 250 ° 0 min 0,000 mm 0,0 UV-I 0 W/m² 4,3 °C 12,6 °C 27,4 km/h (4 Bft)
17.03.2017 20:50 12,6 °C 12,6 °C 57 % 1013,0 hPa 0,0 mm 11,4 km/h (2 Bft) W 262 ° 0 min 0,000 mm 0,0 UV-I 0 W/m² 4,3 °C 12,6 °C 16,1 km/h (3 Bft)
17.03.2017 20:51 12,6 °C 12,6 °C 57 % 1013,1 hPa 0,0 mm 10,8 km/h (2 Bft) W 261 ° 0 min 0,000 mm 0,0 UV-I 0 W/m² 4,3 °C 12,6 °C 19,3 km/h (3 Bft)
17.03.2017 20:52 12,6 °C 12,6 °C 57 % 1013,0 hPa 0,0 mm 11,9 km/h (2 Bft) W 272 ° 0 min 0,000 mm 0,0 UV-I 0 W/m² 4,3 °C 12,6 °C 16,1 km/h (3 Bft)
17.03.2017 20:53 12,6 °C 12,6 °C 57 % 1013,1 hPa 0,0 mm 11,5 km/h (2 Bft) W-SW 247 ° 0 min 0,000 mm 0,0 UV-I 0 W/m² 4,3 °C 12,6 °C 19,3 km/h (3 Bft)
17.03.2017 20:54 12,6 °C 12,6 °C 57 % 1013,1 hPa 0,0 mm 11,1 km/h (2 Bft) W-NW 298 ° 0 min 0,000 mm 0,0 UV-I 0 W/m² 4,3 °C 12,6 °C 14,5 km/h (3 Bft)
17.03.2017 20:55 12,6 °C 12,6 °C 57 % 1013,1 hPa 0,0 mm 12,2 km/h (2 Bft) W-SW 257 ° 0 min 0,000 mm 0,0 UV-I 0 W/m² 4,3 °C 12,6 °C 17,7 km/h (3 Bft)
17.03.2017 20:56 12,6 °C 12,6 °C 57 % 1013,2 hPa 0,0 mm 12,8 km/h (3 Bft) W-SW 250 ° 0 min 0,000 mm 0,0 UV-I 0 W/m² 4,3 °C 12,6 °C 22,5 km/h (4 Bft)
17.03.2017 20:57 12,6 °C 12,6 °C 57 % 1013,2 hPa 0,0 mm 14,9 km/h (3 Bft) W 276 ° 0 min 0,000 mm 0,0 UV-I 0 W/m² 4,3 °C 12,6 °C 24,1 km/h (4 Bft)
17.03.2017 20:58 12,6 °C 12,6 °C 57 % 1013,2 hPa 0,0 mm 7,3 km/h (2 Bft) W-SW 258 ° 0 min 0,000 mm 0,0 UV-I 0 W/m² 4,3 °C 12,6 °C 11,3 km/h (2 Bft)
17.03.2017 20:59 12,6 °C 12,6 °C 57 % 1013,3 hPa 0,0 mm 6,2 km/h (2 Bft) W 275 ° 0 min 0,000 mm 0,0 UV-I 0 W/m² 4,3 °C 12,6 °C 9,7 km/h (2 Bft)
17.03.2017 21:00 12,6 °C 12,6 °C 57 % 1013,2 hPa 0,0 mm 11,2 km/h (2 Bft) W 259 ° 0 min 0,000 mm 0,0 UV-I 0 W/m² 4,3 °C 12,6 °C 14,5 km/h (3 Bft)
17.03.2017 21:01 12,6 °C 12,6 °C 57 % 1013,3 hPa 0,0 mm 8,2 km/h (2 Bft) W 275 ° 0 min 0,077 mm 0,0 UV-I 0 W/m² 4,3 °C 12,6 °C 12,9 km/h (3 Bft)
17.03.2017 21:02 12,6 °C 12,6 °C 57 % 1013,2 hPa 0,0 mm 5,9 km/h (2 Bft) W-NW 292 ° 0 min 0,000 mm 0,0 UV-I 0 W/m² 4,3 °C 12,6 °C 11,3 km/h (2 Bft)
17.03.2017 21:03 12,5 °C 12,6 °C 57 % 1013,3 hPa 0,0 mm 8,2 km/h (2 Bft) W-NW 302 ° 0 min 0,000 mm 0,0 UV-I 0 W/m² 4,2 °C 12,5 °C 11,3 km/h (2 Bft)
17.03.2017 21:04 12,6 °C 12,6 °C 57 % 1013,3 hPa 0,0 mm 9,7 km/h (2 Bft) W-NW 284 ° 0 min 0,000 mm 0,0 UV-I 0 W/m² 4,3 °C 12,6 °C 12,9 km/h (3 Bft)
17.03.2017 21:05 12,5 °C 12,6 °C 57 % 1013,4 hPa 0,0 mm 10,9 km/h (2 Bft) W-NW 294 ° 0 min 0,000 mm 0,0 UV-I 0 W/m² 4,2 °C 12,5 °C 16,1 km/h (3 Bft)
17.03.2017 21:06 12,5 °C 12,6 °C 57 % 1013,3 hPa 0,0 mm 5,8 km/h (2 Bft) W-SW 251 ° 0 min 0,000 mm 0,0 UV-I 0 W/m² 4,2 °C 12,5 °C 11,3 km/h (2 Bft)
17.03.2017 21:07 12,5 °C 12,6 °C 58 % 1013,4 hPa 0,0 mm 7,3 km/h (2 Bft) W 277 ° 0 min 0,000 mm 0,0 UV-I 0 W/m² 4,5 °C 12,5 °C 19,3 km/h (3 Bft)
17.03.2017 21:08 12,4 °C 12,5 °C 58 % 1013,4 hPa 0,0 mm 8,0 km/h (2 Bft) W-NW 296 ° 0 min 0,000 mm 0,0 UV-I 0 W/m² 4,4 °C 12,4 °C 12,9 km/h (3 Bft)
17.03.2017 21:09 12,4 °C 12,4 °C 59 % 1013,4 hPa 0,0 mm 10,8 km/h (2 Bft) W-NW 294 ° 0 min 0,000 mm 0,0 UV-I 0 W/m² 4,6 °C 12,4 °C 14,5 km/h (3 Bft)
17.03.2017 21:10 12,3 °C 12,4 °C 62 % 1013,5 hPa 0,0 mm 6,2 km/h (2 Bft) NW 314 ° 0 min 0,000 mm 0,0 UV-I 0 W/m² 5,2 °C 12,3 °C 8,0 km/h (2 Bft)
17.03.2017 21:11 12,1 °C 12,3 °C 63 % 1013,5 hPa 0,0 mm 4,6 km/h (1 Bft) NW 313 ° 0 min 0,000 mm 0,0 UV-I 0 W/m² 5,3 °C 12,1 °C 6,4 km/h (2 Bft)
17.03.2017 21:12 11,9 °C 12,1 °C 65 % 1013,4 hPa 0,0 mm 6,2 km/h (2 Bft) NW 304 ° 0 min 0,000 mm 0,0 UV-I 0 W/m² 5,5 °C 11,9 °C 9,7 km/h (2 Bft)
17.03.2017 21:13 11,8 °C 11,9 °C 68 % 1013,4 hPa 0,0 mm 7,0 km/h (2 Bft) W-NW 294 ° 0 min 0,000 mm 0,0 UV-I 0 W/m² 6,1 °C 11,8 °C 11,3 km/h (2 Bft)
17.03.2017 21:14 11,6 °C 11,8 °C 69 % 1013,3 hPa 0,0 mm 5,4 km/h (1 Bft) W-NW 290 ° 0 min 0,000 mm 0,0 UV-I 0 W/m² 6,1 °C 11,6 °C 6,4 km/h (2 Bft)
17.03.2017 21:15 11,5 °C 11,6 °C 70 % 1013,3 hPa 0,0 mm 7,0 km/h (2 Bft) NW 315 ° 0 min 0,000 mm 0,0 UV-I 0 W/m² 6,2 °C 11,5 °C 12,9 km/h (3 Bft)
17.03.2017 21:16 11,3 °C 11,5 °C 71 % 1013,3 hPa 0,0 mm 4,1 km/h (1 Bft) NW 311 ° 0 min 0,000 mm 0,0 UV-I 0 W/m² 6,2 °C 11,3 °C 8,0 km/h (2 Bft)
17.03.2017 21:17 11,3 °C 11,3 °C 71 % 1013,4 hPa 0,0 mm 2,8 km/h (1 Bft) W-NW 299 ° 0 min 0,000 mm 0,0 UV-I 0 W/m² 6,2 °C 11,3 °C 4,8 km/h (1 Bft)
17.03.2017 21:18 11,1 °C 11,3 °C 72 % 1013,4 hPa 0,0 mm 3,1 km/h (1 Bft) N-NW 340 ° 0 min 0,000 mm 0,0 UV-I 0 W/m² 6,2 °C 11,1 °C 4,8 km/h (1 Bft)
17.03.2017 21:19 11,1 °C 11,2 °C 73 % 1013,4 hPa 0,0 mm 3,3 km/h (1 Bft) W 278 ° 0 min 0,000 mm 0,0 UV-I 0 W/m² 6,4 °C 11,1 °C 4,8 km/h (1 Bft)
17.03.2017 21:20 11,0 °C 11,1 °C 73 % 1013,4 hPa 0,0 mm 2,9 km/h (1 Bft) NW 317 ° 0 min 0,000 mm 0,0 UV-I 0 W/m² 6,4 °C 11,0 °C 6,4 km/h (2 Bft)
17.03.2017 21:21 10,9 °C 11,0 °C 73 % 1013,4 hPa 0,0 mm 5,3 km/h (1 Bft) W-SW 254 ° 0 min 0,000 mm 0,0 UV-I 0 W/m² 6,3 °C 10,9 °C 8,0 km/h (2 Bft)
17.03.2017 21:22 10,9 °C 10,9 °C 73 % 1013,4 hPa 0,0 mm 7,6 km/h (2 Bft) W-NW 282 ° 0 min 0,000 mm 0,0 UV-I 0 W/m² 6,3 °C 10,9 °C 11,3 km/h (2 Bft)
17.03.2017 21:23 10,9 °C 10,9 °C 73 % 1013,4 hPa 0,0 mm 6,2 km/h (2 Bft) W 272 ° 0 min 0,000 mm 0,0 UV-I 0 W/m² 6,3 °C 10,9 °C 11,3 km/h (2 Bft)
17.03.2017 21:24 10,8 °C 10,9 °C 74 % 1013,4 hPa 0,0 mm 3,6 km/h (1 Bft) W-NW 283 ° 0 min 0,000 mm 0,0 UV-I 0 W/m² 6,4 °C 10,8 °C 11,3 km/h (2 Bft)
17.03.2017 21:25 10,8 °C 10,8 °C 74 % 1013,3 hPa 0,0 mm 3,1 km/h (1 Bft) W-NW 286 ° 0 min 0,000 mm 0,0 UV-I 0 W/m² 6,4 °C 10,8 °C 4,8 km/h (1 Bft)
17.03.2017 21:26 10,7 °C 10,8 °C 74 % 1013,4 hPa 0,0 mm 6,0 km/h (2 Bft) W-NW 289 ° 0 min 0,000 mm 0,0 UV-I 0 W/m² 6,3 °C 10,7 °C 9,7 km/h (2 Bft)
17.03.2017 21:27 10,7 °C 10,7 °C 74 % 1013,3 hPa 0,0 mm 7,0 km/h (2 Bft) W-NW 303 ° 0 min 0,000 mm 0,0 UV-I 0 W/m² 6,3 °C 10,7 °C 11,3 km/h (2 Bft)
17.03.2017 21:28 10,6 °C 10,7 °C 75 % 1013,4 hPa 0,0 mm 5,3 km/h (1 Bft) NW 319 ° 0 min 0,000 mm 0,0 UV-I 0 W/m² 6,4 °C 10,6 °C 11,3 km/h (2 Bft)
17.03.2017 21:29 10,6 °C 10,7 °C 75 % 1013,3 hPa 0,0 mm 2,8 km/h (1 Bft) NW 311 ° 0 min 0,000 mm 0,0 UV-I 0 W/m² 6,4 °C 10,6 °C 4,8 km/h (1 Bft)
17.03.2017 21:30 10,6 °C 10,6 °C 75 % 1013,4 hPa 0,0 mm 5,3 km/h (1 Bft) W-NW 290 ° 0 min 0,000 mm 0,0 UV-I 0 W/m² 6,4 °C 10,6 °C 9,7 km/h (2 Bft)
17.03.2017 21:31 10,6 °C 10,6 °C 75 % 1013,5 hPa 0,0 mm 2,7 km/h (1 Bft) W-NW 297 ° 0 min 0,000 mm 0,0 UV-I 0 W/m² 6,4 °C 10,6 °C 4,8 km/h (1 Bft)
17.03.2017 21:32 10,5 °C 10,6 °C 75 % 1013,3 hPa 0,0 mm 3,4 km/h (1 Bft) N-NW 336 ° 0 min 0,000 mm 0,0 UV-I 0 W/m² 6,3 °C 10,5 °C 6,4 km/h (2 Bft)
17.03.2017 21:33 10,4 °C 10,5 °C 75 % 1013,3 hPa 0,0 mm 4,4 km/h (1 Bft) W 270 ° 0 min 0,000 mm 0,0 UV-I 0 W/m² 6,2 °C 10,4 °C 9,7 km/h (2 Bft)
17.03.2017 21:34 10,4 °C 10,4 °C 76 % 1013,4 hPa 0,0 mm 6,6 km/h (2 Bft) W-NW 286 ° 0 min 0,000 mm 0,0 UV-I 0 W/m² 6,4 °C 10,4 °C 9,7 km/h (2 Bft)
17.03.2017 21:35 10,3 °C 10,4 °C 76 % 1013,4 hPa 0,0 mm 6,8 km/h (2 Bft) NW 306 ° 0 min 0,000 mm 0,0 UV-I 0 W/m² 6,3 °C 10,3 °C 11,3 km/h (2 Bft)
17.03.2017 21:36 10,3 °C 10,3 °C 76 % 1013,4 hPa 0,0 mm 3,9 km/h (1 Bft) NW 317 ° 0 min 0,000 mm 0,0 UV-I 0 W/m² 6,3 °C 10,3 °C 6,4 km/h (2 Bft)
17.03.2017 21:37 10,3 °C 10,3 °C 76 % 1013,3 hPa 0,0 mm 2,8 km/h (1 Bft) W 266 ° 0 min 0,000 mm 0,0 UV-I 0 W/m² 6,3 °C 10,3 °C 6,4 km/h (2 Bft)
17.03.2017 21:38 10,3 °C 10,3 °C 76 % 1013,3 hPa 0,0 mm 3,2 km/h (1 Bft) NW 312 ° 0 min 0,000 mm 0,0 UV-I 0 W/m² 6,3 °C 10,3 °C 4,8 km/h (1 Bft)
17.03.2017 21:39 10,2 °C 10,3 °C 77 % 1013,3 hPa 0,0 mm 4,1 km/h (1 Bft) W-NW 288 ° 0 min 0,000 mm 0,0 UV-I 0 W/m² 6,4 °C 10,2 °C 6,4 km/h (2 Bft)
17.03.2017 21:40 10,2 °C 10,2 °C 77 % 1013,4 hPa 0,0 mm 4,4 km/h (1 Bft) W-NW 288 ° 0 min 0,000 mm 0,0 UV-I 0 W/m² 6,4 °C 10,2 °C 6,4 km/h (2 Bft)
17.03.2017 21:41 10,1 °C 10,2 °C 77 % 1013,4 hPa 0,0 mm 3,4 km/h (1 Bft) NW 311 ° 0 min 0,000 mm 0,0 UV-I 0 W/m² 6,3 °C 10,1 °C 4,8 km/h (1 Bft)
17.03.2017 21:42 10,1 °C 10,1 °C 77 % 1013,4 hPa 0,0 mm 4,8 km/h (1 Bft) NW 307 ° 0 min 0,000 mm 0,0 UV-I 0 W/m² 6,3 °C 10,1 °C 6,4 km/h (2 Bft)
17.03.2017 21:43 10,0 °C 10,1 °C 77 % 1013,4 hPa 0,0 mm 2,8 km/h (1 Bft) W 278 ° 0 min 0,000 mm 0,0 UV-I 0 W/m² 6,2 °C 10,0 °C 11,3 km/h (2 Bft)
17.03.2017 21:44 10,0 °C 10,0 °C 77 % 1013,4 hPa 0,0 mm 11,5 km/h (2 Bft) W 265 ° 0 min 0,000 mm 0,0 UV-I 0 W/m² 6,2 °C 8,4 °C 16,1 km/h (3 Bft)
17.03.2017 21:45 10,0 °C 10,0 °C 78 % 1013,5 hPa 0,0 mm 6,4 km/h (2 Bft) N-NW 348 ° 0 min 0,000 mm 0,0 UV-I 0 W/m² 6,3 °C 9,4 °C 11,3 km/h (2 Bft)
17.03.2017 21:46 10,0 °C 10,0 °C 78 % 1013,4 hPa 0,0 mm 3,8 km/h (1 Bft) W-NW 301 ° 0 min 0,000 mm 0,0 UV-I 0 W/m² 6,3 °C 10,0 °C 6,4 km/h (2 Bft)
17.03.2017 21:47 10,0 °C 10,0 °C 78 % 1013,4 hPa 0,0 mm 5,5 km/h (1 Bft) NW 305 ° 0 min 0,000 mm 0,0 UV-I 0 W/m² 6,3 °C 9,6 °C 9,7 km/h (2 Bft)
17.03.2017 21:48 10,0 °C 10,0 °C 78 % 1013,4 hPa 0,0 mm 6,1 km/h (2 Bft) W 281 ° 0 min 0,000 mm 0,0 UV-I 0 W/m² 6,3 °C 9,4 °C 9,7 km/h (2 Bft)
17.03.2017 21:49 10,0 °C 10,0 °C 78 % 1013,4 hPa 0,0 mm 3,9 km/h (1 Bft) W-NW 293 ° 0 min 0,000 mm 0,0 UV-I 0 W/m² 6,3 °C 10,0 °C 6,4 km/h (2 Bft)
17.03.2017 21:50 10,0 °C 10,1 °C 78 % 1013,4 hPa 0,0 mm 3,9 km/h (1 Bft) W-NW 296 ° 0 min 0,000 mm 0,0 UV-I 0 W/m² 6,3 °C 10,0 °C 6,4 km/h (2 Bft)
17.03.2017 21:51 10,1 °C 10,1 °C 78 % 1013,4 hPa 0,0 mm 4,2 km/h (1 Bft) W-NW 290 ° 0 min 0,000 mm 0,0 UV-I 0 W/m² 6,4 °C 10,1 °C 4,8 km/h (1 Bft)
17.03.2017 21:52 10,1 °C 10,1 °C 78 % 1013,4 hPa 0,0 mm 4,8 km/h (1 Bft) W-NW 282 ° 0 min 0,000 mm 0,0 UV-I 0 W/m² 6,4 °C 10,1 °C 6,4 km/h (2 Bft)
17.03.2017 21:53 10,1 °C 10,1 °C 78 % 1013,4 hPa 0,0 mm 5,2 km/h (1 Bft) NW 305 ° 0 min 0,000 mm 0,0 UV-I 0 W/m² 6,4 °C 10,1 °C 8,0 km/h (2 Bft)
17.03.2017 21:54 10,1 °C 10,1 °C 78 % 1013,3 hPa 0,0 mm 3,0 km/h (1 Bft) W-NW 302 ° 0 min 0,000 mm 0,0 UV-I 0 W/m² 6,4 °C 10,1 °C 4,8 km/h (1 Bft)
17.03.2017 21:55 10,1 °C 10,1 °C 77 % 1013,3 hPa 0,0 mm 5,8 km/h (2 Bft) W-SW 250 ° 0 min 0,000 mm 0,0 UV-I 0 W/m² 6,3 °C 10,1 °C 11,3 km/h (2 Bft)
17.03.2017 21:56 10,0 °C 10,1 °C 77 % 1013,2 hPa 0,0 mm 4,0 km/h (1 Bft) W 271 ° 0 min 0,000 mm 0,0 UV-I 0 W/m² 6,2 °C 10,0 °C 6,4 km/h (2 Bft)
17.03.2017 21:57 10,0 °C 10,0 °C 77 % 1013,2 hPa 0,0 mm 6,0 km/h (2 Bft) W-NW 291 ° 0 min 0,000 mm 0,0 UV-I 0 W/m² 6,2 °C 9,5 °C 11,3 km/h (2 Bft)
17.03.2017 21:58 10,0 °C 10,0 °C 78 % 1013,3 hPa 0,0 mm 8,5 km/h (2 Bft) W 263 ° 0 min 0,000 mm 0,0 UV-I 0 W/m² 6,3 °C 8,9 °C 12,9 km/h (3 Bft)
17.03.2017 21:59 10,1 °C 10,1 °C 77 % 1013,2 hPa 0,0 mm 7,0 km/h (2 Bft) W 263 ° 0 min 0,000 mm 0,0 UV-I 0 W/m² 6,3 °C 10,1 °C 9,7 km/h (2 Bft)
17.03.2017 22:00 10,1 °C 10,1 °C 77 % 1013,2 hPa 0,0 mm 5,0 km/h (1 Bft) W 281 ° 0 min 0,000 mm 0,0 UV-I 0 W/m² 6,3 °C 10,1 °C 6,4 km/h (2 Bft)
17.03.2017 22:01 10,1 °C 10,1 °C 77 % 1013,2 hPa 0,0 mm 4,2 km/h (1 Bft) W 266 ° 0 min 0,025 mm 0,0 UV-I 0 W/m² 6,3 °C 10,1 °C 9,7 km/h (2 Bft)
17.03.2017 22:02 10,1 °C 10,1 °C 77 % 1013,2 hPa 0,0 mm 6,4 km/h (2 Bft) W-NW 300 ° 0 min 0,000 mm 0,0 UV-I 0 W/m² 6,3 °C 10,1 °C 11,3 km/h (2 Bft)
17.03.2017 22:03 10,1 °C 10,1 °C 77 % 1013,2 hPa 0,0 mm 6,4 km/h (2 Bft) W-NW 298 ° 0 min 0,000 mm 0,0 UV-I 0 W/m² 6,3 °C 10,1 °C 11,3 km/h (2 Bft)
17.03.2017 22:04 10,2 °C 10,2 °C 76 % 1013,2 hPa 0,0 mm 5,6 km/h (1 Bft) W 279 ° 0 min 0,000 mm 0,0 UV-I 0 W/m² 6,2 °C 10,2 °C 6,4 km/h (2 Bft)
17.03.2017 22:05 10,2 °C 10,2 °C 76 % 1013,3 hPa 0,0 mm 3,8 km/h (1 Bft) W 281 ° 0 min 0,000 mm 0,0 UV-I 0 W/m² 6,2 °C 10,2 °C 6,4 km/h (2 Bft)
17.03.2017 22:06 10,2 °C 10,2 °C 76 % 1013,3 hPa 0,0 mm 4,8 km/h (1 Bft) W-SW 250 ° 0 min 0,000 mm 0,0 UV-I 0 W/m² 6,2 °C 10,2 °C 6,4 km/h (2 Bft)
17.03.2017 22:07 10,2 °C 10,2 °C 76 % 1013,2 hPa 0,0 mm 6,9 km/h (2 Bft) W 266 ° 0 min 0,000 mm 0,0 UV-I 0 W/m² 6,2 °C 10,2 °C 11,3 km/h (2 Bft)
17.03.2017 22:08 10,2 °C 10,2 °C 76 % 1013,2 hPa 0,0 mm 5,0 km/h (1 Bft) W 273 ° 0 min 0,000 mm 0,0 UV-I 0 W/m² 6,2 °C 10,2 °C 8,0 km/h (2 Bft)
17.03.2017 22:09 10,2 °C 10,2 °C 76 % 1013,2 hPa 0,0 mm 5,8 km/h (2 Bft) W-NW 292 ° 0 min 0,000 mm 0,0 UV-I 0 W/m² 6,2 °C 10,2 °C 12,9 km/h (3 Bft)
17.03.2017 22:10 10,2 °C 10,2 °C 76 % 1013,2 hPa 0,0 mm 6,1 km/h (2 Bft) W 263 ° 0 min 0,000 mm 0,0 UV-I 0 W/m² 6,2 °C 10,2 °C 14,5 km/h (3 Bft)
17.03.2017 22:11 10,2 °C 10,2 °C 76 % 1013,2 hPa 0,0 mm 8,0 km/h (2 Bft) W 262 ° 0 min 0,000 mm 0,0 UV-I 0 W/m² 6,2 °C 10,2 °C 11,3 km/h (2 Bft)
17.03.2017 22:12 10,2 °C 10,3 °C 76 % 1013,2 hPa 0,0 mm 9,1 km/h (2 Bft) W-NW 282 ° 0 min 0,000 mm 0,0 UV-I 0 W/m² 6,2 °C 10,2 °C 12,9 km/h (3 Bft)
17.03.2017 22:13 10,3 °C 10,3 °C 76 % 1013,3 hPa 0,0 mm 6,4 km/h (2 Bft) W 277 ° 0 min 0,000 mm 0,0 UV-I 0 W/m² 6,3 °C 10,3 °C 9,7 km/h (2 Bft)
17.03.2017 22:14 10,3 °C 10,3 °C 76 % 1013,2 hPa 0,0 mm 5,1 km/h (1 Bft) W 272 ° 0 min 0,000 mm 0,0 UV-I 0 W/m² 6,3 °C 10,3 °C 9,7 km/h (2 Bft)
17.03.2017 22:15 10,3 °C 10,3 °C 76 % 1013,2 hPa 0,0 mm 7,5 km/h (2 Bft) W-NW 285 ° 0 min 0,000 mm 0,0 UV-I 0 W/m² 6,3 °C 10,3 °C 11,3 km/h (2 Bft)
17.03.2017 22:16 10,3 °C 10,3 °C 76 % 1013,3 hPa 0,0 mm 3,8 km/h (1 Bft) W-NW 284 ° 0 min 0,000 mm 0,0 UV-I 0 W/m² 6,3 °C 10,3 °C 4,8 km/h (1 Bft)
17.03.2017 22:17 10,3 °C 10,3 °C 76 % 1013,3 hPa 0,0 mm 5,4 km/h (1 Bft) W 267 ° 0 min 0,000 mm 0,0 UV-I 0 W/m² 6,3 °C 10,3 °C 9,7 km/h (2 Bft)
17.03.2017 22:18 10,3 °C 10,3 °C 76 % 1013,3 hPa 0,0 mm 5,0 km/h (1 Bft) W-NW 287 ° 0 min 0,000 mm 0,0 UV-I 0 W/m² 6,3 °C 10,3 °C 9,7 km/h (2 Bft)
17.03.2017 22:19 10,3 °C 10,3 °C 76 % 1013,3 hPa 0,0 mm 5,4 km/h (1 Bft) W 280 ° 0 min 0,000 mm 0,0 UV-I 0 W/m² 6,3 °C 10,3 °C 6,4 km/h (2 Bft)
17.03.2017 22:20 10,3 °C 10,3 °C 76 % 1013,3 hPa 0,0 mm 4,5 km/h (1 Bft) W-NW 293 ° 0 min 0,000 mm 0,0 UV-I 0 W/m² 6,3 °C 10,3 °C 6,4 km/h (2 Bft)
17.03.2017 22:21 10,2 °C 10,3 °C 76 % 1013,3 hPa 0,0 mm 5,2 km/h (1 Bft) W-SW 251 ° 0 min 0,000 mm 0,0 UV-I 0 W/m² 6,2 °C 10,2 °C 8,0 km/h (2 Bft)
17.03.2017 22:22 10,2 °C 10,2 °C 76 % 1013,3 hPa 0,0 mm 5,2 km/h (1 Bft) W-NW 288 ° 0 min 0,000 mm 0,0 UV-I 0 W/m² 6,2 °C 10,2 °C 9,7 km/h (2 Bft)
17.03.2017 22:23 10,2 °C 10,2 °C 76 % 1013,3 hPa 0,0 mm 4,1 km/h (1 Bft) W-SW 258 ° 0 min 0,000 mm 0,0 UV-I 0 W/m² 6,2 °C 10,2 °C 9,7 km/h (2 Bft)
17.03.2017 22:24 10,1 °C 10,2 °C 76 % 1013,3 hPa 0,0 mm 5,5 km/h (1 Bft) W 273 ° 0 min 0,000 mm 0,0 UV-I 0 W/m² 6,1 °C 10,1 °C 11,3 km/h (2 Bft)
17.03.2017 22:25 10,2 °C 10,2 °C 76 % 1013,3 hPa 0,0 mm 8,0 km/h (2 Bft) W-NW 292 ° 0 min 0,000 mm 0,0 UV-I 0 W/m² 6,2 °C 10,2 °C 11,3 km/h (2 Bft)
17.03.2017 22:26 10,1 °C 10,2 °C 76 % 1013,4 hPa 0,0 mm 5,2 km/h (1 Bft) W 263 ° 0 min 0,000 mm 0,0 UV-I 0 W/m² 6,1 °C 10,1 °C 8,0 km/h (2 Bft)
17.03.2017 22:27 10,1 °C 10,2 °C 77 % 1013,3 hPa 0,0 mm 4,8 km/h (1 Bft) W 278 ° 0 min 0,000 mm 0,0 UV-I 0 W/m² 6,3 °C 10,1 °C 9,7 km/h (2 Bft)
17.03.2017 22:28 10,2 °C 10,2 °C 77 % 1013,3 hPa 0,0 mm 3,3 km/h (1 Bft) W 278 ° 0 min 0,000 mm 0,0 UV-I 0 W/m² 6,4 °C 10,2 °C 4,8 km/h (1 Bft)
17.03.2017 22:29 10,2 °C 10,2 °C 77 % 1013,3 hPa 0,0 mm 3,3 km/h (1 Bft) W 271 ° 0 min 0,000 mm 0,0 UV-I 0 W/m² 6,4 °C 10,2 °C 6,4 km/h (2 Bft)
17.03.2017 22:30 10,2 °C 10,2 °C 76 % 1013,4 hPa 0,0 mm 6,3 km/h (2 Bft) W 277 ° 0 min 0,000 mm 0,0 UV-I 0 W/m² 6,2 °C 10,2 °C 11,3 km/h (2 Bft)
17.03.2017 22:31 10,2 °C 10,2 °C 76 % 1013,3 hPa 0,0 mm 4,9 km/h (1 Bft) W 277 ° 0 min 0,000 mm 0,0 UV-I 0 W/m² 6,2 °C 10,2 °C 9,7 km/h (2 Bft)
17.03.2017 22:32 10,1 °C 10,2 °C 76 % 1013,3 hPa 0,0 mm 3,1 km/h (1 Bft) W 276 ° 0 min 0,000 mm 0,0 UV-I 0 W/m² 6,1 °C 10,1 °C 4,8 km/h (1 Bft)
17.03.2017 22:33 10,1 °C 10,1 °C 77 % 1013,3 hPa 0,0 mm 1,6 km/h (1 Bft) W 276 ° 0 min 0,000 mm 0,0 UV-I 0 W/m² 6,3 °C 10,1 °C 3,2 km/h (1 Bft)
17.03.2017 22:34 10,0 °C 10,1 °C 77 % 1013,3 hPa 0,0 mm 1,5 km/h (1 Bft) W 276 ° 0 min 0,000 mm 0,0 UV-I 0 W/m² 6,2 °C 10,0 °C 3,2 km/h (1 Bft)
17.03.2017 22:35 10,0 °C 10,1 °C 77 % 1013,2 hPa 0,0 mm 2,2 km/h (1 Bft) W 276 ° 0 min 0,000 mm 0,0 UV-I 0 W/m² 6,2 °C 10,0 °C 4,8 km/h (1 Bft)
17.03.2017 22:36 9,9 °C 10,0 °C 77 % 1013,2 hPa 0,0 mm 3,1 km/h (1 Bft) W-NW 295 ° 0 min 0,000 mm 0,0 UV-I 0 W/m² 6,1 °C 9,9 °C 4,8 km/h (1 Bft)
17.03.2017 22:37 9,9 °C 9,9 °C 77 % 1013,2 hPa 0,0 mm 2,3 km/h (1 Bft) W-NW 286 ° 0 min 0,000 mm 0,0 UV-I 0 W/m² 6,1 °C 9,9 °C 4,8 km/h (1 Bft)
17.03.2017 22:38 9,8 °C 9,9 °C 77 % 1013,2 hPa 0,0 mm 3,2 km/h (1 Bft) W-NW 298 ° 0 min 0,000 mm 0,0 UV-I 0 W/m² 6,0 °C 9,8 °C 4,8 km/h (1 Bft)
17.03.2017 22:39 9,8 °C 9,8 °C 77 % 1013,2 hPa 0,0 mm 2,9 km/h (1 Bft) W-NW 286 ° 0 min 0,000 mm 0,0 UV-I 0 W/m² 6,0 °C 9,8 °C 4,8 km/h (1 Bft)
17.03.2017 22:40 9,7 °C 9,8 °C 78 % 1013,2 hPa 0,0 mm 2,4 km/h (1 Bft) W-NW 286 ° 0 min 0,000 mm 0,0 UV-I 0 W/m² 6,1 °C 9,7 °C 3,2 km/h (1 Bft)
17.03.2017 22:41 9,7 °C 9,7 °C 78 % 1013,2 hPa 0,0 mm 3,7 km/h (1 Bft) W 278 ° 0 min 0,000 mm 0,0 UV-I 0 W/m² 6,1 °C 9,7 °C 4,8 km/h (1 Bft)
17.03.2017 22:42 9,7 °C 9,7 °C 78 % 1013,2 hPa 0,0 mm 5,8 km/h (2 Bft) W-SW 257 ° 0 min 0,000 mm 0,0 UV-I 0 W/m² 6,1 °C 9,2 °C 9,7 km/h (2 Bft)
17.03.2017 22:43 9,7 °C 9,7 °C 78 % 1013,2 hPa 0,0 mm 4,8 km/h (1 Bft) W-SW 257 ° 0 min 0,000 mm 0,0 UV-I 0 W/m² 6,1 °C 9,5 °C 6,4 km/h (2 Bft)
17.03.2017 22:44 9,7 °C 9,7 °C 78 % 1013,2 hPa 0,0 mm 3,3 km/h (1 Bft) W-SW 257 ° 0 min 0,000 mm 0,0 UV-I 0 W/m² 6,1 °C 9,7 °C 4,8 km/h (1 Bft)
17.03.2017 22:45 9,7 °C 9,7 °C 78 % 1013,3 hPa 0,0 mm 3,2 km/h (1 Bft) W-SW 250 ° 0 min 0,000 mm 0,0 UV-I 0 W/m² 6,1 °C 9,7 °C 6,4 km/h (2 Bft)
17.03.2017 22:46 9,7 °C 9,7 °C 78 % 1013,3 hPa 0,0 mm 3,4 km/h (1 Bft) W-SW 249 ° 0 min 0,000 mm 0,0 UV-I 0 W/m² 6,1 °C 9,7 °C 4,8 km/h (1 Bft)
17.03.2017 22:47 9,7 °C 9,7 °C 78 % 1013,2 hPa 0,0 mm 5,9 km/h (2 Bft) W-SW 248 ° 0 min 0,000 mm 0,0 UV-I 0 W/m² 6,1 °C 9,2 °C 8,0 km/h (2 Bft)
17.03.2017 22:48 9,7 °C 9,7 °C 78 % 1013,1 hPa 0,0 mm 4,4 km/h (1 Bft) W 260 ° 0 min 0,000 mm 0,0 UV-I 0 W/m² 6,1 °C 9,7 °C 6,4 km/h (2 Bft)
17.03.2017 22:49 9,7 °C 9,7 °C 78 % 1013,2 hPa 0,0 mm 3,4 km/h (1 Bft) W 259 ° 0 min 0,000 mm 0,0 UV-I 0 W/m² 6,1 °C 9,7 °C 4,8 km/h (1 Bft)
17.03.2017 22:50 9,7 °C 9,7 °C 78 % 1013,2 hPa 0,0 mm 4,3 km/h (1 Bft) W 259 ° 0 min 0,000 mm 0,0 UV-I 0 W/m² 6,1 °C 9,7 °C 4,8 km/h (1 Bft)
17.03.2017 22:51 9,7 °C 9,7 °C 78 % 1013,2 hPa 0,0 mm 3,6 km/h (1 Bft) W 259 ° 0 min 0,000 mm 0,0 UV-I 0 W/m² 6,1 °C 9,7 °C 6,4 km/h (2 Bft)
17.03.2017 22:52 9,7 °C 9,7 °C 78 % 1013,2 hPa 0,0 mm 4,7 km/h (1 Bft) W 261 ° 0 min 0,000 mm 0,0 UV-I 0 W/m² 6,1 °C 9,5 °C 6,4 km/h (2 Bft)
17.03.2017 22:53 9,7 °C 9,7 °C 78 % 1013,3 hPa 0,0 mm 3,9 km/h (1 Bft) W 261 ° 0 min 0,000 mm 0,0 UV-I 0 W/m² 6,1 °C 9,7 °C 4,8 km/h (1 Bft)
17.03.2017 22:54 9,7 °C 9,7 °C 79 % 1013,2 hPa 0,0 mm 3,4 km/h (1 Bft) W 261 ° 0 min 0,000 mm 0,0 UV-I 0 W/m² 6,2 °C 9,7 °C 4,8 km/h (1 Bft)
17.03.2017 22:55 9,7 °C 9,7 °C 78 % 1013,2 hPa 0,0 mm 2,9 km/h (1 Bft) W 260 ° 0 min 0,000 mm 0,0 UV-I 0 W/m² 6,1 °C 9,7 °C 4,8 km/h (1 Bft)
17.03.2017 22:56 9,7 °C 9,7 °C 78 % 1013,3 hPa 0,0 mm 4,6 km/h (1 Bft) W-SW 244 ° 0 min 0,000 mm 0,0 UV-I 0 W/m² 6,1 °C 9,5 °C 6,4 km/h (2 Bft)
17.03.2017 22:57 9,7 °C 9,7 °C 78 % 1013,2 hPa 0,0 mm 7,7 km/h (2 Bft) W-SW 244 ° 0 min 0,000 mm 0,0 UV-I 0 W/m² 6,1 °C 8,7 °C 11,3 km/h (2 Bft)
17.03.2017 22:58 9,7 °C 9,7 °C 78 % 1013,3 hPa 0,0 mm 5,0 km/h (1 Bft) W-SW 252 ° 0 min 0,000 mm 0,0 UV-I 0 W/m² 6,1 °C 9,4 °C 12,9 km/h (3 Bft)
17.03.2017 22:59 9,7 °C 9,7 °C 78 % 1013,3 hPa 0,0 mm 6,8 km/h (2 Bft) W-SW 246 ° 0 min 0,000 mm 0,0 UV-I 0 W/m² 6,1 °C 8,9 °C 12,9 km/h (3 Bft)
17.03.2017 23:00 9,7 °C 9,7 °C 78 % 1013,3 hPa 0,0 mm 4,4 km/h (1 Bft) SW 235 ° 0 min 0,000 mm 0,0 UV-I 0 W/m² 6,1 °C 9,7 °C 6,4 km/h (2 Bft)
17.03.2017 23:01 9,7 °C 9,7 °C 78 % 1013,3 hPa 0,0 mm 6,3 km/h (2 Bft) W 275 ° 0 min 0,025 mm 0,0 UV-I 0 W/m² 6,1 °C 9,0 °C 9,7 km/h (2 Bft)
17.03.2017 23:02 9,6 °C 9,7 °C 78 % 1013,3 hPa 0,0 mm 6,1 km/h (2 Bft) W 267 ° 0 min 0,000 mm 0,0 UV-I 0 W/m² 6,0 °C 9,0 °C 12,9 km/h (3 Bft)
17.03.2017 23:03 9,6 °C 9,6 °C 79 % 1013,2 hPa 0,0 mm 4,4 km/h (1 Bft) W-SW 245 ° 0 min 0,000 mm 0,0 UV-I 0 W/m² 6,1 °C 9,6 °C 8,0 km/h (2 Bft)
17.03.2017 23:04 9,6 °C 9,6 °C 79 % 1013,3 hPa 0,0 mm 7,5 km/h (2 Bft) W-SW 251 ° 0 min 0,000 mm 0,0 UV-I 0 W/m² 6,1 °C 8,6 °C 9,7 km/h (2 Bft)
17.03.2017 23:05 9,6 °C 9,6 °C 79 % 1013,3 hPa 0,0 mm 9,2 km/h (2 Bft) W-SW 256 ° 0 min 0,000 mm 0,0 UV-I 0 W/m² 6,1 °C 8,3 °C 17,7 km/h (3 Bft)
17.03.2017 23:06 9,7 °C 9,7 °C 79 % 1013,4 hPa 0,0 mm 9,9 km/h (2 Bft) SW 236 ° 0 min 0,000 mm 0,0 UV-I 0 W/m² 6,2 °C 8,3 °C 16,1 km/h (3 Bft)
17.03.2017 23:07 9,7 °C 9,7 °C 79 % 1013,3 hPa 0,0 mm 6,7 km/h (2 Bft) W-SW 247 ° 0 min 0,000 mm 0,0 UV-I 0 W/m² 6,2 °C 8,9 °C 9,7 km/h (2 Bft)
17.03.2017 23:08 9,7 °C 9,7 °C 78 % 1013,2 hPa 0,0 mm 4,3 km/h (1 Bft) W-SW 242 ° 0 min 0,000 mm 0,0 UV-I 0 W/m² 6,1 °C 9,7 °C 6,4 km/h (2 Bft)
17.03.2017 23:09 9,7 °C 9,7 °C 78 % 1013,2 hPa 0,0 mm 4,0 km/h (1 Bft) W-SW 245 ° 0 min 0,000 mm 0,0 UV-I 0 W/m² 6,1 °C 9,7 °C 6,4 km/h (2 Bft)
17.03.2017 23:10 9,7 °C 9,7 °C 78 % 1013,2 hPa 0,0 mm 2,1 km/h (1 Bft) W-SW 244 ° 0 min 0,000 mm 0,0 UV-I 0 W/m² 6,1 °C 9,7 °C 4,8 km/h (1 Bft)
17.03.2017 23:11 9,7 °C 9,7 °C 78 % 1013,3 hPa 0,0 mm 4,3 km/h (1 Bft) S-SW 207 ° 0 min 0,000 mm 0,0 UV-I 0 W/m² 6,1 °C 9,7 °C 6,4 km/h (2 Bft)
17.03.2017 23:12 9,7 °C 9,7 °C 78 % 1013,2 hPa 0,0 mm 6,9 km/h (2 Bft) W 259 ° 0 min 0,000 mm 0,0 UV-I 0 W/m² 6,1 °C 8,9 °C 9,7 km/h (2 Bft)
17.03.2017 23:13 9,7 °C 9,7 °C 78 % 1013,1 hPa 0,0 mm 5,7 km/h (1 Bft) W-SW 245 ° 0 min 0,000 mm 0,0 UV-I 0 W/m² 6,1 °C 9,2 °C 8,0 km/h (2 Bft)
17.03.2017 23:14 9,7 °C 9,7 °C 78 % 1013,2 hPa 0,0 mm 4,7 km/h (1 Bft) S-SW 211 ° 0 min 0,000 mm 0,0 UV-I 0 W/m² 6,1 °C 9,5 °C 8,0 km/h (2 Bft)
17.03.2017 23:15 9,7 °C 9,7 °C 78 % 1013,1 hPa 0,0 mm 5,0 km/h (1 Bft) W-SW 240 ° 0 min 0,000 mm 0,0 UV-I 0 W/m² 6,1 °C 9,4 °C 9,7 km/h (2 Bft)
17.03.2017 23:16 9,7 °C 9,7 °C 78 % 1013,1 hPa 0,0 mm 8,7 km/h (2 Bft) W-NW 284 ° 0 min 0,000 mm 0,0 UV-I 0 W/m² 6,1 °C 8,5 °C 12,9 km/h (3 Bft)
17.03.2017 23:17 9,6 °C 9,7 °C 78 % 1013,1 hPa 0,0 mm 6,0 km/h (2 Bft) W 260 ° 0 min 0,000 mm 0,0 UV-I 0 W/m² 6,0 °C 9,0 °C 6,4 km/h (2 Bft)
17.03.2017 23:18 9,6 °C 9,6 °C 78 % 1013,1 hPa 0,0 mm 10,8 km/h (2 Bft) W 259 ° 0 min 0,000 mm 0,0 UV-I 0 W/m² 6,0 °C 8,0 °C 14,5 km/h (3 Bft)
17.03.2017 23:19 9,6 °C 9,6 °C 79 % 1013,1 hPa 0,0 mm 11,1 km/h (2 Bft) W 276 ° 0 min 0,000 mm 0,0 UV-I 0 W/m² 6,1 °C 8,0 °C 12,9 km/h (3 Bft)
17.03.2017 23:20 9,7 °C 9,7 °C 79 % 1013,1 hPa 0,0 mm 6,1 km/h (2 Bft) W 270 ° 0 min 0,000 mm 0,0 UV-I 0 W/m² 6,2 °C 9,1 °C 11,3 km/h (2 Bft)
17.03.2017 23:21 9,7 °C 9,7 °C 78 % 1013,1 hPa 0,0 mm 6,3 km/h (2 Bft) W 274 ° 0 min 0,000 mm 0,0 UV-I 0 W/m² 6,1 °C 9,0 °C 9,7 km/h (2 Bft)
17.03.2017 23:22 9,7 °C 9,7 °C 78 % 1013,1 hPa 0,0 mm 4,8 km/h (1 Bft) W-SW 244 ° 0 min 0,000 mm 0,0 UV-I 0 W/m² 6,1 °C 9,5 °C 6,4 km/h (2 Bft)
17.03.2017 23:23 9,7 °C 9,7 °C 78 % 1013,0 hPa 0,0 mm 10,2 km/h (2 Bft) W 277 ° 0 min 0,000 mm 0,0 UV-I 0 W/m² 6,1 °C 8,2 °C 14,5 km/h (3 Bft)
17.03.2017 23:24 9,7 °C 9,7 °C 78 % 1013,0 hPa 0,0 mm 10,6 km/h (2 Bft) SW 233 ° 0 min 0,000 mm 0,0 UV-I 0 W/m² 6,1 °C 8,2 °C 17,7 km/h (3 Bft)
17.03.2017 23:25 9,7 °C 9,7 °C 78 % 1013,0 hPa 0,0 mm 16,0 km/h (3 Bft) W-SW 244 ° 0 min 0,000 mm 0,0 UV-I 0 W/m² 6,1 °C 7,4 °C 19,3 km/h (3 Bft)
17.03.2017 23:26 9,7 °C 9,7 °C 78 % 1013,0 hPa 0,0 mm 13,7 km/h (3 Bft) W 263 ° 0 min 0,000 mm 0,0 UV-I 0 W/m² 6,1 °C 7,7 °C 17,7 km/h (3 Bft)
17.03.2017 23:27 9,7 °C 9,7 °C 78 % 1012,9 hPa 0,0 mm 9,0 km/h (2 Bft) W-SW 250 ° 0 min 0,000 mm 0,0 UV-I 0 W/m² 6,1 °C 8,5 °C 16,1 km/h (3 Bft)
17.03.2017 23:28 9,7 °C 9,7 °C 77 % 1013,0 hPa 0,0 mm 11,5 km/h (2 Bft) W 281 ° 0 min 0,000 mm 0,0 UV-I 0 W/m² 5,9 °C 8,0 °C 20,9 km/h (4 Bft)
17.03.2017 23:29 9,8 °C 9,8 °C 77 % 1013,0 hPa 0,0 mm 13,8 km/h (3 Bft) W-SW 249 ° 0 min 0,000 mm 0,0 UV-I 0 W/m² 6,0 °C 7,8 °C 17,7 km/h (3 Bft)
17.03.2017 23:30 9,8 °C 9,8 °C 77 % 1013,0 hPa 0,0 mm 8,5 km/h (2 Bft) W-SW 257 ° 0 min 0,000 mm 0,0 UV-I 0 W/m² 6,0 °C 8,7 °C 12,9 km/h (3 Bft)
17.03.2017 23:31 9,9 °C 9,9 °C 77 % 1012,9 hPa 0,0 mm 11,7 km/h (2 Bft) W-SW 256 ° 0 min 0,000 mm 0,0 UV-I 0 W/m² 6,1 °C 8,2 °C 16,1 km/h (3 Bft)
17.03.2017 23:32 9,8 °C 9,9 °C 77 % 1013,0 hPa 0,0 mm 12,2 km/h (2 Bft) W-NW 296 ° 0 min 0,000 mm 0,0 UV-I 0 W/m² 6,0 °C 8,0 °C 16,1 km/h (3 Bft)
17.03.2017 23:33 9,9 °C 9,9 °C 77 % 1013,0 hPa 0,0 mm 10,5 km/h (2 Bft) W 263 ° 0 min 0,000 mm 0,0 UV-I 0 W/m² 6,1 °C 8,4 °C 14,5 km/h (3 Bft)
17.03.2017 23:34 9,9 °C 9,9 °C 77 % 1012,9 hPa 0,0 mm 14,1 km/h (3 Bft) W 275 ° 0 min 0,000 mm 0,0 UV-I 0 W/m² 6,1 °C 7,9 °C 20,9 km/h (4 Bft)
17.03.2017 23:35 9,9 °C 9,9 °C 77 % 1012,9 hPa 0,0 mm 10,3 km/h (2 Bft) W-SW 253 ° 0 min 0,000 mm 0,0 UV-I 0 W/m² 6,1 °C 8,5 °C 14,5 km/h (3 Bft)
17.03.2017 23:36 9,9 °C 9,9 °C 77 % 1012,9 hPa 0,0 mm 16,1 km/h (3 Bft) W-NW 291 ° 0 min 0,000 mm 0,0 UV-I 0 W/m² 6,1 °C 7,7 °C 22,5 km/h (4 Bft)
17.03.2017 23:37 10,0 °C 10,0 °C 76 % 1012,9 hPa 0,0 mm 10,6 km/h (2 Bft) W-NW 289 ° 0 min 0,000 mm 0,0 UV-I 0 W/m² 6,0 °C 8,5 °C 16,1 km/h (3 Bft)
17.03.2017 23:38 10,0 °C 10,0 °C 76 % 1013,0 hPa 0,0 mm 13,3 km/h (3 Bft) W 277 ° 0 min 0,000 mm 0,0 UV-I 0 W/m² 6,0 °C 8,1 °C 24,1 km/h (4 Bft)
17.03.2017 23:39 10,1 °C 10,1 °C 76 % 1012,9 hPa 0,0 mm 19,9 km/h (4 Bft) W 273 ° 0 min 0,000 mm 0,0 UV-I 0 W/m² 6,1 °C 10,1 °C 24,1 km/h (4 Bft)
17.03.2017 23:40 10,1 °C 10,1 °C 76 % 1012,9 hPa 0,0 mm 15,0 km/h (3 Bft) W-SW 250 ° 0 min 0,000 mm 0,0 UV-I 0 W/m² 6,1 °C 10,1 °C 27,4 km/h (4 Bft)
17.03.2017 23:41 10,1 °C 10,1 °C 75 % 1012,9 hPa 0,0 mm 15,6 km/h (3 Bft) W-SW 246 ° 0 min 0,000 mm 0,0 UV-I 0 W/m² 5,9 °C 10,1 °C 19,3 km/h (3 Bft)
17.03.2017 23:42 10,2 °C 10,2 °C 75 % 1012,9 hPa 0,0 mm 14,9 km/h (3 Bft) W-SW 245 ° 0 min 0,000 mm 0,0 UV-I 0 W/m² 6,0 °C 10,2 °C 20,9 km/h (4 Bft)
17.03.2017 23:43 10,2 °C 10,2 °C 75 % 1012,9 hPa 0,0 mm 17,1 km/h (3 Bft) W-NW 291 ° 0 min 0,000 mm 0,0 UV-I 0 W/m² 6,0 °C 10,2 °C 20,9 km/h (4 Bft)
17.03.2017 23:44 10,3 °C 10,3 °C 75 % 1012,9 hPa 0,0 mm 13,4 km/h (3 Bft) W-SW 251 ° 0 min 0,000 mm 0,0 UV-I 0 W/m² 6,1 °C 10,3 °C 19,3 km/h (3 Bft)
17.03.2017 23:45 10,3 °C 10,3 °C 75 % 1012,9 hPa 0,0 mm 20,0 km/h (4 Bft) W 275 ° 0 min 0,000 mm 0,0 UV-I 0 W/m² 6,1 °C 10,3 °C 27,4 km/h (4 Bft)
17.03.2017 23:46 10,3 °C 10,3 °C 74 % 1012,8 hPa 0,0 mm 13,9 km/h (3 Bft) NW 306 ° 0 min 0,000 mm 0,0 UV-I 0 W/m² 5,9 °C 10,3 °C 19,3 km/h (3 Bft)
17.03.2017 23:47 10,3 °C 10,3 °C 74 % 1012,9 hPa 0,0 mm 17,8 km/h (3 Bft) W-SW 256 ° 0 min 0,000 mm 0,0 UV-I 0 W/m² 5,9 °C 10,3 °C 29,0 km/h (5 Bft)
17.03.2017 23:48 10,3 °C 10,3 °C 74 % 1012,9 hPa 0,0 mm 17,8 km/h (3 Bft) W-NW 290 ° 0 min 0,000 mm 0,0 UV-I 0 W/m² 5,9 °C 10,3 °C 25,7 km/h (4 Bft)
17.03.2017 23:49 10,4 °C 10,4 °C 74 % 1012,9 hPa 0,0 mm 18,6 km/h (3 Bft) W-NW 283 ° 0 min 0,000 mm 0,0 UV-I 0 W/m² 6,0 °C 10,4 °C 29,0 km/h (5 Bft)
17.03.2017 23:50 10,3 °C 10,4 °C 74 % 1013,0 hPa 0,0 mm 8,2 km/h (2 Bft) W-NW 300 ° 0 min 0,000 mm 0,0 UV-I 0 W/m² 5,9 °C 10,3 °C 12,9 km/h (3 Bft)
17.03.2017 23:51 10,4 °C 10,4 °C 74 % 1013,0 hPa 0,0 mm 11,4 km/h (2 Bft) W 265 ° 0 min 0,000 mm 0,0 UV-I 0 W/m² 6,0 °C 10,4 °C 19,3 km/h (3 Bft)
17.03.2017 23:52 10,3 °C 10,4 °C 74 % 1013,0 hPa 0,0 mm 16,3 km/h (3 Bft) W 261 ° 0 min 0,000 mm 0,0 UV-I 0 W/m² 5,9 °C 10,3 °C 20,9 km/h (4 Bft)
17.03.2017 23:53 10,3 °C 10,3 °C 74 % 1013,1 hPa 0,0 mm 16,0 km/h (3 Bft) W-NW 294 ° 0 min 0,000 mm 0,0 UV-I 0 W/m² 5,9 °C 10,3 °C 22,5 km/h (4 Bft)
17.03.2017 23:54 10,3 °C 10,3 °C 74 % 1013,0 hPa 0,0 mm 12,2 km/h (2 Bft) W 279 ° 0 min 0,000 mm 0,0 UV-I 0 W/m² 5,9 °C 10,3 °C 17,7 km/h (3 Bft)
17.03.2017 23:55 10,3 °C 10,3 °C 74 % 1013,0 hPa 0,0 mm 13,5 km/h (3 Bft) W 278 ° 0 min 0,000 mm 0,0 UV-I 0 W/m² 5,9 °C 10,3 °C 19,3 km/h (3 Bft)
17.03.2017 23:56 10,3 °C 10,3 °C 74 % 1012,9 hPa 0,0 mm 16,8 km/h (3 Bft) W 259 ° 0 min 0,000 mm 0,0 UV-I 0 W/m² 5,9 °C 10,3 °C 22,5 km/h (4 Bft)
17.03.2017 23:57 10,3 °C 10,3 °C 74 % 1013,0 hPa 0,0 mm 17,6 km/h (3 Bft) W 259 ° 0 min 0,000 mm 0,0 UV-I 0 W/m² 5,9 °C 10,3 °C 27,4 km/h (4 Bft)
17.03.2017 23:58 10,3 °C 10,3 °C 74 % 1012,8 hPa 0,0 mm 22,1 km/h (4 Bft) W-NW 298 ° 0 min 0,000 mm 0,0 UV-I 0 W/m² 5,9 °C 10,3 °C 29,0 km/h (5 Bft)
17.03.2017 23:59 10,3 °C 10,3 °C 74 % 1012,8 hPa 0,0 mm 17,6 km/h (3 Bft) W 269 ° 0 min 0,000 mm 0,0 UV-I 0 W/m² 5,9 °C 10,3 °C 25,7 km/h (4 Bft)
_ Min-Zeit 05:13 05:13 13:33 17:05 - 08:14 - - - - - - 05:08 05:13 08:14
Minimum _ 0,6 °C 0,6 °C 37 % 1012,5 hPa - 0,0 km/h (0 Bft) - - - - - - -1,7 °C 0,6 °C 0,0 km/h (0 Bft)
_ Max-Zeit 13:04 13:05 00:56 00:13 23:59 14:04 - - 16:25 14:01 12:51 11:21 10:26 13:04 13:40
Maximum _ 17,7 °C 17,7 °C 88 % 1020,9 hPa 0,0 mm 32,3 km/h
W (5 Bft)
- - 1 min 0,508 mm 4,2 UV-I 680 W/m² 6,6 °C 17,7 °C 51,5 km/h
W-NW (7 Bft)
Durchschnitt _ 9,8 °C 9,8 °C 66 % 1016,0 hPa #0,0 mm 9,3 km/h (2 Bft) W - #7:20 h #3,454 mm 2,6 UV-I 171 W/m² 3,1 °C 9,7 °C 14,1 km/h (3 Bft)